<?xml version="1.0" encoding="UTF-8" standalone="no" ?>
<gpx xmlns="http://www.topografix.com/GPX/1/1" creator="MapSource 6.16.3" version="1.1" xmlns:xsi="http://www.w3.org/2001/XMLSchema-instance" xsi:schemaLocation="http://www.topografix.com/GPX/1/1 http://www.topografix.com/GPX/1/1/gpx.xsd">

  <metadata>
    <link href="http://www.garmin.com">
      <text>Garmin International</text>
    </link>
    <time>2021-09-14T15:19:15Z</time>
    <bounds maxlat="53.678254745900631" maxlon="10.166398286819458" minlat="53.583659688010812" minlon="9.942956194281578"/>
  </metadata>

  <wpt lat="53.649231400340796" lon="10.166398286819458">
    <ele>16</ele>
    <name>Fischhaus Volksdorf</name>
    <cmt>Textpunkt</cmt>
    <desc>Textpunkt</desc>
    <sym>Flag, Blue</sym>
    <extensions>
      <gpxx:WaypointExtension xmlns:gpxx="http://www.garmin.com/xmlschemas/GpxExtensions/v3">
        <gpxx:DisplayMode>SymbolAndName</gpxx:DisplayMode>
      </gpxx:WaypointExtension>
    </extensions>
  </wpt>

  <trk>
    <name>2021-09-13 17:43:39</name>
    <extensions>
      <gpxx:TrackExtension xmlns:gpxx="http://www.garmin.com/xmlschemas/GpxExtensions/v3">
        <gpxx:DisplayColor>Magenta</gpxx:DisplayColor>
      </gpxx:TrackExtension>
    </extensions>
    <trkseg>
      <trkpt lat="53.627366870641708" lon="9.943498754873872">
        <ele>13.99</ele>
        <time>2021-09-13T07:37:27Z</time>
      </trkpt>
      <trkpt lat="53.627315573394299" lon="9.943707548081875">
        <ele>13.85</ele>
        <time>2021-09-13T07:37:57Z</time>
      </trkpt>
      <trkpt lat="53.627308448776603" lon="9.943707631900907">
        <ele>14.359999999999999</ele>
        <time>2021-09-13T07:38:49Z</time>
      </trkpt>
      <trkpt lat="53.627310376614332" lon="9.943777536973357">
        <ele>14</ele>
        <time>2021-09-13T07:39:08Z</time>
      </trkpt>
      <trkpt lat="53.627429734915495" lon="9.944008123129606">
        <ele>13.58</ele>
        <time>2021-09-13T07:39:19Z</time>
      </trkpt>
      <trkpt lat="53.62741481512785" lon="9.944079788401723">
        <ele>13.51</ele>
        <time>2021-09-13T07:39:21Z</time>
      </trkpt>
      <trkpt lat="53.627398470416665" lon="9.944101413711906">
        <ele>13.470000000000001</ele>
        <time>2021-09-13T07:39:22Z</time>
      </trkpt>
      <trkpt lat="53.627379108220339" lon="9.944115662947297">
        <ele>13.43</ele>
        <time>2021-09-13T07:39:23Z</time>
      </trkpt>
      <trkpt lat="53.627355135977268" lon="9.944131085649133">
        <ele>13.380000000000001</ele>
        <time>2021-09-13T07:39:24Z</time>
      </trkpt>
      <trkpt lat="53.627328481525183" lon="9.944152040407062">
        <ele>13.32</ele>
        <time>2021-09-13T07:39:25Z</time>
      </trkpt>
      <trkpt lat="53.627299899235368" lon="9.944176599383354">
        <ele>13.27</ele>
        <time>2021-09-13T07:39:26Z</time>
      </trkpt>
      <trkpt lat="53.62692279741168" lon="9.944555964320898">
        <ele>13.300000000000001</ele>
        <time>2021-09-13T07:39:39Z</time>
      </trkpt>
      <trkpt lat="53.626758260652423" lon="9.94495770893991">
        <ele>13.6</ele>
        <time>2021-09-13T07:39:47Z</time>
      </trkpt>
      <trkpt lat="53.626729594543576" lon="9.945010598748922">
        <ele>13.609999999999999</ele>
        <time>2021-09-13T07:39:48Z</time>
      </trkpt>
      <trkpt lat="53.626229865476489" lon="9.945999328047037">
        <ele>15.220000000000001</ele>
        <time>2021-09-13T07:40:07Z</time>
      </trkpt>
      <trkpt lat="53.625858211889863" lon="9.946565693244338">
        <ele>15.81</ele>
        <time>2021-09-13T07:40:21Z</time>
      </trkpt>
      <trkpt lat="53.625472309067845" lon="9.947095597162843">
        <ele>15.880000000000001</ele>
        <time>2021-09-13T07:40:34Z</time>
      </trkpt>
      <trkpt lat="53.62489546649158" lon="9.947875197976828">
        <ele>16.120000000000001</ele>
        <time>2021-09-13T07:40:53Z</time>
      </trkpt>
      <trkpt lat="53.624582905322313" lon="9.94836587458849">
        <ele>16.350000000000001</ele>
        <time>2021-09-13T07:41:05Z</time>
      </trkpt>
      <trkpt lat="53.624211000278592" lon="9.9489542003721">
        <ele>16.420000000000002</ele>
        <time>2021-09-13T07:41:18Z</time>
      </trkpt>
      <trkpt lat="53.623930206522346" lon="9.949316214770079">
        <ele>16.539999999999999</ele>
        <time>2021-09-13T07:41:28Z</time>
      </trkpt>
      <trkpt lat="53.623840268701315" lon="9.949461054056883">
        <ele>16.690000000000001</ele>
        <time>2021-09-13T07:41:32Z</time>
      </trkpt>
      <trkpt lat="53.623807914555073" lon="9.949482176452875">
        <ele>16.719999999999999</ele>
        <time>2021-09-13T07:41:33Z</time>
      </trkpt>
      <trkpt lat="53.623773129656911" lon="9.949491396546364">
        <ele>16.73</ele>
        <time>2021-09-13T07:41:34Z</time>
      </trkpt>
      <trkpt lat="53.623738512396812" lon="9.949486199766398">
        <ele>16.75</ele>
        <time>2021-09-13T07:41:35Z</time>
      </trkpt>
      <trkpt lat="53.623706409707665" lon="9.949469184502959">
        <ele>16.760000000000002</ele>
        <time>2021-09-13T07:41:36Z</time>
      </trkpt>
      <trkpt lat="53.623679000884295" lon="9.949444876983762">
        <ele>16.789999999999999</ele>
        <time>2021-09-13T07:41:37Z</time>
      </trkpt>
      <trkpt lat="53.623661063611507" lon="9.949408415704966">
        <ele>16.829999999999998</ele>
        <time>2021-09-13T07:41:38Z</time>
      </trkpt>
      <trkpt lat="53.623638097196817" lon="9.949369272217155">
        <ele>16.879999999999999</ele>
        <time>2021-09-13T07:41:39Z</time>
      </trkpt>
      <trkpt lat="53.623614627867937" lon="9.949331469833851">
        <ele>16.949999999999999</ele>
        <time>2021-09-13T07:41:40Z</time>
      </trkpt>
      <trkpt lat="53.623318579047918" lon="9.948927378281951">
        <ele>17.760000000000002</ele>
        <time>2021-09-13T07:41:53Z</time>
      </trkpt>
      <trkpt lat="53.623033594340086" lon="9.948685392737389">
        <ele>18.48</ele>
        <time>2021-09-13T07:42:05Z</time>
      </trkpt>
      <trkpt lat="53.622682392597198" lon="9.948415076360107">
        <ele>19.34</ele>
        <time>2021-09-13T07:42:19Z</time>
      </trkpt>
      <trkpt lat="53.622639812529087" lon="9.948396468535066">
        <ele>19.43</ele>
        <time>2021-09-13T07:42:21Z</time>
      </trkpt>
      <trkpt lat="53.622618857771158" lon="9.948397725820541">
        <ele>19.469999999999999</ele>
        <time>2021-09-13T07:42:22Z</time>
      </trkpt>
      <trkpt lat="53.622597316280007" lon="9.948402252048254">
        <ele>19.59</ele>
        <time>2021-09-13T07:42:27Z</time>
      </trkpt>
      <trkpt lat="53.622528836131096" lon="9.948452459648252">
        <ele>19.5</ele>
        <time>2021-09-13T07:42:54Z</time>
      </trkpt>
      <trkpt lat="53.622518191114068" lon="9.948478192090988">
        <ele>19.510000000000002</ele>
        <time>2021-09-13T07:42:55Z</time>
      </trkpt>
      <trkpt lat="53.622383577749133" lon="9.94887113571167">
        <ele>20.16</ele>
        <time>2021-09-13T07:43:07Z</time>
      </trkpt>
      <trkpt lat="53.622210491448641" lon="9.94926106184721">
        <ele>19.870000000000001</ele>
        <time>2021-09-13T07:43:17Z</time>
      </trkpt>
      <trkpt lat="53.622172605246305" lon="9.949309844523668">
        <ele>19.800000000000001</ele>
        <time>2021-09-13T07:43:19Z</time>
      </trkpt>
      <trkpt lat="53.622150393202901" lon="9.949311185628176">
        <ele>19.780000000000001</ele>
        <time>2021-09-13T07:43:20Z</time>
      </trkpt>
      <trkpt lat="53.622127175331116" lon="9.949314957484603">
        <ele>19.780000000000001</ele>
        <time>2021-09-13T07:43:21Z</time>
      </trkpt>
      <trkpt lat="53.622101610526443" lon="9.949313113465905">
        <ele>19.780000000000001</ele>
        <time>2021-09-13T07:43:22Z</time>
      </trkpt>
      <trkpt lat="53.622074369341135" lon="9.94929869659245">
        <ele>19.800000000000001</ele>
        <time>2021-09-13T07:43:23Z</time>
      </trkpt>
      <trkpt lat="53.622049642726779" lon="9.949276819825172">
        <ele>19.859999999999999</ele>
        <time>2021-09-13T07:43:24Z</time>
      </trkpt>
      <trkpt lat="53.621666422113776" lon="9.949163999408484">
        <ele>20.789999999999999</ele>
        <time>2021-09-13T07:43:37Z</time>
      </trkpt>
      <trkpt lat="53.621296444907784" lon="9.949101051315665">
        <ele>21.43</ele>
        <time>2021-09-13T07:43:51Z</time>
      </trkpt>
      <trkpt lat="53.621010789647698" lon="9.9491614010185">
        <ele>21.690000000000001</ele>
        <time>2021-09-13T07:44:03Z</time>
      </trkpt>
      <trkpt lat="53.620671574026346" lon="9.949121419340372">
        <ele>21.710000000000001</ele>
        <time>2021-09-13T07:44:14Z</time>
      </trkpt>
      <trkpt lat="53.620283994823694" lon="9.949080431833863">
        <ele>22.300000000000001</ele>
        <time>2021-09-13T07:44:26Z</time>
      </trkpt>
      <trkpt lat="53.619746128097177" lon="9.949109768494964">
        <ele>22.449999999999999</ele>
        <time>2021-09-13T07:44:40Z</time>
      </trkpt>
      <trkpt lat="53.619310017675161" lon="9.949102392420173">
        <ele>22.469999999999999</ele>
        <time>2021-09-13T07:44:51Z</time>
      </trkpt>
      <trkpt lat="53.618755387142301" lon="9.949024524539709">
        <ele>22.190000000000001</ele>
        <time>2021-09-13T07:45:05Z</time>
      </trkpt>
      <trkpt lat="53.618414076045156" lon="9.949039947241545">
        <ele>22.100000000000001</ele>
        <time>2021-09-13T07:45:15Z</time>
      </trkpt>
      <trkpt lat="53.618396557867527" lon="9.949071379378438">
        <ele>22.120000000000001</ele>
        <time>2021-09-13T07:45:16Z</time>
      </trkpt>
      <trkpt lat="53.618157925084233" lon="9.949831953272224">
        <ele>22.359999999999999</ele>
        <time>2021-09-13T07:45:32Z</time>
      </trkpt>
      <trkpt lat="53.618094054982066" lon="9.950247863307595">
        <ele>22.039999999999999</ele>
        <time>2021-09-13T07:45:40Z</time>
      </trkpt>
      <trkpt lat="53.618070920929313" lon="9.950269153341651">
        <ele>21.920000000000002</ele>
        <time>2021-09-13T07:45:41Z</time>
      </trkpt>
      <trkpt lat="53.618044769391418" lon="9.950269991531968">
        <ele>21.829999999999998</ele>
        <time>2021-09-13T07:45:42Z</time>
      </trkpt>
      <trkpt lat="53.618024149909616" lon="9.950251467525959">
        <ele>21.739999999999998</ele>
        <time>2021-09-13T07:45:43Z</time>
      </trkpt>
      <trkpt lat="53.618008056655526" lon="9.950225232169032">
        <ele>21.66</ele>
        <time>2021-09-13T07:45:44Z</time>
      </trkpt>
      <trkpt lat="53.617996154353023" lon="9.950201343744993">
        <ele>21.609999999999999</ele>
        <time>2021-09-13T07:45:45Z</time>
      </trkpt>
      <trkpt lat="53.617987437173724" lon="9.950182233005762">
        <ele>21.559999999999999</ele>
        <time>2021-09-13T07:45:46Z</time>
      </trkpt>
      <trkpt lat="53.617957346141338" lon="9.950146107003093">
        <ele>21.550000000000001</ele>
        <time>2021-09-13T07:45:51Z</time>
      </trkpt>
      <trkpt lat="53.617946030572057" lon="9.950130600482225">
        <ele>21.550000000000001</ele>
        <time>2021-09-13T07:45:52Z</time>
      </trkpt>
      <trkpt lat="53.617932116612792" lon="9.950107634067535">
        <ele>21.539999999999999</ele>
        <time>2021-09-13T07:45:53Z</time>
      </trkpt>
      <trkpt lat="53.617760203778744" lon="9.949682001024485">
        <ele>21.25</ele>
        <time>2021-09-13T07:46:05Z</time>
      </trkpt>
      <trkpt lat="53.61750204116106" lon="9.949424425140023">
        <ele>21.300000000000001</ele>
        <time>2021-09-13T07:46:17Z</time>
      </trkpt>
      <trkpt lat="53.617444708943367" lon="9.949363740161061">
        <ele>21.41</ele>
        <time>2021-09-13T07:46:24Z</time>
      </trkpt>
      <trkpt lat="53.617457868531346" lon="9.949396261945367">
        <ele>21.440000000000001</ele>
        <time>2021-09-13T08:08:53Z</time>
      </trkpt>
      <trkpt lat="53.617732375860214" lon="9.949676133692265">
        <ele>19.190000000000001</ele>
        <time>2021-09-13T08:09:08Z</time>
      </trkpt>
      <trkpt lat="53.617784343659878" lon="9.949755594134331">
        <ele>19.149999999999999</ele>
        <time>2021-09-13T08:09:12Z</time>
      </trkpt>
      <trkpt lat="53.617785098031163" lon="9.949778392910957">
        <ele>19.09</ele>
        <time>2021-09-13T08:09:13Z</time>
      </trkpt>
      <trkpt lat="53.617780236527324" lon="9.949796497821808">
        <ele>19.039999999999999</ele>
        <time>2021-09-13T08:09:17Z</time>
      </trkpt>
      <trkpt lat="53.617780320346355" lon="9.949874617159367">
        <ele>18.899999999999999</ele>
        <time>2021-09-13T08:09:56Z</time>
      </trkpt>
      <trkpt lat="53.617790210992098" lon="9.949898840859532">
        <ele>18.890000000000001</ele>
        <time>2021-09-13T08:09:57Z</time>
      </trkpt>
      <trkpt lat="53.61780202947557" lon="9.949928680434823">
        <ele>18.890000000000001</ele>
        <time>2021-09-13T08:09:58Z</time>
      </trkpt>
      <trkpt lat="53.617939911782742" lon="9.950214754790068">
        <ele>19.18</ele>
        <time>2021-09-13T08:10:09Z</time>
      </trkpt>
      <trkpt lat="53.617932703346014" lon="9.950234619900584">
        <ele>19.23</ele>
        <time>2021-09-13T08:10:10Z</time>
      </trkpt>
      <trkpt lat="53.617907138541341" lon="9.950266135856509">
        <ele>19.199999999999999</ele>
        <time>2021-09-13T08:10:16Z</time>
      </trkpt>
      <trkpt lat="53.617854584008455" lon="9.950341237708926">
        <ele>18.84</ele>
        <time>2021-09-13T08:10:30Z</time>
      </trkpt>
      <trkpt lat="53.617836982011795" lon="9.950373005121946">
        <ele>18.84</ele>
        <time>2021-09-13T08:10:31Z</time>
      </trkpt>
      <trkpt lat="53.61766573973" lon="9.950680453330278">
        <ele>18.5</ele>
        <time>2021-09-13T08:10:40Z</time>
      </trkpt>
      <trkpt lat="53.617675546556711" lon="9.950717333704233">
        <ele>18.469999999999999</ele>
        <time>2021-09-13T08:10:41Z</time>
      </trkpt>
      <trkpt lat="53.617695495486259" lon="9.950740048661828">
        <ele>18.449999999999999</ele>
        <time>2021-09-13T08:10:42Z</time>
      </trkpt>
      <trkpt lat="53.617719886824489" lon="9.950754381716251">
        <ele>18.440000000000001</ele>
        <time>2021-09-13T08:10:43Z</time>
      </trkpt>
      <trkpt lat="53.617745619267225" lon="9.950764188542962">
        <ele>18.440000000000001</ele>
        <time>2021-09-13T08:10:44Z</time>
      </trkpt>
      <trkpt lat="53.617908144369721" lon="9.951139530166984">
        <ele>18.82</ele>
        <time>2021-09-13T08:10:55Z</time>
      </trkpt>
      <trkpt lat="53.618009984493256" lon="9.951771693304181">
        <ele>18.57</ele>
        <time>2021-09-13T08:11:08Z</time>
      </trkpt>
      <trkpt lat="53.618159936740994" lon="9.952186597511172">
        <ele>18.329999999999998</ele>
        <time>2021-09-13T08:11:20Z</time>
      </trkpt>
      <trkpt lat="53.618161529302597" lon="9.952188860625029">
        <ele>18.329999999999998</ele>
        <time>2021-09-13T08:11:22Z</time>
      </trkpt>
      <trkpt lat="53.61820176243782" lon="9.952295478433371">
        <ele>18.550000000000001</ele>
        <time>2021-09-13T08:12:04Z</time>
      </trkpt>
      <trkpt lat="53.618210144340992" lon="9.952323054894805">
        <ele>18.550000000000001</ele>
        <time>2021-09-13T08:12:05Z</time>
      </trkpt>
      <trkpt lat="53.618216346949339" lon="9.952353062108159">
        <ele>18.48</ele>
        <time>2021-09-13T08:12:06Z</time>
      </trkpt>
      <trkpt lat="53.618218023329973" lon="9.952380638569593">
        <ele>18.219999999999999</ele>
        <time>2021-09-13T08:12:07Z</time>
      </trkpt>
      <trkpt lat="53.618218945339322" lon="9.952404778450728">
        <ele>17.879999999999999</ele>
        <time>2021-09-13T08:12:11Z</time>
      </trkpt>
      <trkpt lat="53.618253730237484" lon="9.952597478404641">
        <ele>18.120000000000001</ele>
        <time>2021-09-13T08:19:01Z</time>
      </trkpt>
      <trkpt lat="53.618260184302926" lon="9.952625222504139">
        <ele>18.120000000000001</ele>
        <time>2021-09-13T08:19:02Z</time>
      </trkpt>
      <trkpt lat="53.618273427709937" lon="9.952661851420999">
        <ele>18.120000000000001</ele>
        <time>2021-09-13T08:19:03Z</time>
      </trkpt>
      <trkpt lat="53.618400329723954" lon="9.953029900789261">
        <ele>16.780000000000001</ele>
        <time>2021-09-13T08:19:12Z</time>
      </trkpt>
      <trkpt lat="53.618419775739312" lon="9.953077845275402">
        <ele>16.760000000000002</ele>
        <time>2021-09-13T08:19:13Z</time>
      </trkpt>
      <trkpt lat="53.618659749627113" lon="9.953512279316783">
        <ele>16.390000000000001</ele>
        <time>2021-09-13T08:19:22Z</time>
      </trkpt>
      <trkpt lat="53.618689505383372" lon="9.953560307621956">
        <ele>16.309999999999999</ele>
        <time>2021-09-13T08:19:23Z</time>
      </trkpt>
      <trkpt lat="53.61872018314898" lon="9.953609677031636">
        <ele>16.27</ele>
        <time>2021-09-13T08:19:24Z</time>
      </trkpt>
      <trkpt lat="53.61936860717833" lon="9.954231781885028">
        <ele>15.5</ele>
        <time>2021-09-13T08:19:42Z</time>
      </trkpt>
      <trkpt lat="53.619488216936588" lon="9.954314008355141">
        <ele>15.390000000000001</ele>
        <time>2021-09-13T08:19:45Z</time>
      </trkpt>
      <trkpt lat="53.620222471654415" lon="9.954694379121065">
        <ele>15.35</ele>
        <time>2021-09-13T08:20:03Z</time>
      </trkpt>
      <trkpt lat="53.620249377563596" lon="9.954747017472982">
        <ele>15.34</ele>
        <time>2021-09-13T08:20:04Z</time>
      </trkpt>
      <trkpt lat="53.620262537151575" lon="9.954810384660959">
        <ele>15.289999999999999</ele>
        <time>2021-09-13T08:20:05Z</time>
      </trkpt>
      <trkpt lat="53.620263459160924" lon="9.954876685515046">
        <ele>15.24</ele>
        <time>2021-09-13T08:20:06Z</time>
      </trkpt>
      <trkpt lat="53.62025692127645" lon="9.954945836216211">
        <ele>15.18</ele>
        <time>2021-09-13T08:20:07Z</time>
      </trkpt>
      <trkpt lat="53.620247114449739" lon="9.955016663298011">
        <ele>15.119999999999999</ele>
        <time>2021-09-13T08:20:08Z</time>
      </trkpt>
      <trkpt lat="53.620237307623029" lon="9.955084305256605">
        <ele>15.08</ele>
        <time>2021-09-13T08:20:09Z</time>
      </trkpt>
      <trkpt lat="53.620231272652745" lon="9.955148426815867">
        <ele>15.050000000000001</ele>
        <time>2021-09-13T08:20:10Z</time>
      </trkpt>
      <trkpt lat="53.62022565677762" lon="9.955213302746415">
        <ele>14.960000000000001</ele>
        <time>2021-09-13T08:20:11Z</time>
      </trkpt>
      <trkpt lat="53.62012691795826" lon="9.956414848566055">
        <ele>13.93</ele>
        <time>2021-09-13T08:20:26Z</time>
      </trkpt>
      <trkpt lat="53.620219537988305" lon="9.957905737683177">
        <ele>12.119999999999999</ele>
        <time>2021-09-13T08:20:43Z</time>
      </trkpt>
      <trkpt lat="53.62045775167644" lon="9.95927601121366">
        <ele>10.970000000000001</ele>
        <time>2021-09-13T08:21:00Z</time>
      </trkpt>
      <trkpt lat="53.620453476905823" lon="9.959341138601303">
        <ele>10.92</ele>
        <time>2021-09-13T08:21:01Z</time>
      </trkpt>
      <trkpt lat="53.620432689785957" lon="9.95939520187676">
        <ele>10.869999999999999</ele>
        <time>2021-09-13T08:21:02Z</time>
      </trkpt>
      <trkpt lat="53.620401006191969" lon="9.959436440840364">
        <ele>10.81</ele>
        <time>2021-09-13T08:21:03Z</time>
      </trkpt>
      <trkpt lat="53.620364544913173" lon="9.959472315385938">
        <ele>10.75</ele>
        <time>2021-09-13T08:21:04Z</time>
      </trkpt>
      <trkpt lat="53.62032875418663" lon="9.959503328427672">
        <ele>10.720000000000001</ele>
        <time>2021-09-13T08:21:05Z</time>
      </trkpt>
      <trkpt lat="53.619664404541254" lon="9.960132222622633">
        <ele>10.34</ele>
        <time>2021-09-13T08:21:22Z</time>
      </trkpt>
      <trkpt lat="53.619541190564632" lon="9.960270104929805">
        <ele>10.17</ele>
        <time>2021-09-13T08:21:27Z</time>
      </trkpt>
      <trkpt lat="53.619538173079491" lon="9.960284354165196">
        <ele>10.16</ele>
        <time>2021-09-13T08:21:28Z</time>
      </trkpt>
      <trkpt lat="53.619538508355618" lon="9.960300531238318">
        <ele>10.140000000000001</ele>
        <time>2021-09-13T08:21:29Z</time>
      </trkpt>
      <trkpt lat="53.619540520012379" lon="9.960318887606263">
        <ele>10.119999999999999</ele>
        <time>2021-09-13T08:21:30Z</time>
      </trkpt>
      <trkpt lat="53.619545381516218" lon="9.960339171811938">
        <ele>10.07</ele>
        <time>2021-09-13T08:21:31Z</time>
      </trkpt>
      <trkpt lat="53.619552338495851" lon="9.960360378026962">
        <ele>9.949999999999999</ele>
        <time>2021-09-13T08:21:32Z</time>
      </trkpt>
      <trkpt lat="53.619645461440086" lon="9.960865471512079">
        <ele>9.01</ele>
        <time>2021-09-13T08:21:44Z</time>
      </trkpt>
      <trkpt lat="53.619770687073469" lon="9.96141666546464">
        <ele>8.42</ele>
        <time>2021-09-13T08:21:54Z</time>
      </trkpt>
      <trkpt lat="53.61977269873023" lon="9.96147383004427">
        <ele>8.390000000000001</ele>
        <time>2021-09-13T08:21:55Z</time>
      </trkpt>
      <trkpt lat="53.619767250493169" lon="9.961530575528741">
        <ele>8.369999999999999</ele>
        <time>2021-09-13T08:21:56Z</time>
      </trkpt>
      <trkpt lat="53.619752917438745" lon="9.961582962423563">
        <ele>8.35</ele>
        <time>2021-09-13T08:21:57Z</time>
      </trkpt>
      <trkpt lat="53.619733722880483" lon="9.961638785898686">
        <ele>8.289999999999999</ele>
        <time>2021-09-13T08:21:58Z</time>
      </trkpt>
      <trkpt lat="53.619735399261117" lon="9.962213700637221">
        <ele>7.82</ele>
        <time>2021-09-13T08:22:09Z</time>
      </trkpt>
      <trkpt lat="53.620120966807008" lon="9.96305943466723">
        <ele>7.5</ele>
        <time>2021-09-13T08:22:27Z</time>
      </trkpt>
      <trkpt lat="53.620644751936197" lon="9.964110190048814">
        <ele>6.73</ele>
        <time>2021-09-13T08:22:46Z</time>
      </trkpt>
      <trkpt lat="53.621095446869731" lon="9.964936226606369">
        <ele>6.35</ele>
        <time>2021-09-13T08:23:02Z</time>
      </trkpt>
      <trkpt lat="53.621628284454346" lon="9.966103071346879">
        <ele>5.43</ele>
        <time>2021-09-13T08:23:24Z</time>
      </trkpt>
      <trkpt lat="53.622134383767843" lon="9.967207303270698">
        <ele>5.17</ele>
        <time>2021-09-13T08:23:45Z</time>
      </trkpt>
      <trkpt lat="53.622563704848289" lon="9.967565713450313">
        <ele>5.01</ele>
        <time>2021-09-13T08:23:58Z</time>
      </trkpt>
      <trkpt lat="53.622886072844267" lon="9.968282114714384">
        <ele>4.68</ele>
        <time>2021-09-13T08:24:12Z</time>
      </trkpt>
      <trkpt lat="53.623153287917376" lon="9.96902123093605">
        <ele>4.35</ele>
        <time>2021-09-13T08:24:25Z</time>
      </trkpt>
      <trkpt lat="53.623683610931039" lon="9.970171898603439">
        <ele>4.78</ele>
        <time>2021-09-13T08:24:47Z</time>
      </trkpt>
      <trkpt lat="53.623827276751399" lon="9.97035713866353">
        <ele>4.77</ele>
        <time>2021-09-13T08:24:52Z</time>
      </trkpt>
      <trkpt lat="53.623834149912" lon="9.970411704853177">
        <ele>4.77</ele>
        <time>2021-09-13T08:24:53Z</time>
      </trkpt>
      <trkpt lat="53.623849069699645" lon="9.970467863604426">
        <ele>4.75</ele>
        <time>2021-09-13T08:24:54Z</time>
      </trkpt>
      <trkpt lat="53.623870862647891" lon="9.970521591603756">
        <ele>4.72</ele>
        <time>2021-09-13T08:24:55Z</time>
      </trkpt>
      <trkpt lat="53.62389525398612" lon="9.970574146136642">
        <ele>4.62</ele>
        <time>2021-09-13T08:24:56Z</time>
      </trkpt>
      <trkpt lat="53.624329520389438" lon="9.970999862998724">
        <ele>4.46</ele>
        <time>2021-09-13T08:25:10Z</time>
      </trkpt>
      <trkpt lat="53.624695977196097" lon="9.971321979537606">
        <ele>4.13</ele>
        <time>2021-09-13T08:25:22Z</time>
      </trkpt>
      <trkpt lat="53.625029325485229" lon="9.972001919522882">
        <ele>3.9</ele>
        <time>2021-09-13T08:25:36Z</time>
      </trkpt>
      <trkpt lat="53.625280363485217" lon="9.972514472901821">
        <ele>4.28</ele>
        <time>2021-09-13T08:25:48Z</time>
      </trkpt>
      <trkpt lat="53.625648412853479" lon="9.973330534994602">
        <ele>4.59</ele>
        <time>2021-09-13T08:26:04Z</time>
      </trkpt>
      <trkpt lat="53.625996597111225" lon="9.974308116361499">
        <ele>4.71</ele>
        <time>2021-09-13T08:26:22Z</time>
      </trkpt>
      <trkpt lat="53.626284264028072" lon="9.975168770179153">
        <ele>5.43</ele>
        <time>2021-09-13T08:26:38Z</time>
      </trkpt>
      <trkpt lat="53.626353582367301" lon="9.975345209240913">
        <ele>5.37</ele>
        <time>2021-09-13T08:26:46Z</time>
      </trkpt>
      <trkpt lat="53.626390546560287" lon="9.975471273064613">
        <ele>5.23</ele>
        <time>2021-09-13T08:27:07Z</time>
      </trkpt>
      <trkpt lat="53.626396330073476" lon="9.975493904203177">
        <ele>5.21</ele>
        <time>2021-09-13T08:27:08Z</time>
      </trkpt>
      <trkpt lat="53.626404460519552" lon="9.975519804283977">
        <ele>5.18</ele>
        <time>2021-09-13T08:27:09Z</time>
      </trkpt>
      <trkpt lat="53.626545863226056" lon="9.975890787318349">
        <ele>5.02</ele>
        <time>2021-09-13T08:27:23Z</time>
      </trkpt>
      <trkpt lat="53.626716351136565" lon="9.976362269371748">
        <ele>5.01</ele>
        <time>2021-09-13T08:27:39Z</time>
      </trkpt>
      <trkpt lat="53.62696043215692" lon="9.976918660104275">
        <ele>5.1</ele>
        <time>2021-09-13T08:27:55Z</time>
      </trkpt>
      <trkpt lat="53.627352453768253" lon="9.977625422179699">
        <ele>4.62</ele>
        <time>2021-09-13T08:28:11Z</time>
      </trkpt>
      <trkpt lat="53.627827456220984" lon="9.978328160941601">
        <ele>4.4</ele>
        <time>2021-09-13T08:28:27Z</time>
      </trkpt>
      <trkpt lat="53.628376973792911" lon="9.978924281895161">
        <ele>4.69</ele>
        <time>2021-09-13T08:28:44Z</time>
      </trkpt>
      <trkpt lat="53.628747118636966" lon="9.979107091203332">
        <ele>5.05</ele>
        <time>2021-09-13T08:28:56Z</time>
      </trkpt>
      <trkpt lat="53.629118017852306" lon="9.979410767555237">
        <ele>4.7</ele>
        <time>2021-09-13T08:29:07Z</time>
      </trkpt>
      <trkpt lat="53.629542896524072" lon="9.979651579633355">
        <ele>4.79</ele>
        <time>2021-09-13T08:29:20Z</time>
      </trkpt>
      <trkpt lat="53.6299645062536" lon="9.979897169396281">
        <ele>4.83</ele>
        <time>2021-09-13T08:29:33Z</time>
      </trkpt>
      <trkpt lat="53.630309086292982" lon="9.980097161605954">
        <ele>4.94</ele>
        <time>2021-09-13T08:29:44Z</time>
      </trkpt>
      <trkpt lat="53.630842594429851" lon="9.980386421084404">
        <ele>5.15</ele>
        <time>2021-09-13T08:29:58Z</time>
      </trkpt>
      <trkpt lat="53.631389094516635" lon="9.98063737526536">
        <ele>5.42</ele>
        <time>2021-09-13T08:30:13Z</time>
      </trkpt>
      <trkpt lat="53.631806261837482" lon="9.980742316693068">
        <ele>6</ele>
        <time>2021-09-13T08:30:25Z</time>
      </trkpt>
      <trkpt lat="53.632181435823441" lon="9.980845162644982">
        <ele>6.36</ele>
        <time>2021-09-13T08:30:36Z</time>
      </trkpt>
      <trkpt lat="53.632635483518243" lon="9.980998551473022">
        <ele>6.66</ele>
        <time>2021-09-13T08:30:49Z</time>
      </trkpt>
      <trkpt lat="53.633048795163631" lon="9.98108983039856">
        <ele>6.32</ele>
        <time>2021-09-13T08:31:01Z</time>
      </trkpt>
      <trkpt lat="53.633366050198674" lon="9.981061918660998">
        <ele>6.1</ele>
        <time>2021-09-13T08:31:10Z</time>
      </trkpt>
      <trkpt lat="53.633756311610341" lon="9.980996455997229">
        <ele>6.51</ele>
        <time>2021-09-13T08:31:22Z</time>
      </trkpt>
      <trkpt lat="53.63420088775456" lon="9.980858908966184">
        <ele>6.53</ele>
        <time>2021-09-13T08:31:32Z</time>
      </trkpt>
      <trkpt lat="53.63466658629477" lon="9.980688923969865">
        <ele>8.029999999999999</ele>
        <time>2021-09-13T08:31:45Z</time>
      </trkpt>
      <trkpt lat="53.634924916550517" lon="9.981026044115424">
        <ele>8.43</ele>
        <time>2021-09-13T08:31:56Z</time>
      </trkpt>
      <trkpt lat="53.635169249027967" lon="9.981332654133439">
        <ele>8.449999999999999</ele>
        <time>2021-09-13T08:32:06Z</time>
      </trkpt>
      <trkpt lat="53.635204117745161" lon="9.981336761265993">
        <ele>8.49</ele>
        <time>2021-09-13T08:32:07Z</time>
      </trkpt>
      <trkpt lat="53.635238064453006" lon="9.981324691325426">
        <ele>8.52</ele>
        <time>2021-09-13T08:32:08Z</time>
      </trkpt>
      <trkpt lat="53.635604605078697" lon="9.981190413236618">
        <ele>8.449999999999999</ele>
        <time>2021-09-13T08:32:20Z</time>
      </trkpt>
      <trkpt lat="53.635988747701049" lon="9.981220001354814">
        <ele>8.220000000000001</ele>
        <time>2021-09-13T08:32:33Z</time>
      </trkpt>
      <trkpt lat="53.636338859796524" lon="9.981147581711412">
        <ele>7.95</ele>
        <time>2021-09-13T08:32:44Z</time>
      </trkpt>
      <trkpt lat="53.636783771216869" lon="9.981095613911748">
        <ele>7.97</ele>
        <time>2021-09-13T08:32:58Z</time>
      </trkpt>
      <trkpt lat="53.637191466987133" lon="9.981164764612913">
        <ele>8.529999999999999</ele>
        <time>2021-09-13T08:33:11Z</time>
      </trkpt>
      <trkpt lat="53.637574184685946" lon="9.981255540624261">
        <ele>9.48</ele>
        <time>2021-09-13T08:33:24Z</time>
      </trkpt>
      <trkpt lat="53.637686669826508" lon="9.981268364936113">
        <ele>9.560000000000001</ele>
        <time>2021-09-13T08:33:29Z</time>
      </trkpt>
      <trkpt lat="53.637696392834187" lon="9.981295941397548">
        <ele>9.560000000000001</ele>
        <time>2021-09-13T08:33:30Z</time>
      </trkpt>
      <trkpt lat="53.637702763080597" lon="9.98132343403995">
        <ele>9.550000000000001</ele>
        <time>2021-09-13T08:33:31Z</time>
      </trkpt>
      <trkpt lat="53.63770485855639" lon="9.981346232816577">
        <ele>9.470000000000001</ele>
        <time>2021-09-13T08:33:32Z</time>
      </trkpt>
      <trkpt lat="53.63770586438477" lon="9.981366852298379">
        <ele>9.34</ele>
        <time>2021-09-13T08:33:33Z</time>
      </trkpt>
      <trkpt lat="53.637707624584436" lon="9.981391495093703">
        <ele>9.25</ele>
        <time>2021-09-13T08:33:34Z</time>
      </trkpt>
      <trkpt lat="53.637712569907308" lon="9.981416892260313">
        <ele>9.199999999999999</ele>
        <time>2021-09-13T08:33:35Z</time>
      </trkpt>
      <trkpt lat="53.637719275429845" lon="9.981446228921413">
        <ele>9.19</ele>
        <time>2021-09-13T08:33:36Z</time>
      </trkpt>
      <trkpt lat="53.637723466381431" lon="9.981477744877338">
        <ele>9.19</ele>
        <time>2021-09-13T08:33:37Z</time>
      </trkpt>
      <trkpt lat="53.637736206874251" lon="9.982077637687326">
        <ele>8.789999999999999</ele>
        <time>2021-09-13T08:33:49Z</time>
      </trkpt>
      <trkpt lat="53.637786498293281" lon="9.982362538576126">
        <ele>8.58</ele>
        <time>2021-09-13T08:33:56Z</time>
      </trkpt>
      <trkpt lat="53.637805692851543" lon="9.982381230220199">
        <ele>8.57</ele>
        <time>2021-09-13T08:33:57Z</time>
      </trkpt>
      <trkpt lat="53.637847350910306" lon="9.982415093109012">
        <ele>8.5</ele>
        <time>2021-09-13T08:33:59Z</time>
      </trkpt>
      <trkpt lat="53.638238785788417" lon="9.982450883835554">
        <ele>8.48</ele>
        <time>2021-09-13T08:34:13Z</time>
      </trkpt>
      <trkpt lat="53.638529721647501" lon="9.982507126405835">
        <ele>8.789999999999999</ele>
        <time>2021-09-13T08:34:26Z</time>
      </trkpt>
      <trkpt lat="53.638551011681557" lon="9.982513077557087">
        <ele>8.800000000000001</ele>
        <time>2021-09-13T08:34:27Z</time>
      </trkpt>
      <trkpt lat="53.638646062463522" lon="9.982483824715018">
        <ele>8.82</ele>
        <time>2021-09-13T08:34:32Z</time>
      </trkpt>
      <trkpt lat="53.638730384409428" lon="9.982407130300999">
        <ele>8.74</ele>
        <time>2021-09-13T08:34:36Z</time>
      </trkpt>
      <trkpt lat="53.639125674962997" lon="9.982278719544411">
        <ele>9.42</ele>
        <time>2021-09-13T08:34:49Z</time>
      </trkpt>
      <trkpt lat="53.639553990215063" lon="9.982196995988488">
        <ele>9.49</ele>
        <time>2021-09-13T08:35:01Z</time>
      </trkpt>
      <trkpt lat="53.640008457005024" lon="9.982110494747758">
        <ele>9.859999999999999</ele>
        <time>2021-09-13T08:35:15Z</time>
      </trkpt>
      <trkpt lat="53.640246000140905" lon="9.982025837525725">
        <ele>9.83</ele>
        <time>2021-09-13T08:35:22Z</time>
      </trkpt>
      <trkpt lat="53.640277935191989" lon="9.9820426851511">
        <ele>9.82</ele>
        <time>2021-09-13T08:35:23Z</time>
      </trkpt>
      <trkpt lat="53.640711782500148" lon="9.982136730104685">
        <ele>9.619999999999999</ele>
        <time>2021-09-13T08:35:35Z</time>
      </trkpt>
      <trkpt lat="53.641206314787269" lon="9.982032207772136">
        <ele>10.15</ele>
        <time>2021-09-13T08:35:49Z</time>
      </trkpt>
      <trkpt lat="53.64179908297956" lon="9.982038578018546">
        <ele>10.49</ele>
        <time>2021-09-13T08:36:05Z</time>
      </trkpt>
      <trkpt lat="53.642396042123437" lon="9.981866078451276">
        <ele>10.449999999999999</ele>
        <time>2021-09-13T08:36:21Z</time>
      </trkpt>
      <trkpt lat="53.643033402040601" lon="9.981773626059294">
        <ele>10.4</ele>
        <time>2021-09-13T08:36:38Z</time>
      </trkpt>
      <trkpt lat="53.643464399501681" lon="9.981431141495705">
        <ele>10.35</ele>
        <time>2021-09-13T08:36:51Z</time>
      </trkpt>
      <trkpt lat="53.643810404464602" lon="9.981376491487026">
        <ele>10.65</ele>
        <time>2021-09-13T08:37:02Z</time>
      </trkpt>
      <trkpt lat="53.643908472731709" lon="9.980983212590218">
        <ele>11.17</ele>
        <time>2021-09-13T08:37:11Z</time>
      </trkpt>
      <trkpt lat="53.64430527202785" lon="9.98059680685401">
        <ele>12.82</ele>
        <time>2021-09-13T08:37:26Z</time>
      </trkpt>
      <trkpt lat="53.644830146804452" lon="9.979957016184926">
        <ele>14.57</ele>
        <time>2021-09-13T08:37:46Z</time>
      </trkpt>
      <trkpt lat="53.645489048212767" lon="9.979504980146885">
        <ele>13.68</ele>
        <time>2021-09-13T08:38:05Z</time>
      </trkpt>
      <trkpt lat="53.646017946302891" lon="9.97884021140635">
        <ele>12.58</ele>
        <time>2021-09-13T08:38:20Z</time>
      </trkpt>
      <trkpt lat="53.646417846903205" lon="9.978341655805707">
        <ele>12.199999999999999</ele>
        <time>2021-09-13T08:38:34Z</time>
      </trkpt>
      <trkpt lat="53.646315252408385" lon="9.977744612842798">
        <ele>12.109999999999999</ele>
        <time>2021-09-13T08:38:45Z</time>
      </trkpt>
      <trkpt lat="53.646027753129601" lon="9.976791590452194">
        <ele>12.029999999999999</ele>
        <time>2021-09-13T08:39:02Z</time>
      </trkpt>
      <trkpt lat="53.645836897194386" lon="9.976180465891957">
        <ele>11.91</ele>
        <time>2021-09-13T08:39:15Z</time>
      </trkpt>
      <trkpt lat="53.64582197740674" lon="9.976099161431193">
        <ele>12</ele>
        <time>2021-09-13T08:39:18Z</time>
      </trkpt>
      <trkpt lat="53.645824240520597" lon="9.976079380139709">
        <ele>12.02</ele>
        <time>2021-09-13T08:39:19Z</time>
      </trkpt>
      <trkpt lat="53.64583077840507" lon="9.976061275228858">
        <ele>12.029999999999999</ele>
        <time>2021-09-13T08:39:20Z</time>
      </trkpt>
      <trkpt lat="53.645842429250479" lon="9.976054569706321">
        <ele>12.029999999999999</ele>
        <time>2021-09-13T08:39:21Z</time>
      </trkpt>
      <trkpt lat="53.645854247733951" lon="9.976059682667255">
        <ele>12.01</ele>
        <time>2021-09-13T08:39:22Z</time>
      </trkpt>
      <trkpt lat="53.645866066217422" lon="9.976079212501645">
        <ele>11.98</ele>
        <time>2021-09-13T08:39:23Z</time>
      </trkpt>
      <trkpt lat="53.645877381786704" lon="9.97611022554338">
        <ele>11.949999999999999</ele>
        <time>2021-09-13T08:39:24Z</time>
      </trkpt>
      <trkpt lat="53.646152308210731" lon="9.976935340091586">
        <ele>10.6</ele>
        <time>2021-09-13T08:39:39Z</time>
      </trkpt>
      <trkpt lat="53.646585484966636" lon="9.978341991081834">
        <ele>8.039999999999999</ele>
        <time>2021-09-13T08:39:55Z</time>
      </trkpt>
      <trkpt lat="53.646927466616035" lon="9.979668259620667">
        <ele>5.98</ele>
        <time>2021-09-13T08:40:10Z</time>
      </trkpt>
      <trkpt lat="53.646913804113865" lon="9.979729531332851">
        <ele>5.9</ele>
        <time>2021-09-13T08:40:11Z</time>
      </trkpt>
      <trkpt lat="53.646935597062111" lon="9.979804130271077">
        <ele>5.8</ele>
        <time>2021-09-13T08:40:12Z</time>
      </trkpt>
      <trkpt lat="53.646924030035734" lon="9.979859450832009">
        <ele>5.68</ele>
        <time>2021-09-13T08:40:13Z</time>
      </trkpt>
      <trkpt lat="53.646966442465782" lon="9.979896079748869">
        <ele>5.59</ele>
        <time>2021-09-13T08:40:14Z</time>
      </trkpt>
      <trkpt lat="53.646978680044413" lon="9.979927930980921">
        <ele>5.52</ele>
        <time>2021-09-13T08:40:15Z</time>
      </trkpt>
      <trkpt lat="53.647300880402327" lon="9.981756107881665">
        <ele>5.44</ele>
        <time>2021-09-13T08:40:47Z</time>
      </trkpt>
      <trkpt lat="53.648620527237654" lon="9.985381616279483">
        <ele>6.54</ele>
        <time>2021-09-13T08:41:37Z</time>
      </trkpt>
      <trkpt lat="53.648545844480395" lon="9.98588914051652">
        <ele>8.140000000000001</ele>
        <time>2021-09-13T08:41:49Z</time>
      </trkpt>
      <trkpt lat="53.648254573345184" lon="9.986009756103158">
        <ele>9.58</ele>
        <time>2021-09-13T08:42:01Z</time>
      </trkpt>
      <trkpt lat="53.648204952478409" lon="9.98555202037096">
        <ele>10.16</ele>
        <time>2021-09-13T08:42:12Z</time>
      </trkpt>
      <trkpt lat="53.64850209094584" lon="9.985437272116542">
        <ele>11.19</ele>
        <time>2021-09-13T08:42:24Z</time>
      </trkpt>
      <trkpt lat="53.648799816146493" lon="9.985825940966606">
        <ele>11.76</ele>
        <time>2021-09-13T08:42:36Z</time>
      </trkpt>
      <trkpt lat="53.648818675428629" lon="9.985890565440059">
        <ele>11.59</ele>
        <time>2021-09-13T08:42:37Z</time>
      </trkpt>
      <trkpt lat="53.648859411478043" lon="9.986015874892473">
        <ele>11.15</ele>
        <time>2021-09-13T08:42:39Z</time>
      </trkpt>
      <trkpt lat="53.649142971262336" lon="9.98700762167573">
        <ele>10.43</ele>
        <time>2021-09-13T08:42:53Z</time>
      </trkpt>
      <trkpt lat="53.649335922673345" lon="9.98784463852644">
        <ele>10.33</ele>
        <time>2021-09-13T08:43:08Z</time>
      </trkpt>
      <trkpt lat="53.649353692308068" lon="9.98787053860724">
        <ele>10.31</ele>
        <time>2021-09-13T08:43:10Z</time>
      </trkpt>
      <trkpt lat="53.6496352404356" lon="9.987877830862999">
        <ele>10.25</ele>
        <time>2021-09-13T08:43:23Z</time>
      </trkpt>
      <trkpt lat="53.649640521034598" lon="9.987986963242292">
        <ele>10.300000000000001</ele>
        <time>2021-09-13T08:43:26Z</time>
      </trkpt>
      <trkpt lat="53.649621661752462" lon="9.988280078396201">
        <ele>10.34</ele>
        <time>2021-09-13T08:43:32Z</time>
      </trkpt>
      <trkpt lat="53.649697015061975" lon="9.988391306251288">
        <ele>10.17</ele>
        <time>2021-09-13T08:43:38Z</time>
      </trkpt>
      <trkpt lat="53.649712102487683" lon="9.988413350656629">
        <ele>10.09</ele>
        <time>2021-09-13T08:43:39Z</time>
      </trkpt>
      <trkpt lat="53.649729285389185" lon="9.988441430032253">
        <ele>10.029999999999999</ele>
        <time>2021-09-13T08:43:40Z</time>
      </trkpt>
      <trkpt lat="53.64974906668067" lon="9.988476382568479">
        <ele>9.99</ele>
        <time>2021-09-13T08:43:41Z</time>
      </trkpt>
      <trkpt lat="53.649770356714725" lon="9.988512760028243">
        <ele>9.970000000000001</ele>
        <time>2021-09-13T08:43:42Z</time>
      </trkpt>
      <trkpt lat="53.650055257603526" lon="9.988888772204518">
        <ele>9.76</ele>
        <time>2021-09-13T08:43:54Z</time>
      </trkpt>
      <trkpt lat="53.650612737983465" lon="9.989545159041882">
        <ele>9.34</ele>
        <time>2021-09-13T08:44:08Z</time>
      </trkpt>
      <trkpt lat="53.651325115934014" lon="9.990076571702957">
        <ele>9.619999999999999</ele>
        <time>2021-09-13T08:44:27Z</time>
      </trkpt>
      <trkpt lat="53.651900785043836" lon="9.990245047956705">
        <ele>9.630000000000001</ele>
        <time>2021-09-13T08:44:42Z</time>
      </trkpt>
      <trkpt lat="53.652322897687554" lon="9.990542018786073">
        <ele>9.68</ele>
        <time>2021-09-13T08:44:56Z</time>
      </trkpt>
      <trkpt lat="53.652586173266172" lon="9.991074521094561">
        <ele>9.630000000000001</ele>
        <time>2021-09-13T08:45:08Z</time>
      </trkpt>
      <trkpt lat="53.652787338942289" lon="9.991581039503217">
        <ele>9.720000000000001</ele>
        <time>2021-09-13T08:45:18Z</time>
      </trkpt>
      <trkpt lat="53.6530492734164" lon="9.992134748026729">
        <ele>9.810000000000001</ele>
        <time>2021-09-13T08:45:29Z</time>
      </trkpt>
      <trkpt lat="53.653320344164968" lon="9.992697173729539">
        <ele>10.27</ele>
        <time>2021-09-13T08:45:40Z</time>
      </trkpt>
      <trkpt lat="53.653738433495164" lon="9.993600575253367">
        <ele>10.4</ele>
        <time>2021-09-13T08:45:57Z</time>
      </trkpt>
      <trkpt lat="53.653846057131886" lon="9.993891092017293">
        <ele>10.06</ele>
        <time>2021-09-13T08:46:04Z</time>
      </trkpt>
      <trkpt lat="53.654081504791975" lon="9.994435664266348">
        <ele>9.82</ele>
        <time>2021-09-13T08:46:15Z</time>
      </trkpt>
      <trkpt lat="53.6542943213135" lon="9.994943104684353">
        <ele>10.130000000000001</ele>
        <time>2021-09-13T08:46:26Z</time>
      </trkpt>
      <trkpt lat="53.654489032924175" lon="9.995419783517718">
        <ele>10.42</ele>
        <time>2021-09-13T08:46:37Z</time>
      </trkpt>
      <trkpt lat="53.654736131429672" lon="9.995965361595154">
        <ele>10.65</ele>
        <time>2021-09-13T08:46:49Z</time>
      </trkpt>
      <trkpt lat="53.654993791133165" lon="9.996498115360737">
        <ele>10.6</ele>
        <time>2021-09-13T08:47:01Z</time>
      </trkpt>
      <trkpt lat="53.655211804434657" lon="9.996970603242517">
        <ele>10.630000000000001</ele>
        <time>2021-09-13T08:47:12Z</time>
      </trkpt>
      <trkpt lat="53.6554064322263" lon="9.997465638443828">
        <ele>11.01</ele>
        <time>2021-09-13T08:47:21Z</time>
      </trkpt>
      <trkpt lat="53.655419005081058" lon="9.997497741132975">
        <ele>11.15</ele>
        <time>2021-09-13T08:47:22Z</time>
      </trkpt>
      <trkpt lat="53.655520426109433" lon="9.997593713924289">
        <ele>11.640000000000001</ele>
        <time>2021-09-13T08:47:27Z</time>
      </trkpt>
      <trkpt lat="53.655568202957511" lon="9.997591953724623">
        <ele>11.76</ele>
        <time>2021-09-13T08:47:29Z</time>
      </trkpt>
      <trkpt lat="53.655610783025622" lon="9.997621541842818">
        <ele>11.82</ele>
        <time>2021-09-13T08:47:31Z</time>
      </trkpt>
      <trkpt lat="53.655626038089395" lon="9.997648447751999">
        <ele>11.82</ele>
        <time>2021-09-13T08:47:32Z</time>
      </trkpt>
      <trkpt lat="53.655702732503414" lon="9.99782832339406">
        <ele>11.67</ele>
        <time>2021-09-13T08:47:38Z</time>
      </trkpt>
      <trkpt lat="53.655890235677361" lon="9.998330734670162">
        <ele>11.380000000000001</ele>
        <time>2021-09-13T08:47:48Z</time>
      </trkpt>
      <trkpt lat="53.656267253682017" lon="9.99917202629149">
        <ele>11.81</ele>
        <time>2021-09-13T08:48:04Z</time>
      </trkpt>
      <trkpt lat="53.656438747420907" lon="9.999829838052392">
        <ele>11.75</ele>
        <time>2021-09-13T08:48:15Z</time>
      </trkpt>
      <trkpt lat="53.656668495386839" lon="10.000629471614957">
        <ele>11.529999999999999</ele>
        <time>2021-09-13T08:48:29Z</time>
      </trkpt>
      <trkpt lat="53.65696806460619" lon="10.000989139080048">
        <ele>11.65</ele>
        <time>2021-09-13T08:48:39Z</time>
      </trkpt>
      <trkpt lat="53.657392105087638" lon="10.00161618925631">
        <ele>12.1</ele>
        <time>2021-09-13T08:48:55Z</time>
      </trkpt>
      <trkpt lat="53.657653369009495" lon="10.002123126760125">
        <ele>13</ele>
        <time>2021-09-13T08:49:09Z</time>
      </trkpt>
      <trkpt lat="53.657914884388447" lon="10.002367962151766">
        <ele>13.17</ele>
        <time>2021-09-13T08:49:20Z</time>
      </trkpt>
      <trkpt lat="53.658142536878586" lon="10.002578096464276">
        <ele>13.529999999999999</ele>
        <time>2021-09-13T08:49:30Z</time>
      </trkpt>
      <trkpt lat="53.658167012035847" lon="10.002604415640235">
        <ele>13.57</ele>
        <time>2021-09-13T08:49:31Z</time>
      </trkpt>
      <trkpt lat="53.658344876021147" lon="10.00294866040349">
        <ele>13.890000000000001</ele>
        <time>2021-09-13T08:49:41Z</time>
      </trkpt>
      <trkpt lat="53.658352252095938" lon="10.002991994842887">
        <ele>13.91</ele>
        <time>2021-09-13T08:49:42Z</time>
      </trkpt>
      <trkpt lat="53.658358873799443" lon="10.003035580739379">
        <ele>13.92</ele>
        <time>2021-09-13T08:49:43Z</time>
      </trkpt>
      <trkpt lat="53.658366668969393" lon="10.003085704520345">
        <ele>13.93</ele>
        <time>2021-09-13T08:49:44Z</time>
      </trkpt>
      <trkpt lat="53.658377649262547" lon="10.003144796937704">
        <ele>13.94</ele>
        <time>2021-09-13T08:49:45Z</time>
      </trkpt>
      <trkpt lat="53.658405393362045" lon="10.003696493804455">
        <ele>14.41</ele>
        <time>2021-09-13T08:49:57Z</time>
      </trkpt>
      <trkpt lat="53.658393155783415" lon="10.003718957304955">
        <ele>14.44</ele>
        <time>2021-09-13T08:49:58Z</time>
      </trkpt>
      <trkpt lat="53.65837974473834" lon="10.003741672262549">
        <ele>14.49</ele>
        <time>2021-09-13T08:50:03Z</time>
      </trkpt>
      <trkpt lat="53.658360885456204" lon="10.003966726362705">
        <ele>14.49</ele>
        <time>2021-09-13T08:50:37Z</time>
      </trkpt>
      <trkpt lat="53.658363819122314" lon="10.004008384421468">
        <ele>14.49</ele>
        <time>2021-09-13T08:50:39Z</time>
      </trkpt>
      <trkpt lat="53.658361388370395" lon="10.004056245088577">
        <ele>14.49</ele>
        <time>2021-09-13T08:50:41Z</time>
      </trkpt>
      <trkpt lat="53.658353760838509" lon="10.004088263958693">
        <ele>14.48</ele>
        <time>2021-09-13T08:50:42Z</time>
      </trkpt>
      <trkpt lat="53.65834990516305" lon="10.004117600619793">
        <ele>14.42</ele>
        <time>2021-09-13T08:50:43Z</time>
      </trkpt>
      <trkpt lat="53.658345630392432" lon="10.004150960594416">
        <ele>14.32</ele>
        <time>2021-09-13T08:50:44Z</time>
      </trkpt>
      <trkpt lat="53.658342948183417" lon="10.004182811826468">
        <ele>14.210000000000001</ele>
        <time>2021-09-13T08:50:45Z</time>
      </trkpt>
      <trkpt lat="53.658340098336339" lon="10.004219273105264">
        <ele>14.15</ele>
        <time>2021-09-13T08:50:46Z</time>
      </trkpt>
      <trkpt lat="53.658339092507958" lon="10.00425623729825">
        <ele>14.109999999999999</ele>
        <time>2021-09-13T08:50:47Z</time>
      </trkpt>
      <trkpt lat="53.658339343965054" lon="10.004300326108932">
        <ele>14.08</ele>
        <time>2021-09-13T08:50:48Z</time>
      </trkpt>
      <trkpt lat="53.658340601250529" lon="10.004338547587395">
        <ele>14.07</ele>
        <time>2021-09-13T08:50:49Z</time>
      </trkpt>
      <trkpt lat="53.658346552401781" lon="10.004371404647827">
        <ele>14.050000000000001</ele>
        <time>2021-09-13T08:50:50Z</time>
      </trkpt>
      <trkpt lat="53.658352000638843" lon="10.004406021907926">
        <ele>14.050000000000001</ele>
        <time>2021-09-13T08:50:51Z</time>
      </trkpt>
      <trkpt lat="53.65835677832365" lon="10.004438711330295">
        <ele>14.029999999999999</ele>
        <time>2021-09-13T08:50:52Z</time>
      </trkpt>
      <trkpt lat="53.658374715596437" lon="10.004576425999403">
        <ele>13.98</ele>
        <time>2021-09-13T08:51:00Z</time>
      </trkpt>
      <trkpt lat="53.65842861123383" lon="10.004845233634114">
        <ele>14.15</ele>
        <time>2021-09-13T08:51:19Z</time>
      </trkpt>
      <trkpt lat="53.658497594296932" lon="10.005197692662477">
        <ele>14.33</ele>
        <time>2021-09-13T08:51:31Z</time>
      </trkpt>
      <trkpt lat="53.658621646463871" lon="10.005722315981984">
        <ele>14.130000000000001</ele>
        <time>2021-09-13T08:51:40Z</time>
      </trkpt>
      <trkpt lat="53.658623909577727" lon="10.005792137235403">
        <ele>14.119999999999999</ele>
        <time>2021-09-13T08:51:41Z</time>
      </trkpt>
      <trkpt lat="53.658620472997427" lon="10.00585600733757">
        <ele>14.09</ele>
        <time>2021-09-13T08:51:42Z</time>
      </trkpt>
      <trkpt lat="53.658597758039832" lon="10.006024483591318">
        <ele>14.07</ele>
        <time>2021-09-13T08:51:45Z</time>
      </trkpt>
      <trkpt lat="53.658599937334657" lon="10.006069075316191">
        <ele>14.07</ele>
        <time>2021-09-13T08:51:46Z</time>
      </trkpt>
      <trkpt lat="53.658607397228479" lon="10.006107883527875">
        <ele>14.06</ele>
        <time>2021-09-13T08:51:47Z</time>
      </trkpt>
      <trkpt lat="53.658614018931985" lon="10.006143003702164">
        <ele>14.06</ele>
        <time>2021-09-13T08:51:48Z</time>
      </trkpt>
      <trkpt lat="53.65862064063549" lon="10.006174854934216">
        <ele>14.06</ele>
        <time>2021-09-13T08:51:49Z</time>
      </trkpt>
      <trkpt lat="53.658640841022134" lon="10.006229588761926">
        <ele>14.06</ele>
        <time>2021-09-13T08:51:53Z</time>
      </trkpt>
      <trkpt lat="53.658695323392749" lon="10.006447266787291">
        <ele>14.130000000000001</ele>
        <time>2021-09-13T08:52:07Z</time>
      </trkpt>
      <trkpt lat="53.65896362811327" lon="10.007002903148532">
        <ele>14.609999999999999</ele>
        <time>2021-09-13T08:52:22Z</time>
      </trkpt>
      <trkpt lat="53.6594024207443" lon="10.007862132042646">
        <ele>14.15</ele>
        <time>2021-09-13T08:52:42Z</time>
      </trkpt>
      <trkpt lat="53.659539297223091" lon="10.008244346827269">
        <ele>13.81</ele>
        <time>2021-09-13T08:52:50Z</time>
      </trkpt>
      <trkpt lat="53.659524712711573" lon="10.008291704580188">
        <ele>13.74</ele>
        <time>2021-09-13T08:52:51Z</time>
      </trkpt>
      <trkpt lat="53.659511134028435" lon="10.008334200829268">
        <ele>13.66</ele>
        <time>2021-09-13T08:52:52Z</time>
      </trkpt>
      <trkpt lat="53.659502081573009" lon="10.00837292522192">
        <ele>13.609999999999999</ele>
        <time>2021-09-13T08:52:53Z</time>
      </trkpt>
      <trkpt lat="53.659492107108235" lon="10.008417516946793">
        <ele>13.56</ele>
        <time>2021-09-13T08:52:54Z</time>
      </trkpt>
      <trkpt lat="53.659555222839117" lon="10.008764527738094">
        <ele>13.550000000000001</ele>
        <time>2021-09-13T08:53:04Z</time>
      </trkpt>
      <trkpt lat="53.659772649407387" lon="10.009160069748759">
        <ele>13.31</ele>
        <time>2021-09-13T08:53:16Z</time>
      </trkpt>
      <trkpt lat="53.659788658842444" lon="10.009177420288324">
        <ele>13.33</ele>
        <time>2021-09-13T08:53:18Z</time>
      </trkpt>
      <trkpt lat="53.659943137317896" lon="10.009377412497997">
        <ele>13.48</ele>
        <time>2021-09-13T08:53:37Z</time>
      </trkpt>
      <trkpt lat="53.659959062933922" lon="10.009408760815859">
        <ele>13.48</ele>
        <time>2021-09-13T08:53:38Z</time>
      </trkpt>
      <trkpt lat="53.65997364744544" lon="10.009444300085306">
        <ele>13.48</ele>
        <time>2021-09-13T08:53:39Z</time>
      </trkpt>
      <trkpt lat="53.659990495070815" lon="10.00947967171669">
        <ele>13.48</ele>
        <time>2021-09-13T08:53:40Z</time>
      </trkpt>
      <trkpt lat="53.660012874752283" lon="10.009523257613182">
        <ele>13.49</ele>
        <time>2021-09-13T08:53:41Z</time>
      </trkpt>
      <trkpt lat="53.660039780661464" lon="10.009569358080626">
        <ele>13.52</ele>
        <time>2021-09-13T08:53:42Z</time>
      </trkpt>
      <trkpt lat="53.660392574965954" lon="10.01032205298543">
        <ele>13.35</ele>
        <time>2021-09-13T08:53:57Z</time>
      </trkpt>
      <trkpt lat="53.660714272409678" lon="10.01123677007854">
        <ele>13.390000000000001</ele>
        <time>2021-09-13T08:54:13Z</time>
      </trkpt>
      <trkpt lat="53.661064384505153" lon="10.012133968994021">
        <ele>13.35</ele>
        <time>2021-09-13T08:54:30Z</time>
      </trkpt>
      <trkpt lat="53.661461770534515" lon="10.013085147365928">
        <ele>13.449999999999999</ele>
        <time>2021-09-13T08:54:47Z</time>
      </trkpt>
      <trkpt lat="53.661962505429983" lon="10.014023082330823">
        <ele>13.44</ele>
        <time>2021-09-13T08:55:05Z</time>
      </trkpt>
      <trkpt lat="53.662106757983565" lon="10.014369338750839">
        <ele>13.43</ele>
        <time>2021-09-13T08:55:12Z</time>
      </trkpt>
      <trkpt lat="53.662099465727806" lon="10.014423904940486">
        <ele>13.449999999999999</ele>
        <time>2021-09-13T08:55:13Z</time>
      </trkpt>
      <trkpt lat="53.662087060511112" lon="10.014475453644991">
        <ele>13.460000000000001</ele>
        <time>2021-09-13T08:55:14Z</time>
      </trkpt>
      <trkpt lat="53.661939287558198" lon="10.015331581234932">
        <ele>14.01</ele>
        <time>2021-09-13T08:55:30Z</time>
      </trkpt>
      <trkpt lat="53.661950267851353" lon="10.016095675528049">
        <ele>14.619999999999999</ele>
        <time>2021-09-13T08:55:45Z</time>
      </trkpt>
      <trkpt lat="53.662011288106441" lon="10.016439752653241">
        <ele>15.630000000000001</ele>
        <time>2021-09-13T08:55:55Z</time>
      </trkpt>
      <trkpt lat="53.662111535668373" lon="10.016956329345703">
        <ele>15.83</ele>
        <time>2021-09-13T08:56:06Z</time>
      </trkpt>
      <trkpt lat="53.661802662536502" lon="10.017557227984071">
        <ele>16.809999999999999</ele>
        <time>2021-09-13T08:56:21Z</time>
      </trkpt>
      <trkpt lat="53.661616751924157" lon="10.017677089199424">
        <ele>17.059999999999999</ele>
        <time>2021-09-13T08:56:28Z</time>
      </trkpt>
      <trkpt lat="53.661602335050702" lon="10.017712041735649">
        <ele>17.059999999999999</ele>
        <time>2021-09-13T08:56:29Z</time>
      </trkpt>
      <trkpt lat="53.66159244440496" lon="10.017745485529304">
        <ele>17.050000000000001</ele>
        <time>2021-09-13T08:56:30Z</time>
      </trkpt>
      <trkpt lat="53.661583978682756" lon="10.01776828430593">
        <ele>17.030000000000001</ele>
        <time>2021-09-13T08:56:31Z</time>
      </trkpt>
      <trkpt lat="53.661579452455044" lon="10.017790161073208">
        <ele>17</ele>
        <time>2021-09-13T08:56:32Z</time>
      </trkpt>
      <trkpt lat="53.661572579294443" lon="10.017818659543991">
        <ele>16.870000000000001</ele>
        <time>2021-09-13T08:56:33Z</time>
      </trkpt>
      <trkpt lat="53.661564029753208" lon="10.017864173278213">
        <ele>16.870000000000001</ele>
        <time>2021-09-13T08:56:34Z</time>
      </trkpt>
      <trkpt lat="53.661558916792274" lon="10.017931060865521">
        <ele>16.829999999999998</ele>
        <time>2021-09-13T08:56:35Z</time>
      </trkpt>
      <trkpt lat="53.66155338473618" lon="10.018004570156336">
        <ele>16.809999999999999</ele>
        <time>2021-09-13T08:56:36Z</time>
      </trkpt>
      <trkpt lat="53.661550534889102" lon="10.018725581467152">
        <ele>17.18</ele>
        <time>2021-09-13T08:56:48Z</time>
      </trkpt>
      <trkpt lat="53.661559168249369" lon="10.019343998283148">
        <ele>18.140000000000001</ele>
        <time>2021-09-13T08:57:01Z</time>
      </trkpt>
      <trkpt lat="53.661504266783595" lon="10.020166346803308">
        <ele>19.16</ele>
        <time>2021-09-13T08:57:18Z</time>
      </trkpt>
      <trkpt lat="53.661415921524167" lon="10.021071340888739">
        <ele>20.32</ele>
        <time>2021-09-13T08:57:37Z</time>
      </trkpt>
      <trkpt lat="53.661375101655722" lon="10.02134894952178">
        <ele>21.120000000000001</ele>
        <time>2021-09-13T08:57:49Z</time>
      </trkpt>
      <trkpt lat="53.661357834935188" lon="10.021460093557835">
        <ele>21.59</ele>
        <time>2021-09-13T09:01:44Z</time>
      </trkpt>
      <trkpt lat="53.661353811621666" lon="10.021482137963176">
        <ele>21.59</ele>
        <time>2021-09-13T09:01:45Z</time>
      </trkpt>
      <trkpt lat="53.661348028108478" lon="10.021506110206246">
        <ele>21.59</ele>
        <time>2021-09-13T09:01:46Z</time>
      </trkpt>
      <trkpt lat="53.66126311942935" lon="10.021798303350806">
        <ele>21.469999999999999</ele>
        <time>2021-09-13T09:02:00Z</time>
      </trkpt>
      <trkpt lat="53.661237051710486" lon="10.02189570106566">
        <ele>21.43</ele>
        <time>2021-09-13T09:02:25Z</time>
      </trkpt>
      <trkpt lat="53.661218695342541" lon="10.021922690793872">
        <ele>21.399999999999999</ele>
        <time>2021-09-13T09:02:26Z</time>
      </trkpt>
      <trkpt lat="53.661196902394295" lon="10.021948758512735">
        <ele>21.379999999999999</ele>
        <time>2021-09-13T09:02:27Z</time>
      </trkpt>
      <trkpt lat="53.661174438893795" lon="10.021965689957142">
        <ele>21.379999999999999</ele>
        <time>2021-09-13T09:02:28Z</time>
      </trkpt>
      <trkpt lat="53.661153148859739" lon="10.021974490955472">
        <ele>21.370000000000001</ele>
        <time>2021-09-13T09:02:29Z</time>
      </trkpt>
      <trkpt lat="53.661119202151895" lon="10.02199930138886">
        <ele>21.359999999999999</ele>
        <time>2021-09-13T09:02:33Z</time>
      </trkpt>
      <trkpt lat="53.661109646782279" lon="10.022021010518074">
        <ele>21.370000000000001</ele>
        <time>2021-09-13T09:02:34Z</time>
      </trkpt>
      <trkpt lat="53.661100175231695" lon="10.022049089893699">
        <ele>21.390000000000001</ele>
        <time>2021-09-13T09:02:35Z</time>
      </trkpt>
      <trkpt lat="53.660975703969598" lon="10.022847298532724">
        <ele>22.02</ele>
        <time>2021-09-13T09:02:51Z</time>
      </trkpt>
      <trkpt lat="53.660792727023363" lon="10.02383703365922">
        <ele>22.399999999999999</ele>
        <time>2021-09-13T09:03:09Z</time>
      </trkpt>
      <trkpt lat="53.660574965178967" lon="10.024721743538976">
        <ele>21.84</ele>
        <time>2021-09-13T09:03:24Z</time>
      </trkpt>
      <trkpt lat="53.660288974642754" lon="10.025870148092508">
        <ele>20.690000000000001</ele>
        <time>2021-09-13T09:03:42Z</time>
      </trkpt>
      <trkpt lat="53.660128377377987" lon="10.026541454717517">
        <ele>20.120000000000001</ele>
        <time>2021-09-13T09:03:55Z</time>
      </trkpt>
      <trkpt lat="53.659974317997694" lon="10.027202619239688">
        <ele>20.140000000000001</ele>
        <time>2021-09-13T09:04:07Z</time>
      </trkpt>
      <trkpt lat="53.659802656620741" lon="10.02788825891912">
        <ele>19.960000000000001</ele>
        <time>2021-09-13T09:04:19Z</time>
      </trkpt>
      <trkpt lat="53.659740127623081" lon="10.028675487264991">
        <ele>18.82</ele>
        <time>2021-09-13T09:04:32Z</time>
      </trkpt>
      <trkpt lat="53.659750940278172" lon="10.028808256611228">
        <ele>18.609999999999999</ele>
        <time>2021-09-13T09:04:35Z</time>
      </trkpt>
      <trkpt lat="53.659766362980008" lon="10.028833653777838">
        <ele>18.530000000000001</ele>
        <time>2021-09-13T09:04:36Z</time>
      </trkpt>
      <trkpt lat="53.659779522567987" lon="10.028849076479673">
        <ele>18.440000000000001</ele>
        <time>2021-09-13T09:04:37Z</time>
      </trkpt>
      <trkpt lat="53.659873064607382" lon="10.028883526101708">
        <ele>18.109999999999999</ele>
        <time>2021-09-13T09:04:42Z</time>
      </trkpt>
      <trkpt lat="53.659886308014393" lon="10.028909426182508">
        <ele>18.100000000000001</ele>
        <time>2021-09-13T09:04:43Z</time>
      </trkpt>
      <trkpt lat="53.659918326884508" lon="10.029095252975821">
        <ele>18.07</ele>
        <time>2021-09-13T09:04:47Z</time>
      </trkpt>
      <trkpt lat="53.65995604544878" lon="10.029308320954442">
        <ele>17.91</ele>
        <time>2021-09-13T09:04:52Z</time>
      </trkpt>
      <trkpt lat="53.660227032378316" lon="10.029766475781798">
        <ele>17.73</ele>
        <time>2021-09-13T09:05:03Z</time>
      </trkpt>
      <trkpt lat="53.66029953584075" lon="10.030546830967069">
        <ele>17.66</ele>
        <time>2021-09-13T09:05:16Z</time>
      </trkpt>
      <trkpt lat="53.660349743440747" lon="10.031046811491251">
        <ele>17.600000000000001</ele>
        <time>2021-09-13T09:05:27Z</time>
      </trkpt>
      <trkpt lat="53.660384444519877" lon="10.031662378460169">
        <ele>17.329999999999998</ele>
        <time>2021-09-13T09:05:40Z</time>
      </trkpt>
      <trkpt lat="53.660413529723883" lon="10.032224385067821">
        <ele>17.329999999999998</ele>
        <time>2021-09-13T09:05:53Z</time>
      </trkpt>
      <trkpt lat="53.660442950204015" lon="10.032880520448089">
        <ele>17.079999999999998</ele>
        <time>2021-09-13T09:06:05Z</time>
      </trkpt>
      <trkpt lat="53.660460552200675" lon="10.033329706639051">
        <ele>16.73</ele>
        <time>2021-09-13T09:06:17Z</time>
      </trkpt>
      <trkpt lat="53.660494247451425" lon="10.03351679071784">
        <ele>16.100000000000001</ele>
        <time>2021-09-13T09:06:27Z</time>
      </trkpt>
      <trkpt lat="53.660464491695166" lon="10.034139733761549">
        <ele>16.129999999999999</ele>
        <time>2021-09-13T09:07:27Z</time>
      </trkpt>
      <trkpt lat="53.66044077090919" lon="10.034197736531496">
        <ele>16.09</ele>
        <time>2021-09-13T09:07:29Z</time>
      </trkpt>
      <trkpt lat="53.660429958254099" lon="10.034340228885412">
        <ele>16.129999999999999</ele>
        <time>2021-09-13T09:07:34Z</time>
      </trkpt>
      <trkpt lat="53.660449488088489" lon="10.034387670457363">
        <ele>16.199999999999999</ele>
        <time>2021-09-13T09:07:41Z</time>
      </trkpt>
      <trkpt lat="53.660521656274796" lon="10.03450870513916">
        <ele>15.779999999999999</ele>
        <time>2021-09-13T09:33:43Z</time>
      </trkpt>
      <trkpt lat="53.660751571878791" lon="10.034653628244996">
        <ele>14.57</ele>
        <time>2021-09-13T09:33:55Z</time>
      </trkpt>
      <trkpt lat="53.661051476374269" lon="10.034765107557178">
        <ele>14.75</ele>
        <time>2021-09-13T09:34:07Z</time>
      </trkpt>
      <trkpt lat="53.661439055576921" lon="10.034832749515772">
        <ele>15.140000000000001</ele>
        <time>2021-09-13T09:34:20Z</time>
      </trkpt>
      <trkpt lat="53.661496723070741" lon="10.034861834719777">
        <ele>15.27</ele>
        <time>2021-09-13T09:34:22Z</time>
      </trkpt>
      <trkpt lat="53.661520192399621" lon="10.034892428666353">
        <ele>15.31</ele>
        <time>2021-09-13T09:34:23Z</time>
      </trkpt>
      <trkpt lat="53.661537794396281" lon="10.034924196079373">
        <ele>15.33</ele>
        <time>2021-09-13T09:34:24Z</time>
      </trkpt>
      <trkpt lat="53.661557910963893" lon="10.034946575760841">
        <ele>15.35</ele>
        <time>2021-09-13T09:34:25Z</time>
      </trkpt>
      <trkpt lat="53.661582805216312" lon="10.034958058968186">
        <ele>15.35</ele>
        <time>2021-09-13T09:34:26Z</time>
      </trkpt>
      <trkpt lat="53.661611136049032" lon="10.034955628216267">
        <ele>15.35</ele>
        <time>2021-09-13T09:34:27Z</time>
      </trkpt>
      <trkpt lat="53.661641394719481" lon="10.034947246313095">
        <ele>15.34</ele>
        <time>2021-09-13T09:34:28Z</time>
      </trkpt>
      <trkpt lat="53.661672910675406" lon="10.0349435582757">
        <ele>15.34</ele>
        <time>2021-09-13T09:34:29Z</time>
      </trkpt>
      <trkpt lat="53.66170727647841" lon="10.034946994856">
        <ele>15.33</ele>
        <time>2021-09-13T09:34:30Z</time>
      </trkpt>
      <trkpt lat="53.661737199872732" lon="10.03496116027236">
        <ele>15.32</ele>
        <time>2021-09-13T09:34:31Z</time>
      </trkpt>
      <trkpt lat="53.66188270971179" lon="10.034990748390555">
        <ele>15.289999999999999</ele>
        <time>2021-09-13T09:34:37Z</time>
      </trkpt>
      <trkpt lat="53.661910034716129" lon="10.034993933513761">
        <ele>15.300000000000001</ele>
        <time>2021-09-13T09:34:38Z</time>
      </trkpt>
      <trkpt lat="53.661930151283741" lon="10.034996196627617">
        <ele>15.300000000000001</ele>
        <time>2021-09-13T09:34:39Z</time>
      </trkpt>
      <trkpt lat="53.662214716896415" lon="10.035009859129786">
        <ele>15.33</ele>
        <time>2021-09-13T09:34:51Z</time>
      </trkpt>
      <trkpt lat="53.662510765716434" lon="10.035022012889385">
        <ele>15.73</ele>
        <time>2021-09-13T09:35:04Z</time>
      </trkpt>
      <trkpt lat="53.662791978567839" lon="10.035031232982874">
        <ele>16.27</ele>
        <time>2021-09-13T09:35:15Z</time>
      </trkpt>
      <trkpt lat="53.663079561665654" lon="10.035081189125776">
        <ele>16.620000000000001</ele>
        <time>2021-09-13T09:35:27Z</time>
      </trkpt>
      <trkpt lat="53.663316518068314" lon="10.035106586292386">
        <ele>16.719999999999999</ele>
        <time>2021-09-13T09:35:35Z</time>
      </trkpt>
      <trkpt lat="53.663339149206877" lon="10.035125948488712">
        <ele>16.73</ele>
        <time>2021-09-13T09:35:36Z</time>
      </trkpt>
      <trkpt lat="53.663360271602869" lon="10.035152267664671">
        <ele>16.739999999999998</ele>
        <time>2021-09-13T09:35:37Z</time>
      </trkpt>
      <trkpt lat="53.663376532495022" lon="10.035183532163501">
        <ele>16.75</ele>
        <time>2021-09-13T09:35:38Z</time>
      </trkpt>
      <trkpt lat="53.663390530273318" lon="10.035212785005569">
        <ele>16.780000000000001</ele>
        <time>2021-09-13T09:35:39Z</time>
      </trkpt>
      <trkpt lat="53.663519779220223" lon="10.035725086927414">
        <ele>17.199999999999999</ele>
        <time>2021-09-13T09:35:52Z</time>
      </trkpt>
      <trkpt lat="53.663631426170468" lon="10.036357585340738">
        <ele>17.300000000000001</ele>
        <time>2021-09-13T09:36:04Z</time>
      </trkpt>
      <trkpt lat="53.663707533851266" lon="10.036809286102653">
        <ele>17.420000000000002</ele>
        <time>2021-09-13T09:36:12Z</time>
      </trkpt>
      <trkpt lat="53.663771403953433" lon="10.037448825314641">
        <ele>16.949999999999999</ele>
        <time>2021-09-13T09:36:25Z</time>
      </trkpt>
      <trkpt lat="53.663891516625881" lon="10.038165142759681">
        <ele>16.789999999999999</ele>
        <time>2021-09-13T09:36:37Z</time>
      </trkpt>
      <trkpt lat="53.663974497467279" lon="10.038758330047131">
        <ele>17.010000000000002</ele>
        <time>2021-09-13T09:36:49Z</time>
      </trkpt>
      <trkpt lat="53.664204496890306" lon="10.039097713306546">
        <ele>17.52</ele>
        <time>2021-09-13T09:37:01Z</time>
      </trkpt>
      <trkpt lat="53.664340786635876" lon="10.039231739938259">
        <ele>17.710000000000001</ele>
        <time>2021-09-13T09:37:06Z</time>
      </trkpt>
      <trkpt lat="53.664586124941707" lon="10.03939594142139">
        <ele>17.850000000000001</ele>
        <time>2021-09-13T09:37:17Z</time>
      </trkpt>
      <trkpt lat="53.664834732189775" lon="10.039499206468463">
        <ele>18.079999999999998</ele>
        <time>2021-09-13T09:37:27Z</time>
      </trkpt>
      <trkpt lat="53.665202865377069" lon="10.039770947769284">
        <ele>17.809999999999999</ele>
        <time>2021-09-13T09:37:39Z</time>
      </trkpt>
      <trkpt lat="53.665469912812114" lon="10.03983473405242">
        <ele>17.469999999999999</ele>
        <time>2021-09-13T09:37:46Z</time>
      </trkpt>
      <trkpt lat="53.665507799014449" lon="10.039847055450082">
        <ele>17.460000000000001</ele>
        <time>2021-09-13T09:37:47Z</time>
      </trkpt>
      <trkpt lat="53.665543757379055" lon="10.039867926388979">
        <ele>17.460000000000001</ele>
        <time>2021-09-13T09:37:48Z</time>
      </trkpt>
      <trkpt lat="53.66592169739306" lon="10.039940848946571">
        <ele>17.699999999999999</ele>
        <time>2021-09-13T09:38:00Z</time>
      </trkpt>
      <trkpt lat="53.666194276884198" lon="10.039920564740896">
        <ele>17.710000000000001</ele>
        <time>2021-09-13T09:38:11Z</time>
      </trkpt>
      <trkpt lat="53.666215734556317" lon="10.039923079311848">
        <ele>17.739999999999998</ele>
        <time>2021-09-13T09:38:12Z</time>
      </trkpt>
      <trkpt lat="53.66623979061842" lon="10.039925929158926">
        <ele>17.829999999999998</ele>
        <time>2021-09-13T09:38:13Z</time>
      </trkpt>
      <trkpt lat="53.666544975712895" lon="10.039943112060428">
        <ele>18.02</ele>
        <time>2021-09-13T09:38:23Z</time>
      </trkpt>
      <trkpt lat="53.666623178869486" lon="10.039988374337554">
        <ele>18.059999999999999</ele>
        <time>2021-09-13T09:38:26Z</time>
      </trkpt>
      <trkpt lat="53.666665926575661" lon="10.040045622736216">
        <ele>18.100000000000001</ele>
        <time>2021-09-13T09:38:28Z</time>
      </trkpt>
      <trkpt lat="53.666684031486511" lon="10.040073031559587">
        <ele>18.109999999999999</ele>
        <time>2021-09-13T09:38:29Z</time>
      </trkpt>
      <trkpt lat="53.666700711473823" lon="10.040109660476446">
        <ele>18.120000000000001</ele>
        <time>2021-09-13T09:38:30Z</time>
      </trkpt>
      <trkpt lat="53.666716134175658" lon="10.040140924975276">
        <ele>18.120000000000001</ele>
        <time>2021-09-13T09:38:31Z</time>
      </trkpt>
      <trkpt lat="53.666728539392352" lon="10.040184007957578">
        <ele>18.129999999999999</ele>
        <time>2021-09-13T09:38:32Z</time>
      </trkpt>
      <trkpt lat="53.666737927123904" lon="10.040226671844721">
        <ele>18.16</ele>
        <time>2021-09-13T09:38:33Z</time>
      </trkpt>
      <trkpt lat="53.666746644303203" lon="10.040271515026689">
        <ele>18.190000000000001</ele>
        <time>2021-09-13T09:38:34Z</time>
      </trkpt>
      <trkpt lat="53.666820488870144" lon="10.040871659293771">
        <ele>18.710000000000001</ele>
        <time>2021-09-13T09:38:46Z</time>
      </trkpt>
      <trkpt lat="53.666828200221062" lon="10.041637094691396">
        <ele>19.370000000000001</ele>
        <time>2021-09-13T09:38:59Z</time>
      </trkpt>
      <trkpt lat="53.666812861338258" lon="10.042579639703035">
        <ele>19.940000000000001</ele>
        <time>2021-09-13T09:39:14Z</time>
      </trkpt>
      <trkpt lat="53.66679978556931" lon="10.043651601299644">
        <ele>19.68</ele>
        <time>2021-09-13T09:39:30Z</time>
      </trkpt>
      <trkpt lat="53.666785201057792" lon="10.044504962861538">
        <ele>19.93</ele>
        <time>2021-09-13T09:39:43Z</time>
      </trkpt>
      <trkpt lat="53.666781177744269" lon="10.044874353334308">
        <ele>20.010000000000002</ele>
        <time>2021-09-13T09:39:49Z</time>
      </trkpt>
      <trkpt lat="53.666764497756958" lon="10.0449248123914">
        <ele>20.010000000000002</ele>
        <time>2021-09-13T09:39:50Z</time>
      </trkpt>
      <trkpt lat="53.66673868149519" lon="10.04495557397604">
        <ele>19.949999999999999</ele>
        <time>2021-09-13T09:39:51Z</time>
      </trkpt>
      <trkpt lat="53.666712362319231" lon="10.044959513470531">
        <ele>19.93</ele>
        <time>2021-09-13T09:39:52Z</time>
      </trkpt>
      <trkpt lat="53.66669031791389" lon="10.044949455186725">
        <ele>19.879999999999999</ele>
        <time>2021-09-13T09:39:53Z</time>
      </trkpt>
      <trkpt lat="53.666669027879834" lon="10.044926656410098">
        <ele>19.800000000000001</ele>
        <time>2021-09-13T09:39:54Z</time>
      </trkpt>
      <trkpt lat="53.666643043980002" lon="10.044898828491569">
        <ele>19.699999999999999</ele>
        <time>2021-09-13T09:39:55Z</time>
      </trkpt>
      <trkpt lat="53.666504491120577" lon="10.044845100492239">
        <ele>19.43</ele>
        <time>2021-09-13T09:39:59Z</time>
      </trkpt>
      <trkpt lat="53.666478926315904" lon="10.044873766601086">
        <ele>19.350000000000001</ele>
        <time>2021-09-13T09:40:00Z</time>
      </trkpt>
      <trkpt lat="53.666461575776339" lon="10.04498784430325">
        <ele>19.219999999999999</ele>
        <time>2021-09-13T09:40:03Z</time>
      </trkpt>
      <trkpt lat="53.66646115668118" lon="10.045034447684884">
        <ele>19.57</ele>
        <time>2021-09-13T09:40:08Z</time>
      </trkpt>
      <trkpt lat="53.666468029841781" lon="10.045154225081205">
        <ele>19.98</ele>
        <time>2021-09-13T09:40:19Z</time>
      </trkpt>
      <trkpt lat="53.666473561897874" lon="10.045188590884209">
        <ele>20.030000000000001</ele>
        <time>2021-09-13T09:40:20Z</time>
      </trkpt>
      <trkpt lat="53.66648705676198" lon="10.045217759907246">
        <ele>20.059999999999999</ele>
        <time>2021-09-13T09:40:21Z</time>
      </trkpt>
      <trkpt lat="53.666504239663482" lon="10.045251371338964">
        <ele>20.059999999999999</ele>
        <time>2021-09-13T09:40:22Z</time>
      </trkpt>
      <trkpt lat="53.666523769497871" lon="10.045280121266842">
        <ele>20.059999999999999</ele>
        <time>2021-09-13T09:40:23Z</time>
      </trkpt>
      <trkpt lat="53.666573893278837" lon="10.045733582228422">
        <ele>20.18</ele>
        <time>2021-09-13T09:40:33Z</time>
      </trkpt>
      <trkpt lat="53.666556794196367" lon="10.045871715992689">
        <ele>20.280000000000001</ele>
        <time>2021-09-13T09:40:37Z</time>
      </trkpt>
      <trkpt lat="53.666554028168321" lon="10.046501951292157">
        <ele>20.530000000000001</ele>
        <time>2021-09-13T09:40:51Z</time>
      </trkpt>
      <trkpt lat="53.666509101167321" lon="10.047159846872091">
        <ele>20.989999999999998</ele>
        <time>2021-09-13T09:41:03Z</time>
      </trkpt>
      <trkpt lat="53.666498623788357" lon="10.047963922843337">
        <ele>21.100000000000001</ele>
        <time>2021-09-13T09:41:15Z</time>
      </trkpt>
      <trkpt lat="53.666479680687189" lon="10.048761880025268">
        <ele>21.609999999999999</ele>
        <time>2021-09-13T09:41:28Z</time>
      </trkpt>
      <trkpt lat="53.666484793648124" lon="10.049013672396541">
        <ele>22.010000000000002</ele>
        <time>2021-09-13T09:41:32Z</time>
      </trkpt>
      <trkpt lat="53.666502395644784" lon="10.049053570255637">
        <ele>22.149999999999999</ele>
        <time>2021-09-13T09:41:33Z</time>
      </trkpt>
      <trkpt lat="53.666528631001711" lon="10.049086008220911">
        <ele>22.260000000000002</ele>
        <time>2021-09-13T09:41:34Z</time>
      </trkpt>
      <trkpt lat="53.666559476405382" lon="10.049103861674666">
        <ele>22.309999999999999</ele>
        <time>2021-09-13T09:41:35Z</time>
      </trkpt>
      <trkpt lat="53.66659359075129" lon="10.049114255234599">
        <ele>22.34</ele>
        <time>2021-09-13T09:41:36Z</time>
      </trkpt>
      <trkpt lat="53.666627872735262" lon="10.049116434529424">
        <ele>22.350000000000001</ele>
        <time>2021-09-13T09:41:37Z</time>
      </trkpt>
      <trkpt lat="53.666663831099868" lon="10.049119284376502">
        <ele>22.32</ele>
        <time>2021-09-13T09:41:38Z</time>
      </trkpt>
      <trkpt lat="53.667028779163957" lon="10.049185920506716">
        <ele>22.02</ele>
        <time>2021-09-13T09:41:49Z</time>
      </trkpt>
      <trkpt lat="53.667384339496493" lon="10.049255155026913">
        <ele>22.199999999999999</ele>
        <time>2021-09-13T09:42:01Z</time>
      </trkpt>
      <trkpt lat="53.667887169867754" lon="10.049352720379829">
        <ele>23.010000000000002</ele>
        <time>2021-09-13T09:42:15Z</time>
      </trkpt>
      <trkpt lat="53.668535426259041" lon="10.04941625520587">
        <ele>23.640000000000001</ele>
        <time>2021-09-13T09:42:33Z</time>
      </trkpt>
      <trkpt lat="53.668964663520455" lon="10.049450788646936">
        <ele>23.68</ele>
        <time>2021-09-13T09:42:46Z</time>
      </trkpt>
      <trkpt lat="53.669291557744145" lon="10.049477778375149">
        <ele>23.829999999999998</ele>
        <time>2021-09-13T09:42:58Z</time>
      </trkpt>
      <trkpt lat="53.669681902974844" lon="10.049529075622559">
        <ele>23.949999999999999</ele>
        <time>2021-09-13T09:43:10Z</time>
      </trkpt>
      <trkpt lat="53.670081216841936" lon="10.049561010673642">
        <ele>24.109999999999999</ele>
        <time>2021-09-13T09:43:22Z</time>
      </trkpt>
      <trkpt lat="53.670376930385828" lon="10.049631586298347">
        <ele>24.57</ele>
        <time>2021-09-13T09:43:32Z</time>
      </trkpt>
      <trkpt lat="53.670387240126729" lon="10.049658240750432">
        <ele>24.57</ele>
        <time>2021-09-13T09:43:33Z</time>
      </trkpt>
      <trkpt lat="53.670405093580484" lon="10.049720853567123">
        <ele>24.530000000000001</ele>
        <time>2021-09-13T09:43:35Z</time>
      </trkpt>
      <trkpt lat="53.670407859608531" lon="10.049750693142414">
        <ele>24.52</ele>
        <time>2021-09-13T09:43:36Z</time>
      </trkpt>
      <trkpt lat="53.670411044731736" lon="10.049785226583481">
        <ele>24.510000000000002</ele>
        <time>2021-09-13T09:43:37Z</time>
      </trkpt>
      <trkpt lat="53.670420264825225" lon="10.049823699519038">
        <ele>24.510000000000002</ele>
        <time>2021-09-13T09:43:38Z</time>
      </trkpt>
      <trkpt lat="53.670554207637906" lon="10.050405068323016">
        <ele>24.739999999999998</ele>
        <time>2021-09-13T09:43:50Z</time>
      </trkpt>
      <trkpt lat="53.670616401359439" lon="10.050907731056213">
        <ele>24.77</ele>
        <time>2021-09-13T09:44:00Z</time>
      </trkpt>
      <trkpt lat="53.670714218169451" lon="10.051657240837812">
        <ele>24.59</ele>
        <time>2021-09-13T09:44:13Z</time>
      </trkpt>
      <trkpt lat="53.671015966683626" lon="10.051924372091889">
        <ele>24.629999999999999</ele>
        <time>2021-09-13T09:44:24Z</time>
      </trkpt>
      <trkpt lat="53.671387871727347" lon="10.051949769258499">
        <ele>25.59</ele>
        <time>2021-09-13T09:44:37Z</time>
      </trkpt>
      <trkpt lat="53.671672688797116" lon="10.051931664347649">
        <ele>26.039999999999999</ele>
        <time>2021-09-13T09:44:48Z</time>
      </trkpt>
      <trkpt lat="53.67207108065486" lon="10.051840553060174">
        <ele>27.260000000000002</ele>
        <time>2021-09-13T09:45:03Z</time>
      </trkpt>
      <trkpt lat="53.672272581607103" lon="10.051840217784047">
        <ele>27.75</ele>
        <time>2021-09-13T09:45:11Z</time>
      </trkpt>
      <trkpt lat="53.672286830842495" lon="10.051865614950657">
        <ele>27.780000000000001</ele>
        <time>2021-09-13T09:45:12Z</time>
      </trkpt>
      <trkpt lat="53.672452373430133" lon="10.052388897165656">
        <ele>28</ele>
        <time>2021-09-13T09:45:25Z</time>
      </trkpt>
      <trkpt lat="53.672677092254162" lon="10.053103035315871">
        <ele>27.699999999999999</ele>
        <time>2021-09-13T09:45:40Z</time>
      </trkpt>
      <trkpt lat="53.67283433675766" lon="10.053663616999984">
        <ele>27.370000000000001</ele>
        <time>2021-09-13T09:45:51Z</time>
      </trkpt>
      <trkpt lat="53.672963669523597" lon="10.054083885625005">
        <ele>27.16</ele>
        <time>2021-09-13T09:46:00Z</time>
      </trkpt>
      <trkpt lat="53.673052182421088" lon="10.054455371573567">
        <ele>27.300000000000001</ele>
        <time>2021-09-13T09:46:08Z</time>
      </trkpt>
      <trkpt lat="53.673050757497549" lon="10.054498203098774">
        <ele>27.34</ele>
        <time>2021-09-13T09:46:09Z</time>
      </trkpt>
      <trkpt lat="53.673040028661489" lon="10.05453810095787">
        <ele>27.370000000000001</ele>
        <time>2021-09-13T09:46:10Z</time>
      </trkpt>
      <trkpt lat="53.673028461635113" lon="10.054579339921474">
        <ele>27.379999999999999</ele>
        <time>2021-09-13T09:46:11Z</time>
      </trkpt>
      <trkpt lat="53.673015050590038" lon="10.054616471752524">
        <ele>27.390000000000001</ele>
        <time>2021-09-13T09:46:12Z</time>
      </trkpt>
      <trkpt lat="53.672998622059822" lon="10.054642707109451">
        <ele>27.390000000000001</ele>
        <time>2021-09-13T09:46:13Z</time>
      </trkpt>
      <trkpt lat="53.672983115538955" lon="10.054665338248014">
        <ele>27.350000000000001</ele>
        <time>2021-09-13T09:46:14Z</time>
      </trkpt>
      <trkpt lat="53.672971045598388" lon="10.054687634110451">
        <ele>27.309999999999999</ele>
        <time>2021-09-13T09:46:15Z</time>
      </trkpt>
      <trkpt lat="53.67295847274363" lon="10.054710349068046">
        <ele>27.27</ele>
        <time>2021-09-13T09:46:16Z</time>
      </trkpt>
      <trkpt lat="53.672942463308573" lon="10.054728873074055">
        <ele>27.219999999999999</ele>
        <time>2021-09-13T09:46:17Z</time>
      </trkpt>
      <trkpt lat="53.672672482207417" lon="10.0549959205091">
        <ele>26.75</ele>
        <time>2021-09-13T09:46:26Z</time>
      </trkpt>
      <trkpt lat="53.672571396455169" lon="10.055198930203915">
        <ele>26.579999999999998</ele>
        <time>2021-09-13T09:46:30Z</time>
      </trkpt>
      <trkpt lat="53.672571564093232" lon="10.055261040106416">
        <ele>26.559999999999999</ele>
        <time>2021-09-13T09:46:31Z</time>
      </trkpt>
      <trkpt lat="53.672580029815435" lon="10.055316528305411">
        <ele>26.550000000000001</ele>
        <time>2021-09-13T09:46:32Z</time>
      </trkpt>
      <trkpt lat="53.672756887972355" lon="10.055983895435929">
        <ele>26.68</ele>
        <time>2021-09-13T09:46:44Z</time>
      </trkpt>
      <trkpt lat="53.673054194077849" lon="10.056820660829544">
        <ele>26.859999999999999</ele>
        <time>2021-09-13T09:47:00Z</time>
      </trkpt>
      <trkpt lat="53.67318126372993" lon="10.057198517024517">
        <ele>26.789999999999999</ele>
        <time>2021-09-13T09:47:11Z</time>
      </trkpt>
      <trkpt lat="53.673314452171326" lon="10.057494146749377">
        <ele>26.52</ele>
        <time>2021-09-13T09:47:23Z</time>
      </trkpt>
      <trkpt lat="53.673630366101861" lon="10.058263102546334">
        <ele>26.239999999999998</ele>
        <time>2021-09-13T09:47:41Z</time>
      </trkpt>
      <trkpt lat="53.673957763239741" lon="10.059148482978344">
        <ele>26.370000000000001</ele>
        <time>2021-09-13T09:47:58Z</time>
      </trkpt>
      <trkpt lat="53.674284489825368" lon="10.059979045763612">
        <ele>26.140000000000001</ele>
        <time>2021-09-13T09:48:14Z</time>
      </trkpt>
      <trkpt lat="53.674446009099483" lon="10.060422029346228">
        <ele>26.010000000000002</ele>
        <time>2021-09-13T09:48:22Z</time>
      </trkpt>
      <trkpt lat="53.674468053504825" lon="10.06047684699297">
        <ele>25.98</ele>
        <time>2021-09-13T09:48:23Z</time>
      </trkpt>
      <trkpt lat="53.674791259691119" lon="10.061286371201277">
        <ele>25.66</ele>
        <time>2021-09-13T09:48:38Z</time>
      </trkpt>
      <trkpt lat="53.675231393426657" lon="10.062167141586542">
        <ele>25.850000000000001</ele>
        <time>2021-09-13T09:48:55Z</time>
      </trkpt>
      <trkpt lat="53.675565747544169" lon="10.062930732965469">
        <ele>25.879999999999999</ele>
        <time>2021-09-13T09:49:09Z</time>
      </trkpt>
      <trkpt lat="53.67559609003365" lon="10.063071632757783">
        <ele>25.850000000000001</ele>
        <time>2021-09-13T09:49:11Z</time>
      </trkpt>
      <trkpt lat="53.675612434744835" lon="10.063218986615539">
        <ele>25.800000000000001</ele>
        <time>2021-09-13T09:49:13Z</time>
      </trkpt>
      <trkpt lat="53.675630874931812" lon="10.063429372385144">
        <ele>25.780000000000001</ele>
        <time>2021-09-13T09:49:16Z</time>
      </trkpt>
      <trkpt lat="53.675640681758523" lon="10.063498858362436">
        <ele>25.789999999999999</ele>
        <time>2021-09-13T09:49:17Z</time>
      </trkpt>
      <trkpt lat="53.675651913508773" lon="10.063564656302333">
        <ele>25.789999999999999</ele>
        <time>2021-09-13T09:49:18Z</time>
      </trkpt>
      <trkpt lat="53.675854839384556" lon="10.064310310408473">
        <ele>26.100000000000001</ele>
        <time>2021-09-13T09:49:31Z</time>
      </trkpt>
      <trkpt lat="53.676103362813592" lon="10.06500156596303">
        <ele>25.949999999999999</ele>
        <time>2021-09-13T09:49:43Z</time>
      </trkpt>
      <trkpt lat="53.676384072750807" lon="10.065698688849807">
        <ele>25.899999999999999</ele>
        <time>2021-09-13T09:49:57Z</time>
      </trkpt>
      <trkpt lat="53.676636619493365" lon="10.066380221396685">
        <ele>26.190000000000001</ele>
        <time>2021-09-13T09:50:10Z</time>
      </trkpt>
      <trkpt lat="53.676848681643605" lon="10.066913897171617">
        <ele>26.43</ele>
        <time>2021-09-13T09:50:21Z</time>
      </trkpt>
      <trkpt lat="53.67708052508533" lon="10.06761864759028">
        <ele>26.02</ele>
        <time>2021-09-13T09:50:32Z</time>
      </trkpt>
      <trkpt lat="53.677356457337737" lon="10.068325996398926">
        <ele>25.699999999999999</ele>
        <time>2021-09-13T09:50:42Z</time>
      </trkpt>
      <trkpt lat="53.677756190299988" lon="10.069433078169823">
        <ele>25.100000000000001</ele>
        <time>2021-09-13T09:51:01Z</time>
      </trkpt>
      <trkpt lat="53.678026255220175" lon="10.070131290704012">
        <ele>22.989999999999998</ele>
        <time>2021-09-13T09:51:14Z</time>
      </trkpt>
      <trkpt lat="53.678232617676258" lon="10.070578213781118">
        <ele>21.789999999999999</ele>
        <time>2021-09-13T09:51:24Z</time>
      </trkpt>
      <trkpt lat="53.678252818062901" lon="10.070897312834859">
        <ele>21.420000000000002</ele>
        <time>2021-09-13T09:51:32Z</time>
      </trkpt>
      <trkpt lat="53.678254578262568" lon="10.070942910388112">
        <ele>21.379999999999999</ele>
        <time>2021-09-13T09:51:33Z</time>
      </trkpt>
      <trkpt lat="53.678254745900631" lon="10.070994542911649">
        <ele>21.359999999999999</ele>
        <time>2021-09-13T09:51:34Z</time>
      </trkpt>
      <trkpt lat="53.678248543292284" lon="10.071043493226171">
        <ele>21.34</ele>
        <time>2021-09-13T09:51:35Z</time>
      </trkpt>
      <trkpt lat="53.678236808627844" lon="10.071096299216151">
        <ele>21.309999999999999</ele>
        <time>2021-09-13T09:51:36Z</time>
      </trkpt>
      <trkpt lat="53.678231863304973" lon="10.071159666404128">
        <ele>21.289999999999999</ele>
        <time>2021-09-13T09:51:37Z</time>
      </trkpt>
      <trkpt lat="53.678233623504639" lon="10.071216830983758">
        <ele>21.27</ele>
        <time>2021-09-13T09:51:38Z</time>
      </trkpt>
      <trkpt lat="53.67823270149529" lon="10.071267290040851">
        <ele>21.239999999999998</ele>
        <time>2021-09-13T09:51:39Z</time>
      </trkpt>
      <trkpt lat="53.678228929638863" lon="10.071334093809128">
        <ele>21.210000000000001</ele>
        <time>2021-09-13T09:51:40Z</time>
      </trkpt>
      <trkpt lat="53.678224235773087" lon="10.07139871828258">
        <ele>21.190000000000001</ele>
        <time>2021-09-13T09:51:41Z</time>
      </trkpt>
      <trkpt lat="53.678215853869915" lon="10.071479436010122">
        <ele>21.190000000000001</ele>
        <time>2021-09-13T09:51:42Z</time>
      </trkpt>
      <trkpt lat="53.678209148347378" lon="10.071556465700269">
        <ele>21.16</ele>
        <time>2021-09-13T09:51:43Z</time>
      </trkpt>
      <trkpt lat="53.678204454481602" lon="10.071613462641835">
        <ele>21.120000000000001</ele>
        <time>2021-09-13T09:51:44Z</time>
      </trkpt>
      <trkpt lat="53.678159276023507" lon="10.072264233604074">
        <ele>20.68</ele>
        <time>2021-09-13T09:51:54Z</time>
      </trkpt>
      <trkpt lat="53.678118120878935" lon="10.07296135649085">
        <ele>20.300000000000001</ele>
        <time>2021-09-13T09:52:04Z</time>
      </trkpt>
      <trkpt lat="53.678108816966414" lon="10.0730917789042">
        <ele>20.210000000000001</ele>
        <time>2021-09-13T09:52:06Z</time>
      </trkpt>
      <trkpt lat="53.678097166121006" lon="10.073169143870473">
        <ele>20.170000000000002</ele>
        <time>2021-09-13T09:52:07Z</time>
      </trkpt>
      <trkpt lat="53.678087862208486" lon="10.073245083913207">
        <ele>20.129999999999999</ele>
        <time>2021-09-13T09:52:08Z</time>
      </trkpt>
      <trkpt lat="53.678090628236532" lon="10.073324041441083">
        <ele>20.09</ele>
        <time>2021-09-13T09:52:09Z</time>
      </trkpt>
      <trkpt lat="53.678091550245881" lon="10.073390090838075">
        <ele>20.07</ele>
        <time>2021-09-13T09:52:10Z</time>
      </trkpt>
      <trkpt lat="53.678078474476933" lon="10.073821842670441">
        <ele>19.91</ele>
        <time>2021-09-13T09:52:16Z</time>
      </trkpt>
      <trkpt lat="53.67808316834271" lon="10.073891077190638">
        <ele>19.850000000000001</ele>
        <time>2021-09-13T09:52:17Z</time>
      </trkpt>
      <trkpt lat="53.67807830683887" lon="10.073961233720183">
        <ele>19.789999999999999</ele>
        <time>2021-09-13T09:52:18Z</time>
      </trkpt>
      <trkpt lat="53.678070344030857" lon="10.074036587029696">
        <ele>19.75</ele>
        <time>2021-09-13T09:52:19Z</time>
      </trkpt>
      <trkpt lat="53.678067745640874" lon="10.074118226766586">
        <ele>19.710000000000001</ele>
        <time>2021-09-13T09:52:20Z</time>
      </trkpt>
      <trkpt lat="53.678048299625516" lon="10.074794813990593">
        <ele>18.969999999999999</ele>
        <time>2021-09-13T09:52:29Z</time>
      </trkpt>
      <trkpt lat="53.678134549409151" lon="10.075292531400919">
        <ele>17.82</ele>
        <time>2021-09-13T09:52:39Z</time>
      </trkpt>
      <trkpt lat="53.678161036223173" lon="10.075805755332112">
        <ele>18.93</ele>
        <time>2021-09-13T09:52:52Z</time>
      </trkpt>
      <trkpt lat="53.678040839731693" lon="10.076251169666648">
        <ele>18.719999999999999</ele>
        <time>2021-09-13T09:53:02Z</time>
      </trkpt>
      <trkpt lat="53.67777781561017" lon="10.076509332284331">
        <ele>18.390000000000001</ele>
        <time>2021-09-13T09:53:11Z</time>
      </trkpt>
      <trkpt lat="53.677469780668616" lon="10.076967235654593">
        <ele>18.309999999999999</ele>
        <time>2021-09-13T09:53:22Z</time>
      </trkpt>
      <trkpt lat="53.677357882261276" lon="10.077209137380123">
        <ele>18.620000000000001</ele>
        <time>2021-09-13T09:53:29Z</time>
      </trkpt>
      <trkpt lat="53.677340615540743" lon="10.077254148200154">
        <ele>18.649999999999999</ele>
        <time>2021-09-13T09:53:30Z</time>
      </trkpt>
      <trkpt lat="53.677048338577151" lon="10.077781789004803">
        <ele>18.170000000000002</ele>
        <time>2021-09-13T09:53:42Z</time>
      </trkpt>
      <trkpt lat="53.676748434081674" lon="10.077978428453207">
        <ele>18.140000000000001</ele>
        <time>2021-09-13T09:53:51Z</time>
      </trkpt>
      <trkpt lat="53.676423383876681" lon="10.078123435378075">
        <ele>16.609999999999999</ele>
        <time>2021-09-13T09:54:00Z</time>
      </trkpt>
      <trkpt lat="53.676149128004909" lon="10.078432476148009">
        <ele>16.43</ele>
        <time>2021-09-13T09:54:10Z</time>
      </trkpt>
      <trkpt lat="53.675870262086391" lon="10.078825587406754">
        <ele>16.620000000000001</ele>
        <time>2021-09-13T09:54:21Z</time>
      </trkpt>
      <trkpt lat="53.675604723393917" lon="10.079200007021427">
        <ele>17.109999999999999</ele>
        <time>2021-09-13T09:54:31Z</time>
      </trkpt>
      <trkpt lat="53.675281265750527" lon="10.079653719440103">
        <ele>16.59</ele>
        <time>2021-09-13T09:54:43Z</time>
      </trkpt>
      <trkpt lat="53.675054702907801" lon="10.080112712457776">
        <ele>17.059999999999999</ele>
        <time>2021-09-13T09:54:54Z</time>
      </trkpt>
      <trkpt lat="53.674857895821333" lon="10.080639095976949">
        <ele>16.809999999999999</ele>
        <time>2021-09-13T09:55:04Z</time>
      </trkpt>
      <trkpt lat="53.674701573327184" lon="10.081090042367578">
        <ele>16.829999999999998</ele>
        <time>2021-09-13T09:55:14Z</time>
      </trkpt>
      <trkpt lat="53.674680450931191" lon="10.081170005723834">
        <ele>16.829999999999998</ele>
        <time>2021-09-13T09:55:16Z</time>
      </trkpt>
      <trkpt lat="53.67466720752418" lon="10.081223649904132">
        <ele>16.829999999999998</ele>
        <time>2021-09-13T09:55:17Z</time>
      </trkpt>
      <trkpt lat="53.674658825621009" lon="10.081274528056383">
        <ele>16.82</ele>
        <time>2021-09-13T09:55:18Z</time>
      </trkpt>
      <trkpt lat="53.674647090956569" lon="10.081325070932508">
        <ele>16.800000000000001</ele>
        <time>2021-09-13T09:55:19Z</time>
      </trkpt>
      <trkpt lat="53.674632757902145" lon="10.081388019025326">
        <ele>16.789999999999999</ele>
        <time>2021-09-13T09:55:20Z</time>
      </trkpt>
      <trkpt lat="53.674491606652737" lon="10.082025043666363">
        <ele>16.969999999999999</ele>
        <time>2021-09-13T09:55:32Z</time>
      </trkpt>
      <trkpt lat="53.674301421269774" lon="10.082654021680355">
        <ele>17.34</ele>
        <time>2021-09-13T09:55:43Z</time>
      </trkpt>
      <trkpt lat="53.674112660810351" lon="10.083115864545107">
        <ele>17.25</ele>
        <time>2021-09-13T09:55:52Z</time>
      </trkpt>
      <trkpt lat="53.674052646383643" lon="10.083244694396853">
        <ele>17.190000000000001</ele>
        <time>2021-09-13T09:55:55Z</time>
      </trkpt>
      <trkpt lat="53.674039905890822" lon="10.083288364112377">
        <ele>17.170000000000002</ele>
        <time>2021-09-13T09:55:56Z</time>
      </trkpt>
      <trkpt lat="53.67402071133256" lon="10.083330692723393">
        <ele>17.140000000000001</ele>
        <time>2021-09-13T09:55:57Z</time>
      </trkpt>
      <trkpt lat="53.673996822908521" lon="10.083376122638583">
        <ele>17.07</ele>
        <time>2021-09-13T09:55:58Z</time>
      </trkpt>
      <trkpt lat="53.673976371064782" lon="10.083419289439917">
        <ele>17.039999999999999</ele>
        <time>2021-09-13T09:55:59Z</time>
      </trkpt>
      <trkpt lat="53.673958601430058" lon="10.083454409614205">
        <ele>17.010000000000002</ele>
        <time>2021-09-13T09:56:00Z</time>
      </trkpt>
      <trkpt lat="53.67393764667213" lon="10.083492966368794">
        <ele>17.02</ele>
        <time>2021-09-13T09:56:01Z</time>
      </trkpt>
      <trkpt lat="53.673910405486822" lon="10.083526158705354">
        <ele>17.129999999999999</ele>
        <time>2021-09-13T09:56:02Z</time>
      </trkpt>
      <trkpt lat="53.673877967521548" lon="10.083555746823549">
        <ele>17.190000000000001</ele>
        <time>2021-09-13T09:56:03Z</time>
      </trkpt>
      <trkpt lat="53.673844607546926" lon="10.083585251122713">
        <ele>17.239999999999998</ele>
        <time>2021-09-13T09:56:04Z</time>
      </trkpt>
      <trkpt lat="53.67381158284843" lon="10.083623556420207">
        <ele>17.27</ele>
        <time>2021-09-13T09:56:05Z</time>
      </trkpt>
      <trkpt lat="53.673779228702188" lon="10.083661610260606">
        <ele>17.280000000000001</ele>
        <time>2021-09-13T09:56:06Z</time>
      </trkpt>
      <trkpt lat="53.673758273944259" lon="10.083701256662607">
        <ele>17.280000000000001</ele>
        <time>2021-09-13T09:56:07Z</time>
      </trkpt>
      <trkpt lat="53.673739917576313" lon="10.083738220855594">
        <ele>17.280000000000001</ele>
        <time>2021-09-13T09:56:08Z</time>
      </trkpt>
      <trkpt lat="53.673718878999352" lon="10.083770826458931">
        <ele>17.27</ele>
        <time>2021-09-13T09:56:09Z</time>
      </trkpt>
      <trkpt lat="53.673692895099521" lon="10.083801923319697">
        <ele>17.27</ele>
        <time>2021-09-13T09:56:10Z</time>
      </trkpt>
      <trkpt lat="53.673670934513211" lon="10.083845928311348">
        <ele>17.27</ele>
        <time>2021-09-13T09:56:11Z</time>
      </trkpt>
      <trkpt lat="53.67364788427949" lon="10.083884736523032">
        <ele>17.27</ele>
        <time>2021-09-13T09:56:12Z</time>
      </trkpt>
      <trkpt lat="53.673618715256453" lon="10.083923460915685">
        <ele>17.27</ele>
        <time>2021-09-13T09:56:13Z</time>
      </trkpt>
      <trkpt lat="53.67359222844243" lon="10.083961011841893">
        <ele>17.289999999999999</ele>
        <time>2021-09-13T09:56:14Z</time>
      </trkpt>
      <trkpt lat="53.673571022227407" lon="10.083996718749404">
        <ele>17.359999999999999</ele>
        <time>2021-09-13T09:56:15Z</time>
      </trkpt>
      <trkpt lat="53.673546630889177" lon="10.084029911085963">
        <ele>17.43</ele>
        <time>2021-09-13T09:56:16Z</time>
      </trkpt>
      <trkpt lat="53.673518216237426" lon="10.084071233868599">
        <ele>17.48</ele>
        <time>2021-09-13T09:56:17Z</time>
      </trkpt>
      <trkpt lat="53.673487789928913" lon="10.084114484488964">
        <ele>17.52</ele>
        <time>2021-09-13T09:56:18Z</time>
      </trkpt>
      <trkpt lat="53.673034496605396" lon="10.084501812234521">
        <ele>17.670000000000002</ele>
        <time>2021-09-13T09:56:30Z</time>
      </trkpt>
      <trkpt lat="53.672648090869188" lon="10.084796855226159">
        <ele>17.949999999999999</ele>
        <time>2021-09-13T09:56:42Z</time>
      </trkpt>
      <trkpt lat="53.672637781128287" lon="10.08482376113534">
        <ele>17.960000000000001</ele>
        <time>2021-09-13T09:56:43Z</time>
      </trkpt>
      <trkpt lat="53.672630405053496" lon="10.084855277091265">
        <ele>17.960000000000001</ele>
        <time>2021-09-13T09:56:44Z</time>
      </trkpt>
      <trkpt lat="53.672616658732295" lon="10.084954099729657">
        <ele>17.859999999999999</ele>
        <time>2021-09-13T09:56:46Z</time>
      </trkpt>
      <trkpt lat="53.672565193846822" lon="10.08515652269125">
        <ele>17.27</ele>
        <time>2021-09-13T09:56:49Z</time>
      </trkpt>
      <trkpt lat="53.672401746734977" lon="10.08580544963479">
        <ele>16.449999999999999</ele>
        <time>2021-09-13T09:57:00Z</time>
      </trkpt>
      <trkpt lat="53.672400573268533" lon="10.08588214404881">
        <ele>16.379999999999999</ele>
        <time>2021-09-13T09:57:02Z</time>
      </trkpt>
      <trkpt lat="53.672407111153007" lon="10.085924472659826">
        <ele>16.370000000000001</ele>
        <time>2021-09-13T09:57:03Z</time>
      </trkpt>
      <trkpt lat="53.672412978485227" lon="10.085963113233447">
        <ele>16.370000000000001</ele>
        <time>2021-09-13T09:57:04Z</time>
      </trkpt>
      <trkpt lat="53.672514483332634" lon="10.086316326633096">
        <ele>16.440000000000001</ele>
        <time>2021-09-13T09:57:16Z</time>
      </trkpt>
      <trkpt lat="53.672518003731966" lon="10.086318422108889">
        <ele>16.440000000000001</ele>
        <time>2021-09-13T09:57:17Z</time>
      </trkpt>
      <trkpt lat="53.672456480562687" lon="10.086349854245782">
        <ele>16.440000000000001</ele>
        <time>2021-09-13T09:57:37Z</time>
      </trkpt>
      <trkpt lat="53.672443991526961" lon="10.086339209228754">
        <ele>16.440000000000001</ele>
        <time>2021-09-13T09:57:38Z</time>
      </trkpt>
      <trkpt lat="53.672431167215109" lon="10.086319511756301">
        <ele>16.440000000000001</ele>
        <time>2021-09-13T09:57:39Z</time>
      </trkpt>
      <trkpt lat="53.672418929636478" lon="10.086301574483514">
        <ele>16.440000000000001</ele>
        <time>2021-09-13T09:57:40Z</time>
      </trkpt>
      <trkpt lat="53.672404512763023" lon="10.08628573268652">
        <ele>16.440000000000001</ele>
        <time>2021-09-13T09:57:41Z</time>
      </trkpt>
      <trkpt lat="53.672388084232807" lon="10.086264945566654">
        <ele>16.440000000000001</ele>
        <time>2021-09-13T09:57:42Z</time>
      </trkpt>
      <trkpt lat="53.672297140583396" lon="10.086063360795379">
        <ele>16.190000000000001</ele>
        <time>2021-09-13T09:57:51Z</time>
      </trkpt>
      <trkpt lat="53.672250034287572" lon="10.08605414070189">
        <ele>15.619999999999999</ele>
        <time>2021-09-13T09:57:56Z</time>
      </trkpt>
      <trkpt lat="53.672219021245837" lon="10.086150784045458">
        <ele>15.23</ele>
        <time>2021-09-13T09:58:00Z</time>
      </trkpt>
      <trkpt lat="53.672218769788742" lon="10.086213732138276">
        <ele>14.279999999999999</ele>
        <time>2021-09-13T09:58:02Z</time>
      </trkpt>
      <trkpt lat="53.672223379835486" lon="10.086254719644785">
        <ele>13.880000000000001</ele>
        <time>2021-09-13T09:58:03Z</time>
      </trkpt>
      <trkpt lat="53.672217512503266" lon="10.086296964436769">
        <ele>13.48</ele>
        <time>2021-09-13T09:58:04Z</time>
      </trkpt>
      <trkpt lat="53.672204269096255" lon="10.086339125409722">
        <ele>13.09</ele>
        <time>2021-09-13T09:58:05Z</time>
      </trkpt>
      <trkpt lat="53.672186750918627" lon="10.086379945278168">
        <ele>12.720000000000001</ele>
        <time>2021-09-13T09:58:06Z</time>
      </trkpt>
      <trkpt lat="53.67216981947422" lon="10.086415065452456">
        <ele>12.4</ele>
        <time>2021-09-13T09:58:07Z</time>
      </trkpt>
      <trkpt lat="53.671955410391092" lon="10.086676580831409">
        <ele>11.43</ele>
        <time>2021-09-13T09:58:18Z</time>
      </trkpt>
      <trkpt lat="53.671530028805137" lon="10.086993500590324">
        <ele>10.82</ele>
        <time>2021-09-13T09:58:29Z</time>
      </trkpt>
      <trkpt lat="53.671213695779443" lon="10.087054604664445">
        <ele>11.49</ele>
        <time>2021-09-13T09:58:41Z</time>
      </trkpt>
      <trkpt lat="53.671021079644561" lon="10.086869113147259">
        <ele>13.57</ele>
        <time>2021-09-13T09:58:53Z</time>
      </trkpt>
      <trkpt lat="53.670862661674619" lon="10.086733996868134">
        <ele>14.91</ele>
        <time>2021-09-13T09:59:02Z</time>
      </trkpt>
      <trkpt lat="53.670814968645573" lon="10.086721340194345">
        <ele>15.6</ele>
        <time>2021-09-13T09:59:08Z</time>
      </trkpt>
      <trkpt lat="53.670749925076962" lon="10.08677925914526">
        <ele>15.68</ele>
        <time>2021-09-13T09:59:16Z</time>
      </trkpt>
      <trkpt lat="53.670733580365777" lon="10.086834831163287">
        <ele>15.68</ele>
        <time>2021-09-13T09:59:18Z</time>
      </trkpt>
      <trkpt lat="53.670737184584141" lon="10.086866514757276">
        <ele>15.68</ele>
        <time>2021-09-13T09:59:19Z</time>
      </trkpt>
      <trkpt lat="53.670745566487312" lon="10.086898617446423">
        <ele>15.68</ele>
        <time>2021-09-13T09:59:20Z</time>
      </trkpt>
      <trkpt lat="53.670757720246911" lon="10.08693122304976">
        <ele>15.68</ele>
        <time>2021-09-13T09:59:21Z</time>
      </trkpt>
      <trkpt lat="53.670770041644573" lon="10.086966762319207">
        <ele>15.68</ele>
        <time>2021-09-13T09:59:22Z</time>
      </trkpt>
      <trkpt lat="53.670961484313011" lon="10.087569002062082">
        <ele>15.630000000000001</ele>
        <time>2021-09-13T09:59:36Z</time>
      </trkpt>
      <trkpt lat="53.671177988871932" lon="10.088128158822656">
        <ele>16.359999999999999</ele>
        <time>2021-09-13T09:59:49Z</time>
      </trkpt>
      <trkpt lat="53.671423494815826" lon="10.088811283931136">
        <ele>17.16</ele>
        <time>2021-09-13T10:00:03Z</time>
      </trkpt>
      <trkpt lat="53.671636814251542" lon="10.089396508410573">
        <ele>17.77</ele>
        <time>2021-09-13T10:00:15Z</time>
      </trkpt>
      <trkpt lat="53.671776792034507" lon="10.089832032099366">
        <ele>18.300000000000001</ele>
        <time>2021-09-13T10:00:25Z</time>
      </trkpt>
      <trkpt lat="53.671981226652861" lon="10.090457992628217">
        <ele>19.079999999999998</ele>
        <time>2021-09-13T10:00:37Z</time>
      </trkpt>
      <trkpt lat="53.672199742868543" lon="10.090938359498978">
        <ele>19.620000000000001</ele>
        <time>2021-09-13T10:00:49Z</time>
      </trkpt>
      <trkpt lat="53.672482380643487" lon="10.09116031229496">
        <ele>19.870000000000001</ele>
        <time>2021-09-13T10:00:59Z</time>
      </trkpt>
      <trkpt lat="53.672902146354318" lon="10.091513777151704">
        <ele>20.059999999999999</ele>
        <time>2021-09-13T10:01:12Z</time>
      </trkpt>
      <trkpt lat="53.673310512676835" lon="10.091871516779065">
        <ele>20.149999999999999</ele>
        <time>2021-09-13T10:01:23Z</time>
      </trkpt>
      <trkpt lat="53.673880398273468" lon="10.092228418216109">
        <ele>20.100000000000001</ele>
        <time>2021-09-13T10:01:39Z</time>
      </trkpt>
      <trkpt lat="53.673891797661781" lon="10.092270579189062">
        <ele>20.100000000000001</ele>
        <time>2021-09-13T10:01:40Z</time>
      </trkpt>
      <trkpt lat="53.673895569518209" lon="10.092317182570696">
        <ele>20.09</ele>
        <time>2021-09-13T10:01:41Z</time>
      </trkpt>
      <trkpt lat="53.673894228413701" lon="10.092364959418774">
        <ele>20.07</ele>
        <time>2021-09-13T10:01:42Z</time>
      </trkpt>
      <trkpt lat="53.673793226480484" lon="10.093016484752297">
        <ele>19.850000000000001</ele>
        <time>2021-09-13T10:01:57Z</time>
      </trkpt>
      <trkpt lat="53.673767745494843" lon="10.093170711770654">
        <ele>19.850000000000001</ele>
        <time>2021-09-13T10:02:01Z</time>
      </trkpt>
      <trkpt lat="53.673690967261791" lon="10.093889208510518">
        <ele>20.120000000000001</ele>
        <time>2021-09-13T10:02:17Z</time>
      </trkpt>
      <trkpt lat="53.673602035269141" lon="10.094460602849722">
        <ele>20.18</ele>
        <time>2021-09-13T10:02:30Z</time>
      </trkpt>
      <trkpt lat="53.673559287562966" lon="10.095153534784913">
        <ele>19.98</ele>
        <time>2021-09-13T10:02:44Z</time>
      </trkpt>
      <trkpt lat="53.673503967002034" lon="10.095739178359509">
        <ele>19.760000000000002</ele>
        <time>2021-09-13T10:02:55Z</time>
      </trkpt>
      <trkpt lat="53.673319229856133" lon="10.096371928229928">
        <ele>19.780000000000001</ele>
        <time>2021-09-13T10:03:07Z</time>
      </trkpt>
      <trkpt lat="53.673079926520586" lon="10.097019262611866">
        <ele>20.239999999999998</ele>
        <time>2021-09-13T10:03:21Z</time>
      </trkpt>
      <trkpt lat="53.67279720492661" lon="10.097818728536367">
        <ele>20.109999999999999</ele>
        <time>2021-09-13T10:03:36Z</time>
      </trkpt>
      <trkpt lat="53.672556560486555" lon="10.098629845306277">
        <ele>19.949999999999999</ele>
        <time>2021-09-13T10:03:49Z</time>
      </trkpt>
      <trkpt lat="53.672537030652165" lon="10.098691955208778">
        <ele>19.920000000000002</ele>
        <time>2021-09-13T10:03:50Z</time>
      </trkpt>
      <trkpt lat="53.672519596293569" lon="10.098756747320294">
        <ele>19.899999999999999</ele>
        <time>2021-09-13T10:03:51Z</time>
      </trkpt>
      <trkpt lat="53.672321867197752" lon="10.099561158567667">
        <ele>19.329999999999998</ele>
        <time>2021-09-13T10:04:02Z</time>
      </trkpt>
      <trkpt lat="53.672302505001426" lon="10.09963458403945">
        <ele>19.27</ele>
        <time>2021-09-13T10:04:03Z</time>
      </trkpt>
      <trkpt lat="53.672271743416786" lon="10.099779590964317">
        <ele>19.149999999999999</ele>
        <time>2021-09-13T10:04:05Z</time>
      </trkpt>
      <trkpt lat="53.672253889963031" lon="10.099845556542277">
        <ele>19.039999999999999</ele>
        <time>2021-09-13T10:04:06Z</time>
      </trkpt>
      <trkpt lat="53.672237293794751" lon="10.099917724728584">
        <ele>18.949999999999999</ele>
        <time>2021-09-13T10:04:07Z</time>
      </trkpt>
      <trkpt lat="53.672226062044501" lon="10.099992491304874">
        <ele>18.800000000000001</ele>
        <time>2021-09-13T10:04:08Z</time>
      </trkpt>
      <trkpt lat="53.672212567180395" lon="10.100068766623735">
        <ele>18.66</ele>
        <time>2021-09-13T10:04:09Z</time>
      </trkpt>
      <trkpt lat="53.672196725383401" lon="10.100148227065802">
        <ele>18.539999999999999</ele>
        <time>2021-09-13T10:04:10Z</time>
      </trkpt>
      <trkpt lat="53.671956919133663" lon="10.101289758458734">
        <ele>17.449999999999999</ele>
        <time>2021-09-13T10:04:24Z</time>
      </trkpt>
      <trkpt lat="53.671940825879574" lon="10.101360836997628">
        <ele>17.390000000000001</ele>
        <time>2021-09-13T10:04:25Z</time>
      </trkpt>
      <trkpt lat="53.671930516138673" lon="10.101425377652049">
        <ele>17.34</ele>
        <time>2021-09-13T10:04:26Z</time>
      </trkpt>
      <trkpt lat="53.671928672119975" lon="10.101484889164567">
        <ele>17.16</ele>
        <time>2021-09-13T10:04:27Z</time>
      </trkpt>
      <trkpt lat="53.671934874728322" lon="10.101539622992277">
        <ele>17.16</ele>
        <time>2021-09-13T10:04:28Z</time>
      </trkpt>
      <trkpt lat="53.67195088416338" lon="10.101584382355213">
        <ele>17.059999999999999</ele>
        <time>2021-09-13T10:04:29Z</time>
      </trkpt>
      <trkpt lat="53.671975275501609" lon="10.101611455902457">
        <ele>16.949999999999999</ele>
        <time>2021-09-13T10:04:30Z</time>
      </trkpt>
      <trkpt lat="53.672007126733661" lon="10.101631572470069">
        <ele>16.890000000000001</ele>
        <time>2021-09-13T10:04:31Z</time>
      </trkpt>
      <trkpt lat="53.67205155082047" lon="10.101644899696112">
        <ele>16.809999999999999</ele>
        <time>2021-09-13T10:04:32Z</time>
      </trkpt>
      <trkpt lat="53.672098992392421" lon="10.10166434571147">
        <ele>16.719999999999999</ele>
        <time>2021-09-13T10:04:33Z</time>
      </trkpt>
      <trkpt lat="53.672136962413788" lon="10.101693514734507">
        <ele>16.670000000000002</ele>
        <time>2021-09-13T10:04:34Z</time>
      </trkpt>
      <trkpt lat="53.672465113922954" lon="10.101961735635996">
        <ele>16.309999999999999</ele>
        <time>2021-09-13T10:04:43Z</time>
      </trkpt>
      <trkpt lat="53.672669967636466" lon="10.102121997624636">
        <ele>16.079999999999998</ele>
        <time>2021-09-13T10:04:48Z</time>
      </trkpt>
      <trkpt lat="53.672712044790387" lon="10.102158710360527">
        <ele>16.02</ele>
        <time>2021-09-13T10:04:49Z</time>
      </trkpt>
      <trkpt lat="53.6731499992311" lon="10.102466577664018">
        <ele>15.67</ele>
        <time>2021-09-13T10:05:00Z</time>
      </trkpt>
      <trkpt lat="53.673280505463481" lon="10.102564226835966">
        <ele>15.74</ele>
        <time>2021-09-13T10:05:03Z</time>
      </trkpt>
      <trkpt lat="53.673329874873161" lon="10.102599179372191">
        <ele>15.75</ele>
        <time>2021-09-13T10:05:04Z</time>
      </trkpt>
      <trkpt lat="53.673939658328891" lon="10.102914506569505">
        <ele>15.74</ele>
        <time>2021-09-13T10:05:18Z</time>
      </trkpt>
      <trkpt lat="53.674470819532871" lon="10.103166801854968">
        <ele>15.880000000000001</ele>
        <time>2021-09-13T10:05:31Z</time>
      </trkpt>
      <trkpt lat="53.674955209717155" lon="10.10335941798985">
        <ele>16.309999999999999</ele>
        <time>2021-09-13T10:05:44Z</time>
      </trkpt>
      <trkpt lat="53.675423339009285" lon="10.103599643334746">
        <ele>16.449999999999999</ele>
        <time>2021-09-13T10:05:57Z</time>
      </trkpt>
      <trkpt lat="53.675547977909446" lon="10.103726042434573">
        <ele>16.5</ele>
        <time>2021-09-13T10:06:02Z</time>
      </trkpt>
      <trkpt lat="53.675552504137158" lon="10.103759737685323">
        <ele>16.5</ele>
        <time>2021-09-13T10:06:03Z</time>
      </trkpt>
      <trkpt lat="53.675550408661366" lon="10.103788990527391">
        <ele>16.5</ele>
        <time>2021-09-13T10:06:04Z</time>
      </trkpt>
      <trkpt lat="53.67554672062397" lon="10.10380994528532">
        <ele>16.5</ele>
        <time>2021-09-13T10:06:05Z</time>
      </trkpt>
      <trkpt lat="53.675544122233987" lon="10.103827714920044">
        <ele>16.5</ele>
        <time>2021-09-13T10:06:06Z</time>
      </trkpt>
      <trkpt lat="53.675541440024972" lon="10.103842215612531">
        <ele>16.460000000000001</ele>
        <time>2021-09-13T10:06:07Z</time>
      </trkpt>
      <trkpt lat="53.675538254901767" lon="10.103854620829225">
        <ele>16.440000000000001</ele>
        <time>2021-09-13T10:06:08Z</time>
      </trkpt>
      <trkpt lat="53.67552325129509" lon="10.103960400447249">
        <ele>15.75</ele>
        <time>2021-09-13T10:06:14Z</time>
      </trkpt>
      <trkpt lat="53.675495004281402" lon="10.104079088196158">
        <ele>14.630000000000001</ele>
        <time>2021-09-13T10:06:20Z</time>
      </trkpt>
      <trkpt lat="53.675455860793591" lon="10.104171959683299">
        <ele>12.640000000000001</ele>
        <time>2021-09-13T10:06:29Z</time>
      </trkpt>
      <trkpt lat="53.675324684008956" lon="10.104571273550391">
        <ele>12.640000000000001</ele>
        <time>2021-09-13T10:07:01Z</time>
      </trkpt>
      <trkpt lat="53.675337759777904" lon="10.10460346005857">
        <ele>12.640000000000001</ele>
        <time>2021-09-13T10:07:02Z</time>
      </trkpt>
      <trkpt lat="53.675351087003946" lon="10.104626845568419">
        <ele>12.640000000000001</ele>
        <time>2021-09-13T10:07:03Z</time>
      </trkpt>
      <trkpt lat="53.675394589081407" lon="10.104762548580766">
        <ele>10.1</ele>
        <time>2021-09-13T10:07:08Z</time>
      </trkpt>
      <trkpt lat="53.675405066460371" lon="10.10478719137609">
        <ele>10.039999999999999</ele>
        <time>2021-09-13T10:07:09Z</time>
      </trkpt>
      <trkpt lat="53.675414202734828" lon="10.104811163619161">
        <ele>10.050000000000001</ele>
        <time>2021-09-13T10:07:10Z</time>
      </trkpt>
      <trkpt lat="53.675421243533492" lon="10.104839662089944">
        <ele>10.1</ele>
        <time>2021-09-13T10:07:11Z</time>
      </trkpt>
      <trkpt lat="53.675428200513124" lon="10.104870088398457">
        <ele>10.140000000000001</ele>
        <time>2021-09-13T10:07:12Z</time>
      </trkpt>
      <trkpt lat="53.675434906035662" lon="10.104896994307637">
        <ele>10.16</ele>
        <time>2021-09-13T10:07:13Z</time>
      </trkpt>
      <trkpt lat="53.675442785024643" lon="10.104919960722327">
        <ele>10.18</ele>
        <time>2021-09-13T10:07:14Z</time>
      </trkpt>
      <trkpt lat="53.675450077280402" lon="10.104944352060556">
        <ele>10.27</ele>
        <time>2021-09-13T10:07:15Z</time>
      </trkpt>
      <trkpt lat="53.675458626821637" lon="10.104972347617149">
        <ele>10.4</ele>
        <time>2021-09-13T10:07:16Z</time>
      </trkpt>
      <trkpt lat="53.675468768924475" lon="10.105000846087933">
        <ele>10.52</ele>
        <time>2021-09-13T10:07:17Z</time>
      </trkpt>
      <trkpt lat="53.675478240475059" lon="10.105027249082923">
        <ele>10.630000000000001</ele>
        <time>2021-09-13T10:07:18Z</time>
      </trkpt>
      <trkpt lat="53.675486957654357" lon="10.105059687048197">
        <ele>10.82</ele>
        <time>2021-09-13T10:07:19Z</time>
      </trkpt>
      <trkpt lat="53.675497183576226" lon="10.1050940528512">
        <ele>10.880000000000001</ele>
        <time>2021-09-13T10:07:20Z</time>
      </trkpt>
      <trkpt lat="53.675613943487406" lon="10.105565618723631">
        <ele>10.859999999999999</ele>
        <time>2021-09-13T10:07:32Z</time>
      </trkpt>
      <trkpt lat="53.675619978457689" lon="10.105601577088237">
        <ele>10.76</ele>
        <time>2021-09-13T10:07:33Z</time>
      </trkpt>
      <trkpt lat="53.675622325390577" lon="10.10563594289124">
        <ele>10.640000000000001</ele>
        <time>2021-09-13T10:07:34Z</time>
      </trkpt>
      <trkpt lat="53.675627270713449" lon="10.10567550547421">
        <ele>10.449999999999999</ele>
        <time>2021-09-13T10:07:35Z</time>
      </trkpt>
      <trkpt lat="53.675637077540159" lon="10.105719761922956">
        <ele>10.220000000000001</ele>
        <time>2021-09-13T10:07:36Z</time>
      </trkpt>
      <trkpt lat="53.675592904910445" lon="10.10615486651659">
        <ele>7.22</ele>
        <time>2021-09-13T10:07:43Z</time>
      </trkpt>
      <trkpt lat="53.675359049811959" lon="10.106553845107555">
        <ele>6.32</ele>
        <time>2021-09-13T10:07:55Z</time>
      </trkpt>
      <trkpt lat="53.675210019573569" lon="10.106751741841435">
        <ele>7.18</ele>
        <time>2021-09-13T10:08:06Z</time>
      </trkpt>
      <trkpt lat="53.674810118973255" lon="10.107460012659431">
        <ele>14.82</ele>
        <time>2021-09-13T10:14:29Z</time>
      </trkpt>
      <trkpt lat="53.674795869737864" lon="10.107494378462434">
        <ele>14.82</ele>
        <time>2021-09-13T10:14:30Z</time>
      </trkpt>
      <trkpt lat="53.674777764827013" lon="10.107529414817691">
        <ele>14.82</ele>
        <time>2021-09-13T10:14:31Z</time>
      </trkpt>
      <trkpt lat="53.674756977707148" lon="10.107566881924868">
        <ele>14.82</ele>
        <time>2021-09-13T10:14:32Z</time>
      </trkpt>
      <trkpt lat="53.674737112596631" lon="10.107607115060091">
        <ele>14.77</ele>
        <time>2021-09-13T10:14:33Z</time>
      </trkpt>
      <trkpt lat="53.67472043260932" lon="10.107646090909839">
        <ele>14.75</ele>
        <time>2021-09-13T10:14:34Z</time>
      </trkpt>
      <trkpt lat="53.674459168687463" lon="10.108297700062394">
        <ele>14.43</ele>
        <time>2021-09-13T10:14:48Z</time>
      </trkpt>
      <trkpt lat="53.674285914748907" lon="10.108779156580567">
        <ele>14.52</ele>
        <time>2021-09-13T10:14:58Z</time>
      </trkpt>
      <trkpt lat="53.673974107950926" lon="10.1094682328403">
        <ele>14.56</ele>
        <time>2021-09-13T10:15:12Z</time>
      </trkpt>
      <trkpt lat="53.673695158213377" lon="10.110161667689681">
        <ele>14.18</ele>
        <time>2021-09-13T10:15:24Z</time>
      </trkpt>
      <trkpt lat="53.673486281186342" lon="10.110651254653931">
        <ele>14.52</ele>
        <time>2021-09-13T10:15:33Z</time>
      </trkpt>
      <trkpt lat="53.673273213207722" lon="10.11110513471067">
        <ele>14.529999999999999</ele>
        <time>2021-09-13T10:15:42Z</time>
      </trkpt>
      <trkpt lat="53.67323792539537" lon="10.111117037013173">
        <ele>14.529999999999999</ele>
        <time>2021-09-13T10:15:43Z</time>
      </trkpt>
      <trkpt lat="53.672810364514589" lon="10.111039085313678">
        <ele>14.94</ele>
        <time>2021-09-13T10:15:55Z</time>
      </trkpt>
      <trkpt lat="53.672354137524962" lon="10.110864071175456">
        <ele>15.529999999999999</ele>
        <time>2021-09-13T10:16:08Z</time>
      </trkpt>
      <trkpt lat="53.671965636312962" lon="10.110685033723712">
        <ele>16.079999999999998</ele>
        <time>2021-09-13T10:16:20Z</time>
      </trkpt>
      <trkpt lat="53.671558443456888" lon="10.110471211373806">
        <ele>16.18</ele>
        <time>2021-09-13T10:16:33Z</time>
      </trkpt>
      <trkpt lat="53.671117639169097" lon="10.110213803127408">
        <ele>15.82</ele>
        <time>2021-09-13T10:16:45Z</time>
      </trkpt>
      <trkpt lat="53.670857129618526" lon="10.109972488135099">
        <ele>15.279999999999999</ele>
        <time>2021-09-13T10:16:52Z</time>
      </trkpt>
      <trkpt lat="53.670558147132397" lon="10.109421713277698">
        <ele>13.6</ele>
        <time>2021-09-13T10:17:03Z</time>
      </trkpt>
      <trkpt lat="53.670389419421554" lon="10.109069338068366">
        <ele>12.109999999999999</ele>
        <time>2021-09-13T10:17:11Z</time>
      </trkpt>
      <trkpt lat="53.670174339786172" lon="10.108731295913458">
        <ele>9.74</ele>
        <time>2021-09-13T10:17:21Z</time>
      </trkpt>
      <trkpt lat="53.670001588761806" lon="10.108544295653701">
        <ele>8.359999999999999</ele>
        <time>2021-09-13T10:17:31Z</time>
      </trkpt>
      <trkpt lat="53.669985663145781" lon="10.108552509918809">
        <ele>8.369999999999999</ele>
        <time>2021-09-13T10:17:32Z</time>
      </trkpt>
      <trkpt lat="53.669938808307052" lon="10.10862342081964">
        <ele>8.550000000000001</ele>
        <time>2021-09-13T10:17:36Z</time>
      </trkpt>
      <trkpt lat="53.669921457767487" lon="10.108649153262377">
        <ele>8.66</ele>
        <time>2021-09-13T10:17:37Z</time>
      </trkpt>
      <trkpt lat="53.669902263209224" lon="10.108679747208953">
        <ele>8.75</ele>
        <time>2021-09-13T10:17:38Z</time>
      </trkpt>
      <trkpt lat="53.669786173850298" lon="10.10888921096921">
        <ele>11.01</ele>
        <time>2021-09-13T10:17:50Z</time>
      </trkpt>
      <trkpt lat="53.669776618480682" lon="10.108894743025303">
        <ele>11.23</ele>
        <time>2021-09-13T10:17:51Z</time>
      </trkpt>
      <trkpt lat="53.669763207435608" lon="10.108909411355853">
        <ele>11.69</ele>
        <time>2021-09-13T10:17:55Z</time>
      </trkpt>
      <trkpt lat="53.669381160289049" lon="10.109333535656333">
        <ele>14.85</ele>
        <time>2021-09-13T10:18:42Z</time>
      </trkpt>
      <trkpt lat="53.669360456988215" lon="10.109354238957167">
        <ele>14.869999999999999</ele>
        <time>2021-09-13T10:18:43Z</time>
      </trkpt>
      <trkpt lat="53.669343274086714" lon="10.10937100276351">
        <ele>14.880000000000001</ele>
        <time>2021-09-13T10:18:44Z</time>
      </trkpt>
      <trkpt lat="53.669227687641978" lon="10.109518608078361">
        <ele>14.76</ele>
        <time>2021-09-13T10:18:52Z</time>
      </trkpt>
      <trkpt lat="53.669216455891728" lon="10.109541239216924">
        <ele>14.74</ele>
        <time>2021-09-13T10:18:53Z</time>
      </trkpt>
      <trkpt lat="53.669204218313098" lon="10.10956110432744">
        <ele>14.73</ele>
        <time>2021-09-13T10:18:54Z</time>
      </trkpt>
      <trkpt lat="53.669186532497406" lon="10.109582226723433">
        <ele>14.73</ele>
        <time>2021-09-13T10:18:55Z</time>
      </trkpt>
      <trkpt lat="53.668977823108435" lon="10.109897805377841">
        <ele>15.119999999999999</ele>
        <time>2021-09-13T10:19:05Z</time>
      </trkpt>
      <trkpt lat="53.668766096234322" lon="10.110129732638597">
        <ele>15.029999999999999</ele>
        <time>2021-09-13T10:19:15Z</time>
      </trkpt>
      <trkpt lat="53.668533833697438" lon="10.110260071232915">
        <ele>15.02</ele>
        <time>2021-09-13T10:19:26Z</time>
      </trkpt>
      <trkpt lat="53.66851631551981" lon="10.110289575532079">
        <ele>15.029999999999999</ele>
        <time>2021-09-13T10:19:28Z</time>
      </trkpt>
      <trkpt lat="53.668508604168892" lon="10.110299466177821">
        <ele>15.039999999999999</ele>
        <time>2021-09-13T10:19:32Z</time>
      </trkpt>
      <trkpt lat="53.668346330523491" lon="10.110419495031238">
        <ele>15.220000000000001</ele>
        <time>2021-09-13T10:19:54Z</time>
      </trkpt>
      <trkpt lat="53.668326549232006" lon="10.110443886369467">
        <ele>15.220000000000001</ele>
        <time>2021-09-13T10:19:55Z</time>
      </trkpt>
      <trkpt lat="53.668309282511473" lon="10.110458135604858">
        <ele>15.19</ele>
        <time>2021-09-13T10:19:56Z</time>
      </trkpt>
      <trkpt lat="53.668288998305798" lon="10.110472217202187">
        <ele>15.17</ele>
        <time>2021-09-13T10:19:57Z</time>
      </trkpt>
      <trkpt lat="53.668272150680423" lon="10.110486634075642">
        <ele>15.15</ele>
        <time>2021-09-13T10:19:58Z</time>
      </trkpt>
      <trkpt lat="53.66825295612216" lon="10.110505241900682">
        <ele>15.140000000000001</ele>
        <time>2021-09-13T10:19:59Z</time>
      </trkpt>
      <trkpt lat="53.668028572574258" lon="10.110690565779805">
        <ele>15.050000000000001</ele>
        <time>2021-09-13T10:20:08Z</time>
      </trkpt>
      <trkpt lat="53.66784350015223" lon="10.11077974922955">
        <ele>15.01</ele>
        <time>2021-09-13T10:20:15Z</time>
      </trkpt>
      <trkpt lat="53.667819024994969" lon="10.110800033435225">
        <ele>15.029999999999999</ele>
        <time>2021-09-13T10:20:16Z</time>
      </trkpt>
      <trkpt lat="53.667789101600647" lon="10.110814785584807">
        <ele>15.050000000000001</ele>
        <time>2021-09-13T10:20:17Z</time>
      </trkpt>
      <trkpt lat="53.667763452976942" lon="10.110837751999497">
        <ele>15.07</ele>
        <time>2021-09-13T10:20:18Z</time>
      </trkpt>
      <trkpt lat="53.667735373601317" lon="10.110863735899329">
        <ele>15.1</ele>
        <time>2021-09-13T10:20:19Z</time>
      </trkpt>
      <trkpt lat="53.667705366387963" lon="10.110881002619863">
        <ele>15.119999999999999</ele>
        <time>2021-09-13T10:20:20Z</time>
      </trkpt>
      <trkpt lat="53.667676281183958" lon="10.110898772254586">
        <ele>15.130000000000001</ele>
        <time>2021-09-13T10:20:21Z</time>
      </trkpt>
      <trkpt lat="53.667649039998651" lon="10.1109170448035">
        <ele>15.140000000000001</ele>
        <time>2021-09-13T10:20:22Z</time>
      </trkpt>
      <trkpt lat="53.667627833783627" lon="10.110934479162097">
        <ele>15.15</ele>
        <time>2021-09-13T10:20:23Z</time>
      </trkpt>
      <trkpt lat="53.667601766064763" lon="10.110952751711011">
        <ele>15.15</ele>
        <time>2021-09-13T10:20:24Z</time>
      </trkpt>
      <trkpt lat="53.667265400290489" lon="10.111162969842553">
        <ele>14.84</ele>
        <time>2021-09-13T10:20:36Z</time>
      </trkpt>
      <trkpt lat="53.666903721168637" lon="10.111272856593132">
        <ele>14.800000000000001</ele>
        <time>2021-09-13T10:20:48Z</time>
      </trkpt>
      <trkpt lat="53.66664974950254" lon="10.11111100204289">
        <ele>14.76</ele>
        <time>2021-09-13T10:20:57Z</time>
      </trkpt>
      <trkpt lat="53.666312796995044" lon="10.110819479450583">
        <ele>15.24</ele>
        <time>2021-09-13T10:21:08Z</time>
      </trkpt>
      <trkpt lat="53.665922787040472" lon="10.110382363200188">
        <ele>15.539999999999999</ele>
        <time>2021-09-13T10:21:22Z</time>
      </trkpt>
      <trkpt lat="53.66575657390058" lon="10.110114896669984">
        <ele>15.789999999999999</ele>
        <time>2021-09-13T10:21:29Z</time>
      </trkpt>
      <trkpt lat="53.66573503240943" lon="10.110071813687682">
        <ele>15.9</ele>
        <time>2021-09-13T10:21:30Z</time>
      </trkpt>
      <trkpt lat="53.665697565302253" lon="10.110026383772492">
        <ele>15.93</ele>
        <time>2021-09-13T10:21:32Z</time>
      </trkpt>
      <trkpt lat="53.665669737383723" lon="10.109992437064648">
        <ele>15.94</ele>
        <time>2021-09-13T10:21:33Z</time>
      </trkpt>
      <trkpt lat="53.665267573669553" lon="10.10962120257318">
        <ele>15.779999999999999</ele>
        <time>2021-09-13T10:21:45Z</time>
      </trkpt>
      <trkpt lat="53.664965741336346" lon="10.109437219798565">
        <ele>15.880000000000001</ele>
        <time>2021-09-13T10:21:55Z</time>
      </trkpt>
      <trkpt lat="53.664926178753376" lon="10.109447361901402">
        <ele>15.699999999999999</ele>
        <time>2021-09-13T10:21:57Z</time>
      </trkpt>
      <trkpt lat="53.664910839870572" lon="10.109454905614257">
        <ele>15.539999999999999</ele>
        <time>2021-09-13T10:21:58Z</time>
      </trkpt>
      <trkpt lat="53.664876138791442" lon="10.109480386599898">
        <ele>15.18</ele>
        <time>2021-09-13T10:22:00Z</time>
      </trkpt>
      <trkpt lat="53.664858704432845" lon="10.109499329701066">
        <ele>14.94</ele>
        <time>2021-09-13T10:22:01Z</time>
      </trkpt>
      <trkpt lat="53.664802713319659" lon="10.109551548957825">
        <ele>14.140000000000001</ele>
        <time>2021-09-13T10:22:04Z</time>
      </trkpt>
      <trkpt lat="53.664778405800462" lon="10.109572755172849">
        <ele>13.92</ele>
        <time>2021-09-13T10:22:05Z</time>
      </trkpt>
      <trkpt lat="53.664590734988451" lon="10.109810968860984">
        <ele>11.98</ele>
        <time>2021-09-13T10:22:14Z</time>
      </trkpt>
      <trkpt lat="53.664576066657901" lon="10.109833097085357">
        <ele>11.869999999999999</ele>
        <time>2021-09-13T10:22:15Z</time>
      </trkpt>
      <trkpt lat="53.664558632299304" lon="10.109860170632601">
        <ele>11.800000000000001</ele>
        <time>2021-09-13T10:22:16Z</time>
      </trkpt>
      <trkpt lat="53.66453449241817" lon="10.109896128997207">
        <ele>11.68</ele>
        <time>2021-09-13T10:22:17Z</time>
      </trkpt>
      <trkpt lat="53.664502892643213" lon="10.109933596104383">
        <ele>11.630000000000001</ele>
        <time>2021-09-13T10:22:18Z</time>
      </trkpt>
      <trkpt lat="53.664475819095969" lon="10.109972236678004">
        <ele>11.59</ele>
        <time>2021-09-13T10:22:19Z</time>
      </trkpt>
      <trkpt lat="53.664451511576772" lon="10.110013391822577">
        <ele>11.57</ele>
        <time>2021-09-13T10:22:20Z</time>
      </trkpt>
      <trkpt lat="53.664429970085621" lon="10.110045662149787">
        <ele>11.550000000000001</ele>
        <time>2021-09-13T10:22:21Z</time>
      </trkpt>
      <trkpt lat="53.664358556270599" lon="10.110135013237596">
        <ele>11.529999999999999</ele>
        <time>2021-09-13T10:22:24Z</time>
      </trkpt>
      <trkpt lat="53.664335673674941" lon="10.110147418454289">
        <ele>11.529999999999999</ele>
        <time>2021-09-13T10:22:25Z</time>
      </trkpt>
      <trkpt lat="53.664310947060585" lon="10.110152196139097">
        <ele>11.57</ele>
        <time>2021-09-13T10:22:26Z</time>
      </trkpt>
      <trkpt lat="53.664283286780119" lon="10.110162254422903">
        <ele>11.630000000000001</ele>
        <time>2021-09-13T10:22:27Z</time>
      </trkpt>
      <trkpt lat="53.664253447204828" lon="10.110176671296358">
        <ele>11.69</ele>
        <time>2021-09-13T10:22:28Z</time>
      </trkpt>
      <trkpt lat="53.664231486618519" lon="10.110176419839263">
        <ele>11.73</ele>
        <time>2021-09-13T10:22:29Z</time>
      </trkpt>
      <trkpt lat="53.664152109995484" lon="10.110201230272651">
        <ele>12.07</ele>
        <time>2021-09-13T10:22:33Z</time>
      </trkpt>
      <trkpt lat="53.664134005084634" lon="10.110215228050947">
        <ele>12.16</ele>
        <time>2021-09-13T10:22:34Z</time>
      </trkpt>
      <trkpt lat="53.664117492735386" lon="10.110226208344102">
        <ele>12.289999999999999</ele>
        <time>2021-09-13T10:22:35Z</time>
      </trkpt>
      <trkpt lat="53.664088407531381" lon="10.110234757885337">
        <ele>13.34</ele>
        <time>2021-09-13T10:22:40Z</time>
      </trkpt>
      <trkpt lat="53.663826221600175" lon="10.110286641865969">
        <ele>14.9</ele>
        <time>2021-09-13T10:23:09Z</time>
      </trkpt>
      <trkpt lat="53.663808284327388" lon="10.110287312418222">
        <ele>14.960000000000001</ele>
        <time>2021-09-13T10:23:10Z</time>
      </trkpt>
      <trkpt lat="53.663792191073298" lon="10.110291419550776">
        <ele>15.08</ele>
        <time>2021-09-13T10:23:11Z</time>
      </trkpt>
      <trkpt lat="53.663773499429226" lon="10.110295442864299">
        <ele>15.23</ele>
        <time>2021-09-13T10:23:12Z</time>
      </trkpt>
      <trkpt lat="53.663752879947424" lon="10.110287480056286">
        <ele>15.369999999999999</ele>
        <time>2021-09-13T10:23:13Z</time>
      </trkpt>
      <trkpt lat="53.663737457245588" lon="10.110275326296687">
        <ele>15.49</ele>
        <time>2021-09-13T10:23:14Z</time>
      </trkpt>
      <trkpt lat="53.663720609620214" lon="10.110266357660294">
        <ele>15.609999999999999</ele>
        <time>2021-09-13T10:23:15Z</time>
      </trkpt>
      <trkpt lat="53.663523299619555" lon="10.110154962167144">
        <ele>16.66</ele>
        <time>2021-09-13T10:23:26Z</time>
      </trkpt>
      <trkpt lat="53.663368569687009" lon="10.110120177268982">
        <ele>17.550000000000001</ele>
        <time>2021-09-13T10:23:37Z</time>
      </trkpt>
      <trkpt lat="53.663355074822903" lon="10.110140210017562">
        <ele>17.609999999999999</ele>
        <time>2021-09-13T10:23:38Z</time>
      </trkpt>
      <trkpt lat="53.663341077044606" lon="10.110163344070315">
        <ele>17.719999999999999</ele>
        <time>2021-09-13T10:23:39Z</time>
      </trkpt>
      <trkpt lat="53.663136977702379" lon="10.110596185550094">
        <ele>16.370000000000001</ele>
        <time>2021-09-13T10:23:53Z</time>
      </trkpt>
      <trkpt lat="53.663007142022252" lon="10.110931126400828">
        <ele>16.030000000000001</ele>
        <time>2021-09-13T10:24:01Z</time>
      </trkpt>
      <trkpt lat="53.662986690178514" lon="10.110970353707671">
        <ele>16.09</ele>
        <time>2021-09-13T10:24:02Z</time>
      </trkpt>
      <trkpt lat="53.662811424583197" lon="10.111378552392125">
        <ele>17.789999999999999</ele>
        <time>2021-09-13T10:24:14Z</time>
      </trkpt>
      <trkpt lat="53.662757193669677" lon="10.111502436921">
        <ele>18.59</ele>
        <time>2021-09-13T10:24:18Z</time>
      </trkpt>
      <trkpt lat="53.662742106243968" lon="10.111537724733353">
        <ele>18.82</ele>
        <time>2021-09-13T10:24:19Z</time>
      </trkpt>
      <trkpt lat="53.662659293040633" lon="10.111790439113975">
        <ele>19.699999999999999</ele>
        <time>2021-09-13T10:24:31Z</time>
      </trkpt>
      <trkpt lat="53.662658538669348" lon="10.111793037503958">
        <ele>19.800000000000001</ele>
        <time>2021-09-13T10:24:32Z</time>
      </trkpt>
      <trkpt lat="53.662516716867685" lon="10.111818099394441">
        <ele>19.129999999999999</ele>
        <time>2021-09-13T10:24:53Z</time>
      </trkpt>
      <trkpt lat="53.662499114871025" lon="10.111814411357045">
        <ele>18.960000000000001</ele>
        <time>2021-09-13T10:24:54Z</time>
      </trkpt>
      <trkpt lat="53.662467263638973" lon="10.111804017797112">
        <ele>18.609999999999999</ele>
        <time>2021-09-13T10:24:56Z</time>
      </trkpt>
      <trkpt lat="53.662447482347488" lon="10.11179412715137">
        <ele>18.359999999999999</ele>
        <time>2021-09-13T10:24:57Z</time>
      </trkpt>
      <trkpt lat="53.66242652758956" lon="10.111785493791103">
        <ele>18.039999999999999</ele>
        <time>2021-09-13T10:24:58Z</time>
      </trkpt>
      <trkpt lat="53.662407416850328" lon="10.111780045554042">
        <ele>17.670000000000002</ele>
        <time>2021-09-13T10:24:59Z</time>
      </trkpt>
      <trkpt lat="53.662365172058344" lon="10.111802341416478">
        <ele>16.84</ele>
        <time>2021-09-13T10:25:02Z</time>
      </trkpt>
      <trkpt lat="53.66234689950943" lon="10.111821200698614">
        <ele>16.66</ele>
        <time>2021-09-13T10:25:03Z</time>
      </trkpt>
      <trkpt lat="53.662337427958846" lon="10.111852465197444">
        <ele>16.5</ele>
        <time>2021-09-13T10:25:04Z</time>
      </trkpt>
      <trkpt lat="53.66230926476419" lon="10.111969225108624">
        <ele>15.77</ele>
        <time>2021-09-13T10:25:08Z</time>
      </trkpt>
      <trkpt lat="53.662237348034978" lon="10.112322689965367">
        <ele>14.300000000000001</ele>
        <time>2021-09-13T10:25:16Z</time>
      </trkpt>
      <trkpt lat="53.662113379687071" lon="10.112766595557332">
        <ele>14.109999999999999</ele>
        <time>2021-09-13T10:25:26Z</time>
      </trkpt>
      <trkpt lat="53.661990333348513" lon="10.11315886862576">
        <ele>15.460000000000001</ele>
        <time>2021-09-13T10:25:36Z</time>
      </trkpt>
      <trkpt lat="53.661980023607612" lon="10.113194156438112">
        <ele>15.460000000000001</ele>
        <time>2021-09-13T10:25:37Z</time>
      </trkpt>
      <trkpt lat="53.661962253972888" lon="10.113239083439112">
        <ele>15.44</ele>
        <time>2021-09-13T10:25:38Z</time>
      </trkpt>
      <trkpt lat="53.661949764937162" lon="10.113282669335604">
        <ele>15.41</ele>
        <time>2021-09-13T10:25:39Z</time>
      </trkpt>
      <trkpt lat="53.661931743845344" lon="10.113318460062146">
        <ele>15.380000000000001</ele>
        <time>2021-09-13T10:25:40Z</time>
      </trkpt>
      <trkpt lat="53.661915650591254" lon="10.113361375406384">
        <ele>15.359999999999999</ele>
        <time>2021-09-13T10:25:41Z</time>
      </trkpt>
      <trkpt lat="53.661902826279402" lon="10.113407140597701">
        <ele>15.35</ele>
        <time>2021-09-13T10:25:42Z</time>
      </trkpt>
      <trkpt lat="53.661889331415296" lon="10.113449972122908">
        <ele>15.34</ele>
        <time>2021-09-13T10:25:43Z</time>
      </trkpt>
      <trkpt lat="53.661874495446682" lon="10.113491294905543">
        <ele>15.33</ele>
        <time>2021-09-13T10:25:44Z</time>
      </trkpt>
      <trkpt lat="53.661856222897768" lon="10.11353068985045">
        <ele>15.33</ele>
        <time>2021-09-13T10:25:45Z</time>
      </trkpt>
      <trkpt lat="53.661841470748186" lon="10.113570671528578">
        <ele>15.33</ele>
        <time>2021-09-13T10:25:46Z</time>
      </trkpt>
      <trkpt lat="53.661825628951192" lon="10.113613503053784">
        <ele>15.33</ele>
        <time>2021-09-13T10:25:47Z</time>
      </trkpt>
      <trkpt lat="53.661807775497437" lon="10.113647198304534">
        <ele>15.33</ele>
        <time>2021-09-13T10:25:48Z</time>
      </trkpt>
      <trkpt lat="53.661795537918806" lon="10.113679300993681">
        <ele>15.380000000000001</ele>
        <time>2021-09-13T10:25:49Z</time>
      </trkpt>
      <trkpt lat="53.66165304556489" lon="10.114106526598334">
        <ele>15.140000000000001</ele>
        <time>2021-09-13T10:26:01Z</time>
      </trkpt>
      <trkpt lat="53.66156461648643" lon="10.114402491599321">
        <ele>15.210000000000001</ele>
        <time>2021-09-13T10:26:08Z</time>
      </trkpt>
      <trkpt lat="53.661544248461723" lon="10.11444884352386">
        <ele>15.26</ele>
        <time>2021-09-13T10:26:09Z</time>
      </trkpt>
      <trkpt lat="53.661533854901791" lon="10.114483879879117">
        <ele>15.289999999999999</ele>
        <time>2021-09-13T10:26:10Z</time>
      </trkpt>
      <trkpt lat="53.6613813880831" lon="10.114775989204645">
        <ele>15.529999999999999</ele>
        <time>2021-09-13T10:26:18Z</time>
      </trkpt>
      <trkpt lat="53.661374095827341" lon="10.114801386371255">
        <ele>15.630000000000001</ele>
        <time>2021-09-13T10:26:19Z</time>
      </trkpt>
      <trkpt lat="53.661359427496791" lon="10.114825861528516">
        <ele>15.75</ele>
        <time>2021-09-13T10:26:20Z</time>
      </trkpt>
      <trkpt lat="53.661345932632685" lon="10.114850252866745">
        <ele>15.859999999999999</ele>
        <time>2021-09-13T10:26:21Z</time>
      </trkpt>
      <trkpt lat="53.661327827721834" lon="10.114883612841368">
        <ele>15.93</ele>
        <time>2021-09-13T10:26:22Z</time>
      </trkpt>
      <trkpt lat="53.661313494667411" lon="10.114919738844037">
        <ele>16</ele>
        <time>2021-09-13T10:26:23Z</time>
      </trkpt>
      <trkpt lat="53.661280805245042" lon="10.114991655573249">
        <ele>16.09</ele>
        <time>2021-09-13T10:26:24Z</time>
      </trkpt>
      <trkpt lat="53.661258593201637" lon="10.115039013326168">
        <ele>16.190000000000001</ele>
        <time>2021-09-13T10:26:25Z</time>
      </trkpt>
      <trkpt lat="53.661237470805645" lon="10.115092154592276">
        <ele>16.309999999999999</ele>
        <time>2021-09-13T10:26:26Z</time>
      </trkpt>
      <trkpt lat="53.661229088902473" lon="10.115132052451372">
        <ele>16.420000000000002</ele>
        <time>2021-09-13T10:26:27Z</time>
      </trkpt>
      <trkpt lat="53.661166559904814" lon="10.115454839542508">
        <ele>17.039999999999999</ele>
        <time>2021-09-13T10:26:34Z</time>
      </trkpt>
      <trkpt lat="53.66111995652318" lon="10.115966470912099">
        <ele>17.399999999999999</ele>
        <time>2021-09-13T10:26:43Z</time>
      </trkpt>
      <trkpt lat="53.661094643175602" lon="10.116039980202913">
        <ele>17.329999999999998</ele>
        <time>2021-09-13T10:26:47Z</time>
      </trkpt>
      <trkpt lat="53.661036137491465" lon="10.116342734545469">
        <ele>16.98</ele>
        <time>2021-09-13T10:27:08Z</time>
      </trkpt>
      <trkpt lat="53.66103152744472" lon="10.116384476423264">
        <ele>16.949999999999999</ele>
        <time>2021-09-13T10:27:09Z</time>
      </trkpt>
      <trkpt lat="53.661026582121849" lon="10.116423787549138">
        <ele>16.940000000000001</ele>
        <time>2021-09-13T10:27:10Z</time>
      </trkpt>
      <trkpt lat="53.661021301522851" lon="10.116450190544128">
        <ele>16.920000000000002</ele>
        <time>2021-09-13T10:27:11Z</time>
      </trkpt>
      <trkpt lat="53.661000598222017" lon="10.116550186648965">
        <ele>16.77</ele>
        <time>2021-09-13T10:27:14Z</time>
      </trkpt>
      <trkpt lat="53.660985762253404" lon="10.116585977375507">
        <ele>16.649999999999999</ele>
        <time>2021-09-13T10:27:15Z</time>
      </trkpt>
      <trkpt lat="53.660966819152236" lon="10.116629227995872">
        <ele>16.510000000000002</ele>
        <time>2021-09-13T10:27:16Z</time>
      </trkpt>
      <trkpt lat="53.660947708413005" lon="10.116676753386855">
        <ele>16.390000000000001</ele>
        <time>2021-09-13T10:27:17Z</time>
      </trkpt>
      <trkpt lat="53.660930022597313" lon="10.116725200787187">
        <ele>16.27</ele>
        <time>2021-09-13T10:27:18Z</time>
      </trkpt>
      <trkpt lat="53.66078183054924" lon="10.117225768044591">
        <ele>15.470000000000001</ele>
        <time>2021-09-13T10:27:30Z</time>
      </trkpt>
      <trkpt lat="53.660751655697823" lon="10.117322076112032">
        <ele>15.49</ele>
        <time>2021-09-13T10:27:35Z</time>
      </trkpt>
      <trkpt lat="53.660742100328207" lon="10.117346718907356">
        <ele>15.529999999999999</ele>
        <time>2021-09-13T10:27:36Z</time>
      </trkpt>
      <trkpt lat="53.660730784758925" lon="10.117379575967789">
        <ele>15.57</ele>
        <time>2021-09-13T10:27:37Z</time>
      </trkpt>
      <trkpt lat="53.660725420340896" lon="10.117412684485316">
        <ele>15.619999999999999</ele>
        <time>2021-09-13T10:27:38Z</time>
      </trkpt>
      <trkpt lat="53.660719888284802" lon="10.117445960640907">
        <ele>15.699999999999999</ele>
        <time>2021-09-13T10:27:39Z</time>
      </trkpt>
      <trkpt lat="53.660715529695153" lon="10.117473872378469">
        <ele>15.789999999999999</ele>
        <time>2021-09-13T10:27:40Z</time>
      </trkpt>
      <trkpt lat="53.66064939647913" lon="10.117863044142723">
        <ele>18.120000000000001</ele>
        <time>2021-09-13T10:27:54Z</time>
      </trkpt>
      <trkpt lat="53.660575300455093" lon="10.118272164836526">
        <ele>18.77</ele>
        <time>2021-09-13T10:28:05Z</time>
      </trkpt>
      <trkpt lat="53.660610001534224" lon="10.118760326877236">
        <ele>18.890000000000001</ele>
        <time>2021-09-13T10:28:16Z</time>
      </trkpt>
      <trkpt lat="53.660630621016026" lon="10.119350329041481">
        <ele>19.68</ele>
        <time>2021-09-13T10:28:29Z</time>
      </trkpt>
      <trkpt lat="53.660618551075459" lon="10.119474967941642">
        <ele>19.370000000000001</ele>
        <time>2021-09-13T10:28:31Z</time>
      </trkpt>
      <trkpt lat="53.660620059818029" lon="10.119538083672523">
        <ele>19.16</ele>
        <time>2021-09-13T10:28:32Z</time>
      </trkpt>
      <trkpt lat="53.660613857209682" lon="10.119598936289549">
        <ele>18.91</ele>
        <time>2021-09-13T10:28:33Z</time>
      </trkpt>
      <trkpt lat="53.660615952685475" lon="10.119649395346642">
        <ele>18.640000000000001</ele>
        <time>2021-09-13T10:28:34Z</time>
      </trkpt>
      <trkpt lat="53.660627184435725" lon="10.119700273498893">
        <ele>18.399999999999999</ele>
        <time>2021-09-13T10:28:35Z</time>
      </trkpt>
      <trkpt lat="53.660633806139231" lon="10.119760790839791">
        <ele>18.239999999999998</ele>
        <time>2021-09-13T10:28:36Z</time>
      </trkpt>
      <trkpt lat="53.660639589652419" lon="10.11982231400907">
        <ele>18.140000000000001</ele>
        <time>2021-09-13T10:28:37Z</time>
      </trkpt>
      <trkpt lat="53.660767078399658" lon="10.120358001440763">
        <ele>16.34</ele>
        <time>2021-09-13T10:28:46Z</time>
      </trkpt>
      <trkpt lat="53.660779986530542" lon="10.120477611199021">
        <ele>16.010000000000002</ele>
        <time>2021-09-13T10:28:49Z</time>
      </trkpt>
      <trkpt lat="53.660787027329206" lon="10.120518347248435">
        <ele>15.81</ele>
        <time>2021-09-13T10:28:50Z</time>
      </trkpt>
      <trkpt lat="53.660805635154247" lon="10.120570315048099">
        <ele>15.609999999999999</ele>
        <time>2021-09-13T10:28:51Z</time>
      </trkpt>
      <trkpt lat="53.661060612648726" lon="10.121310269460082">
        <ele>15.33</ele>
        <time>2021-09-13T10:29:03Z</time>
      </trkpt>
      <trkpt lat="53.660983415320516" lon="10.122047290205956">
        <ele>15.449999999999999</ele>
        <time>2021-09-13T10:29:18Z</time>
      </trkpt>
      <trkpt lat="53.660892890766263" lon="10.122241163626313">
        <ele>15.33</ele>
        <time>2021-09-13T10:29:24Z</time>
      </trkpt>
      <trkpt lat="53.660879982635379" lon="10.122275277972221">
        <ele>15.34</ele>
        <time>2021-09-13T10:29:25Z</time>
      </trkpt>
      <trkpt lat="53.660866068676114" lon="10.12231676839292">
        <ele>15.4</ele>
        <time>2021-09-13T10:29:26Z</time>
      </trkpt>
      <trkpt lat="53.660851735621691" lon="10.122361024841666">
        <ele>15.470000000000001</ele>
        <time>2021-09-13T10:29:27Z</time>
      </trkpt>
      <trkpt lat="53.660840755328536" lon="10.12240276671946">
        <ele>15.56</ele>
        <time>2021-09-13T10:29:28Z</time>
      </trkpt>
      <trkpt lat="53.660831032320857" lon="10.122438557446003">
        <ele>15.66</ele>
        <time>2021-09-13T10:29:29Z</time>
      </trkpt>
      <trkpt lat="53.660822147503495" lon="10.122472001239657">
        <ele>15.800000000000001</ele>
        <time>2021-09-13T10:29:30Z</time>
      </trkpt>
      <trkpt lat="53.66081309504807" lon="10.122500332072377">
        <ele>15.970000000000001</ele>
        <time>2021-09-13T10:29:31Z</time>
      </trkpt>
      <trkpt lat="53.660800438374281" lon="10.122525729238987">
        <ele>16.129999999999999</ele>
        <time>2021-09-13T10:29:32Z</time>
      </trkpt>
      <trkpt lat="53.660789709538221" lon="10.122556071728468">
        <ele>16.34</ele>
        <time>2021-09-13T10:29:33Z</time>
      </trkpt>
      <trkpt lat="53.660777388140559" lon="10.122598316520452">
        <ele>16.449999999999999</ele>
        <time>2021-09-13T10:29:34Z</time>
      </trkpt>
      <trkpt lat="53.660763641819358" lon="10.122643327340484">
        <ele>16.559999999999999</ele>
        <time>2021-09-13T10:29:35Z</time>
      </trkpt>
      <trkpt lat="53.660754337906837" lon="10.122693367302418">
        <ele>16.66</ele>
        <time>2021-09-13T10:29:36Z</time>
      </trkpt>
      <trkpt lat="53.660745117813349" lon="10.122747179120779">
        <ele>16.739999999999998</ele>
        <time>2021-09-13T10:29:37Z</time>
      </trkpt>
      <trkpt lat="53.66073053330183" lon="10.122795039787889">
        <ele>16.809999999999999</ele>
        <time>2021-09-13T10:29:38Z</time>
      </trkpt>
      <trkpt lat="53.660717122256756" lon="10.122842816635966">
        <ele>16.859999999999999</ele>
        <time>2021-09-13T10:29:39Z</time>
      </trkpt>
      <trkpt lat="53.660705471411347" lon="10.122888162732124">
        <ele>16.91</ele>
        <time>2021-09-13T10:29:40Z</time>
      </trkpt>
      <trkpt lat="53.660695161670446" lon="10.122927390038967">
        <ele>16.960000000000001</ele>
        <time>2021-09-13T10:29:41Z</time>
      </trkpt>
      <trkpt lat="53.660672698169947" lon="10.122985057532787">
        <ele>16.899999999999999</ele>
        <time>2021-09-13T10:29:46Z</time>
      </trkpt>
      <trkpt lat="53.660755343735218" lon="10.123251685872674">
        <ele>19.510000000000002</ele>
        <time>2021-09-13T10:30:49Z</time>
      </trkpt>
      <trkpt lat="53.660734975710511" lon="10.123239615932107">
        <ele>19.25</ele>
        <time>2021-09-13T10:30:50Z</time>
      </trkpt>
      <trkpt lat="53.660616455599666" lon="10.123174991458654">
        <ele>17.989999999999998</ele>
        <time>2021-09-13T10:30:56Z</time>
      </trkpt>
      <trkpt lat="53.660597763955593" lon="10.123171722516418">
        <ele>17.390000000000001</ele>
        <time>2021-09-13T10:30:58Z</time>
      </trkpt>
      <trkpt lat="53.660579994320869" lon="10.123166777193546">
        <ele>17.140000000000001</ele>
        <time>2021-09-13T10:30:59Z</time>
      </trkpt>
      <trkpt lat="53.660528361797333" lon="10.123169794678688">
        <ele>16.440000000000001</ele>
        <time>2021-09-13T10:31:02Z</time>
      </trkpt>
      <trkpt lat="53.660513190552592" lon="10.123188989236951">
        <ele>16.239999999999998</ele>
        <time>2021-09-13T10:31:03Z</time>
      </trkpt>
      <trkpt lat="53.660494582727551" lon="10.123214637860656">
        <ele>16.039999999999999</ele>
        <time>2021-09-13T10:31:04Z</time>
      </trkpt>
      <trkpt lat="53.660478824749589" lon="10.123242465779185">
        <ele>15.880000000000001</ele>
        <time>2021-09-13T10:31:05Z</time>
      </trkpt>
      <trkpt lat="53.660459127277136" lon="10.123271299526095">
        <ele>15.75</ele>
        <time>2021-09-13T10:31:06Z</time>
      </trkpt>
      <trkpt lat="53.660438004881144" lon="10.123297870159149">
        <ele>15.68</ele>
        <time>2021-09-13T10:31:07Z</time>
      </trkpt>
      <trkpt lat="53.660245640203357" lon="10.123594673350453">
        <ele>15.470000000000001</ele>
        <time>2021-09-13T10:31:17Z</time>
      </trkpt>
      <trkpt lat="53.660108093172312" lon="10.12381293810904">
        <ele>15.529999999999999</ele>
        <time>2021-09-13T10:31:24Z</time>
      </trkpt>
      <trkpt lat="53.660103147849441" lon="10.123841604217887">
        <ele>15.529999999999999</ele>
        <time>2021-09-13T10:31:25Z</time>
      </trkpt>
      <trkpt lat="53.660106332972646" lon="10.123869683593512">
        <ele>15.529999999999999</ele>
        <time>2021-09-13T10:31:26Z</time>
      </trkpt>
      <trkpt lat="53.660133993253112" lon="10.12391846626997">
        <ele>15.49</ele>
        <time>2021-09-13T10:31:28Z</time>
      </trkpt>
      <trkpt lat="53.660292327404022" lon="10.124090295284986">
        <ele>16.030000000000001</ele>
        <time>2021-09-13T10:31:43Z</time>
      </trkpt>
      <trkpt lat="53.660403555259109" lon="10.124259274452925">
        <ele>17.800000000000001</ele>
        <time>2021-09-13T10:32:01Z</time>
      </trkpt>
      <trkpt lat="53.660393580794334" lon="10.124332197010517">
        <ele>18.25</ele>
        <time>2021-09-13T10:32:07Z</time>
      </trkpt>
      <trkpt lat="53.660309426486492" lon="10.124707035720348">
        <ele>19.399999999999999</ele>
        <time>2021-09-13T10:32:33Z</time>
      </trkpt>
      <trkpt lat="53.660301547497511" lon="10.124730169773102">
        <ele>19.440000000000001</ele>
        <time>2021-09-13T10:32:34Z</time>
      </trkpt>
      <trkpt lat="53.660290567204356" lon="10.124751543626189">
        <ele>19.489999999999998</ele>
        <time>2021-09-13T10:32:35Z</time>
      </trkpt>
      <trkpt lat="53.660277742892504" lon="10.12477065436542">
        <ele>19.539999999999999</ele>
        <time>2021-09-13T10:32:36Z</time>
      </trkpt>
      <trkpt lat="53.660268355160952" lon="10.124795297160745">
        <ele>19.600000000000001</ele>
        <time>2021-09-13T10:32:37Z</time>
      </trkpt>
      <trkpt lat="53.660260308533907" lon="10.124820023775101">
        <ele>19.649999999999999</ele>
        <time>2021-09-13T10:32:38Z</time>
      </trkpt>
      <trkpt lat="53.660088060423732" lon="10.125443888828158">
        <ele>19.670000000000002</ele>
        <time>2021-09-13T10:32:51Z</time>
      </trkpt>
      <trkpt lat="53.659990327432752" lon="10.125541621819139">
        <ele>19.100000000000001</ele>
        <time>2021-09-13T10:32:55Z</time>
      </trkpt>
      <trkpt lat="53.659882284700871" lon="10.125597948208451">
        <ele>18.370000000000001</ele>
        <time>2021-09-13T10:33:00Z</time>
      </trkpt>
      <trkpt lat="53.659870969131589" lon="10.125635331496596">
        <ele>18.260000000000002</ele>
        <time>2021-09-13T10:33:01Z</time>
      </trkpt>
      <trkpt lat="53.659859569743276" lon="10.125675061717629">
        <ele>18.129999999999999</ele>
        <time>2021-09-13T10:33:02Z</time>
      </trkpt>
      <trkpt lat="53.659845571964979" lon="10.125715881586075">
        <ele>18</ele>
        <time>2021-09-13T10:33:03Z</time>
      </trkpt>
      <trkpt lat="53.659837106242776" lon="10.125751085579395">
        <ele>17.859999999999999</ele>
        <time>2021-09-13T10:33:04Z</time>
      </trkpt>
      <trkpt lat="53.659829143434763" lon="10.12577866204083">
        <ele>17.73</ele>
        <time>2021-09-13T10:33:05Z</time>
      </trkpt>
      <trkpt lat="53.659820426255465" lon="10.125806070864201">
        <ele>17.600000000000001</ele>
        <time>2021-09-13T10:33:06Z</time>
      </trkpt>
      <trkpt lat="53.659813133999705" lon="10.12583582662046">
        <ele>17.420000000000002</ele>
        <time>2021-09-13T10:33:07Z</time>
      </trkpt>
      <trkpt lat="53.659671982750297" lon="10.126346033066511">
        <ele>17.68</ele>
        <time>2021-09-13T10:33:19Z</time>
      </trkpt>
      <trkpt lat="53.659543069079518" lon="10.127047095447779">
        <ele>18.739999999999998</ele>
        <time>2021-09-13T10:33:32Z</time>
      </trkpt>
      <trkpt lat="53.659495040774345" lon="10.127150444313884">
        <ele>19.609999999999999</ele>
        <time>2021-09-13T10:33:40Z</time>
      </trkpt>
      <trkpt lat="53.659470733255148" lon="10.127175841480494">
        <ele>19.600000000000001</ele>
        <time>2021-09-13T10:33:41Z</time>
      </trkpt>
      <trkpt lat="53.659439384937286" lon="10.127185061573982">
        <ele>19.550000000000001</ele>
        <time>2021-09-13T10:33:42Z</time>
      </trkpt>
      <trkpt lat="53.65940485149622" lon="10.127184558659792">
        <ele>19.460000000000001</ele>
        <time>2021-09-13T10:33:43Z</time>
      </trkpt>
      <trkpt lat="53.659371323883533" lon="10.127180367708206">
        <ele>19.260000000000002</ele>
        <time>2021-09-13T10:33:44Z</time>
      </trkpt>
      <trkpt lat="53.659345591440797" lon="10.127174919471145">
        <ele>19.050000000000001</ele>
        <time>2021-09-13T10:33:45Z</time>
      </trkpt>
      <trkpt lat="53.659319942817092" lon="10.127210123464465">
        <ele>18.329999999999998</ele>
        <time>2021-09-13T10:33:51Z</time>
      </trkpt>
      <trkpt lat="53.659290857613087" lon="10.127359153702855">
        <ele>17.859999999999999</ele>
        <time>2021-09-13T10:33:58Z</time>
      </trkpt>
      <trkpt lat="53.659282475709915" lon="10.127394944429398">
        <ele>17.82</ele>
        <time>2021-09-13T10:33:59Z</time>
      </trkpt>
      <trkpt lat="53.659275518730283" lon="10.127426544204354">
        <ele>17.809999999999999</ele>
        <time>2021-09-13T10:34:00Z</time>
      </trkpt>
      <trkpt lat="53.659231849014759" lon="10.127766849473119">
        <ele>18.129999999999999</ele>
        <time>2021-09-13T10:34:09Z</time>
      </trkpt>
      <trkpt lat="53.659221120178699" lon="10.127811776474118">
        <ele>18.129999999999999</ele>
        <time>2021-09-13T10:34:10Z</time>
      </trkpt>
      <trkpt lat="53.659212738275528" lon="10.127861984074116">
        <ele>18.129999999999999</ele>
        <time>2021-09-13T10:34:11Z</time>
      </trkpt>
      <trkpt lat="53.659191280603409" lon="10.127975475043058">
        <ele>18.129999999999999</ele>
        <time>2021-09-13T10:34:13Z</time>
      </trkpt>
      <trkpt lat="53.659192286431789" lon="10.128034483641386">
        <ele>18.129999999999999</ele>
        <time>2021-09-13T10:34:14Z</time>
      </trkpt>
      <trkpt lat="53.659191951155663" lon="10.128091815859079">
        <ele>18.129999999999999</ele>
        <time>2021-09-13T10:34:15Z</time>
      </trkpt>
      <trkpt lat="53.659188766032457" lon="10.128551395609975">
        <ele>18.199999999999999</ele>
        <time>2021-09-13T10:34:25Z</time>
      </trkpt>
      <trkpt lat="53.659287169575691" lon="10.129217673093081">
        <ele>18.300000000000001</ele>
        <time>2021-09-13T10:34:35Z</time>
      </trkpt>
      <trkpt lat="53.659296557307243" lon="10.129935499280691">
        <ele>18.620000000000001</ele>
        <time>2021-09-13T10:34:46Z</time>
      </trkpt>
      <trkpt lat="53.659295551478863" lon="10.130029041320086">
        <ele>18.780000000000001</ele>
        <time>2021-09-13T10:34:48Z</time>
      </trkpt>
      <trkpt lat="53.659299239516258" lon="10.130076818168163">
        <ele>18.969999999999999</ele>
        <time>2021-09-13T10:34:49Z</time>
      </trkpt>
      <trkpt lat="53.659295635297894" lon="10.130135742947459">
        <ele>19.050000000000001</ele>
        <time>2021-09-13T10:34:50Z</time>
      </trkpt>
      <trkpt lat="53.659193711355329" lon="10.130789447575808">
        <ele>18.460000000000001</ele>
        <time>2021-09-13T10:34:59Z</time>
      </trkpt>
      <trkpt lat="53.659093379974365" lon="10.131361177191138">
        <ele>18.699999999999999</ele>
        <time>2021-09-13T10:35:09Z</time>
      </trkpt>
      <trkpt lat="53.65890746936202" lon="10.131922848522663">
        <ele>18.640000000000001</ele>
        <time>2021-09-13T10:35:20Z</time>
      </trkpt>
      <trkpt lat="53.658660035580397" lon="10.132361054420471">
        <ele>18.34</ele>
        <time>2021-09-13T10:35:30Z</time>
      </trkpt>
      <trkpt lat="53.658356023952365" lon="10.132774030789733">
        <ele>18.280000000000001</ele>
        <time>2021-09-13T10:35:40Z</time>
      </trkpt>
      <trkpt lat="53.658113786950707" lon="10.133293708786368">
        <ele>18.34</ele>
        <time>2021-09-13T10:35:49Z</time>
      </trkpt>
      <trkpt lat="53.658095011487603" lon="10.133339054882526">
        <ele>18.34</ele>
        <time>2021-09-13T10:35:50Z</time>
      </trkpt>
      <trkpt lat="53.657974395900965" lon="10.1337496843189">
        <ele>18.48</ele>
        <time>2021-09-13T10:35:58Z</time>
      </trkpt>
      <trkpt lat="53.657735427841544" lon="10.134363826364279">
        <ele>18.289999999999999</ele>
        <time>2021-09-13T10:36:09Z</time>
      </trkpt>
      <trkpt lat="53.657326977699995" lon="10.135167064145207">
        <ele>18.59</ele>
        <time>2021-09-13T10:36:23Z</time>
      </trkpt>
      <trkpt lat="53.657068898901343" lon="10.135625386610627">
        <ele>19.02</ele>
        <time>2021-09-13T10:36:33Z</time>
      </trkpt>
      <trkpt lat="53.656835295259953" lon="10.13602034188807">
        <ele>19.559999999999999</ele>
        <time>2021-09-13T10:36:46Z</time>
      </trkpt>
      <trkpt lat="53.656646367162466" lon="10.136371878907084">
        <ele>19.34</ele>
        <time>2021-09-13T10:36:55Z</time>
      </trkpt>
      <trkpt lat="53.65635534748435" lon="10.137054333463311">
        <ele>19.350000000000001</ele>
        <time>2021-09-13T10:37:09Z</time>
      </trkpt>
      <trkpt lat="53.656092993915081" lon="10.137394387274981">
        <ele>19.489999999999998</ele>
        <time>2021-09-13T10:37:19Z</time>
      </trkpt>
      <trkpt lat="53.655945556238294" lon="10.137604689225554">
        <ele>19.52</ele>
        <time>2021-09-13T10:37:24Z</time>
      </trkpt>
      <trkpt lat="53.655912699177861" lon="10.137654645368457">
        <ele>19.5</ele>
        <time>2021-09-13T10:37:25Z</time>
      </trkpt>
      <trkpt lat="53.65550902672112" lon="10.138263506814837">
        <ele>19.27</ele>
        <time>2021-09-13T10:37:37Z</time>
      </trkpt>
      <trkpt lat="53.655228568241" lon="10.138805564492941">
        <ele>19.5</ele>
        <time>2021-09-13T10:37:47Z</time>
      </trkpt>
      <trkpt lat="53.655075347051024" lon="10.139059536159039">
        <ele>19.5</ele>
        <time>2021-09-13T10:37:52Z</time>
      </trkpt>
      <trkpt lat="53.655043831095099" lon="10.139101697131991">
        <ele>19.489999999999998</ele>
        <time>2021-09-13T10:37:53Z</time>
      </trkpt>
      <trkpt lat="53.655019104480743" lon="10.13914167881012">
        <ele>19.489999999999998</ele>
        <time>2021-09-13T10:37:54Z</time>
      </trkpt>
      <trkpt lat="53.655003346502781" lon="10.139184175059199">
        <ele>19.489999999999998</ele>
        <time>2021-09-13T10:37:55Z</time>
      </trkpt>
      <trkpt lat="53.654983313754201" lon="10.139230443164706">
        <ele>19.489999999999998</ele>
        <time>2021-09-13T10:37:56Z</time>
      </trkpt>
      <trkpt lat="53.654965292662382" lon="10.13928048312664">
        <ele>19.5</ele>
        <time>2021-09-13T10:37:57Z</time>
      </trkpt>
      <trkpt lat="53.654922042042017" lon="10.139355584979057">
        <ele>19.620000000000001</ele>
        <time>2021-09-13T10:37:59Z</time>
      </trkpt>
      <trkpt lat="53.654666226357222" lon="10.139924883842468">
        <ele>19.670000000000002</ele>
        <time>2021-09-13T10:38:10Z</time>
      </trkpt>
      <trkpt lat="53.654455002397299" lon="10.140289077535272">
        <ele>20.100000000000001</ele>
        <time>2021-09-13T10:38:20Z</time>
      </trkpt>
      <trkpt lat="53.654269259423018" lon="10.140370549634099">
        <ele>21.260000000000002</ele>
        <time>2021-09-13T10:38:35Z</time>
      </trkpt>
      <trkpt lat="53.654091982170939" lon="10.140456380322576">
        <ele>21.52</ele>
        <time>2021-09-13T10:38:54Z</time>
      </trkpt>
      <trkpt lat="53.654069351032376" lon="10.140474233776331">
        <ele>22.329999999999998</ele>
        <time>2021-09-13T10:38:57Z</time>
      </trkpt>
      <trkpt lat="53.653957787901163" lon="10.140624856576324">
        <ele>23.609999999999999</ele>
        <time>2021-09-13T10:39:18Z</time>
      </trkpt>
      <trkpt lat="53.653947729617357" lon="10.140647990629077">
        <ele>23.620000000000001</ele>
        <time>2021-09-13T10:39:19Z</time>
      </trkpt>
      <trkpt lat="53.653935240581632" lon="10.140674812719226">
        <ele>23.620000000000001</ele>
        <time>2021-09-13T10:39:20Z</time>
      </trkpt>
      <trkpt lat="53.653924008831382" lon="10.140704400837421">
        <ele>23.609999999999999</ele>
        <time>2021-09-13T10:39:21Z</time>
      </trkpt>
      <trkpt lat="53.653915375471115" lon="10.140733234584332">
        <ele>23.52</ele>
        <time>2021-09-13T10:39:22Z</time>
      </trkpt>
      <trkpt lat="53.653903473168612" lon="10.140766510739923">
        <ele>23.359999999999999</ele>
        <time>2021-09-13T10:39:23Z</time>
      </trkpt>
      <trkpt lat="53.653888469561934" lon="10.140800876542926">
        <ele>23.219999999999999</ele>
        <time>2021-09-13T10:39:24Z</time>
      </trkpt>
      <trkpt lat="53.653738098219037" lon="10.141270346939564">
        <ele>23.809999999999999</ele>
        <time>2021-09-13T10:39:37Z</time>
      </trkpt>
      <trkpt lat="53.653727285563946" lon="10.141308233141899">
        <ele>23.829999999999998</ele>
        <time>2021-09-13T10:39:38Z</time>
      </trkpt>
      <trkpt lat="53.653718987479806" lon="10.141351316124201">
        <ele>23.829999999999998</ele>
        <time>2021-09-13T10:39:39Z</time>
      </trkpt>
      <trkpt lat="53.653559647500515" lon="10.141810644418001">
        <ele>23.289999999999999</ele>
        <time>2021-09-13T10:39:49Z</time>
      </trkpt>
      <trkpt lat="53.653374826535583" lon="10.142315737903118">
        <ele>24.129999999999999</ele>
        <time>2021-09-13T10:40:00Z</time>
      </trkpt>
      <trkpt lat="53.653239039704204" lon="10.142852012068033">
        <ele>23.359999999999999</ele>
        <time>2021-09-13T10:40:08Z</time>
      </trkpt>
      <trkpt lat="53.653023540973663" lon="10.143522312864661">
        <ele>24.280000000000001</ele>
        <time>2021-09-13T10:40:21Z</time>
      </trkpt>
      <trkpt lat="53.652861686423421" lon="10.14398155733943">
        <ele>24.620000000000001</ele>
        <time>2021-09-13T10:40:29Z</time>
      </trkpt>
      <trkpt lat="53.652847018092871" lon="10.144043834879994">
        <ele>24.629999999999999</ele>
        <time>2021-09-13T10:40:30Z</time>
      </trkpt>
      <trkpt lat="53.652839306741953" lon="10.144102005288005">
        <ele>24.640000000000001</ele>
        <time>2021-09-13T10:40:31Z</time>
      </trkpt>
      <trkpt lat="53.652829751372337" lon="10.144166797399521">
        <ele>24.640000000000001</ele>
        <time>2021-09-13T10:40:32Z</time>
      </trkpt>
      <trkpt lat="53.65282254293561" lon="10.144226560369134">
        <ele>24.600000000000001</ele>
        <time>2021-09-13T10:40:33Z</time>
      </trkpt>
      <trkpt lat="53.652818016707897" lon="10.14471254311502">
        <ele>23.640000000000001</ele>
        <time>2021-09-13T10:40:41Z</time>
      </trkpt>
      <trkpt lat="53.652814328670502" lon="10.144751183688641">
        <ele>23.469999999999999</ele>
        <time>2021-09-13T10:40:42Z</time>
      </trkpt>
      <trkpt lat="53.652809048071504" lon="10.144783370196819">
        <ele>23.300000000000001</ele>
        <time>2021-09-13T10:40:43Z</time>
      </trkpt>
      <trkpt lat="53.652604864910245" lon="10.145118813961744">
        <ele>23.710000000000001</ele>
        <time>2021-09-13T10:40:55Z</time>
      </trkpt>
      <trkpt lat="53.65256454795599" lon="10.145138259977102">
        <ele>23.940000000000001</ele>
        <time>2021-09-13T10:41:00Z</time>
      </trkpt>
      <trkpt lat="53.652438232675195" lon="10.145205231383443">
        <ele>23.940000000000001</ele>
        <time>2021-09-13T10:41:20Z</time>
      </trkpt>
      <trkpt lat="53.652414260432124" lon="10.145214786753058">
        <ele>23.940000000000001</ele>
        <time>2021-09-13T10:41:21Z</time>
      </trkpt>
      <trkpt lat="53.652394311502576" lon="10.145219229161739">
        <ele>23.940000000000001</ele>
        <time>2021-09-13T10:41:22Z</time>
      </trkpt>
      <trkpt lat="53.652358520776033" lon="10.145225431770086">
        <ele>23.93</ele>
        <time>2021-09-13T10:41:24Z</time>
      </trkpt>
      <trkpt lat="53.652153583243489" lon="10.145356021821499">
        <ele>23.780000000000001</ele>
        <time>2021-09-13T10:41:34Z</time>
      </trkpt>
      <trkpt lat="53.651952920481563" lon="10.145362392067909">
        <ele>23.440000000000001</ele>
        <time>2021-09-13T10:41:42Z</time>
      </trkpt>
      <trkpt lat="53.651922326534986" lon="10.145367253571749">
        <ele>23.420000000000002</ele>
        <time>2021-09-13T10:41:43Z</time>
      </trkpt>
      <trkpt lat="53.651888128370047" lon="10.145358787849545">
        <ele>23.390000000000001</ele>
        <time>2021-09-13T10:41:44Z</time>
      </trkpt>
      <trkpt lat="53.651539692655206" lon="10.145339844748378">
        <ele>22.649999999999999</ele>
        <time>2021-09-13T10:41:55Z</time>
      </trkpt>
      <trkpt lat="53.650873079895973" lon="10.145243117585778">
        <ele>21.940000000000001</ele>
        <time>2021-09-13T10:42:12Z</time>
      </trkpt>
      <trkpt lat="53.650536295026541" lon="10.145284021273255">
        <ele>22.800000000000001</ele>
        <time>2021-09-13T10:42:23Z</time>
      </trkpt>
      <trkpt lat="53.650530846789479" lon="10.145310005173087">
        <ele>22.800000000000001</ele>
        <time>2021-09-13T10:42:24Z</time>
      </trkpt>
      <trkpt lat="53.650527829304338" lon="10.145337246358395">
        <ele>22.949999999999999</ele>
        <time>2021-09-13T10:42:25Z</time>
      </trkpt>
      <trkpt lat="53.650523973628879" lon="10.145373372361064">
        <ele>23.07</ele>
        <time>2021-09-13T10:42:26Z</time>
      </trkpt>
      <trkpt lat="53.650522297248244" lon="10.145415030419827">
        <ele>23.23</ele>
        <time>2021-09-13T10:42:27Z</time>
      </trkpt>
      <trkpt lat="53.650521291419864" lon="10.145891038700938">
        <ele>23.780000000000001</ele>
        <time>2021-09-13T10:42:38Z</time>
      </trkpt>
      <trkpt lat="53.650436047464609" lon="10.146504761651158">
        <ele>23.219999999999999</ele>
        <time>2021-09-13T10:42:50Z</time>
      </trkpt>
      <trkpt lat="53.650398915633559" lon="10.146872811019421">
        <ele>23.280000000000001</ele>
        <time>2021-09-13T10:42:55Z</time>
      </trkpt>
      <trkpt lat="53.650402603670955" lon="10.146933915093541">
        <ele>23.280000000000001</ele>
        <time>2021-09-13T10:42:56Z</time>
      </trkpt>
      <trkpt lat="53.650493463501334" lon="10.147500867024064">
        <ele>22.559999999999999</ele>
        <time>2021-09-13T10:43:06Z</time>
      </trkpt>
      <trkpt lat="53.650629753246903" lon="10.147949634119868">
        <ele>23.640000000000001</ele>
        <time>2021-09-13T10:43:16Z</time>
      </trkpt>
      <trkpt lat="53.650668477639556" lon="10.148534355685115">
        <ele>23.66</ele>
        <time>2021-09-13T10:43:26Z</time>
      </trkpt>
      <trkpt lat="53.650717176496983" lon="10.149180600419641">
        <ele>23.140000000000001</ele>
        <time>2021-09-13T10:43:34Z</time>
      </trkpt>
      <trkpt lat="53.650712063536048" lon="10.149274226278067">
        <ele>23.120000000000001</ele>
        <time>2021-09-13T10:43:35Z</time>
      </trkpt>
      <trkpt lat="53.650670740753412" lon="10.150291537865996">
        <ele>22.5</ele>
        <time>2021-09-13T10:43:49Z</time>
      </trkpt>
      <trkpt lat="53.650586167350411" lon="10.15085706487298">
        <ele>22.239999999999998</ele>
        <time>2021-09-13T10:43:58Z</time>
      </trkpt>
      <trkpt lat="53.650625729933381" lon="10.151631385087967">
        <ele>22.489999999999998</ele>
        <time>2021-09-13T10:44:08Z</time>
      </trkpt>
      <trkpt lat="53.650688929483294" lon="10.152469407767057">
        <ele>22.899999999999999</ele>
        <time>2021-09-13T10:44:19Z</time>
      </trkpt>
      <trkpt lat="53.650699155405164" lon="10.15254576690495">
        <ele>22.91</ele>
        <time>2021-09-13T10:44:20Z</time>
      </trkpt>
      <trkpt lat="53.650838127359748" lon="10.153237860649824">
        <ele>23.07</ele>
        <time>2021-09-13T10:44:30Z</time>
      </trkpt>
      <trkpt lat="53.650849191471934" lon="10.153846554458141">
        <ele>23.48</ele>
        <time>2021-09-13T10:44:40Z</time>
      </trkpt>
      <trkpt lat="53.650820693001151" lon="10.154529344290495">
        <ele>24.120000000000001</ele>
        <time>2021-09-13T10:44:51Z</time>
      </trkpt>
      <trkpt lat="53.650739723816514" lon="10.155197717249393">
        <ele>24.399999999999999</ele>
        <time>2021-09-13T10:45:02Z</time>
      </trkpt>
      <trkpt lat="53.650732515379786" lon="10.155249768868089">
        <ele>24.399999999999999</ele>
        <time>2021-09-13T10:45:03Z</time>
      </trkpt>
      <trkpt lat="53.650727653875947" lon="10.155306346714497">
        <ele>24.399999999999999</ele>
        <time>2021-09-13T10:45:04Z</time>
      </trkpt>
      <trkpt lat="53.650639643892646" lon="10.155691746622324">
        <ele>24.57</ele>
        <time>2021-09-13T10:45:12Z</time>
      </trkpt>
      <trkpt lat="53.650621455162764" lon="10.155732063576579">
        <ele>24.640000000000001</ele>
        <time>2021-09-13T10:45:13Z</time>
      </trkpt>
      <trkpt lat="53.650602428242564" lon="10.155769782140851">
        <ele>24.68</ele>
        <time>2021-09-13T10:45:14Z</time>
      </trkpt>
      <trkpt lat="53.65027729421854" lon="10.15613129362464">
        <ele>25.940000000000001</ele>
        <time>2021-09-13T10:45:26Z</time>
      </trkpt>
      <trkpt lat="53.650219459086657" lon="10.156191643327475">
        <ele>26.120000000000001</ele>
        <time>2021-09-13T10:45:28Z</time>
      </trkpt>
      <trkpt lat="53.65019179880619" lon="10.156237659975886">
        <ele>26.199999999999999</ele>
        <time>2021-09-13T10:45:29Z</time>
      </trkpt>
      <trkpt lat="53.64995333366096" lon="10.156670333817601">
        <ele>26.670000000000002</ele>
        <time>2021-09-13T10:45:40Z</time>
      </trkpt>
      <trkpt lat="53.649746049195528" lon="10.156956408172846">
        <ele>26.760000000000002</ele>
        <time>2021-09-13T10:45:48Z</time>
      </trkpt>
      <trkpt lat="53.649714197963476" lon="10.156996389850974">
        <ele>26.789999999999999</ele>
        <time>2021-09-13T10:45:49Z</time>
      </trkpt>
      <trkpt lat="53.649683687835932" lon="10.157039137557149">
        <ele>26.82</ele>
        <time>2021-09-13T10:45:50Z</time>
      </trkpt>
      <trkpt lat="53.649656865745783" lon="10.157080125063658">
        <ele>26.850000000000001</ele>
        <time>2021-09-13T10:45:51Z</time>
      </trkpt>
      <trkpt lat="53.649632558226585" lon="10.1571124792099">
        <ele>26.899999999999999</ele>
        <time>2021-09-13T10:45:52Z</time>
      </trkpt>
      <trkpt lat="53.64960640668869" lon="10.157136283814907">
        <ele>26.940000000000001</ele>
        <time>2021-09-13T10:45:53Z</time>
      </trkpt>
      <trkpt lat="53.649579165503383" lon="10.157165452837944">
        <ele>26.989999999999998</ele>
        <time>2021-09-13T10:45:54Z</time>
      </trkpt>
      <trkpt lat="53.649511272087693" lon="10.157262599095702">
        <ele>27.120000000000001</ele>
        <time>2021-09-13T10:45:57Z</time>
      </trkpt>
      <trkpt lat="53.649489479139447" lon="10.157294115051627">
        <ele>27.170000000000002</ele>
        <time>2021-09-13T10:45:58Z</time>
      </trkpt>
      <trkpt lat="53.649466428905725" lon="10.157325714826584">
        <ele>27.25</ele>
        <time>2021-09-13T10:45:59Z</time>
      </trkpt>
      <trkpt lat="53.649438684806228" lon="10.157352620735765">
        <ele>27.34</ele>
        <time>2021-09-13T10:46:00Z</time>
      </trkpt>
      <trkpt lat="53.649409934878349" lon="10.157380113378167">
        <ele>27.41</ele>
        <time>2021-09-13T10:46:01Z</time>
      </trkpt>
      <trkpt lat="53.649381771683693" lon="10.157408779487014">
        <ele>27.48</ele>
        <time>2021-09-13T10:46:02Z</time>
      </trkpt>
      <trkpt lat="53.649352351203561" lon="10.157428476959467">
        <ele>27.57</ele>
        <time>2021-09-13T10:46:03Z</time>
      </trkpt>
      <trkpt lat="53.649223186075687" lon="10.157609274610877">
        <ele>28.350000000000001</ele>
        <time>2021-09-13T10:46:09Z</time>
      </trkpt>
      <trkpt lat="53.649207511916757" lon="10.157659566029906">
        <ele>28.390000000000001</ele>
        <time>2021-09-13T10:46:10Z</time>
      </trkpt>
      <trkpt lat="53.649196783080697" lon="10.157718742266297">
        <ele>28.41</ele>
        <time>2021-09-13T10:46:11Z</time>
      </trkpt>
      <trkpt lat="53.649197537451982" lon="10.157808344811201">
        <ele>28.41</ele>
        <time>2021-09-13T10:46:13Z</time>
      </trkpt>
      <trkpt lat="53.649208266288042" lon="10.157952262088656">
        <ele>28.379999999999999</ele>
        <time>2021-09-13T10:46:16Z</time>
      </trkpt>
      <trkpt lat="53.649363415315747" lon="10.158492140471935">
        <ele>28.649999999999999</ele>
        <time>2021-09-13T10:46:27Z</time>
      </trkpt>
      <trkpt lat="53.649542033672333" lon="10.158939817920327">
        <ele>29.760000000000002</ele>
        <time>2021-09-13T10:46:37Z</time>
      </trkpt>
      <trkpt lat="53.649667343124747" lon="10.159140648320317">
        <ele>30.16</ele>
        <time>2021-09-13T10:46:42Z</time>
      </trkpt>
      <trkpt lat="53.649788042530417" lon="10.15952629968524">
        <ele>31.16</ele>
        <time>2021-09-13T10:46:52Z</time>
      </trkpt>
      <trkpt lat="53.649913100525737" lon="10.160021837800741">
        <ele>31.73</ele>
        <time>2021-09-13T10:47:04Z</time>
      </trkpt>
      <trkpt lat="53.650112003087997" lon="10.160760534927249">
        <ele>31.789999999999999</ele>
        <time>2021-09-13T10:47:18Z</time>
      </trkpt>
      <trkpt lat="53.650142345577478" lon="10.160905877128243">
        <ele>31.75</ele>
        <time>2021-09-13T10:47:21Z</time>
      </trkpt>
      <trkpt lat="53.650148632004857" lon="10.160947032272816">
        <ele>31.739999999999998</ele>
        <time>2021-09-13T10:47:22Z</time>
      </trkpt>
      <trkpt lat="53.650232031941414" lon="10.161344250664115">
        <ele>31.5</ele>
        <time>2021-09-13T10:47:32Z</time>
      </trkpt>
      <trkpt lat="53.650227589532733" lon="10.161372581496835">
        <ele>31.449999999999999</ele>
        <time>2021-09-13T10:47:33Z</time>
      </trkpt>
      <trkpt lat="53.65022012963891" lon="10.161403678357601">
        <ele>31.359999999999999</ele>
        <time>2021-09-13T10:47:34Z</time>
      </trkpt>
      <trkpt lat="53.650193056091666" lon="10.16145640052855">
        <ele>31.25</ele>
        <time>2021-09-13T10:47:36Z</time>
      </trkpt>
      <trkpt lat="53.650179645046592" lon="10.16149110160768">
        <ele>31.210000000000001</ele>
        <time>2021-09-13T10:47:37Z</time>
      </trkpt>
      <trkpt lat="53.65017612464726" lon="10.161531921476126">
        <ele>31.149999999999999</ele>
        <time>2021-09-13T10:47:38Z</time>
      </trkpt>
      <trkpt lat="53.650098005309701" lon="10.16210725530982">
        <ele>30.93</ele>
        <time>2021-09-13T10:47:49Z</time>
      </trkpt>
      <trkpt lat="53.650012258440256" lon="10.162586532533169">
        <ele>30.800000000000001</ele>
        <time>2021-09-13T10:47:57Z</time>
      </trkpt>
      <trkpt lat="53.650015527382493" lon="10.162628944963217">
        <ele>30.809999999999999</ele>
        <time>2021-09-13T10:47:58Z</time>
      </trkpt>
      <trkpt lat="53.650019131600857" lon="10.16266968101263">
        <ele>30.879999999999999</ele>
        <time>2021-09-13T10:47:59Z</time>
      </trkpt>
      <trkpt lat="53.65003002807498" lon="10.16272340901196">
        <ele>31.079999999999998</ele>
        <time>2021-09-13T10:48:01Z</time>
      </trkpt>
      <trkpt lat="53.650043187662959" lon="10.162758696824312">
        <ele>31.18</ele>
        <time>2021-09-13T10:48:02Z</time>
      </trkpt>
      <trkpt lat="53.650054922327399" lon="10.162796415388584">
        <ele>31.420000000000002</ele>
        <time>2021-09-13T10:48:03Z</time>
      </trkpt>
      <trkpt lat="53.650051821023226" lon="10.162824830040336">
        <ele>31.420000000000002</ele>
        <time>2021-09-13T10:48:04Z</time>
      </trkpt>
      <trkpt lat="53.650037152692676" lon="10.162853328511119">
        <ele>31.52</ele>
        <time>2021-09-13T10:48:05Z</time>
      </trkpt>
      <trkpt lat="53.650013515725732" lon="10.162871768698096">
        <ele>31.629999999999999</ele>
        <time>2021-09-13T10:48:06Z</time>
      </trkpt>
      <trkpt lat="53.649984011426568" lon="10.162894232198596">
        <ele>31.629999999999999</ele>
        <time>2021-09-13T10:48:07Z</time>
      </trkpt>
      <trkpt lat="53.649762896820903" lon="10.162975369021297">
        <ele>32.090000000000003</ele>
        <time>2021-09-13T10:48:18Z</time>
      </trkpt>
      <trkpt lat="53.649761220440269" lon="10.162977548316121">
        <ele>32.140000000000001</ele>
        <time>2021-09-13T10:48:20Z</time>
      </trkpt>
      <trkpt lat="53.64973490126431" lon="10.16307276673615">
        <ele>32.049999999999997</ele>
        <time>2021-09-13T10:48:40Z</time>
      </trkpt>
      <trkpt lat="53.649757113307714" lon="10.163080645725131">
        <ele>32.049999999999997</ele>
        <time>2021-09-13T10:48:41Z</time>
      </trkpt>
      <trkpt lat="53.649779995903373" lon="10.163089111447334">
        <ele>32.039999999999999</ele>
        <time>2021-09-13T10:48:42Z</time>
      </trkpt>
      <trkpt lat="53.649801285937428" lon="10.163090955466032">
        <ele>32.030000000000001</ele>
        <time>2021-09-13T10:48:43Z</time>
      </trkpt>
      <trkpt lat="53.650089958682656" lon="10.163227245211601">
        <ele>31.609999999999999</ele>
        <time>2021-09-13T10:48:56Z</time>
      </trkpt>
      <trkpt lat="53.650129353627563" lon="10.163288181647658">
        <ele>31.809999999999999</ele>
        <time>2021-09-13T10:49:04Z</time>
      </trkpt>
      <trkpt lat="53.650070931762457" lon="10.163333276286721">
        <ele>31.800000000000001</ele>
        <time>2021-09-13T10:49:12Z</time>
      </trkpt>
      <trkpt lat="53.650060454383492" lon="10.163354147225618">
        <ele>31.789999999999999</ele>
        <time>2021-09-13T10:49:13Z</time>
      </trkpt>
      <trkpt lat="53.650049641728401" lon="10.163384741172194">
        <ele>31.780000000000001</ele>
        <time>2021-09-13T10:49:14Z</time>
      </trkpt>
      <trkpt lat="53.650043942034245" lon="10.163410557433963">
        <ele>31.780000000000001</ele>
        <time>2021-09-13T10:49:15Z</time>
      </trkpt>
      <trkpt lat="53.65004226565361" lon="10.163444839417934">
        <ele>31.780000000000001</ele>
        <time>2021-09-13T10:49:16Z</time>
      </trkpt>
      <trkpt lat="53.650041008368134" lon="10.163481300696731">
        <ele>31.780000000000001</ele>
        <time>2021-09-13T10:49:17Z</time>
      </trkpt>
      <trkpt lat="53.650034135207534" lon="10.163519941270351">
        <ele>31.780000000000001</ele>
        <time>2021-09-13T10:49:18Z</time>
      </trkpt>
      <trkpt lat="53.65002466365695" lon="10.163561264052987">
        <ele>31.77</ele>
        <time>2021-09-13T10:49:19Z</time>
      </trkpt>
      <trkpt lat="53.650014521554112" lon="10.163600072264671">
        <ele>31.75</ele>
        <time>2021-09-13T10:49:20Z</time>
      </trkpt>
      <trkpt lat="53.649973282590508" lon="10.163822444155812">
        <ele>31.75</ele>
        <time>2021-09-13T10:49:26Z</time>
      </trkpt>
      <trkpt lat="53.649965822696686" lon="10.163847338408232">
        <ele>31.75</ele>
        <time>2021-09-13T10:49:27Z</time>
      </trkpt>
      <trkpt lat="53.649958614259958" lon="10.163875753059983">
        <ele>31.75</ele>
        <time>2021-09-13T10:49:28Z</time>
      </trkpt>
      <trkpt lat="53.649950232356787" lon="10.163907771930099">
        <ele>31.75</ele>
        <time>2021-09-13T10:49:29Z</time>
      </trkpt>
      <trkpt lat="53.64994109608233" lon="10.163932917639613">
        <ele>31.75</ele>
        <time>2021-09-13T10:49:30Z</time>
      </trkpt>
      <trkpt lat="53.649816373363137" lon="10.164444632828236">
        <ele>31.469999999999999</ele>
        <time>2021-09-13T10:49:40Z</time>
      </trkpt>
      <trkpt lat="53.649667426943779" lon="10.164839839562774">
        <ele>31.550000000000001</ele>
        <time>2021-09-13T10:49:50Z</time>
      </trkpt>
      <trkpt lat="53.649375736713409" lon="10.165436128154397">
        <ele>32.590000000000003</ele>
        <time>2021-09-13T10:50:02Z</time>
      </trkpt>
      <trkpt lat="53.649367690086365" lon="10.165474098175764">
        <ele>32.729999999999997</ele>
        <time>2021-09-13T10:50:03Z</time>
      </trkpt>
      <trkpt lat="53.649355201050639" lon="10.165521372109652">
        <ele>32.880000000000003</ele>
        <time>2021-09-13T10:50:04Z</time>
      </trkpt>
      <trkpt lat="53.649344136938453" lon="10.165565880015492">
        <ele>33.009999999999998</ele>
        <time>2021-09-13T10:50:05Z</time>
      </trkpt>
      <trkpt lat="53.649339191615582" lon="10.165618183091283">
        <ele>33.130000000000003</ele>
        <time>2021-09-13T10:50:06Z</time>
      </trkpt>
      <trkpt lat="53.649343801662326" lon="10.165671491995454">
        <ele>33.240000000000002</ele>
        <time>2021-09-13T10:50:07Z</time>
      </trkpt>
      <trkpt lat="53.649285715073347" lon="10.166058400645852">
        <ele>33.850000000000001</ele>
        <time>2021-09-13T10:50:14Z</time>
      </trkpt>
      <trkpt lat="53.649263167753816" lon="10.166095364838839">
        <ele>33.950000000000003</ele>
        <time>2021-09-13T10:50:15Z</time>
      </trkpt>
      <trkpt lat="53.649234669283032" lon="10.166121264919639">
        <ele>34.049999999999997</ele>
        <time>2021-09-13T10:50:16Z</time>
      </trkpt>
      <trkpt lat="53.649206589907408" lon="10.166133418679237">
        <ele>34.149999999999999</ele>
        <time>2021-09-13T10:50:17Z</time>
      </trkpt>
      <trkpt lat="53.649177001789212" lon="10.166142806410789">
        <ele>34.240000000000002</ele>
        <time>2021-09-13T10:50:18Z</time>
      </trkpt>
      <trkpt lat="53.649147413671017" lon="10.166154792532325">
        <ele>34.329999999999998</ele>
        <time>2021-09-13T10:50:19Z</time>
      </trkpt>
      <trkpt lat="53.649116903543472" lon="10.166167700663209">
        <ele>34.439999999999998</ele>
        <time>2021-09-13T10:50:20Z</time>
      </trkpt>
      <trkpt lat="53.648904925212264" lon="10.166244311258197">
        <ele>35.030000000000001</ele>
        <time>2021-09-13T10:50:31Z</time>
      </trkpt>
      <trkpt lat="53.648876175284386" lon="10.166259650141001">
        <ele>35.100000000000001</ele>
        <time>2021-09-13T10:50:33Z</time>
      </trkpt>
      <trkpt lat="53.648857232183218" lon="10.166267696768045">
        <ele>35.109999999999999</ele>
        <time>2021-09-13T10:50:34Z</time>
      </trkpt>
      <trkpt lat="53.648836864158511" lon="10.166276497766376">
        <ele>35.119999999999997</ele>
        <time>2021-09-13T10:50:35Z</time>
      </trkpt>
      <trkpt lat="53.648816496133804" lon="10.166275827214122">
        <ele>35.130000000000003</ele>
        <time>2021-09-13T10:50:36Z</time>
      </trkpt>
      <trkpt lat="53.648794954642653" lon="10.166264260187745">
        <ele>35.130000000000003</ele>
        <time>2021-09-13T10:50:37Z</time>
      </trkpt>
      <trkpt lat="53.648773664608598" lon="10.166252441704273">
        <ele>35.149999999999999</ele>
        <time>2021-09-13T10:50:38Z</time>
      </trkpt>
      <trkpt lat="53.648600997403264" lon="10.165917752310634">
        <ele>36.210000000000001</ele>
        <time>2021-09-13T10:50:50Z</time>
      </trkpt>
      <trkpt lat="53.648603763431311" lon="10.165832005441189">
        <ele>36.280000000000001</ele>
        <time>2021-09-13T10:50:52Z</time>
      </trkpt>
      <trkpt lat="53.648609966039658" lon="10.165800992399454">
        <ele>36.240000000000002</ele>
        <time>2021-09-13T10:50:53Z</time>
      </trkpt>
      <trkpt lat="53.648568727076054" lon="10.165770314633846">
        <ele>35.770000000000003</ele>
        <time>2021-09-13T10:50:59Z</time>
      </trkpt>
      <trkpt lat="53.648521117866039" lon="10.165763022378087">
        <ele>35.600000000000001</ele>
        <time>2021-09-13T10:51:02Z</time>
      </trkpt>
      <trkpt lat="53.648467976599932" lon="10.165737038478255">
        <ele>35.280000000000001</ele>
        <time>2021-09-13T10:51:06Z</time>
      </trkpt>
      <trkpt lat="53.64845272153616" lon="10.165734691545367">
        <ele>35.130000000000003</ele>
        <time>2021-09-13T10:51:07Z</time>
      </trkpt>
      <trkpt lat="53.648433359339833" lon="10.165740558877587">
        <ele>34.920000000000002</ele>
        <time>2021-09-13T10:51:08Z</time>
      </trkpt>
      <trkpt lat="53.648410644382238" lon="10.165743073448539">
        <ele>34.689999999999998</ele>
        <time>2021-09-13T10:51:09Z</time>
      </trkpt>
      <trkpt lat="53.648380301892757" lon="10.165737541392446">
        <ele>34.450000000000003</ele>
        <time>2021-09-13T10:51:10Z</time>
      </trkpt>
      <trkpt lat="53.648337805643678" lon="10.165730165317655">
        <ele>34.210000000000001</ele>
        <time>2021-09-13T10:51:11Z</time>
      </trkpt>
      <trkpt lat="53.648300254717469" lon="10.165724130347371">
        <ele>33.990000000000002</ele>
        <time>2021-09-13T10:51:12Z</time>
      </trkpt>
      <trkpt lat="53.647882416844368" lon="10.165632348507643">
        <ele>32.82</ele>
        <time>2021-09-13T10:51:23Z</time>
      </trkpt>
      <trkpt lat="53.647491401061416" lon="10.165728237479925">
        <ele>33.159999999999997</ele>
        <time>2021-09-13T10:51:33Z</time>
      </trkpt>
      <trkpt lat="53.647405318915844" lon="10.165737541392446">
        <ele>33.409999999999997</ele>
        <time>2021-09-13T10:51:36Z</time>
      </trkpt>
      <trkpt lat="53.647373132407665" lon="10.165680879727006">
        <ele>33.57</ele>
        <time>2021-09-13T10:51:39Z</time>
      </trkpt>
      <trkpt lat="53.647357625886798" lon="10.16566788777709">
        <ele>33.579999999999998</ele>
        <time>2021-09-13T10:51:40Z</time>
      </trkpt>
      <trkpt lat="53.647339353337884" lon="10.165659673511982">
        <ele>33.590000000000003</ele>
        <time>2021-09-13T10:51:41Z</time>
      </trkpt>
      <trkpt lat="53.647322086617351" lon="10.165654895827174">
        <ele>33.590000000000003</ele>
        <time>2021-09-13T10:51:42Z</time>
      </trkpt>
      <trkpt lat="53.64730691537261" lon="10.165652800351381">
        <ele>33.590000000000003</ele>
        <time>2021-09-13T10:51:43Z</time>
      </trkpt>
      <trkpt lat="53.647252433001995" lon="10.165588008239865">
        <ele>33.460000000000001</ele>
        <time>2021-09-13T10:51:52Z</time>
      </trkpt>
      <trkpt lat="53.647267101332545" lon="10.165698481723666">
        <ele>33.460000000000001</ele>
        <time>2021-09-13T10:52:14Z</time>
      </trkpt>
      <trkpt lat="53.647280763834715" lon="10.165752628818154">
        <ele>33.460000000000001</ele>
        <time>2021-09-13T10:52:16Z</time>
      </trkpt>
      <trkpt lat="53.64727221429348" lon="10.165870059281588">
        <ele>33.549999999999997</ele>
        <time>2021-09-13T10:52:20Z</time>
      </trkpt>
      <trkpt lat="53.647257797420025" lon="10.1658936124295">
        <ele>33.609999999999999</ele>
        <time>2021-09-13T10:52:21Z</time>
      </trkpt>
      <trkpt lat="53.647236758843064" lon="10.165908448398113">
        <ele>33.649999999999999</ele>
        <time>2021-09-13T10:52:22Z</time>
      </trkpt>
      <trkpt lat="53.647214630618691" lon="10.165916243568063">
        <ele>33.670000000000002</ele>
        <time>2021-09-13T10:52:23Z</time>
      </trkpt>
      <trkpt lat="53.647198872640729" lon="10.165918506681919">
        <ele>33.68</ele>
        <time>2021-09-13T10:52:24Z</time>
      </trkpt>
      <trkpt lat="53.647183114662766" lon="10.165922781452537">
        <ele>33.689999999999998</ele>
        <time>2021-09-13T10:52:25Z</time>
      </trkpt>
      <trkpt lat="53.647037269547582" lon="10.165636958554387">
        <ele>33.799999999999997</ele>
        <time>2021-09-13T10:52:35Z</time>
      </trkpt>
      <trkpt lat="53.646909948438406" lon="10.164863308891654">
        <ele>33.899999999999999</ele>
        <time>2021-09-13T10:52:48Z</time>
      </trkpt>
      <trkpt lat="53.646813221275806" lon="10.163980778306723">
        <ele>33.530000000000001</ele>
        <time>2021-09-13T10:53:04Z</time>
      </trkpt>
      <trkpt lat="53.646745914593339" lon="10.163600323721766">
        <ele>33.609999999999999</ele>
        <time>2021-09-13T10:53:16Z</time>
      </trkpt>
      <trkpt lat="53.646743902936578" lon="10.163598312065005">
        <ele>33.619999999999997</ele>
        <time>2021-09-13T10:53:20Z</time>
      </trkpt>
      <trkpt lat="53.646691013127565" lon="10.163619183003902">
        <ele>33.630000000000003</ele>
        <time>2021-09-13T10:53:24Z</time>
      </trkpt>
      <trkpt lat="53.646679362282157" lon="10.163633599877357">
        <ele>33.640000000000001</ele>
        <time>2021-09-13T10:53:25Z</time>
      </trkpt>
      <trkpt lat="53.646664693951607" lon="10.163646172732115">
        <ele>33.670000000000002</ele>
        <time>2021-09-13T10:53:26Z</time>
      </trkpt>
      <trkpt lat="53.646643152460456" lon="10.163655979558825">
        <ele>33.700000000000003</ele>
        <time>2021-09-13T10:53:27Z</time>
      </trkpt>
      <trkpt lat="53.646626221016049" lon="10.163649693131447">
        <ele>33.729999999999997</ele>
        <time>2021-09-13T10:53:28Z</time>
      </trkpt>
      <trkpt lat="53.646619347855449" lon="10.163626810535789">
        <ele>33.759999999999998</ele>
        <time>2021-09-13T10:53:29Z</time>
      </trkpt>
      <trkpt lat="53.646617252379656" lon="10.163598228245974">
        <ele>33.780000000000001</ele>
        <time>2021-09-13T10:53:30Z</time>
      </trkpt>
      <trkpt lat="53.646612809970975" lon="10.163567215204239">
        <ele>33.789999999999999</ele>
        <time>2021-09-13T10:53:31Z</time>
      </trkpt>
      <trkpt lat="53.646588418632746" lon="10.163330426439643">
        <ele>33.920000000000002</ele>
        <time>2021-09-13T10:53:37Z</time>
      </trkpt>
      <trkpt lat="53.646578108891845" lon="10.163315925747156">
        <ele>33.950000000000003</ele>
        <time>2021-09-13T10:53:38Z</time>
      </trkpt>
      <trkpt lat="53.646542485803366" lon="10.163299413397908">
        <ele>34.359999999999999</ele>
        <time>2021-09-13T10:53:44Z</time>
      </trkpt>
      <trkpt lat="53.646451542153955" lon="10.163237135857344">
        <ele>34.670000000000002</ele>
        <time>2021-09-13T10:53:51Z</time>
      </trkpt>
      <trkpt lat="53.646405609324574" lon="10.163215594366193">
        <ele>34.710000000000001</ele>
        <time>2021-09-13T10:53:53Z</time>
      </trkpt>
      <trkpt lat="53.6460330337286" lon="10.162977464497089">
        <ele>34.979999999999997</ele>
        <time>2021-09-13T10:54:05Z</time>
      </trkpt>
      <trkpt lat="53.645762968808413" lon="10.16276003792882">
        <ele>35.350000000000001</ele>
        <time>2021-09-13T10:54:14Z</time>
      </trkpt>
      <trkpt lat="53.645506734028459" lon="10.162598686292768">
        <ele>36.409999999999997</ele>
        <time>2021-09-13T10:54:25Z</time>
      </trkpt>
      <trkpt lat="53.645305316895247" lon="10.162526434287429">
        <ele>37.079999999999998</ele>
        <time>2021-09-13T10:54:32Z</time>
      </trkpt>
      <trkpt lat="53.645169697701931" lon="10.162486787885427">
        <ele>37.189999999999998</ele>
        <time>2021-09-13T10:54:36Z</time>
      </trkpt>
      <trkpt lat="53.644899129867554" lon="10.162439094856381">
        <ele>37.579999999999998</ele>
        <time>2021-09-13T10:54:44Z</time>
      </trkpt>
      <trkpt lat="53.644848754629493" lon="10.162462312728167">
        <ele>37.710000000000001</ele>
        <time>2021-09-13T10:54:46Z</time>
      </trkpt>
      <trkpt lat="53.644824028015137" lon="10.162483099848032">
        <ele>37.789999999999999</ele>
        <time>2021-09-13T10:54:47Z</time>
      </trkpt>
      <trkpt lat="53.644798044115305" lon="10.162499779835343">
        <ele>37.880000000000003</ele>
        <time>2021-09-13T10:54:48Z</time>
      </trkpt>
      <trkpt lat="53.644768791273236" lon="10.162522913888097">
        <ele>37.950000000000003</ele>
        <time>2021-09-13T10:54:49Z</time>
      </trkpt>
      <trkpt lat="53.644742220640182" lon="10.162551160901785">
        <ele>38.030000000000001</ele>
        <time>2021-09-13T10:54:50Z</time>
      </trkpt>
      <trkpt lat="53.64471766166389" lon="10.162572870030999">
        <ele>38.090000000000003</ele>
        <time>2021-09-13T10:54:51Z</time>
      </trkpt>
      <trkpt lat="53.644681703299284" lon="10.162592651322484">
        <ele>38.140000000000001</ele>
        <time>2021-09-13T10:54:52Z</time>
      </trkpt>
      <trkpt lat="53.644641386345029" lon="10.162607487291098">
        <ele>38.18</ele>
        <time>2021-09-13T10:54:53Z</time>
      </trkpt>
      <trkpt lat="53.644599309191108" lon="10.162608996033669">
        <ele>38.200000000000003</ele>
        <time>2021-09-13T10:54:54Z</time>
      </trkpt>
      <trkpt lat="53.644574163481593" lon="10.162593489512801">
        <ele>38.229999999999997</ele>
        <time>2021-09-13T10:54:55Z</time>
      </trkpt>
      <trkpt lat="53.644547089934349" lon="10.162577228620648">
        <ele>38.25</ele>
        <time>2021-09-13T10:54:56Z</time>
      </trkpt>
      <trkpt lat="53.644515573978424" lon="10.162560464814305">
        <ele>38.25</ele>
        <time>2021-09-13T10:54:57Z</time>
      </trkpt>
      <trkpt lat="53.644483974203467" lon="10.162540012970567">
        <ele>38.25</ele>
        <time>2021-09-13T10:54:58Z</time>
      </trkpt>
      <trkpt lat="53.64445480518043" lon="10.16252551227808">
        <ele>38.240000000000002</ele>
        <time>2021-09-13T10:54:59Z</time>
      </trkpt>
      <trkpt lat="53.644205946475267" lon="10.16241948120296">
        <ele>38.299999999999997</ele>
        <time>2021-09-13T10:55:07Z</time>
      </trkpt>
      <trkpt lat="53.644047947600484" lon="10.162338092923164">
        <ele>38.310000000000002</ele>
        <time>2021-09-13T10:55:11Z</time>
      </trkpt>
      <trkpt lat="53.643862958997488" lon="10.162208341062069">
        <ele>38.439999999999998</ele>
        <time>2021-09-13T10:55:18Z</time>
      </trkpt>
      <trkpt lat="53.643837980926037" lon="10.162181602790952">
        <ele>38.460000000000001</ele>
        <time>2021-09-13T10:55:19Z</time>
      </trkpt>
      <trkpt lat="53.643329702317715" lon="10.161545248702168">
        <ele>37.899999999999999</ele>
        <time>2021-09-13T10:55:33Z</time>
      </trkpt>
      <trkpt lat="53.643211936578155" lon="10.161391692236066">
        <ele>37.579999999999998</ele>
        <time>2021-09-13T10:55:36Z</time>
      </trkpt>
      <trkpt lat="53.642847575247288" lon="10.160756008699536">
        <ele>36.310000000000002</ele>
        <time>2021-09-13T10:55:46Z</time>
      </trkpt>
      <trkpt lat="53.64250224083662" lon="10.160107081755996">
        <ele>35.030000000000001</ele>
        <time>2021-09-13T10:55:56Z</time>
      </trkpt>
      <trkpt lat="53.642180627211928" lon="10.159757640212774">
        <ele>33.780000000000001</ele>
        <time>2021-09-13T10:56:05Z</time>
      </trkpt>
      <trkpt lat="53.641672180965543" lon="10.159598216414452">
        <ele>32.869999999999997</ele>
        <time>2021-09-13T10:56:17Z</time>
      </trkpt>
      <trkpt lat="53.641238668933511" lon="10.159462261945009">
        <ele>32.130000000000003</ele>
        <time>2021-09-13T10:56:27Z</time>
      </trkpt>
      <trkpt lat="53.640801887959242" lon="10.159533089026809">
        <ele>31.870000000000001</ele>
        <time>2021-09-13T10:56:38Z</time>
      </trkpt>
      <trkpt lat="53.640578258782625" lon="10.159575585275888">
        <ele>31.84</ele>
        <time>2021-09-13T10:56:44Z</time>
      </trkpt>
      <trkpt lat="53.640558226034045" lon="10.159550439566374">
        <ele>31.77</ele>
        <time>2021-09-13T10:56:45Z</time>
      </trkpt>
      <trkpt lat="53.640538612380624" lon="10.159525880590081">
        <ele>31.690000000000001</ele>
        <time>2021-09-13T10:56:46Z</time>
      </trkpt>
      <trkpt lat="53.640479017049074" lon="10.159417670220137">
        <ele>31.390000000000001</ele>
        <time>2021-09-13T10:56:50Z</time>
      </trkpt>
      <trkpt lat="53.640215238556266" lon="10.159194376319647">
        <ele>30.82</ele>
        <time>2021-09-13T10:57:00Z</time>
      </trkpt>
      <trkpt lat="53.639944922178984" lon="10.158802606165409">
        <ele>30.309999999999999</ele>
        <time>2021-09-13T10:57:09Z</time>
      </trkpt>
      <trkpt lat="53.63972338847816" lon="10.158539330586791">
        <ele>29.699999999999999</ele>
        <time>2021-09-13T10:57:16Z</time>
      </trkpt>
      <trkpt lat="53.639710145071149" lon="10.158491637557745">
        <ele>29.690000000000001</ele>
        <time>2021-09-13T10:57:17Z</time>
      </trkpt>
      <trkpt lat="53.63970335572958" lon="10.158442184329033">
        <ele>29.670000000000002</ele>
        <time>2021-09-13T10:57:18Z</time>
      </trkpt>
      <trkpt lat="53.63957385532558" lon="10.157822091132402">
        <ele>29.449999999999999</ele>
        <time>2021-09-13T10:57:32Z</time>
      </trkpt>
      <trkpt lat="53.639373863115907" lon="10.157377347350121">
        <ele>29.27</ele>
        <time>2021-09-13T10:57:45Z</time>
      </trkpt>
      <trkpt lat="53.639263641089201" lon="10.157060176134109">
        <ele>29.219999999999999</ele>
        <time>2021-09-13T10:57:55Z</time>
      </trkpt>
      <trkpt lat="53.639273615553975" lon="10.157002005726099">
        <ele>29.120000000000001</ele>
        <time>2021-09-13T10:57:57Z</time>
      </trkpt>
      <trkpt lat="53.63931636326015" lon="10.156807126477361">
        <ele>28.75</ele>
        <time>2021-09-13T10:58:06Z</time>
      </trkpt>
      <trkpt lat="53.639319632202387" lon="10.156766725704074">
        <ele>28.75</ele>
        <time>2021-09-13T10:58:07Z</time>
      </trkpt>
      <trkpt lat="53.639326337724924" lon="10.156721966341138">
        <ele>28.77</ele>
        <time>2021-09-13T10:58:08Z</time>
      </trkpt>
      <trkpt lat="53.639336228370667" lon="10.156680224463344">
        <ele>28.780000000000001</ele>
        <time>2021-09-13T10:58:09Z</time>
      </trkpt>
      <trkpt lat="53.639339748769999" lon="10.156626999378204">
        <ele>28.809999999999999</ele>
        <time>2021-09-13T10:58:10Z</time>
      </trkpt>
      <trkpt lat="53.639357099309564" lon="10.156587604433298">
        <ele>28.829999999999998</ele>
        <time>2021-09-13T10:58:11Z</time>
      </trkpt>
      <trkpt lat="53.63937889225781" lon="10.156564302742481">
        <ele>28.859999999999999</ele>
        <time>2021-09-13T10:58:12Z</time>
      </trkpt>
      <trkpt lat="53.639397080987692" lon="10.156546784564853">
        <ele>28.879999999999999</ele>
        <time>2021-09-13T10:58:13Z</time>
      </trkpt>
      <trkpt lat="53.639409570023417" lon="10.156519208103418">
        <ele>28.890000000000001</ele>
        <time>2021-09-13T10:58:14Z</time>
      </trkpt>
      <trkpt lat="53.639423483982682" lon="10.156484339386225">
        <ele>28.890000000000001</ele>
        <time>2021-09-13T10:58:15Z</time>
      </trkpt>
      <trkpt lat="53.639437397941947" lon="10.156445950269699">
        <ele>28.899999999999999</ele>
        <time>2021-09-13T10:58:16Z</time>
      </trkpt>
      <trkpt lat="53.639663709327579" lon="10.155835077166557">
        <ele>29.210000000000001</ele>
        <time>2021-09-13T10:58:29Z</time>
      </trkpt>
      <trkpt lat="53.639786252751946" lon="10.155487898737192">
        <ele>28.879999999999999</ele>
        <time>2021-09-13T10:58:38Z</time>
      </trkpt>
      <trkpt lat="53.639801759272814" lon="10.155471218749881">
        <ele>28.850000000000001</ele>
        <time>2021-09-13T10:58:39Z</time>
      </trkpt>
      <trkpt lat="53.639818439260125" lon="10.155467865988612">
        <ele>28.739999999999998</ele>
        <time>2021-09-13T10:58:40Z</time>
      </trkpt>
      <trkpt lat="53.639834448695183" lon="10.155469542369246">
        <ele>28.699999999999999</ele>
        <time>2021-09-13T10:58:41Z</time>
      </trkpt>
      <trkpt lat="53.639848614111543" lon="10.155479600653052">
        <ele>28.66</ele>
        <time>2021-09-13T10:58:42Z</time>
      </trkpt>
      <trkpt lat="53.63985825330019" lon="10.15549561008811">
        <ele>28.609999999999999</ele>
        <time>2021-09-13T10:58:46Z</time>
      </trkpt>
      <trkpt lat="53.639905108138919" lon="10.15545898117125">
        <ele>28.829999999999998</ele>
        <time>2021-09-13T10:59:15Z</time>
      </trkpt>
      <trkpt lat="53.639916172251105" lon="10.155418245121837">
        <ele>28.82</ele>
        <time>2021-09-13T10:59:16Z</time>
      </trkpt>
      <trkpt lat="53.639924051240087" lon="10.155347418040037">
        <ele>28.809999999999999</ele>
        <time>2021-09-13T10:59:18Z</time>
      </trkpt>
      <trkpt lat="53.639911478385329" lon="10.155316656455398">
        <ele>28.800000000000001</ele>
        <time>2021-09-13T10:59:19Z</time>
      </trkpt>
      <trkpt lat="53.639896139502525" lon="10.15528698451817">
        <ele>28.789999999999999</ele>
        <time>2021-09-13T10:59:20Z</time>
      </trkpt>
      <trkpt lat="53.639878369867802" lon="10.155258318409324">
        <ele>28.780000000000001</ele>
        <time>2021-09-13T10:59:21Z</time>
      </trkpt>
      <trkpt lat="53.639863030984998" lon="10.155230741947889">
        <ele>28.77</ele>
        <time>2021-09-13T10:59:22Z</time>
      </trkpt>
      <trkpt lat="53.639662954956293" lon="10.154880126938224">
        <ele>29.039999999999999</ele>
        <time>2021-09-13T10:59:34Z</time>
      </trkpt>
      <trkpt lat="53.639435637742281" lon="10.154521968215704">
        <ele>29.640000000000001</ele>
        <time>2021-09-13T10:59:47Z</time>
      </trkpt>
      <trkpt lat="53.639208320528269" lon="10.154195493087173">
        <ele>30.23</ele>
        <time>2021-09-13T10:59:57Z</time>
      </trkpt>
      <trkpt lat="53.638969352468848" lon="10.153825683519244">
        <ele>30.48</ele>
        <time>2021-09-13T11:00:07Z</time>
      </trkpt>
      <trkpt lat="53.638676656410098" lon="10.153358392417431">
        <ele>30.670000000000002</ele>
        <time>2021-09-13T11:00:19Z</time>
      </trkpt>
      <trkpt lat="53.638473311439157" lon="10.153060331940651">
        <ele>30.850000000000001</ele>
        <time>2021-09-13T11:00:28Z</time>
      </trkpt>
      <trkpt lat="53.638282790780067" lon="10.152756739407778">
        <ele>31.050000000000001</ele>
        <time>2021-09-13T11:00:37Z</time>
      </trkpt>
      <trkpt lat="53.63796385936439" lon="10.152307469397783">
        <ele>30.829999999999998</ele>
        <time>2021-09-13T11:00:47Z</time>
      </trkpt>
      <trkpt lat="53.63761642947793" lon="10.151779828593135">
        <ele>30.699999999999999</ele>
        <time>2021-09-13T11:01:00Z</time>
      </trkpt>
      <trkpt lat="53.637229017913342" lon="10.151181360706687">
        <ele>30.760000000000002</ele>
        <time>2021-09-13T11:01:12Z</time>
      </trkpt>
      <trkpt lat="53.636942692101002" lon="10.150743070989847">
        <ele>31.059999999999999</ele>
        <time>2021-09-13T11:01:22Z</time>
      </trkpt>
      <trkpt lat="53.636688971891999" lon="10.150307882577181">
        <ele>31.100000000000001</ele>
        <time>2021-09-13T11:01:33Z</time>
      </trkpt>
      <trkpt lat="53.636446483433247" lon="10.149950226768851">
        <ele>31.079999999999998</ele>
        <time>2021-09-13T11:01:43Z</time>
      </trkpt>
      <trkpt lat="53.636201312765479" lon="10.149547643959522">
        <ele>31.66</ele>
        <time>2021-09-13T11:01:55Z</time>
      </trkpt>
      <trkpt lat="53.636148422956467" lon="10.149466507136822">
        <ele>31.73</ele>
        <time>2021-09-13T11:02:02Z</time>
      </trkpt>
      <trkpt lat="53.635966619476676" lon="10.149136763066053">
        <ele>31.620000000000001</ele>
        <time>2021-09-13T11:04:02Z</time>
      </trkpt>
      <trkpt lat="53.635716419667006" lon="10.148712052032351">
        <ele>32.270000000000003</ele>
        <time>2021-09-13T11:04:15Z</time>
      </trkpt>
      <trkpt lat="53.635437050834298" lon="10.148271918296814">
        <ele>32.590000000000003</ele>
        <time>2021-09-13T11:04:28Z</time>
      </trkpt>
      <trkpt lat="53.635160448029637" lon="10.147875789552927">
        <ele>32.700000000000003</ele>
        <time>2021-09-13T11:04:39Z</time>
      </trkpt>
      <trkpt lat="53.634918965399265" lon="10.147429956123233">
        <ele>32.670000000000002</ele>
        <time>2021-09-13T11:04:50Z</time>
      </trkpt>
      <trkpt lat="53.634621994569898" lon="10.146992420777678">
        <ele>32.5</ele>
        <time>2021-09-13T11:05:02Z</time>
      </trkpt>
      <trkpt lat="53.634369531646371" lon="10.146575253456831">
        <ele>32.409999999999997</ele>
        <time>2021-09-13T11:05:12Z</time>
      </trkpt>
      <trkpt lat="53.634116062894464" lon="10.146128414198756">
        <ele>32.340000000000003</ele>
        <time>2021-09-13T11:05:23Z</time>
      </trkpt>
      <trkpt lat="53.633884051814675" lon="10.145718203857541">
        <ele>32.259999999999998</ele>
        <time>2021-09-13T11:05:34Z</time>
      </trkpt>
      <trkpt lat="53.633577944710851" lon="10.14525786973536">
        <ele>31.989999999999998</ele>
        <time>2021-09-13T11:05:46Z</time>
      </trkpt>
      <trkpt lat="53.633337551727891" lon="10.144770294427872">
        <ele>31.280000000000001</ele>
        <time>2021-09-13T11:05:57Z</time>
      </trkpt>
      <trkpt lat="53.633335707709193" lon="10.144767444580793">
        <ele>31.149999999999999</ele>
        <time>2021-09-13T11:05:59Z</time>
      </trkpt>
      <trkpt lat="53.633266221731901" lon="10.144653283059597">
        <ele>30.969999999999999</ele>
        <time>2021-09-13T11:06:10Z</time>
      </trkpt>
      <trkpt lat="53.633248284459114" lon="10.144616402685642">
        <ele>30.969999999999999</ele>
        <time>2021-09-13T11:06:11Z</time>
      </trkpt>
      <trkpt lat="53.633231101557612" lon="10.144578600302339">
        <ele>30.969999999999999</ele>
        <time>2021-09-13T11:06:12Z</time>
      </trkpt>
      <trkpt lat="53.633216349408031" lon="10.144547000527382">
        <ele>30.960000000000001</ele>
        <time>2021-09-13T11:06:13Z</time>
      </trkpt>
      <trkpt lat="53.633202603086829" lon="10.144524788483977">
        <ele>30.949999999999999</ele>
        <time>2021-09-13T11:06:14Z</time>
      </trkpt>
      <trkpt lat="53.633188353851438" lon="10.144507102668285">
        <ele>30.949999999999999</ele>
        <time>2021-09-13T11:06:15Z</time>
      </trkpt>
      <trkpt lat="53.633173266425729" lon="10.144482459872961">
        <ele>30.940000000000001</ele>
        <time>2021-09-13T11:06:16Z</time>
      </trkpt>
      <trkpt lat="53.632942596450448" lon="10.143988598138094">
        <ele>30.219999999999999</ele>
        <time>2021-09-13T11:06:28Z</time>
      </trkpt>
      <trkpt lat="53.632630119100213" lon="10.143656674772501">
        <ele>29.199999999999999</ele>
        <time>2021-09-13T11:06:39Z</time>
      </trkpt>
      <trkpt lat="53.63226005807519" lon="10.143315698951483">
        <ele>28.420000000000002</ele>
        <time>2021-09-13T11:06:51Z</time>
      </trkpt>
      <trkpt lat="53.632004493847489" lon="10.143079748377204">
        <ele>27.760000000000002</ele>
        <time>2021-09-13T11:06:59Z</time>
      </trkpt>
      <trkpt lat="53.631646754220128" lon="10.142728462815285">
        <ele>26.82</ele>
        <time>2021-09-13T11:07:09Z</time>
      </trkpt>
      <trkpt lat="53.631282392889261" lon="10.142344906926155">
        <ele>25.649999999999999</ele>
        <time>2021-09-13T11:07:18Z</time>
      </trkpt>
      <trkpt lat="53.630909733474255" lon="10.142003847286105">
        <ele>25.359999999999999</ele>
        <time>2021-09-13T11:07:28Z</time>
      </trkpt>
      <trkpt lat="53.630559286102653" lon="10.14167133718729">
        <ele>25.100000000000001</ele>
        <time>2021-09-13T11:07:38Z</time>
      </trkpt>
      <trkpt lat="53.63012133166194" lon="10.141303539276123">
        <ele>24.600000000000001</ele>
        <time>2021-09-13T11:07:50Z</time>
      </trkpt>
      <trkpt lat="53.629613723605871" lon="10.140855442732573">
        <ele>23.91</ele>
        <time>2021-09-13T11:08:02Z</time>
      </trkpt>
      <trkpt lat="53.629360590130091" lon="10.140431066974998">
        <ele>23.27</ele>
        <time>2021-09-13T11:08:14Z</time>
      </trkpt>
      <trkpt lat="53.629260091111064" lon="10.140153290703893">
        <ele>23.68</ele>
        <time>2021-09-13T11:08:27Z</time>
      </trkpt>
      <trkpt lat="53.629193371161819" lon="10.140153206884861">
        <ele>23.780000000000001</ele>
        <time>2021-09-13T11:08:41Z</time>
      </trkpt>
      <trkpt lat="53.629046268761158" lon="10.140187069773674">
        <ele>23.550000000000001</ele>
        <time>2021-09-13T11:08:53Z</time>
      </trkpt>
      <trkpt lat="53.628977118059993" lon="10.140200732275844">
        <ele>23.32</ele>
        <time>2021-09-13T11:09:14Z</time>
      </trkpt>
      <trkpt lat="53.628925736993551" lon="10.140182375907898">
        <ele>23.23</ele>
        <time>2021-09-13T11:09:16Z</time>
      </trkpt>
      <trkpt lat="53.628895813599229" lon="10.140176424756646">
        <ele>23.199999999999999</ele>
        <time>2021-09-13T11:09:17Z</time>
      </trkpt>
      <trkpt lat="53.628865135833621" lon="10.140177430585027">
        <ele>23.18</ele>
        <time>2021-09-13T11:09:18Z</time>
      </trkpt>
      <trkpt lat="53.628836218267679" lon="10.140182208269835">
        <ele>23.140000000000001</ele>
        <time>2021-09-13T11:09:19Z</time>
      </trkpt>
      <trkpt lat="53.628381751477718" lon="10.139916753396392">
        <ele>22.629999999999999</ele>
        <time>2021-09-13T11:09:32Z</time>
      </trkpt>
      <trkpt lat="53.627714551985264" lon="10.139366649091244">
        <ele>22.84</ele>
        <time>2021-09-13T11:09:51Z</time>
      </trkpt>
      <trkpt lat="53.627159250900149" lon="10.1387903932482">
        <ele>23.309999999999999</ele>
        <time>2021-09-13T11:10:10Z</time>
      </trkpt>
      <trkpt lat="53.627025559544563" lon="10.138401724398136">
        <ele>23.149999999999999</ele>
        <time>2021-09-13T11:10:20Z</time>
      </trkpt>
      <trkpt lat="53.626816179603338" lon="10.138166025280952">
        <ele>23.120000000000001</ele>
        <time>2021-09-13T11:10:36Z</time>
      </trkpt>
      <trkpt lat="53.626816598698497" lon="10.138166109099984">
        <ele>23.129999999999999</ele>
        <time>2021-09-13T11:10:37Z</time>
      </trkpt>
      <trkpt lat="53.626771252602339" lon="10.138143058866262">
        <ele>23.190000000000001</ele>
        <time>2021-09-13T11:10:43Z</time>
      </trkpt>
      <trkpt lat="53.626755829900503" lon="10.138148255646229">
        <ele>23.190000000000001</ele>
        <time>2021-09-13T11:10:44Z</time>
      </trkpt>
      <trkpt lat="53.626735713332891" lon="10.138156972825527">
        <ele>23.190000000000001</ele>
        <time>2021-09-13T11:10:45Z</time>
      </trkpt>
      <trkpt lat="53.626602357253432" lon="10.138191170990467">
        <ele>23.02</ele>
        <time>2021-09-13T11:10:55Z</time>
      </trkpt>
      <trkpt lat="53.626510323956609" lon="10.138188153505325">
        <ele>23.289999999999999</ele>
        <time>2021-09-13T11:11:51Z</time>
      </trkpt>
      <trkpt lat="53.626493643969297" lon="10.13821279630065">
        <ele>23.289999999999999</ele>
        <time>2021-09-13T11:11:52Z</time>
      </trkpt>
      <trkpt lat="53.626476963981986" lon="10.138244228437543">
        <ele>23.329999999999998</ele>
        <time>2021-09-13T11:11:53Z</time>
      </trkpt>
      <trkpt lat="53.626488028094172" lon="10.138646308332682">
        <ele>23.82</ele>
        <time>2021-09-13T11:12:03Z</time>
      </trkpt>
      <trkpt lat="53.626561872661114" lon="10.138738676905632">
        <ele>24.100000000000001</ele>
        <time>2021-09-13T11:12:11Z</time>
      </trkpt>
      <trkpt lat="53.626459361985326" lon="10.138849234208465">
        <ele>23.870000000000001</ele>
        <time>2021-09-13T11:13:28Z</time>
      </trkpt>
      <trkpt lat="53.626216035336256" lon="10.139333875849843">
        <ele>24.32</ele>
        <time>2021-09-13T11:13:42Z</time>
      </trkpt>
      <trkpt lat="53.625989640131593" lon="10.139568569138646">
        <ele>23.93</ele>
        <time>2021-09-13T11:13:52Z</time>
      </trkpt>
      <trkpt lat="53.625882100313902" lon="10.139389028772712">
        <ele>24.18</ele>
        <time>2021-09-13T11:14:00Z</time>
      </trkpt>
      <trkpt lat="53.625759808346629" lon="10.139292972162366">
        <ele>24.379999999999999</ele>
        <time>2021-09-13T11:14:09Z</time>
      </trkpt>
      <trkpt lat="53.625797275453806" lon="10.139355501160026">
        <ele>24.289999999999999</ele>
        <time>2021-09-13T11:14:25Z</time>
      </trkpt>
      <trkpt lat="53.626045128330588" lon="10.139517271891236">
        <ele>24.260000000000002</ele>
        <time>2021-09-13T11:14:38Z</time>
      </trkpt>
      <trkpt lat="53.626253250986338" lon="10.139321722090244">
        <ele>23.879999999999999</ele>
        <time>2021-09-13T11:14:51Z</time>
      </trkpt>
      <trkpt lat="53.626254089176655" lon="10.139322811737657">
        <ele>23.879999999999999</ele>
        <time>2021-09-13T11:14:53Z</time>
      </trkpt>
      <trkpt lat="53.626222908496857" lon="10.139304958283901">
        <ele>24.16</ele>
        <time>2021-09-13T11:15:20Z</time>
      </trkpt>
      <trkpt lat="53.626206312328577" lon="10.139323230832815">
        <ele>24.16</ele>
        <time>2021-09-13T11:15:21Z</time>
      </trkpt>
      <trkpt lat="53.626189799979329" lon="10.139343934133649">
        <ele>24.16</ele>
        <time>2021-09-13T11:15:22Z</time>
      </trkpt>
      <trkpt lat="53.625903055071831" lon="10.139752048999071">
        <ele>23.98</ele>
        <time>2021-09-13T11:15:37Z</time>
      </trkpt>
      <trkpt lat="53.625579513609409" lon="10.139721874147654">
        <ele>23.890000000000001</ele>
        <time>2021-09-13T11:15:48Z</time>
      </trkpt>
      <trkpt lat="53.625360243022442" lon="10.140062514692545">
        <ele>24.109999999999999</ele>
        <time>2021-09-13T11:15:58Z</time>
      </trkpt>
      <trkpt lat="53.625291092321277" lon="10.140067376196384">
        <ele>24.109999999999999</ele>
        <time>2021-09-13T11:16:02Z</time>
      </trkpt>
      <trkpt lat="53.624974926933646" lon="10.140065113082528">
        <ele>24.719999999999999</ele>
        <time>2021-09-13T11:16:17Z</time>
      </trkpt>
      <trkpt lat="53.624973082914948" lon="10.140067543834448">
        <ele>24.800000000000001</ele>
        <time>2021-09-13T11:16:21Z</time>
      </trkpt>
      <trkpt lat="53.62660369835794" lon="10.138501049950719">
        <ele>24.190000000000001</ele>
        <time>2021-09-13T11:58:20Z</time>
      </trkpt>
      <trkpt lat="53.626707382500172" lon="10.138631472364068">
        <ele>24.190000000000001</ele>
        <time>2021-09-13T11:58:21Z</time>
      </trkpt>
      <trkpt lat="53.627081383019686" lon="10.139057273045182">
        <ele>22.960000000000001</ele>
        <time>2021-09-13T11:58:36Z</time>
      </trkpt>
      <trkpt lat="53.627570550888777" lon="10.139602934941649">
        <ele>22.719999999999999</ele>
        <time>2021-09-13T11:58:53Z</time>
      </trkpt>
      <trkpt lat="53.628059132024646" lon="10.14009696431458">
        <ele>22.300000000000001</ele>
        <time>2021-09-13T11:59:11Z</time>
      </trkpt>
      <trkpt lat="53.628464480862021" lon="10.140437185764313">
        <ele>22.190000000000001</ele>
        <time>2021-09-13T11:59:26Z</time>
      </trkpt>
      <trkpt lat="53.62866866402328" lon="10.140592753887177">
        <ele>22.25</ele>
        <time>2021-09-13T11:59:39Z</time>
      </trkpt>
      <trkpt lat="53.628704370930791" lon="10.140479514375329">
        <ele>22.09</ele>
        <time>2021-09-13T12:00:07Z</time>
      </trkpt>
      <trkpt lat="53.628711495548487" lon="10.140441711992025">
        <ele>22.09</ele>
        <time>2021-09-13T12:00:08Z</time>
      </trkpt>
      <trkpt lat="53.628718787804246" lon="10.140403406694531">
        <ele>22.100000000000001</ele>
        <time>2021-09-13T12:00:09Z</time>
      </trkpt>
      <trkpt lat="53.628714429214597" lon="10.140152787789702">
        <ele>22.16</ele>
        <time>2021-09-13T12:00:15Z</time>
      </trkpt>
      <trkpt lat="53.628691378980875" lon="10.140126803889871">
        <ele>22.16</ele>
        <time>2021-09-13T12:00:16Z</time>
      </trkpt>
      <trkpt lat="53.628154518082738" lon="10.139767890796065">
        <ele>22.100000000000001</ele>
        <time>2021-09-13T12:00:31Z</time>
      </trkpt>
      <trkpt lat="53.627732153981924" lon="10.139406379312277">
        <ele>22.27</ele>
        <time>2021-09-13T12:00:44Z</time>
      </trkpt>
      <trkpt lat="53.627718575298786" lon="10.139344520866871">
        <ele>22.27</ele>
        <time>2021-09-13T12:00:45Z</time>
      </trkpt>
      <trkpt lat="53.627716982737184" lon="10.139279896393418">
        <ele>22.199999999999999</ele>
        <time>2021-09-13T12:00:46Z</time>
      </trkpt>
      <trkpt lat="53.627721257507801" lon="10.139215523377061">
        <ele>22.09</ele>
        <time>2021-09-13T12:00:47Z</time>
      </trkpt>
      <trkpt lat="53.627721508964896" lon="10.139149893075228">
        <ele>22.010000000000002</ele>
        <time>2021-09-13T12:00:48Z</time>
      </trkpt>
      <trkpt lat="53.627716731280088" lon="10.139084095135331">
        <ele>21.940000000000001</ele>
        <time>2021-09-13T12:00:49Z</time>
      </trkpt>
      <trkpt lat="53.627708349376917" lon="10.139027768746018">
        <ele>21.890000000000001</ele>
        <time>2021-09-13T12:00:50Z</time>
      </trkpt>
      <trkpt lat="53.627700135111809" lon="10.138985691592097">
        <ele>21.850000000000001</ele>
        <time>2021-09-13T12:00:51Z</time>
      </trkpt>
      <trkpt lat="53.627661410719156" lon="10.138745969161391">
        <ele>21.010000000000002</ele>
        <time>2021-09-13T12:01:01Z</time>
      </trkpt>
      <trkpt lat="53.627624278888106" lon="10.138606075197458">
        <ele>20.98</ele>
        <time>2021-09-13T12:01:08Z</time>
      </trkpt>
      <trkpt lat="53.627616986632347" lon="10.138578834012151">
        <ele>20.98</ele>
        <time>2021-09-13T12:01:09Z</time>
      </trkpt>
      <trkpt lat="53.627609107643366" lon="10.138543965294957">
        <ele>20.989999999999998</ele>
        <time>2021-09-13T12:01:10Z</time>
      </trkpt>
      <trkpt lat="53.627603072673082" lon="10.138506917282939">
        <ele>21</ele>
        <time>2021-09-13T12:01:11Z</time>
      </trkpt>
      <trkpt lat="53.627595193684101" lon="10.138467689976096">
        <ele>21</ele>
        <time>2021-09-13T12:01:12Z</time>
      </trkpt>
      <trkpt lat="53.627586895599961" lon="10.138423852622509">
        <ele>21</ele>
        <time>2021-09-13T12:01:13Z</time>
      </trkpt>
      <trkpt lat="53.627579351887107" lon="10.138382110744715">
        <ele>21</ele>
        <time>2021-09-13T12:01:14Z</time>
      </trkpt>
      <trkpt lat="53.627569964155555" lon="10.138335255905986">
        <ele>21</ele>
        <time>2021-09-13T12:01:15Z</time>
      </trkpt>
      <trkpt lat="53.62744951620698" lon="10.137806441634893">
        <ele>20.780000000000001</ele>
        <time>2021-09-13T12:01:27Z</time>
      </trkpt>
      <trkpt lat="53.627289170399308" lon="10.137126920744777">
        <ele>20.5</ele>
        <time>2021-09-13T12:01:39Z</time>
      </trkpt>
      <trkpt lat="53.62709085457027" lon="10.136509509757161">
        <ele>20.32</ele>
        <time>2021-09-13T12:01:50Z</time>
      </trkpt>
      <trkpt lat="53.62688566558063" lon="10.135918334126472">
        <ele>20.16</ele>
        <time>2021-09-13T12:02:01Z</time>
      </trkpt>
      <trkpt lat="53.626519292593002" lon="10.13544132001698">
        <ele>19.73</ele>
        <time>2021-09-13T12:02:12Z</time>
      </trkpt>
      <trkpt lat="53.626326005905867" lon="10.135014178231359">
        <ele>19.379999999999999</ele>
        <time>2021-09-13T12:02:23Z</time>
      </trkpt>
      <trkpt lat="53.626227183267474" lon="10.134450411424041">
        <ele>19.02</ele>
        <time>2021-09-13T12:02:35Z</time>
      </trkpt>
      <trkpt lat="53.626126097515225" lon="10.134107591584325">
        <ele>18.93</ele>
        <time>2021-09-13T12:02:43Z</time>
      </trkpt>
      <trkpt lat="53.626100448891521" lon="10.134071633219719">
        <ele>18.870000000000001</ele>
        <time>2021-09-13T12:02:44Z</time>
      </trkpt>
      <trkpt lat="53.626072788611054" lon="10.13405411504209">
        <ele>18.82</ele>
        <time>2021-09-13T12:02:45Z</time>
      </trkpt>
      <trkpt lat="53.626048481091857" lon="10.134043889120221">
        <ele>18.789999999999999</ele>
        <time>2021-09-13T12:02:46Z</time>
      </trkpt>
      <trkpt lat="53.626026604324579" lon="10.134040787816048">
        <ele>18.760000000000002</ele>
        <time>2021-09-13T12:02:47Z</time>
      </trkpt>
      <trkpt lat="53.626001877710223" lon="10.13403014279902">
        <ele>18.739999999999998</ele>
        <time>2021-09-13T12:02:48Z</time>
      </trkpt>
      <trkpt lat="53.625977737829089" lon="10.134011199697852">
        <ele>18.73</ele>
        <time>2021-09-13T12:02:49Z</time>
      </trkpt>
      <trkpt lat="53.625954268500209" lon="10.13399351388216">
        <ele>18.719999999999999</ele>
        <time>2021-09-13T12:02:50Z</time>
      </trkpt>
      <trkpt lat="53.625690992921591" lon="10.133858565241098">
        <ele>18.690000000000001</ele>
        <time>2021-09-13T12:03:01Z</time>
      </trkpt>
      <trkpt lat="53.625413803383708" lon="10.13343938626349">
        <ele>18.760000000000002</ele>
        <time>2021-09-13T12:03:14Z</time>
      </trkpt>
      <trkpt lat="53.625401481986046" lon="10.133402338251472">
        <ele>18.800000000000001</ele>
        <time>2021-09-13T12:03:15Z</time>
      </trkpt>
      <trkpt lat="53.625298971310258" lon="10.132816946133971">
        <ele>18.68</ele>
        <time>2021-09-13T12:03:26Z</time>
      </trkpt>
      <trkpt lat="53.625243734568357" lon="10.132511341944337">
        <ele>18.530000000000001</ele>
        <time>2021-09-13T12:03:31Z</time>
      </trkpt>
      <trkpt lat="53.625231245532632" lon="10.132447723299265">
        <ele>18.530000000000001</ele>
        <time>2021-09-13T12:03:32Z</time>
      </trkpt>
      <trkpt lat="53.62521599046886" lon="10.132382176816463">
        <ele>18.52</ele>
        <time>2021-09-13T12:03:33Z</time>
      </trkpt>
      <trkpt lat="53.625207021832466" lon="10.132320150732994">
        <ele>18.52</ele>
        <time>2021-09-13T12:03:34Z</time>
      </trkpt>
      <trkpt lat="53.625197634100914" lon="10.132259298115969">
        <ele>18.52</ele>
        <time>2021-09-13T12:03:35Z</time>
      </trkpt>
      <trkpt lat="53.625185647979379" lon="10.13219928368926">
        <ele>18.5</ele>
        <time>2021-09-13T12:03:36Z</time>
      </trkpt>
      <trkpt lat="53.625172823667526" lon="10.132137928158045">
        <ele>18.469999999999999</ele>
        <time>2021-09-13T12:03:37Z</time>
      </trkpt>
      <trkpt lat="53.625161089003086" lon="10.132079757750034">
        <ele>18.440000000000001</ele>
        <time>2021-09-13T12:03:38Z</time>
      </trkpt>
      <trkpt lat="53.625148180872202" lon="10.132027370855212">
        <ele>18.399999999999999</ele>
        <time>2021-09-13T12:03:39Z</time>
      </trkpt>
      <trkpt lat="53.624944500625134" lon="10.131356818601489">
        <ele>17.77</ele>
        <time>2021-09-13T12:03:50Z</time>
      </trkpt>
      <trkpt lat="53.624754063785076" lon="10.130623485893011">
        <ele>17.18</ele>
        <time>2021-09-13T12:04:01Z</time>
      </trkpt>
      <trkpt lat="53.624511994421482" lon="10.130047732964158">
        <ele>16.539999999999999</ele>
        <time>2021-09-13T12:04:11Z</time>
      </trkpt>
      <trkpt lat="53.624214688315988" lon="10.129462424665689">
        <ele>16.460000000000001</ele>
        <time>2021-09-13T12:04:22Z</time>
      </trkpt>
      <trkpt lat="53.624027688056231" lon="10.128776952624321">
        <ele>16.25</ele>
        <time>2021-09-13T12:04:33Z</time>
      </trkpt>
      <trkpt lat="53.623843705281615" lon="10.127970026805997">
        <ele>15.43</ele>
        <time>2021-09-13T12:04:45Z</time>
      </trkpt>
      <trkpt lat="53.623773716390133" lon="10.127549674361944">
        <ele>15.109999999999999</ele>
        <time>2021-09-13T12:04:52Z</time>
      </trkpt>
      <trkpt lat="53.623759215697646" lon="10.12750256806612">
        <ele>15.050000000000001</ele>
        <time>2021-09-13T12:04:53Z</time>
      </trkpt>
      <trkpt lat="53.62361378967762" lon="10.126845259219408">
        <ele>14.02</ele>
        <time>2021-09-13T12:05:05Z</time>
      </trkpt>
      <trkpt lat="53.623298713937402" lon="10.12655952014029">
        <ele>13.67</ele>
        <time>2021-09-13T12:05:15Z</time>
      </trkpt>
      <trkpt lat="53.623182289302349" lon="10.126401018351316">
        <ele>13.640000000000001</ele>
        <time>2021-09-13T12:05:20Z</time>
      </trkpt>
      <trkpt lat="53.62315597012639" lon="10.126401102170348">
        <ele>13.619999999999999</ele>
        <time>2021-09-13T12:05:21Z</time>
      </trkpt>
      <trkpt lat="53.623013393953443" lon="10.126457931473851">
        <ele>13.67</ele>
        <time>2021-09-13T12:05:34Z</time>
      </trkpt>
      <trkpt lat="53.623025212436914" lon="10.126448962837458">
        <ele>13.67</ele>
        <time>2021-09-13T12:05:37Z</time>
      </trkpt>
      <trkpt lat="53.623058991506696" lon="10.126418201252818">
        <ele>13.66</ele>
        <time>2021-09-13T12:05:40Z</time>
      </trkpt>
      <trkpt lat="53.623071061447263" lon="10.126408813521266">
        <ele>13.65</ele>
        <time>2021-09-13T12:05:41Z</time>
      </trkpt>
      <trkpt lat="53.623085394501686" lon="10.126399090513587">
        <ele>13.640000000000001</ele>
        <time>2021-09-13T12:05:42Z</time>
      </trkpt>
      <trkpt lat="53.62334406003356" lon="10.126049146056175">
        <ele>13.75</ele>
        <time>2021-09-13T12:05:55Z</time>
      </trkpt>
      <trkpt lat="53.623485211282969" lon="10.125291254371405">
        <ele>13.4</ele>
        <time>2021-09-13T12:06:09Z</time>
      </trkpt>
      <trkpt lat="53.623437937349081" lon="10.124741988256574">
        <ele>13.76</ele>
        <time>2021-09-13T12:06:21Z</time>
      </trkpt>
      <trkpt lat="53.623168962076306" lon="10.124475611373782">
        <ele>13.66</ele>
        <time>2021-09-13T12:06:31Z</time>
      </trkpt>
      <trkpt lat="53.623049771413207" lon="10.124377040192485">
        <ele>13.59</ele>
        <time>2021-09-13T12:06:35Z</time>
      </trkpt>
      <trkpt lat="53.623021608218551" lon="10.124354911968112">
        <ele>13.640000000000001</ele>
        <time>2021-09-13T12:06:36Z</time>
      </trkpt>
      <trkpt lat="53.622602596879005" lon="10.123988790437579">
        <ele>13.81</ele>
        <time>2021-09-13T12:06:48Z</time>
      </trkpt>
      <trkpt lat="53.622277965769172" lon="10.123374732211232">
        <ele>13.93</ele>
        <time>2021-09-13T12:07:00Z</time>
      </trkpt>
      <trkpt lat="53.622188279405236" lon="10.12298078276217">
        <ele>13.859999999999999</ele>
        <time>2021-09-13T12:07:07Z</time>
      </trkpt>
      <trkpt lat="53.622166570276022" lon="10.122945830225945">
        <ele>13.84</ele>
        <time>2021-09-13T12:07:08Z</time>
      </trkpt>
      <trkpt lat="53.621877310797572" lon="10.122847845777869">
        <ele>13.380000000000001</ele>
        <time>2021-09-13T12:07:17Z</time>
      </trkpt>
      <trkpt lat="53.621831880882382" lon="10.122848600149155">
        <ele>13.34</ele>
        <time>2021-09-13T12:07:18Z</time>
      </trkpt>
      <trkpt lat="53.621788043528795" lon="10.122858071699739">
        <ele>13.32</ele>
        <time>2021-09-13T12:07:19Z</time>
      </trkpt>
      <trkpt lat="53.621362494304776" lon="10.122992685064673">
        <ele>13.16</ele>
        <time>2021-09-13T12:07:31Z</time>
      </trkpt>
      <trkpt lat="53.621053034439683" lon="10.123107600957155">
        <ele>13.26</ele>
        <time>2021-09-13T12:07:41Z</time>
      </trkpt>
      <trkpt lat="53.620584066957235" lon="10.12325688265264">
        <ele>13.050000000000001</ele>
        <time>2021-09-13T12:07:54Z</time>
      </trkpt>
      <trkpt lat="53.620210150256753" lon="10.123362494632602">
        <ele>12.859999999999999</ele>
        <time>2021-09-13T12:08:03Z</time>
      </trkpt>
      <trkpt lat="53.619688963517547" lon="10.123481601476669">
        <ele>12.82</ele>
        <time>2021-09-13T12:08:15Z</time>
      </trkpt>
      <trkpt lat="53.619110528379679" lon="10.123597271740437">
        <ele>12.34</ele>
        <time>2021-09-13T12:08:28Z</time>
      </trkpt>
      <trkpt lat="53.618415165692568" lon="10.123638510704041">
        <ele>12.18</ele>
        <time>2021-09-13T12:08:45Z</time>
      </trkpt>
      <trkpt lat="53.617974780499935" lon="10.123684192076325">
        <ele>12.029999999999999</ele>
        <time>2021-09-13T12:08:56Z</time>
      </trkpt>
      <trkpt lat="53.617462730035186" lon="10.123713109642267">
        <ele>12.220000000000001</ele>
        <time>2021-09-13T12:09:09Z</time>
      </trkpt>
      <trkpt lat="53.616954535245895" lon="10.123711014166474">
        <ele>12.880000000000001</ele>
        <time>2021-09-13T12:09:23Z</time>
      </trkpt>
      <trkpt lat="53.616397054865956" lon="10.123497024178505">
        <ele>12.880000000000001</ele>
        <time>2021-09-13T12:09:39Z</time>
      </trkpt>
      <trkpt lat="53.616306614130735" lon="10.123468777164817">
        <ele>12.699999999999999</ele>
        <time>2021-09-13T12:09:46Z</time>
      </trkpt>
      <trkpt lat="53.616231847554445" lon="10.12346064671874">
        <ele>13.109999999999999</ele>
        <time>2021-09-13T12:10:13Z</time>
      </trkpt>
      <trkpt lat="53.616208294406533" lon="10.123451258987188">
        <ele>13.1</ele>
        <time>2021-09-13T12:10:14Z</time>
      </trkpt>
      <trkpt lat="53.616183400154114" lon="10.1234420388937">
        <ele>13.1</ele>
        <time>2021-09-13T12:10:15Z</time>
      </trkpt>
      <trkpt lat="53.615574538707733" lon="10.123316645622253">
        <ele>13.220000000000001</ele>
        <time>2021-09-13T12:10:32Z</time>
      </trkpt>
      <trkpt lat="53.614831063896418" lon="10.123285381123424">
        <ele>13.199999999999999</ele>
        <time>2021-09-13T12:10:49Z</time>
      </trkpt>
      <trkpt lat="53.61413293518126" lon="10.123429214581847">
        <ele>12.859999999999999</ele>
        <time>2021-09-13T12:11:06Z</time>
      </trkpt>
      <trkpt lat="53.614102005958557" lon="10.123423514887691">
        <ele>12.85</ele>
        <time>2021-09-13T12:11:07Z</time>
      </trkpt>
      <trkpt lat="53.614078871905804" lon="10.123401638120413">
        <ele>12.83</ele>
        <time>2021-09-13T12:11:08Z</time>
      </trkpt>
      <trkpt lat="53.613751055672765" lon="10.122932083904743">
        <ele>12.970000000000001</ele>
        <time>2021-09-13T12:11:23Z</time>
      </trkpt>
      <trkpt lat="53.613403122872114" lon="10.122514246031642">
        <ele>13.15</ele>
        <time>2021-09-13T12:11:36Z</time>
      </trkpt>
      <trkpt lat="53.613073714077473" lon="10.122130019590259">
        <ele>13.529999999999999</ele>
        <time>2021-09-13T12:11:47Z</time>
      </trkpt>
      <trkpt lat="53.612715471535921" lon="10.12171620503068">
        <ele>13.67</ele>
        <time>2021-09-13T12:11:59Z</time>
      </trkpt>
      <trkpt lat="53.612433504313231" lon="10.121469274163246">
        <ele>13.68</ele>
        <time>2021-09-13T12:12:09Z</time>
      </trkpt>
      <trkpt lat="53.611904019489884" lon="10.121013047173619">
        <ele>13.779999999999999</ele>
        <time>2021-09-13T12:12:24Z</time>
      </trkpt>
      <trkpt lat="53.611547201871872" lon="10.120687326416373">
        <ele>13.630000000000001</ele>
        <time>2021-09-13T12:12:36Z</time>
      </trkpt>
      <trkpt lat="53.611189881339669" lon="10.120333861559629">
        <ele>14.49</ele>
        <time>2021-09-13T12:12:48Z</time>
      </trkpt>
      <trkpt lat="53.610786879435182" lon="10.119941588491201">
        <ele>14.619999999999999</ele>
        <time>2021-09-13T12:13:00Z</time>
      </trkpt>
      <trkpt lat="53.61038513481617" lon="10.119567085057497">
        <ele>14.24</ele>
        <time>2021-09-13T12:13:11Z</time>
      </trkpt>
      <trkpt lat="53.609871072694659" lon="10.119105828925967">
        <ele>13.970000000000001</ele>
        <time>2021-09-13T12:13:26Z</time>
      </trkpt>
      <trkpt lat="53.609616430476308" lon="10.119012957438827">
        <ele>13.640000000000001</ele>
        <time>2021-09-13T12:13:32Z</time>
      </trkpt>
      <trkpt lat="53.609259109944105" lon="10.118900053203106">
        <ele>13.470000000000001</ele>
        <time>2021-09-13T12:13:43Z</time>
      </trkpt>
      <trkpt lat="53.608851749449968" lon="10.118725122883916">
        <ele>13.890000000000001</ele>
        <time>2021-09-13T12:13:56Z</time>
      </trkpt>
      <trkpt lat="53.608379596844316" lon="10.118464948609471">
        <ele>14.380000000000001</ele>
        <time>2021-09-13T12:14:09Z</time>
      </trkpt>
      <trkpt lat="53.607988329604268" lon="10.118090864270926">
        <ele>14.98</ele>
        <time>2021-09-13T12:14:22Z</time>
      </trkpt>
      <trkpt lat="53.607511147856712" lon="10.117686688899994">
        <ele>15.23</ele>
        <time>2021-09-13T12:14:38Z</time>
      </trkpt>
      <trkpt lat="53.607402518391609" lon="10.11757998727262">
        <ele>14.98</ele>
        <time>2021-09-13T12:14:43Z</time>
      </trkpt>
      <trkpt lat="53.607389526441693" lon="10.117541430518031">
        <ele>14.85</ele>
        <time>2021-09-13T12:14:44Z</time>
      </trkpt>
      <trkpt lat="53.607381395995617" lon="10.117501113563776">
        <ele>14.66</ele>
        <time>2021-09-13T12:14:45Z</time>
      </trkpt>
      <trkpt lat="53.60737225972116" lon="10.117299193516374">
        <ele>14.49</ele>
        <time>2021-09-13T12:14:51Z</time>
      </trkpt>
      <trkpt lat="53.607552889734507" lon="10.117007419466972">
        <ele>15.09</ele>
        <time>2021-09-13T12:15:04Z</time>
      </trkpt>
      <trkpt lat="53.607552638277411" lon="10.117006078362465">
        <ele>15.050000000000001</ele>
        <time>2021-09-13T12:15:06Z</time>
      </trkpt>
      <trkpt lat="53.607555152848363" lon="10.116908513009548">
        <ele>15.050000000000001</ele>
        <time>2021-09-13T12:15:49Z</time>
      </trkpt>
      <trkpt lat="53.607564959675074" lon="10.116720842197537">
        <ele>15.199999999999999</ele>
        <time>2021-09-13T12:15:54Z</time>
      </trkpt>
      <trkpt lat="53.607552051544189" lon="10.116696367040277">
        <ele>15.25</ele>
        <time>2021-09-13T12:15:55Z</time>
      </trkpt>
      <trkpt lat="53.607534365728498" lon="10.116677507758141">
        <ele>15.289999999999999</ele>
        <time>2021-09-13T12:15:56Z</time>
      </trkpt>
      <trkpt lat="53.60745582729578" lon="10.11659980751574">
        <ele>14.94</ele>
        <time>2021-09-13T12:16:04Z</time>
      </trkpt>
      <trkpt lat="53.607402434572577" lon="10.116581870242953">
        <ele>15.140000000000001</ele>
        <time>2021-09-13T12:16:18Z</time>
      </trkpt>
      <trkpt lat="53.607303947210312" lon="10.116574494168162">
        <ele>15.01</ele>
        <time>2021-09-13T12:16:23Z</time>
      </trkpt>
      <trkpt lat="53.60729455947876" lon="10.116598550230265">
        <ele>15</ele>
        <time>2021-09-13T12:16:24Z</time>
      </trkpt>
      <trkpt lat="53.607290284708142" lon="10.116633921861649">
        <ele>15</ele>
        <time>2021-09-13T12:16:25Z</time>
      </trkpt>
      <trkpt lat="53.607286177575588" lon="10.116674741730094">
        <ele>15</ele>
        <time>2021-09-13T12:16:26Z</time>
      </trkpt>
      <trkpt lat="53.60728089697659" lon="10.116716986522079">
        <ele>14.99</ele>
        <time>2021-09-13T12:16:27Z</time>
      </trkpt>
      <trkpt lat="53.607164137065411" lon="10.11710942722857">
        <ele>14.550000000000001</ele>
        <time>2021-09-13T12:16:38Z</time>
      </trkpt>
      <trkpt lat="53.607098590582609" lon="10.117294164374471">
        <ele>14.140000000000001</ele>
        <time>2021-09-13T12:16:44Z</time>
      </trkpt>
      <trkpt lat="53.607095992192626" lon="10.117301708087325">
        <ele>13.98</ele>
        <time>2021-09-13T12:16:49Z</time>
      </trkpt>
      <trkpt lat="53.607050059363246" lon="10.11716466397047">
        <ele>13.91</ele>
        <time>2021-09-13T12:17:08Z</time>
      </trkpt>
      <trkpt lat="53.607027847319841" lon="10.117138093337417">
        <ele>14.09</ele>
        <time>2021-09-13T12:17:10Z</time>
      </trkpt>
      <trkpt lat="53.606751328334212" lon="10.116917565464973">
        <ele>15</ele>
        <time>2021-09-13T12:17:25Z</time>
      </trkpt>
      <trkpt lat="53.606531554833055" lon="10.116663677617908">
        <ele>15.210000000000001</ele>
        <time>2021-09-13T12:17:37Z</time>
      </trkpt>
      <trkpt lat="53.606523843482137" lon="10.116665018722415">
        <ele>15.51</ele>
        <time>2021-09-13T12:17:42Z</time>
      </trkpt>
      <trkpt lat="53.606542283669114" lon="10.116770546883345">
        <ele>15.59</ele>
        <time>2021-09-13T12:17:58Z</time>
      </trkpt>
      <trkpt lat="53.60677027143538" lon="10.117005994543433">
        <ele>14.91</ele>
        <time>2021-09-13T12:18:09Z</time>
      </trkpt>
      <trkpt lat="53.607052741572261" lon="10.117195844650269">
        <ele>14.73</ele>
        <time>2021-09-13T12:18:23Z</time>
      </trkpt>
      <trkpt lat="53.60710202716291" lon="10.117134656757116">
        <ele>14.19</ele>
        <time>2021-09-13T12:18:27Z</time>
      </trkpt>
      <trkpt lat="53.607110576704144" lon="10.117100710049272">
        <ele>14.15</ele>
        <time>2021-09-13T12:18:28Z</time>
      </trkpt>
      <trkpt lat="53.607286848127842" lon="10.116404257714748">
        <ele>15.050000000000001</ele>
        <time>2021-09-13T12:18:42Z</time>
      </trkpt>
      <trkpt lat="53.607353400439024" lon="10.115826576948166">
        <ele>15.74</ele>
        <time>2021-09-13T12:18:54Z</time>
      </trkpt>
      <trkpt lat="53.607252314686775" lon="10.115603785961866">
        <ele>16</ele>
        <time>2021-09-13T12:19:04Z</time>
      </trkpt>
      <trkpt lat="53.606940926983953" lon="10.115368505939841">
        <ele>16.579999999999998</ele>
        <time>2021-09-13T12:19:17Z</time>
      </trkpt>
      <trkpt lat="53.606456704437733" lon="10.11508896946907">
        <ele>16.949999999999999</ele>
        <time>2021-09-13T12:19:32Z</time>
      </trkpt>
      <trkpt lat="53.6060646828264" lon="10.114625282585621">
        <ele>17.280000000000001</ele>
        <time>2021-09-13T12:19:47Z</time>
      </trkpt>
      <trkpt lat="53.605936104431748" lon="10.1140340231359">
        <ele>17.289999999999999</ele>
        <time>2021-09-13T12:19:58Z</time>
      </trkpt>
      <trkpt lat="53.605895787477493" lon="10.113932266831398">
        <ele>17.27</ele>
        <time>2021-09-13T12:20:00Z</time>
      </trkpt>
      <trkpt lat="53.605861086398363" lon="10.113898990675807">
        <ele>17.25</ele>
        <time>2021-09-13T12:20:01Z</time>
      </trkpt>
      <trkpt lat="53.605823451653123" lon="10.113882645964622">
        <ele>17.239999999999998</ele>
        <time>2021-09-13T12:20:02Z</time>
      </trkpt>
      <trkpt lat="53.605336295440793" lon="10.113748200237751">
        <ele>17.239999999999998</ele>
        <time>2021-09-13T12:20:15Z</time>
      </trkpt>
      <trkpt lat="53.604789627715945" lon="10.113326506689191">
        <ele>17.280000000000001</ele>
        <time>2021-09-13T12:20:30Z</time>
      </trkpt>
      <trkpt lat="53.60433591529727" lon="10.112416902557015">
        <ele>16.25</ele>
        <time>2021-09-13T12:20:47Z</time>
      </trkpt>
      <trkpt lat="53.6040442250669" lon="10.111541412770748">
        <ele>15.76</ele>
        <time>2021-09-13T12:21:03Z</time>
      </trkpt>
      <trkpt lat="53.60390106216073" lon="10.11087303981185">
        <ele>14.66</ele>
        <time>2021-09-13T12:21:17Z</time>
      </trkpt>
      <trkpt lat="53.603897793218493" lon="10.109744500368834">
        <ele>12.68</ele>
        <time>2021-09-13T12:21:33Z</time>
      </trkpt>
      <trkpt lat="53.603893518447876" lon="10.109681552276015">
        <ele>12.56</ele>
        <time>2021-09-13T12:21:34Z</time>
      </trkpt>
      <trkpt lat="53.603881699964404" lon="10.10963587090373">
        <ele>12.460000000000001</ele>
        <time>2021-09-13T12:21:35Z</time>
      </trkpt>
      <trkpt lat="53.603862337768078" lon="10.109605612233281">
        <ele>12.359999999999999</ele>
        <time>2021-09-13T12:21:36Z</time>
      </trkpt>
      <trkpt lat="53.603835934773088" lon="10.109592536464334">
        <ele>12.26</ele>
        <time>2021-09-13T12:21:37Z</time>
      </trkpt>
      <trkpt lat="53.603804670274258" lon="10.109589686617255">
        <ele>12.119999999999999</ele>
        <time>2021-09-13T12:21:38Z</time>
      </trkpt>
      <trkpt lat="53.603772316128016" lon="10.109590357169509">
        <ele>11.99</ele>
        <time>2021-09-13T12:21:39Z</time>
      </trkpt>
      <trkpt lat="53.603736106306314" lon="10.109591949731112">
        <ele>11.9</ele>
        <time>2021-09-13T12:21:40Z</time>
      </trkpt>
      <trkpt lat="53.603212321177125" lon="10.109467143192887">
        <ele>11.359999999999999</ele>
        <time>2021-09-13T12:21:54Z</time>
      </trkpt>
      <trkpt lat="53.602883163839579" lon="10.10920193977654">
        <ele>11.119999999999999</ele>
        <time>2021-09-13T12:22:04Z</time>
      </trkpt>
      <trkpt lat="53.602107921615243" lon="10.108501967042685">
        <ele>10.82</ele>
        <time>2021-09-13T12:22:23Z</time>
      </trkpt>
      <trkpt lat="53.601168561726809" lon="10.107688587158918">
        <ele>10.42</ele>
        <time>2021-09-13T12:22:46Z</time>
      </trkpt>
      <trkpt lat="53.600770924240351" lon="10.107489181682467">
        <ele>10.130000000000001</ele>
        <time>2021-09-13T12:22:58Z</time>
      </trkpt>
      <trkpt lat="53.600437492132187" lon="10.107452133670449">
        <ele>9.869999999999999</ele>
        <time>2021-09-13T12:23:10Z</time>
      </trkpt>
      <trkpt lat="53.600423745810986" lon="10.107429837808013">
        <ele>9.83</ele>
        <time>2021-09-13T12:23:11Z</time>
      </trkpt>
      <trkpt lat="53.600420812144876" lon="10.107403015717864">
        <ele>9.77</ele>
        <time>2021-09-13T12:23:12Z</time>
      </trkpt>
      <trkpt lat="53.600424835458398" lon="10.107375187799335">
        <ele>9.73</ele>
        <time>2021-09-13T12:23:13Z</time>
      </trkpt>
      <trkpt lat="53.60043128952384" lon="10.107343923300505">
        <ele>9.69</ele>
        <time>2021-09-13T12:23:14Z</time>
      </trkpt>
      <trkpt lat="53.600500943139195" lon="10.106614278629422">
        <ele>9.33</ele>
        <time>2021-09-13T12:23:27Z</time>
      </trkpt>
      <trkpt lat="53.600543774664402" lon="10.105623537674546">
        <ele>8.66</ele>
        <time>2021-09-13T12:23:42Z</time>
      </trkpt>
      <trkpt lat="53.600442437455058" lon="10.105179212987423">
        <ele>8.51</ele>
        <time>2021-09-13T12:23:51Z</time>
      </trkpt>
      <trkpt lat="53.6003452911973" lon="10.104496590793133">
        <ele>8.25</ele>
        <time>2021-09-13T12:24:03Z</time>
      </trkpt>
      <trkpt lat="53.60016843304038" lon="10.104204816743731">
        <ele>8.869999999999999</ele>
        <time>2021-09-13T12:24:12Z</time>
      </trkpt>
      <trkpt lat="53.599938433617353" lon="10.104008931666613">
        <ele>9.130000000000001</ele>
        <time>2021-09-13T12:24:21Z</time>
      </trkpt>
      <trkpt lat="53.59955906867981" lon="10.104073220863938">
        <ele>9.34</ele>
        <time>2021-09-13T12:24:31Z</time>
      </trkpt>
      <trkpt lat="53.599214656278491" lon="10.104010440409184">
        <ele>9.44</ele>
        <time>2021-09-13T12:24:42Z</time>
      </trkpt>
      <trkpt lat="53.599134525284171" lon="10.103916143998504">
        <ele>9.4</ele>
        <time>2021-09-13T12:24:46Z</time>
      </trkpt>
      <trkpt lat="53.598923971876502" lon="10.103326141834259">
        <ele>8.91</ele>
        <time>2021-09-13T12:24:59Z</time>
      </trkpt>
      <trkpt lat="53.598723476752639" lon="10.10261963121593">
        <ele>8.51</ele>
        <time>2021-09-13T12:25:13Z</time>
      </trkpt>
      <trkpt lat="53.598535135388374" lon="10.101990653201938">
        <ele>8.25</ele>
        <time>2021-09-13T12:25:25Z</time>
      </trkpt>
      <trkpt lat="53.598514515906572" lon="10.101942038163543">
        <ele>8.24</ele>
        <time>2021-09-13T12:25:26Z</time>
      </trkpt>
      <trkpt lat="53.598494650796056" lon="10.101897194981575">
        <ele>8.23</ele>
        <time>2021-09-13T12:25:27Z</time>
      </trkpt>
      <trkpt lat="53.598479563370347" lon="10.101853022351861">
        <ele>8.210000000000001</ele>
        <time>2021-09-13T12:25:28Z</time>
      </trkpt>
      <trkpt lat="53.598465230315924" lon="10.101807257160544">
        <ele>8.199999999999999</ele>
        <time>2021-09-13T12:25:29Z</time>
      </trkpt>
      <trkpt lat="53.598378393799067" lon="10.101587316021323">
        <ele>8.08</ele>
        <time>2021-09-13T12:25:35Z</time>
      </trkpt>
      <trkpt lat="53.598383674398065" lon="10.10155295021832">
        <ele>8.02</ele>
        <time>2021-09-13T12:25:36Z</time>
      </trkpt>
      <trkpt lat="53.598388032987714" lon="10.101516069844365">
        <ele>7.93</ele>
        <time>2021-09-13T12:25:37Z</time>
      </trkpt>
      <trkpt lat="53.598340759053826" lon="10.101001504808664">
        <ele>7.46</ele>
        <time>2021-09-13T12:25:49Z</time>
      </trkpt>
      <trkpt lat="53.598169516772032" lon="10.100262220948935">
        <ele>6.89</ele>
        <time>2021-09-13T12:26:01Z</time>
      </trkpt>
      <trkpt lat="53.59803163446486" lon="10.099553447216749">
        <ele>6.78</ele>
        <time>2021-09-13T12:26:13Z</time>
      </trkpt>
      <trkpt lat="53.597902888432145" lon="10.098924972116947">
        <ele>6.46</ele>
        <time>2021-09-13T12:26:23Z</time>
      </trkpt>
      <trkpt lat="53.597903726622462" lon="10.098807793110609">
        <ele>6.31</ele>
        <time>2021-09-13T12:26:25Z</time>
      </trkpt>
      <trkpt lat="53.597890567034483" lon="10.098756579682231">
        <ele>6.24</ele>
        <time>2021-09-13T12:26:26Z</time>
      </trkpt>
      <trkpt lat="53.597868103533983" lon="10.098717855289578">
        <ele>6.19</ele>
        <time>2021-09-13T12:26:27Z</time>
      </trkpt>
      <trkpt lat="53.597842371091247" lon="10.098677789792418">
        <ele>6.13</ele>
        <time>2021-09-13T12:26:28Z</time>
      </trkpt>
      <trkpt lat="53.597820578143001" lon="10.098635293543339">
        <ele>6.05</ele>
        <time>2021-09-13T12:26:29Z</time>
      </trkpt>
      <trkpt lat="53.597804820165038" lon="10.0985923781991">
        <ele>5.99</ele>
        <time>2021-09-13T12:26:30Z</time>
      </trkpt>
      <trkpt lat="53.597789984196424" lon="10.09854200296104">
        <ele>5.91</ele>
        <time>2021-09-13T12:26:31Z</time>
      </trkpt>
      <trkpt lat="53.597779339179397" lon="10.098488442599773">
        <ele>5.84</ele>
        <time>2021-09-13T12:26:32Z</time>
      </trkpt>
      <trkpt lat="53.597766431048512" lon="10.098434379324317">
        <ele>5.77</ele>
        <time>2021-09-13T12:26:33Z</time>
      </trkpt>
      <trkpt lat="53.597759641706944" lon="10.098380567505956">
        <ele>5.71</ele>
        <time>2021-09-13T12:26:34Z</time>
      </trkpt>
      <trkpt lat="53.597700214013457" lon="10.097867092117667">
        <ele>5.55</ele>
        <time>2021-09-13T12:26:44Z</time>
      </trkpt>
      <trkpt lat="53.597694765776396" lon="10.097821662202477">
        <ele>5.55</ele>
        <time>2021-09-13T12:26:45Z</time>
      </trkpt>
      <trkpt lat="53.597690491005778" lon="10.097769442945719">
        <ele>5.53</ele>
        <time>2021-09-13T12:26:46Z</time>
      </trkpt>
      <trkpt lat="53.597691999748349" lon="10.097708757966757">
        <ele>5.52</ele>
        <time>2021-09-13T12:26:47Z</time>
      </trkpt>
      <trkpt lat="53.597694430500269" lon="10.097650000825524">
        <ele>5.52</ele>
        <time>2021-09-13T12:26:48Z</time>
      </trkpt>
      <trkpt lat="53.597699459642172" lon="10.097584286704659">
        <ele>5.52</ele>
        <time>2021-09-13T12:26:49Z</time>
      </trkpt>
      <trkpt lat="53.597708260640502" lon="10.097511112689972">
        <ele>5.53</ele>
        <time>2021-09-13T12:26:50Z</time>
      </trkpt>
      <trkpt lat="53.597710775211453" lon="10.097440453246236">
        <ele>5.54</ele>
        <time>2021-09-13T12:26:51Z</time>
      </trkpt>
      <trkpt lat="53.597709601745009" lon="10.097372140735388">
        <ele>5.56</ele>
        <time>2021-09-13T12:26:52Z</time>
      </trkpt>
      <trkpt lat="53.597613042220473" lon="10.096637215465307">
        <ele>5.6</ele>
        <time>2021-09-13T12:27:02Z</time>
      </trkpt>
      <trkpt lat="53.597514806315303" lon="10.096204960718751">
        <ele>5.59</ele>
        <time>2021-09-13T12:27:08Z</time>
      </trkpt>
      <trkpt lat="53.597499718889594" lon="10.096135307103395">
        <ele>5.61</ele>
        <time>2021-09-13T12:27:09Z</time>
      </trkpt>
      <trkpt lat="53.597442554309964" lon="10.095830038189888">
        <ele>5.69</ele>
        <time>2021-09-13T12:27:13Z</time>
      </trkpt>
      <trkpt lat="53.597258236259222" lon="10.09504146873951">
        <ele>5.68</ele>
        <time>2021-09-13T12:27:25Z</time>
      </trkpt>
      <trkpt lat="53.597107194364071" lon="10.094297239556909">
        <ele>5.53</ele>
        <time>2021-09-13T12:27:37Z</time>
      </trkpt>
      <trkpt lat="53.596851546317339" lon="10.093888957053423">
        <ele>5.38</ele>
        <time>2021-09-13T12:27:46Z</time>
      </trkpt>
      <trkpt lat="53.596764458343387" lon="10.093071386218071">
        <ele>5.1</ele>
        <time>2021-09-13T12:27:58Z</time>
      </trkpt>
      <trkpt lat="53.596770409494638" lon="10.092216599732637">
        <ele>5.03</ele>
        <time>2021-09-13T12:28:11Z</time>
      </trkpt>
      <trkpt lat="53.596758507192135" lon="10.092115011066198">
        <ele>5</ele>
        <time>2021-09-13T12:28:17Z</time>
      </trkpt>
      <trkpt lat="53.596728332340717" lon="10.091836731880903">
        <ele>4.77</ele>
        <time>2021-09-13T12:28:44Z</time>
      </trkpt>
      <trkpt lat="53.596724225208163" lon="10.091803371906281">
        <ele>4.77</ele>
        <time>2021-09-13T12:28:45Z</time>
      </trkpt>
      <trkpt lat="53.596719782799482" lon="10.091772861778736">
        <ele>4.77</ele>
        <time>2021-09-13T12:28:46Z</time>
      </trkpt>
      <trkpt lat="53.596715591847897" lon="10.091742854565382">
        <ele>4.77</ele>
        <time>2021-09-13T12:28:47Z</time>
      </trkpt>
      <trkpt lat="53.596703773364425" lon="10.091711841523647">
        <ele>4.87</ele>
        <time>2021-09-13T12:28:48Z</time>
      </trkpt>
      <trkpt lat="53.596691535785794" lon="10.091684265062213">
        <ele>4.98</ele>
        <time>2021-09-13T12:28:49Z</time>
      </trkpt>
      <trkpt lat="53.596678292378783" lon="10.091649647802114">
        <ele>5.06</ele>
        <time>2021-09-13T12:28:50Z</time>
      </trkpt>
      <trkpt lat="53.596649877727032" lon="10.091496091336012">
        <ele>5.18</ele>
        <time>2021-09-13T12:28:54Z</time>
      </trkpt>
      <trkpt lat="53.596646692603827" lon="10.09145837277174">
        <ele>5.2</ele>
        <time>2021-09-13T12:28:55Z</time>
      </trkpt>
      <trkpt lat="53.596612578257918" lon="10.091228624805808">
        <ele>5.33</ele>
        <time>2021-09-13T12:29:00Z</time>
      </trkpt>
      <trkpt lat="53.596621714532375" lon="10.091176824644208">
        <ele>5.3</ele>
        <time>2021-09-13T12:29:01Z</time>
      </trkpt>
      <trkpt lat="53.596640909090638" lon="10.091144219040871">
        <ele>5.26</ele>
        <time>2021-09-13T12:29:02Z</time>
      </trkpt>
      <trkpt lat="53.596666725352407" lon="10.091124605387449">
        <ele>5.21</ele>
        <time>2021-09-13T12:29:03Z</time>
      </trkpt>
      <trkpt lat="53.596694972366095" lon="10.091117396950722">
        <ele>5.18</ele>
        <time>2021-09-13T12:29:04Z</time>
      </trkpt>
      <trkpt lat="53.596723135560751" lon="10.091117145493627">
        <ele>5.15</ele>
        <time>2021-09-13T12:29:05Z</time>
      </trkpt>
      <trkpt lat="53.596749873831868" lon="10.091121839359403">
        <ele>5.13</ele>
        <time>2021-09-13T12:29:06Z</time>
      </trkpt>
      <trkpt lat="53.596776947379112" lon="10.091126365587115">
        <ele>5.12</ele>
        <time>2021-09-13T12:29:07Z</time>
      </trkpt>
      <trkpt lat="53.596805948764086" lon="10.091127036139369">
        <ele>5.12</ele>
        <time>2021-09-13T12:29:08Z</time>
      </trkpt>
      <trkpt lat="53.597155138850212" lon="10.090955039486289">
        <ele>4.88</ele>
        <time>2021-09-13T12:29:19Z</time>
      </trkpt>
      <trkpt lat="53.597539030015469" lon="10.090409377589822">
        <ele>4.5</ele>
        <time>2021-09-13T12:29:32Z</time>
      </trkpt>
      <trkpt lat="53.59761823900044" lon="10.090072508901358">
        <ele>4.49</ele>
        <time>2021-09-13T12:29:37Z</time>
      </trkpt>
      <trkpt lat="53.597622932866216" lon="10.089999502524734">
        <ele>4.49</ele>
        <time>2021-09-13T12:29:38Z</time>
      </trkpt>
      <trkpt lat="53.59766224399209" lon="10.088738948106766">
        <ele>4.13</ele>
        <time>2021-09-13T12:29:57Z</time>
      </trkpt>
      <trkpt lat="53.59758697450161" lon="10.087838061153889">
        <ele>3.97</ele>
        <time>2021-09-13T12:30:11Z</time>
      </trkpt>
      <trkpt lat="53.597669620066881" lon="10.086828460916877">
        <ele>3.98</ele>
        <time>2021-09-13T12:30:26Z</time>
      </trkpt>
      <trkpt lat="53.597831474617124" lon="10.085983984172344">
        <ele>4.46</ele>
        <time>2021-09-13T12:30:40Z</time>
      </trkpt>
      <trkpt lat="53.598006404936314" lon="10.085067339241505">
        <ele>4.3</ele>
        <time>2021-09-13T12:30:54Z</time>
      </trkpt>
      <trkpt lat="53.598093409091234" lon="10.084317661821842">
        <ele>4.25</ele>
        <time>2021-09-13T12:31:06Z</time>
      </trkpt>
      <trkpt lat="53.598138839006424" lon="10.083619030192494">
        <ele>4.44</ele>
        <time>2021-09-13T12:31:19Z</time>
      </trkpt>
      <trkpt lat="53.598100114613771" lon="10.083032716065645">
        <ele>4.46</ele>
        <time>2021-09-13T12:31:29Z</time>
      </trkpt>
      <trkpt lat="53.59815870411694" lon="10.082506248727441">
        <ele>3.86</ele>
        <time>2021-09-13T12:31:37Z</time>
      </trkpt>
      <trkpt lat="53.598166415467858" lon="10.082219503819942">
        <ele>3.56</ele>
        <time>2021-09-13T12:31:40Z</time>
      </trkpt>
      <trkpt lat="53.598170354962349" lon="10.0821284763515">
        <ele>3.5</ele>
        <time>2021-09-13T12:31:41Z</time>
      </trkpt>
      <trkpt lat="53.598167337477207" lon="10.08203954435885">
        <ele>3.45</ele>
        <time>2021-09-13T12:31:42Z</time>
      </trkpt>
      <trkpt lat="53.598186364397407" lon="10.081135975196958">
        <ele>3.29</ele>
        <time>2021-09-13T12:31:54Z</time>
      </trkpt>
      <trkpt lat="53.59810397028923" lon="10.080221509560943">
        <ele>3.32</ele>
        <time>2021-09-13T12:32:07Z</time>
      </trkpt>
      <trkpt lat="53.598063485696912" lon="10.079422043636441">
        <ele>3.45</ele>
        <time>2021-09-13T12:32:20Z</time>
      </trkpt>
      <trkpt lat="53.59796860255301" lon="10.078710839152336">
        <ele>3.33</ele>
        <time>2021-09-13T12:32:31Z</time>
      </trkpt>
      <trkpt lat="53.597822841256857" lon="10.077667292207479">
        <ele>3.16</ele>
        <time>2021-09-13T12:32:47Z</time>
      </trkpt>
      <trkpt lat="53.597555458545685" lon="10.076979221776128">
        <ele>2.93</ele>
        <time>2021-09-13T12:32:59Z</time>
      </trkpt>
      <trkpt lat="53.59722931869328" lon="10.076327780261636">
        <ele>2.86</ele>
        <time>2021-09-13T12:33:11Z</time>
      </trkpt>
      <trkpt lat="53.59706855379045" lon="10.076011531054974">
        <ele>2.92</ele>
        <time>2021-09-13T12:33:17Z</time>
      </trkpt>
      <trkpt lat="53.597019519656897" lon="10.075897956266999">
        <ele>2.88</ele>
        <time>2021-09-13T12:33:19Z</time>
      </trkpt>
      <trkpt lat="53.596608554944396" lon="10.074928672984242">
        <ele>3.07</ele>
        <time>2021-09-13T12:33:36Z</time>
      </trkpt>
      <trkpt lat="53.596162218600512" lon="10.073918905109167">
        <ele>2.96</ele>
        <time>2021-09-13T12:33:55Z</time>
      </trkpt>
      <trkpt lat="53.595943450927734" lon="10.073206527158618">
        <ele>3.28</ele>
        <time>2021-09-13T12:34:08Z</time>
      </trkpt>
      <trkpt lat="53.595895506441593" lon="10.073017347604036">
        <ele>4.54</ele>
        <time>2021-09-13T12:34:19Z</time>
      </trkpt>
      <trkpt lat="53.595805987715721" lon="10.072893211618066">
        <ele>4.54</ele>
        <time>2021-09-13T12:34:40Z</time>
      </trkpt>
      <trkpt lat="53.595791906118393" lon="10.07287829183042">
        <ele>4.54</ele>
        <time>2021-09-13T12:34:41Z</time>
      </trkpt>
      <trkpt lat="53.595773968845606" lon="10.072870664298534">
        <ele>4.54</ele>
        <time>2021-09-13T12:34:42Z</time>
      </trkpt>
      <trkpt lat="53.595755025744438" lon="10.072871167212725">
        <ele>4.54</ele>
        <time>2021-09-13T12:34:43Z</time>
      </trkpt>
      <trkpt lat="53.595731807872653" lon="10.072880387306213">
        <ele>4.56</ele>
        <time>2021-09-13T12:34:44Z</time>
      </trkpt>
      <trkpt lat="53.59570624306798" lon="10.0728948879987">
        <ele>4.62</ele>
        <time>2021-09-13T12:34:45Z</time>
      </trkpt>
      <trkpt lat="53.595559978857636" lon="10.072983149439096">
        <ele>4.78</ele>
        <time>2021-09-13T12:34:52Z</time>
      </trkpt>
      <trkpt lat="53.595548830926418" lon="10.07297158241272">
        <ele>4.78</ele>
        <time>2021-09-13T12:34:53Z</time>
      </trkpt>
      <trkpt lat="53.595542963594198" lon="10.072952890768647">
        <ele>4.78</ele>
        <time>2021-09-13T12:34:54Z</time>
      </trkpt>
      <trkpt lat="53.595544723793864" lon="10.072930175811052">
        <ele>4.78</ele>
        <time>2021-09-13T12:34:55Z</time>
      </trkpt>
      <trkpt lat="53.595551764592528" lon="10.072912322357297">
        <ele>4.79</ele>
        <time>2021-09-13T12:34:56Z</time>
      </trkpt>
      <trkpt lat="53.59559191390872" lon="10.072864545509219">
        <ele>4.8</ele>
        <time>2021-09-13T12:34:59Z</time>
      </trkpt>
      <trkpt lat="53.595599792897701" lon="10.072833532467484">
        <ele>4.78</ele>
        <time>2021-09-13T12:35:00Z</time>
      </trkpt>
      <trkpt lat="53.595602475106716" lon="10.072801848873496">
        <ele>4.7</ele>
        <time>2021-09-13T12:35:01Z</time>
      </trkpt>
      <trkpt lat="53.595603313297033" lon="10.072760945186019">
        <ele>4.56</ele>
        <time>2021-09-13T12:35:02Z</time>
      </trkpt>
      <trkpt lat="53.595599206164479" lon="10.072710989043117">
        <ele>4.37</ele>
        <time>2021-09-13T12:35:03Z</time>
      </trkpt>
      <trkpt lat="53.595586214214563" lon="10.07265935651958">
        <ele>4.22</ele>
        <time>2021-09-13T12:35:04Z</time>
      </trkpt>
      <trkpt lat="53.595568193122745" lon="10.072610909119248">
        <ele>4.13</ele>
        <time>2021-09-13T12:35:05Z</time>
      </trkpt>
      <trkpt lat="53.595364596694708" lon="10.072198435664177">
        <ele>3.39</ele>
        <time>2021-09-13T12:35:16Z</time>
      </trkpt>
      <trkpt lat="53.594962432980537" lon="10.071548838168383">
        <ele>3.25</ele>
        <time>2021-09-13T12:35:31Z</time>
      </trkpt>
      <trkpt lat="53.594791358336806" lon="10.071329986676574">
        <ele>3.12</ele>
        <time>2021-09-13T12:35:42Z</time>
      </trkpt>
      <trkpt lat="53.594768811017275" lon="10.071293357759714">
        <ele>2.92</ele>
        <time>2021-09-13T12:36:13Z</time>
      </trkpt>
      <trkpt lat="53.594756992533803" lon="10.07127801887691">
        <ele>2.9</ele>
        <time>2021-09-13T12:36:14Z</time>
      </trkpt>
      <trkpt lat="53.594465721398592" lon="10.070918016135693">
        <ele>2.88</ele>
        <time>2021-09-13T12:36:28Z</time>
      </trkpt>
      <trkpt lat="53.594113765284419" lon="10.070488359779119">
        <ele>2.57</ele>
        <time>2021-09-13T12:36:43Z</time>
      </trkpt>
      <trkpt lat="53.594099516049027" lon="10.070467991754413">
        <ele>2.51</ele>
        <time>2021-09-13T12:36:48Z</time>
      </trkpt>
      <trkpt lat="53.5940629709512" lon="10.070419544354081">
        <ele>2.46</ele>
        <time>2021-09-13T12:36:59Z</time>
      </trkpt>
      <trkpt lat="53.594047129154205" lon="10.070404624566436">
        <ele>2.44</ele>
        <time>2021-09-13T12:37:00Z</time>
      </trkpt>
      <trkpt lat="53.594031538814306" lon="10.070385597646236">
        <ele>2.41</ele>
        <time>2021-09-13T12:37:01Z</time>
      </trkpt>
      <trkpt lat="53.594014523550868" lon="10.07036380469799">
        <ele>2.39</ele>
        <time>2021-09-13T12:37:02Z</time>
      </trkpt>
      <trkpt lat="53.593637589365244" lon="10.070231622084975">
        <ele>2.24</ele>
        <time>2021-09-13T12:37:15Z</time>
      </trkpt>
      <trkpt lat="53.593087065964937" lon="10.070297168567777">
        <ele>2.23</ele>
        <time>2021-09-13T12:37:31Z</time>
      </trkpt>
      <trkpt lat="53.592514162883162" lon="10.070699919015169">
        <ele>2.34</ele>
        <time>2021-09-13T12:37:50Z</time>
      </trkpt>
      <trkpt lat="53.592478707432747" lon="10.070750713348389">
        <ele>2.38</ele>
        <time>2021-09-13T12:37:52Z</time>
      </trkpt>
      <trkpt lat="53.592471918091178" lon="10.070795807987452">
        <ele>2.41</ele>
        <time>2021-09-13T12:37:53Z</time>
      </trkpt>
      <trkpt lat="53.592471582815051" lon="10.070845680311322">
        <ele>2.43</ele>
        <time>2021-09-13T12:37:54Z</time>
      </trkpt>
      <trkpt lat="53.59247493557632" lon="10.071145668625832">
        <ele>2.49</ele>
        <time>2021-09-13T12:38:00Z</time>
      </trkpt>
      <trkpt lat="53.592457249760628" lon="10.071173999458551">
        <ele>2.5</ele>
        <time>2021-09-13T12:38:01Z</time>
      </trkpt>
      <trkpt lat="53.592437552288175" lon="10.071185985580087">
        <ele>2.51</ele>
        <time>2021-09-13T12:38:02Z</time>
      </trkpt>
      <trkpt lat="53.592423889786005" lon="10.071187913417816">
        <ele>2.53</ele>
        <time>2021-09-13T12:38:03Z</time>
      </trkpt>
      <trkpt lat="53.592413496226072" lon="10.07118271663785">
        <ele>2.57</ele>
        <time>2021-09-13T12:38:04Z</time>
      </trkpt>
      <trkpt lat="53.592391954734921" lon="10.071183806285262">
        <ele>2.82</ele>
        <time>2021-09-13T12:38:07Z</time>
      </trkpt>
      <trkpt lat="53.592104790732265" lon="10.071318671107292">
        <ele>2.98</ele>
        <time>2021-09-13T12:38:20Z</time>
      </trkpt>
      <trkpt lat="53.591835396364331" lon="10.071472562849522">
        <ele>2.96</ele>
        <time>2021-09-13T12:38:31Z</time>
      </trkpt>
      <trkpt lat="53.591809747740626" lon="10.071543306112289">
        <ele>2.96</ele>
        <time>2021-09-13T12:38:32Z</time>
      </trkpt>
      <trkpt lat="53.591702543199062" lon="10.071466276422143">
        <ele>2.96</ele>
        <time>2021-09-13T12:38:33Z</time>
      </trkpt>
      <trkpt lat="53.59167505055666" lon="10.071485890075564">
        <ele>2.96</ele>
        <time>2021-09-13T12:38:34Z</time>
      </trkpt>
      <trkpt lat="53.591648396104574" lon="10.071505419909954">
        <ele>2.97</ele>
        <time>2021-09-13T12:38:35Z</time>
      </trkpt>
      <trkpt lat="53.591613611206412" lon="10.071500223129988">
        <ele>2.98</ele>
        <time>2021-09-13T12:38:36Z</time>
      </trkpt>
      <trkpt lat="53.591579832136631" lon="10.07148421369493">
        <ele>3</ele>
        <time>2021-09-13T12:38:37Z</time>
      </trkpt>
      <trkpt lat="53.591555189341307" lon="10.07146175019443">
        <ele>3.02</ele>
        <time>2021-09-13T12:38:38Z</time>
      </trkpt>
      <trkpt lat="53.591546220704913" lon="10.071426965296268">
        <ele>3.03</ele>
        <time>2021-09-13T12:38:39Z</time>
      </trkpt>
      <trkpt lat="53.591543538495898" lon="10.071387151256204">
        <ele>3.04</ele>
        <time>2021-09-13T12:38:40Z</time>
      </trkpt>
      <trkpt lat="53.591545550152659" lon="10.071357311680913">
        <ele>3.05</ele>
        <time>2021-09-13T12:38:41Z</time>
      </trkpt>
      <trkpt lat="53.591538928449154" lon="10.071325963363051">
        <ele>3.05</ele>
        <time>2021-09-13T12:38:42Z</time>
      </trkpt>
      <trkpt lat="53.591532642021775" lon="10.071278270334005">
        <ele>3.05</ele>
        <time>2021-09-13T12:38:43Z</time>
      </trkpt>
      <trkpt lat="53.591530714184046" lon="10.071222614496946">
        <ele>3.05</ele>
        <time>2021-09-13T12:38:44Z</time>
      </trkpt>
      <trkpt lat="53.591522248461843" lon="10.071172909811139">
        <ele>3.05</ele>
        <time>2021-09-13T12:38:45Z</time>
      </trkpt>
      <trkpt lat="53.591465838253498" lon="10.070534963160753">
        <ele>2.7</ele>
        <time>2021-09-13T12:38:56Z</time>
      </trkpt>
      <trkpt lat="53.591230558231473" lon="10.069906990975142">
        <ele>2.42</ele>
        <time>2021-09-13T12:39:09Z</time>
      </trkpt>
      <trkpt lat="53.590990165248513" lon="10.069185309112072">
        <ele>1.66</ele>
        <time>2021-09-13T12:39:23Z</time>
      </trkpt>
      <trkpt lat="53.590940041467547" lon="10.069033931940794">
        <ele>1.31</ele>
        <time>2021-09-13T12:39:27Z</time>
      </trkpt>
      <trkpt lat="53.59093526378274" lon="10.06900149397552">
        <ele>1.26</ele>
        <time>2021-09-13T12:39:28Z</time>
      </trkpt>
      <trkpt lat="53.590954123064876" lon="10.068909041583538">
        <ele>1.24</ele>
        <time>2021-09-13T12:39:32Z</time>
      </trkpt>
      <trkpt lat="53.590956553816795" lon="10.068851374089718">
        <ele>1.3</ele>
        <time>2021-09-13T12:39:34Z</time>
      </trkpt>
      <trkpt lat="53.59095236286521" lon="10.068815248087049">
        <ele>1.31</ele>
        <time>2021-09-13T12:39:35Z</time>
      </trkpt>
      <trkpt lat="53.590942723676562" lon="10.068780966103077">
        <ele>1.33</ele>
        <time>2021-09-13T12:39:36Z</time>
      </trkpt>
      <trkpt lat="53.590925289317966" lon="10.068744588643312">
        <ele>1.35</ele>
        <time>2021-09-13T12:39:37Z</time>
      </trkpt>
      <trkpt lat="53.590907184407115" lon="10.068702595308423">
        <ele>1.36</ele>
        <time>2021-09-13T12:39:38Z</time>
      </trkpt>
      <trkpt lat="53.590895617380738" lon="10.068651884794235">
        <ele>1.36</ele>
        <time>2021-09-13T12:39:39Z</time>
      </trkpt>
      <trkpt lat="53.590707443654537" lon="10.068015195429325">
        <ele>1.25</ele>
        <time>2021-09-13T12:39:51Z</time>
      </trkpt>
      <trkpt lat="53.590629827231169" lon="10.067756613716483">
        <ele>1.21</ele>
        <time>2021-09-13T12:39:56Z</time>
      </trkpt>
      <trkpt lat="53.590618344023824" lon="10.067701796069741">
        <ele>1.2</ele>
        <time>2021-09-13T12:39:57Z</time>
      </trkpt>
      <trkpt lat="53.590600993484259" lon="10.06764555349946">
        <ele>1.19</ele>
        <time>2021-09-13T12:39:58Z</time>
      </trkpt>
      <trkpt lat="53.590580122545362" lon="10.067584784701467">
        <ele>1.18</ele>
        <time>2021-09-13T12:39:59Z</time>
      </trkpt>
      <trkpt lat="53.590556653216481" lon="10.067526027560234">
        <ele>1.17</ele>
        <time>2021-09-13T12:40:00Z</time>
      </trkpt>
      <trkpt lat="53.59053511172533" lon="10.067454027011991">
        <ele>1.16</ele>
        <time>2021-09-13T12:40:01Z</time>
      </trkpt>
      <trkpt lat="53.590320451185107" lon="10.066893864423037">
        <ele>0.75</ele>
        <time>2021-09-13T12:40:12Z</time>
      </trkpt>
      <trkpt lat="53.590265214443207" lon="10.066781211644411">
        <ele>0.67</ele>
        <time>2021-09-13T12:40:15Z</time>
      </trkpt>
      <trkpt lat="53.590236632153392" lon="10.066776433959603">
        <ele>0.64</ele>
        <time>2021-09-13T12:40:16Z</time>
      </trkpt>
      <trkpt lat="53.590206876397133" lon="10.066780289635062">
        <ele>0.61</ele>
        <time>2021-09-13T12:40:17Z</time>
      </trkpt>
      <trkpt lat="53.58998442068696" lon="10.066629247739911">
        <ele>0.58</ele>
        <time>2021-09-13T12:40:26Z</time>
      </trkpt>
      <trkpt lat="53.589701531454921" lon="10.066042179241776">
        <ele>0.52</ele>
        <time>2021-09-13T12:40:38Z</time>
      </trkpt>
      <trkpt lat="53.589397603645921" lon="10.065537923946977">
        <ele>0.58</ele>
        <time>2021-09-13T12:40:48Z</time>
      </trkpt>
      <trkpt lat="53.588964678347111" lon="10.064876675605774">
        <ele>0.73</ele>
        <time>2021-09-13T12:41:00Z</time>
      </trkpt>
      <trkpt lat="53.588238637894392" lon="10.063806977123022">
        <ele>0.43</ele>
        <time>2021-09-13T12:41:21Z</time>
      </trkpt>
      <trkpt lat="53.58795465901494" lon="10.063325772061944">
        <ele>0.7</ele>
        <time>2021-09-13T12:41:33Z</time>
      </trkpt>
      <trkpt lat="53.587951641529799" lon="10.063258297741413">
        <ele>0.75</ele>
        <time>2021-09-13T12:41:35Z</time>
      </trkpt>
      <trkpt lat="53.587955581024289" lon="10.0632278714329">
        <ele>0.77</ele>
        <time>2021-09-13T12:41:36Z</time>
      </trkpt>
      <trkpt lat="53.587963543832302" lon="10.063200127333403">
        <ele>0.78</ele>
        <time>2021-09-13T12:41:37Z</time>
      </trkpt>
      <trkpt lat="53.588172420859337" lon="10.062751024961472">
        <ele>1.03</ele>
        <time>2021-09-13T12:41:51Z</time>
      </trkpt>
      <trkpt lat="53.588488418608904" lon="10.062226820737123">
        <ele>1.39</ele>
        <time>2021-09-13T12:42:04Z</time>
      </trkpt>
      <trkpt lat="53.588850600644946" lon="10.06162466481328">
        <ele>2.46</ele>
        <time>2021-09-13T12:42:20Z</time>
      </trkpt>
      <trkpt lat="53.589098956435919" lon="10.061195259913802">
        <ele>3.15</ele>
        <time>2021-09-13T12:42:31Z</time>
      </trkpt>
      <trkpt lat="53.589095436036587" lon="10.06116827018559">
        <ele>3.18</ele>
        <time>2021-09-13T12:42:32Z</time>
      </trkpt>
      <trkpt lat="53.589054867625237" lon="10.061082355678082">
        <ele>3.2</ele>
        <time>2021-09-13T12:42:35Z</time>
      </trkpt>
      <trkpt lat="53.589009689167142" lon="10.061023682355881">
        <ele>3.19</ele>
        <time>2021-09-13T12:42:37Z</time>
      </trkpt>
      <trkpt lat="53.588792514055967" lon="10.061315456405282">
        <ele>2.86</ele>
        <time>2021-09-13T12:42:46Z</time>
      </trkpt>
      <trkpt lat="53.588374760001898" lon="10.062001682817936">
        <ele>1.89</ele>
        <time>2021-09-13T12:42:59Z</time>
      </trkpt>
      <trkpt lat="53.588291862979531" lon="10.062085166573524">
        <ele>1.64</ele>
        <time>2021-09-13T12:43:02Z</time>
      </trkpt>
      <trkpt lat="53.588274428620934" lon="10.062070833519101">
        <ele>1.58</ele>
        <time>2021-09-13T12:43:03Z</time>
      </trkpt>
      <trkpt lat="53.588259927928448" lon="10.062047280371189">
        <ele>1.53</ele>
        <time>2021-09-13T12:43:04Z</time>
      </trkpt>
      <trkpt lat="53.58824442140758" lon="10.062014255672693">
        <ele>1.5</ele>
        <time>2021-09-13T12:43:05Z</time>
      </trkpt>
      <trkpt lat="53.58822631649673" lon="10.061972262337804">
        <ele>1.45</ele>
        <time>2021-09-13T12:43:06Z</time>
      </trkpt>
      <trkpt lat="53.587988773360848" lon="10.061507066711783">
        <ele>1.09</ele>
        <time>2021-09-13T12:43:18Z</time>
      </trkpt>
      <trkpt lat="53.587777046486735" lon="10.061195595189929">
        <ele>0.86</ele>
        <time>2021-09-13T12:43:25Z</time>
      </trkpt>
      <trkpt lat="53.587747123092413" lon="10.061158463358879">
        <ele>0.85</ele>
        <time>2021-09-13T12:43:26Z</time>
      </trkpt>
      <trkpt lat="53.587713427841663" lon="10.061123678460717">
        <ele>0.84</ele>
        <time>2021-09-13T12:43:27Z</time>
      </trkpt>
      <trkpt lat="53.587683169171214" lon="10.061087720096111">
        <ele>0.83</ele>
        <time>2021-09-13T12:43:28Z</time>
      </trkpt>
      <trkpt lat="53.587645199149847" lon="10.061044553294778">
        <ele>0.81</ele>
        <time>2021-09-13T12:43:29Z</time>
      </trkpt>
      <trkpt lat="53.587170699611306" lon="10.060498472303152">
        <ele>0.44</ele>
        <time>2021-09-13T12:43:42Z</time>
      </trkpt>
      <trkpt lat="53.586938101798296" lon="10.060157077386975">
        <ele>0.26</ele>
        <time>2021-09-13T12:43:52Z</time>
      </trkpt>
      <trkpt lat="53.586619505658746" lon="10.059679057449102">
        <ele>0</ele>
        <time>2021-09-13T12:44:03Z</time>
      </trkpt>
      <trkpt lat="53.586283810436726" lon="10.059092910960317">
        <ele>0.01</ele>
        <time>2021-09-13T12:44:15Z</time>
      </trkpt>
      <trkpt lat="53.586029168218374" lon="10.05857465788722">
        <ele>-0.1</ele>
        <time>2021-09-13T12:44:26Z</time>
      </trkpt>
      <trkpt lat="53.585753990337253" lon="10.058030504733324">
        <ele>0</ele>
        <time>2021-09-13T12:44:36Z</time>
      </trkpt>
      <trkpt lat="53.585341349244118" lon="10.057270685210824">
        <ele>0.01</ele>
        <time>2021-09-13T12:44:49Z</time>
      </trkpt>
      <trkpt lat="53.585074720904231" lon="10.056710438802838">
        <ele>0</ele>
        <time>2021-09-13T12:45:01Z</time>
      </trkpt>
      <trkpt lat="53.584773056209087" lon="10.056171985343099">
        <ele>0.04</ele>
        <time>2021-09-13T12:45:12Z</time>
      </trkpt>
      <trkpt lat="53.5843959543854" lon="10.055473102256656">
        <ele>0.14</ele>
        <time>2021-09-13T12:45:25Z</time>
      </trkpt>
      <trkpt lat="53.584099402651191" lon="10.054882345721126">
        <ele>0.15</ele>
        <time>2021-09-13T12:45:38Z</time>
      </trkpt>
      <trkpt lat="53.583968477323651" lon="10.054406085982919">
        <ele>0.21</ele>
        <time>2021-09-13T12:45:49Z</time>
      </trkpt>
      <trkpt lat="53.584166876971722" lon="10.054059829562902">
        <ele>0.88</ele>
        <time>2021-09-13T12:46:02Z</time>
      </trkpt>
      <trkpt lat="53.584449011832476" lon="10.053721703588963">
        <ele>1.72</ele>
        <time>2021-09-13T12:46:15Z</time>
      </trkpt>
      <trkpt lat="53.584668282419443" lon="10.053466390818357">
        <ele>2.63</ele>
        <time>2021-09-13T12:46:29Z</time>
      </trkpt>
      <trkpt lat="53.584744306281209" lon="10.05338684655726">
        <ele>2.63</ele>
        <time>2021-09-13T12:46:37Z</time>
      </trkpt>
      <trkpt lat="53.584758974611759" lon="10.053370166569948">
        <ele>2.63</ele>
        <time>2021-09-13T12:46:38Z</time>
      </trkpt>
      <trkpt lat="53.584777247160673" lon="10.053343512117863">
        <ele>2.63</ele>
        <time>2021-09-13T12:46:39Z</time>
      </trkpt>
      <trkpt lat="53.584793172776699" lon="10.053316354751587">
        <ele>2.63</ele>
        <time>2021-09-13T12:46:40Z</time>
      </trkpt>
      <trkpt lat="53.584821922704577" lon="10.053276792168617">
        <ele>2.64</ele>
        <time>2021-09-13T12:46:45Z</time>
      </trkpt>
      <trkpt lat="53.584813959896564" lon="10.053285174071789">
        <ele>2.63</ele>
        <time>2021-09-13T12:47:44Z</time>
      </trkpt>
      <trkpt lat="53.584803901612759" lon="10.053275534883142">
        <ele>2.64</ele>
        <time>2021-09-13T12:47:45Z</time>
      </trkpt>
      <trkpt lat="53.584624109789729" lon="10.052883680909872">
        <ele>2.31</ele>
        <time>2021-09-13T12:47:56Z</time>
      </trkpt>
      <trkpt lat="53.584550013765693" lon="10.05250389687717">
        <ele>2.06</ele>
        <time>2021-09-13T12:48:02Z</time>
      </trkpt>
      <trkpt lat="53.584360415115952" lon="10.051656486466527">
        <ele>1</ele>
        <time>2021-09-13T12:48:14Z</time>
      </trkpt>
      <trkpt lat="53.584344238042831" lon="10.051594628021121">
        <ele>0.98</ele>
        <time>2021-09-13T12:48:15Z</time>
      </trkpt>
      <trkpt lat="53.584316493943334" lon="10.051457835361362">
        <ele>0.96</ele>
        <time>2021-09-13T12:48:17Z</time>
      </trkpt>
      <trkpt lat="53.584248935803771" lon="10.051217945292592">
        <ele>0.91</ele>
        <time>2021-09-13T12:48:20Z</time>
      </trkpt>
      <trkpt lat="53.584103845059872" lon="10.050537418574095">
        <ele>0.34</ele>
        <time>2021-09-13T12:48:28Z</time>
      </trkpt>
      <trkpt lat="53.58408079482615" lon="10.05045217461884">
        <ele>0.3</ele>
        <time>2021-09-13T12:48:29Z</time>
      </trkpt>
      <trkpt lat="53.583932770416141" lon="10.049735605716705">
        <ele>-0.27</ele>
        <time>2021-09-13T12:48:37Z</time>
      </trkpt>
      <trkpt lat="53.583832355216146" lon="10.049293795600533">
        <ele>-0.69</ele>
        <time>2021-09-13T12:48:42Z</time>
      </trkpt>
      <trkpt lat="53.583717020228505" lon="10.048891883343458">
        <ele>-1.12</ele>
        <time>2021-09-13T12:48:47Z</time>
      </trkpt>
      <trkpt lat="53.583675194531679" lon="10.048665488138795">
        <ele>-1.38</ele>
        <time>2021-09-13T12:48:50Z</time>
      </trkpt>
      <trkpt lat="53.583659688010812" lon="10.04851427860558">
        <ele>-1.52</ele>
        <time>2021-09-13T12:48:52Z</time>
      </trkpt>
      <trkpt lat="53.583661364391446" lon="10.048437668010592">
        <ele>-1.54</ele>
        <time>2021-09-13T12:48:53Z</time>
      </trkpt>
      <trkpt lat="53.583663711324334" lon="10.048364074900746">
        <ele>-1.56</ele>
        <time>2021-09-13T12:48:54Z</time>
      </trkpt>
      <trkpt lat="53.58366446569562" lon="10.048290984705091">
        <ele>-1.57</ele>
        <time>2021-09-13T12:48:55Z</time>
      </trkpt>
      <trkpt lat="53.583670919761062" lon="10.048218565061688">
        <ele>-1.57</ele>
        <time>2021-09-13T12:48:56Z</time>
      </trkpt>
      <trkpt lat="53.583683995530009" lon="10.048147067427635">
        <ele>-1.57</ele>
        <time>2021-09-13T12:48:57Z</time>
      </trkpt>
      <trkpt lat="53.583694892004132" lon="10.048073558136821">
        <ele>-1.57</ele>
        <time>2021-09-13T12:48:58Z</time>
      </trkpt>
      <trkpt lat="53.583811987191439" lon="10.047510797157884">
        <ele>-0.53</ele>
        <time>2021-09-13T12:49:09Z</time>
      </trkpt>
      <trkpt lat="53.583828583359718" lon="10.047495709732175">
        <ele>-0.5</ele>
        <time>2021-09-13T12:49:10Z</time>
      </trkpt>
      <trkpt lat="53.583844173699617" lon="10.047490680590272">
        <ele>-0.48</ele>
        <time>2021-09-13T12:49:11Z</time>
      </trkpt>
      <trkpt lat="53.583862278610468" lon="10.047492943704128">
        <ele>-0.47</ele>
        <time>2021-09-13T12:49:12Z</time>
      </trkpt>
      <trkpt lat="53.583882981911302" lon="10.047503923997283">
        <ele>-0.43</ele>
        <time>2021-09-13T12:49:13Z</time>
      </trkpt>
      <trkpt lat="53.58390293084085" lon="10.047519598156214">
        <ele>-0.39</ele>
        <time>2021-09-13T12:49:14Z</time>
      </trkpt>
      <trkpt lat="53.583923634141684" lon="10.047535439953208">
        <ele>-0.36</ele>
        <time>2021-09-13T12:49:15Z</time>
      </trkpt>
      <trkpt lat="53.583946852013469" lon="10.047553293406963">
        <ele>-0.32</ele>
        <time>2021-09-13T12:49:16Z</time>
      </trkpt>
      <trkpt lat="53.583971410989761" lon="10.047574331983924">
        <ele>-0.27</ele>
        <time>2021-09-13T12:49:17Z</time>
      </trkpt>
      <trkpt lat="53.584101246669888" lon="10.047611128538847">
        <ele>-0.11</ele>
        <time>2021-09-13T12:49:28Z</time>
      </trkpt>
      <trkpt lat="53.584135612472892" lon="10.047585563734174">
        <ele>0</ele>
        <time>2021-09-13T12:49:40Z</time>
      </trkpt>
      <trkpt lat="53.584235440939665" lon="10.047429241240025">
        <ele>-0.02</ele>
        <time>2021-09-13T12:49:52Z</time>
      </trkpt>
      <trkpt lat="53.584280619397759" lon="10.047381715849042">
        <ele>-0.09</ele>
        <time>2021-09-13T12:50:25Z</time>
      </trkpt>
      <trkpt lat="53.584294617176056" lon="10.047365790233016">
        <ele>-0.09</ele>
        <time>2021-09-13T12:50:26Z</time>
      </trkpt>
      <trkpt lat="53.58431238681078" lon="10.047352379187942">
        <ele>-0.09</ele>
        <time>2021-09-13T12:50:27Z</time>
      </trkpt>
      <trkpt lat="53.584395702928305" lon="10.047279708087444">
        <ele>0.2</ele>
        <time>2021-09-13T12:50:35Z</time>
      </trkpt>
      <trkpt lat="53.584365947172046" lon="10.047203516587615">
        <ele>0.2</ele>
        <time>2021-09-13T12:51:12Z</time>
      </trkpt>
      <trkpt lat="53.584345998242497" lon="10.047181807458401">
        <ele>0.2</ele>
        <time>2021-09-13T12:51:13Z</time>
      </trkpt>
      <trkpt lat="53.584020780399442" lon="10.046920962631702">
        <ele>0.16</ele>
        <time>2021-09-13T12:51:25Z</time>
      </trkpt>
      <trkpt lat="53.583885999396443" lon="10.046889865770936">
        <ele>-0.28</ele>
        <time>2021-09-13T12:51:31Z</time>
      </trkpt>
      <trkpt lat="53.583879042416811" lon="10.046851141378284">
        <ele>-0.41</ele>
        <time>2021-09-13T12:51:33Z</time>
      </trkpt>
      <trkpt lat="53.583883568644524" lon="10.046819038689137">
        <ele>-0.44</ele>
        <time>2021-09-13T12:51:34Z</time>
      </trkpt>
      <trkpt lat="53.584043243899941" lon="10.046283854171634">
        <ele>-0.48</ele>
        <time>2021-09-13T12:51:47Z</time>
      </trkpt>
      <trkpt lat="53.584214905276895" lon="10.045783622190356">
        <ele>-0.69</ele>
        <time>2021-09-13T12:51:58Z</time>
      </trkpt>
      <trkpt lat="53.584383632987738" lon="10.045317588374019">
        <ele>-0.19</ele>
        <time>2021-09-13T12:52:09Z</time>
      </trkpt>
      <trkpt lat="53.584444988518953" lon="10.045219017192721">
        <ele>-0.09</ele>
        <time>2021-09-13T12:52:12Z</time>
      </trkpt>
      <trkpt lat="53.58445999212563" lon="10.045174257829785">
        <ele>-0.05</ele>
        <time>2021-09-13T12:52:13Z</time>
      </trkpt>
      <trkpt lat="53.584475666284561" lon="10.045128241181374">
        <ele>-0.02</ele>
        <time>2021-09-13T12:52:14Z</time>
      </trkpt>
      <trkpt lat="53.584729637950659" lon="10.044377474114299">
        <ele>-0.26</ele>
        <time>2021-09-13T12:52:28Z</time>
      </trkpt>
      <trkpt lat="53.584997439756989" lon="10.043554119765759">
        <ele>-0.8</ele>
        <time>2021-09-13T12:52:43Z</time>
      </trkpt>
      <trkpt lat="53.585230875760317" lon="10.042970068752766">
        <ele>-0.84</ele>
        <time>2021-09-13T12:52:56Z</time>
      </trkpt>
      <trkpt lat="53.585261553525925" lon="10.042473021894693">
        <ele>-0.91</ele>
        <time>2021-09-13T12:53:07Z</time>
      </trkpt>
      <trkpt lat="53.585253925994039" lon="10.042445780709386">
        <ele>-0.84</ele>
        <time>2021-09-13T12:53:12Z</time>
      </trkpt>
      <trkpt lat="53.585268845781684" lon="10.042315777391195">
        <ele>-0.69</ele>
        <time>2021-09-13T12:53:44Z</time>
      </trkpt>
      <trkpt lat="53.585268259048462" lon="10.04228032194078">
        <ele>-0.69</ele>
        <time>2021-09-13T12:53:45Z</time>
      </trkpt>
      <trkpt lat="53.585260212421417" lon="10.042237155139446">
        <ele>-0.69</ele>
        <time>2021-09-13T12:53:46Z</time>
      </trkpt>
      <trkpt lat="53.585247807204723" lon="10.042200442403555">
        <ele>-0.7</ele>
        <time>2021-09-13T12:53:47Z</time>
      </trkpt>
      <trkpt lat="53.585227942094207" lon="10.042173704132438">
        <ele>-0.7</ele>
        <time>2021-09-13T12:53:48Z</time>
      </trkpt>
      <trkpt lat="53.585202544927597" lon="10.042154425755143">
        <ele>-0.69</ele>
        <time>2021-09-13T12:53:49Z</time>
      </trkpt>
      <trkpt lat="53.585173711180687" lon="10.042137913405895">
        <ele>-0.61</ele>
        <time>2021-09-13T12:53:50Z</time>
      </trkpt>
      <trkpt lat="53.584784958511591" lon="10.04172476939857">
        <ele>-1.05</ele>
        <time>2021-09-13T12:54:05Z</time>
      </trkpt>
      <trkpt lat="53.58483424410224" lon="10.041088331490755">
        <ele>-1.54</ele>
        <time>2021-09-13T12:54:17Z</time>
      </trkpt>
      <trkpt lat="53.584821000695229" lon="10.040531018748879">
        <ele>-1.95</ele>
        <time>2021-09-13T12:54:25Z</time>
      </trkpt>
      <trkpt lat="53.584815887734294" lon="10.040452564135194">
        <ele>-1.95</ele>
        <time>2021-09-13T12:54:26Z</time>
      </trkpt>
      <trkpt lat="53.584811110049486" lon="10.040376791730523">
        <ele>-1.96</ele>
        <time>2021-09-13T12:54:27Z</time>
      </trkpt>
      <trkpt lat="53.584810355678201" lon="10.040300348773599">
        <ele>-1.98</ele>
        <time>2021-09-13T12:54:28Z</time>
      </trkpt>
      <trkpt lat="53.584805577993393" lon="10.040221307426691">
        <ele>-1.99</ele>
        <time>2021-09-13T12:54:29Z</time>
      </trkpt>
      <trkpt lat="53.584805661812425" lon="10.040140589699149">
        <ele>-2</ele>
        <time>2021-09-13T12:54:30Z</time>
      </trkpt>
      <trkpt lat="53.584819743409753" lon="10.039133252575994">
        <ele>-1.49</ele>
        <time>2021-09-13T12:54:43Z</time>
      </trkpt>
      <trkpt lat="53.584785964339972" lon="10.037918714806437">
        <ele>-1.94</ele>
        <time>2021-09-13T12:55:00Z</time>
      </trkpt>
      <trkpt lat="53.584752855822444" lon="10.037490902468562">
        <ele>-2.41</ele>
        <time>2021-09-13T12:55:10Z</time>
      </trkpt>
      <trkpt lat="53.584718657657504" lon="10.036708870902658">
        <ele>-2.36</ele>
        <time>2021-09-13T12:55:22Z</time>
      </trkpt>
      <trkpt lat="53.58471505343914" lon="10.035860287025571">
        <ele>-2.36</ele>
        <time>2021-09-13T12:55:34Z</time>
      </trkpt>
      <trkpt lat="53.5846480820328" lon="10.034753289073706">
        <ele>-2.31</ele>
        <time>2021-09-13T12:55:49Z</time>
      </trkpt>
      <trkpt lat="53.584613297134638" lon="10.034035881981254">
        <ele>-0.97</ele>
        <time>2021-09-13T12:56:01Z</time>
      </trkpt>
      <trkpt lat="53.584634838625789" lon="10.033949380740523">
        <ele>-0.78</ele>
        <time>2021-09-13T12:56:03Z</time>
      </trkpt>
      <trkpt lat="53.584651350975037" lon="10.033929599449039">
        <ele>-0.69</ele>
        <time>2021-09-13T12:56:04Z</time>
      </trkpt>
      <trkpt lat="53.584670294076204" lon="10.033923229202628">
        <ele>-0.6</ele>
        <time>2021-09-13T12:56:05Z</time>
      </trkpt>
      <trkpt lat="53.584690410643816" lon="10.033924821764231">
        <ele>-0.54</ele>
        <time>2021-09-13T12:56:06Z</time>
      </trkpt>
      <trkpt lat="53.584707928821445" lon="10.033927839249372">
        <ele>-0.45</ele>
        <time>2021-09-13T12:56:07Z</time>
      </trkpt>
      <trkpt lat="53.584726704284549" lon="10.033927420154214">
        <ele>-0.32</ele>
        <time>2021-09-13T12:56:08Z</time>
      </trkpt>
      <trkpt lat="53.584748916327953" lon="10.033925073221326">
        <ele>-0.21</ele>
        <time>2021-09-13T12:56:09Z</time>
      </trkpt>
      <trkpt lat="53.585228193551302" lon="10.033902190625668">
        <ele>0.06</ele>
        <time>2021-09-13T12:56:24Z</time>
      </trkpt>
      <trkpt lat="53.58559213578701" lon="10.033862125128508">
        <ele>-0.19</ele>
        <time>2021-09-13T12:56:34Z</time>
      </trkpt>
      <trkpt lat="53.58616579324007" lon="10.033713597804308">
        <ele>-0.79</ele>
        <time>2021-09-13T12:56:46Z</time>
      </trkpt>
      <trkpt lat="53.586843805387616" lon="10.03351285122335">
        <ele>-1.13</ele>
        <time>2021-09-13T12:57:00Z</time>
      </trkpt>
      <trkpt lat="53.587693478912115" lon="10.033493153750896">
        <ele>-1.2</ele>
        <time>2021-09-13T12:57:18Z</time>
      </trkpt>
      <trkpt lat="53.587724575772882" lon="10.03353338688612">
        <ele>-1.2</ele>
        <time>2021-09-13T12:57:24Z</time>
      </trkpt>
      <trkpt lat="53.587831864133477" lon="10.033592479303479">
        <ele>-1.2</ele>
        <time>2021-09-13T12:58:08Z</time>
      </trkpt>
      <trkpt lat="53.587849382311106" lon="10.033591976389289">
        <ele>-1.2</ele>
        <time>2021-09-13T12:58:09Z</time>
      </trkpt>
      <trkpt lat="53.587868744507432" lon="10.033584935590625">
        <ele>-1.2</ele>
        <time>2021-09-13T12:58:10Z</time>
      </trkpt>
      <trkpt lat="53.587888861075044" lon="10.033575966954231">
        <ele>-1.19</ele>
        <time>2021-09-13T12:58:11Z</time>
      </trkpt>
      <trkpt lat="53.588029090315104" lon="10.033560963347554">
        <ele>-1.09</ele>
        <time>2021-09-13T12:58:21Z</time>
      </trkpt>
      <trkpt lat="53.588053062558174" lon="10.033555682748556">
        <ele>-1.09</ele>
        <time>2021-09-13T12:58:22Z</time>
      </trkpt>
      <trkpt lat="53.588547091931105" lon="10.03347085788846">
        <ele>-1.47</ele>
        <time>2021-09-13T12:58:37Z</time>
      </trkpt>
      <trkpt lat="53.588922768831253" lon="10.033375639468431">
        <ele>-2.04</ele>
        <time>2021-09-13T12:58:48Z</time>
      </trkpt>
      <trkpt lat="53.589391987770796" lon="10.033297101035714">
        <ele>-2.03</ele>
        <time>2021-09-13T12:58:58Z</time>
      </trkpt>
      <trkpt lat="53.590157926082611" lon="10.033205738291144">
        <ele>-1.47</ele>
        <time>2021-09-13T12:59:15Z</time>
      </trkpt>
      <trkpt lat="53.590622870251536" lon="10.033098869025707">
        <ele>-1.1</ele>
        <time>2021-09-13T12:59:30Z</time>
      </trkpt>
      <trkpt lat="53.59062840230763" lon="10.033096605911851">
        <ele>-1.11</ele>
        <time>2021-09-13T12:59:33Z</time>
      </trkpt>
      <trkpt lat="53.590678945183754" lon="10.033028880134225">
        <ele>-1.18</ele>
        <time>2021-09-13T12:59:37Z</time>
      </trkpt>
      <trkpt lat="53.590685985982418" lon="10.033001303672791">
        <ele>-1.18</ele>
        <time>2021-09-13T12:59:38Z</time>
      </trkpt>
      <trkpt lat="53.590687662363052" lon="10.032973140478134">
        <ele>-1.17</ele>
        <time>2021-09-13T12:59:39Z</time>
      </trkpt>
      <trkpt lat="53.590684980154037" lon="10.03294656984508">
        <ele>-1.15</ele>
        <time>2021-09-13T12:59:40Z</time>
      </trkpt>
      <trkpt lat="53.590681543573737" lon="10.032919747754931">
        <ele>-1.11</ele>
        <time>2021-09-13T12:59:41Z</time>
      </trkpt>
      <trkpt lat="53.590679364278913" lon="10.032890243455768">
        <ele>-1.06</ele>
        <time>2021-09-13T12:59:42Z</time>
      </trkpt>
      <trkpt lat="53.590699397027493" lon="10.032422030344605">
        <ele>-0.83</ele>
        <time>2021-09-13T12:59:54Z</time>
      </trkpt>
      <trkpt lat="53.590715741738677" lon="10.032392693683505">
        <ele>-0.83</ele>
        <time>2021-09-13T12:59:55Z</time>
      </trkpt>
      <trkpt lat="53.590736528858542" lon="10.032366374507546">
        <ele>-0.83</ele>
        <time>2021-09-13T12:59:56Z</time>
      </trkpt>
      <trkpt lat="53.590759914368391" lon="10.03234944306314">
        <ele>-0.83</ele>
        <time>2021-09-13T12:59:57Z</time>
      </trkpt>
      <trkpt lat="53.590786904096603" lon="10.032330583781004">
        <ele>-0.83</ele>
        <time>2021-09-13T12:59:58Z</time>
      </trkpt>
      <trkpt lat="53.591189654543996" lon="10.032157497480512">
        <ele>-0.35</ele>
        <time>2021-09-13T13:00:12Z</time>
      </trkpt>
      <trkpt lat="53.591393502429128" lon="10.032106284052134">
        <ele>-0.14</ele>
        <time>2021-09-13T13:00:19Z</time>
      </trkpt>
      <trkpt lat="53.591419151052833" lon="10.032069152221084">
        <ele>-0.13</ele>
        <time>2021-09-13T13:00:20Z</time>
      </trkpt>
      <trkpt lat="53.591436417773366" lon="10.032032188028097">
        <ele>-0.11</ele>
        <time>2021-09-13T13:00:21Z</time>
      </trkpt>
      <trkpt lat="53.591450247913599" lon="10.03199614584446">
        <ele>-0.08</ele>
        <time>2021-09-13T13:00:22Z</time>
      </trkpt>
      <trkpt lat="53.591463826596737" lon="10.031953565776348">
        <ele>-0.06</ele>
        <time>2021-09-13T13:00:23Z</time>
      </trkpt>
      <trkpt lat="53.591681001707911" lon="10.031231800094247">
        <ele>0.52</ele>
        <time>2021-09-13T13:00:37Z</time>
      </trkpt>
      <trkpt lat="53.591657113283873" lon="10.030823685228825">
        <ele>0.39</ele>
        <time>2021-09-13T13:00:46Z</time>
      </trkpt>
      <trkpt lat="53.59166381880641" lon="10.030775237828493">
        <ele>0.36</ele>
        <time>2021-09-13T13:00:47Z</time>
      </trkpt>
      <trkpt lat="53.591680163517594" lon="10.030226474627852">
        <ele>0.05</ele>
        <time>2021-09-13T13:01:00Z</time>
      </trkpt>
      <trkpt lat="53.591660801321268" lon="10.030199903994799">
        <ele>0.1</ele>
        <time>2021-09-13T13:01:01Z</time>
      </trkpt>
      <trkpt lat="53.59163255430758" lon="10.030177691951394">
        <ele>0.15</ele>
        <time>2021-09-13T13:01:02Z</time>
      </trkpt>
      <trkpt lat="53.591604810208082" lon="10.030157323926687">
        <ele>0.19</ele>
        <time>2021-09-13T13:01:03Z</time>
      </trkpt>
      <trkpt lat="53.591579413041472" lon="10.030125891789794">
        <ele>0.19</ele>
        <time>2021-09-13T13:01:04Z</time>
      </trkpt>
      <trkpt lat="53.591558039188385" lon="10.030091693624854">
        <ele>0.19</ele>
        <time>2021-09-13T13:01:05Z</time>
      </trkpt>
      <trkpt lat="53.591538928449154" lon="10.030055483803153">
        <ele>0.19</ele>
        <time>2021-09-13T13:01:06Z</time>
      </trkpt>
      <trkpt lat="53.591345893219113" lon="10.029461542144418">
        <ele>0.44</ele>
        <time>2021-09-13T13:01:18Z</time>
      </trkpt>
      <trkpt lat="53.591236844658852" lon="10.028825271874666">
        <ele>0.36</ele>
        <time>2021-09-13T13:01:28Z</time>
      </trkpt>
      <trkpt lat="53.591179931536317" lon="10.028149606660008">
        <ele>0.33</ele>
        <time>2021-09-13T13:01:40Z</time>
      </trkpt>
      <trkpt lat="53.591211950406432" lon="10.027334215119481">
        <ele>0.4</ele>
        <time>2021-09-13T13:01:51Z</time>
      </trkpt>
      <trkpt lat="53.591285375878215" lon="10.026632398366928">
        <ele>0.38</ele>
        <time>2021-09-13T13:02:01Z</time>
      </trkpt>
      <trkpt lat="53.591354861855507" lon="10.025766212493181">
        <ele>0.31</ele>
        <time>2021-09-13T13:02:13Z</time>
      </trkpt>
      <trkpt lat="53.591326111927629" lon="10.025203283876181">
        <ele>0.3</ele>
        <time>2021-09-13T13:02:20Z</time>
      </trkpt>
      <trkpt lat="53.591330302879214" lon="10.02511921338737">
        <ele>0.32</ele>
        <time>2021-09-13T13:02:21Z</time>
      </trkpt>
      <trkpt lat="53.5914312209934" lon="10.024424102157354">
        <ele>0.55</ele>
        <time>2021-09-13T13:02:30Z</time>
      </trkpt>
      <trkpt lat="53.591593075543642" lon="10.023612231016159">
        <ele>0.73</ele>
        <time>2021-09-13T13:02:43Z</time>
      </trkpt>
      <trkpt lat="53.591748727485538" lon="10.022929944097996">
        <ele>0.83</ele>
        <time>2021-09-13T13:02:54Z</time>
      </trkpt>
      <trkpt lat="53.5918905492872" lon="10.022324016317725">
        <ele>2.07</ele>
        <time>2021-09-13T13:03:06Z</time>
      </trkpt>
      <trkpt lat="53.592061875388026" lon="10.021701660007238">
        <ele>2.63</ele>
        <time>2021-09-13T13:03:19Z</time>
      </trkpt>
      <trkpt lat="53.59219204634428" lon="10.021085841581225">
        <ele>3.34</ele>
        <time>2021-09-13T13:03:32Z</time>
      </trkpt>
      <trkpt lat="53.592306626960635" lon="10.020596338436007">
        <ele>4.27</ele>
        <time>2021-09-13T13:03:42Z</time>
      </trkpt>
      <trkpt lat="53.592457501217723" lon="10.020031314343214">
        <ele>5.28</ele>
        <time>2021-09-13T13:03:54Z</time>
      </trkpt>
      <trkpt lat="53.592588761821389" lon="10.019557066261768">
        <ele>6.47</ele>
        <time>2021-09-13T13:04:05Z</time>
      </trkpt>
      <trkpt lat="53.592753214761615" lon="10.018830941990018">
        <ele>8.02</ele>
        <time>2021-09-13T13:04:20Z</time>
      </trkpt>
      <trkpt lat="53.592903837561607" lon="10.018250327557325">
        <ele>8.74</ele>
        <time>2021-09-13T13:04:32Z</time>
      </trkpt>
      <trkpt lat="53.593039959669113" lon="10.017593186348677">
        <ele>9.609999999999999</ele>
        <time>2021-09-13T13:04:46Z</time>
      </trkpt>
      <trkpt lat="53.59309553168714" lon="10.017337873578072">
        <ele>9.880000000000001</ele>
        <time>2021-09-13T13:04:52Z</time>
      </trkpt>
      <trkpt lat="53.593110116198659" lon="10.017313063144684">
        <ele>9.93</ele>
        <time>2021-09-13T13:04:53Z</time>
      </trkpt>
      <trkpt lat="53.59313408844173" lon="10.017290934920311">
        <ele>9.98</ele>
        <time>2021-09-13T13:04:54Z</time>
      </trkpt>
      <trkpt lat="53.593157976865768" lon="10.017275344580412">
        <ele>10.02</ele>
        <time>2021-09-13T13:04:55Z</time>
      </trkpt>
      <trkpt lat="53.593177255243063" lon="10.017281463369727">
        <ele>10.050000000000001</ele>
        <time>2021-09-13T13:04:56Z</time>
      </trkpt>
      <trkpt lat="53.593196952715516" lon="10.017287582159042">
        <ele>10.08</ele>
        <time>2021-09-13T13:04:57Z</time>
      </trkpt>
      <trkpt lat="53.593214973807335" lon="10.017295125871897">
        <ele>10.1</ele>
        <time>2021-09-13T13:04:58Z</time>
      </trkpt>
      <trkpt lat="53.593234168365598" lon="10.017303926870227">
        <ele>10.130000000000001</ele>
        <time>2021-09-13T13:04:59Z</time>
      </trkpt>
      <trkpt lat="53.593542957678437" lon="10.017502494156361">
        <ele>10.81</ele>
        <time>2021-09-13T13:05:10Z</time>
      </trkpt>
      <trkpt lat="53.593866918236017" lon="10.017707850784063">
        <ele>10.960000000000001</ele>
        <time>2021-09-13T13:05:21Z</time>
      </trkpt>
      <trkpt lat="53.594187442213297" lon="10.0177853833884">
        <ele>11.029999999999999</ele>
        <time>2021-09-13T13:05:31Z</time>
      </trkpt>
      <trkpt lat="53.59441383741796" lon="10.017267381772399">
        <ele>11.15</ele>
        <time>2021-09-13T13:05:43Z</time>
      </trkpt>
      <trkpt lat="53.594622714444995" lon="10.016674781218171">
        <ele>11.98</ele>
        <time>2021-09-13T13:05:56Z</time>
      </trkpt>
      <trkpt lat="53.595012053847313" lon="10.016066506505013">
        <ele>12.960000000000001</ele>
        <time>2021-09-13T13:06:11Z</time>
      </trkpt>
      <trkpt lat="53.595463167876005" lon="10.015479354187846">
        <ele>13.02</ele>
        <time>2021-09-13T13:06:25Z</time>
      </trkpt>
      <trkpt lat="53.59581277705729" lon="10.014713080599904">
        <ele>13.300000000000001</ele>
        <time>2021-09-13T13:06:42Z</time>
      </trkpt>
      <trkpt lat="53.595981588587165" lon="10.014016879722476">
        <ele>13.380000000000001</ele>
        <time>2021-09-13T13:06:56Z</time>
      </trkpt>
      <trkpt lat="53.596114357933402" lon="10.013503069058061">
        <ele>13.1</ele>
        <time>2021-09-13T13:07:09Z</time>
      </trkpt>
      <trkpt lat="53.59630873426795" lon="10.012788930907845">
        <ele>13.33</ele>
        <time>2021-09-13T13:07:23Z</time>
      </trkpt>
      <trkpt lat="53.596528256312013" lon="10.011978317052126">
        <ele>13.66</ele>
        <time>2021-09-13T13:07:37Z</time>
      </trkpt>
      <trkpt lat="53.596722967922688" lon="10.01119963824749">
        <ele>14.109999999999999</ele>
        <time>2021-09-13T13:07:51Z</time>
      </trkpt>
      <trkpt lat="53.59691902063787" lon="10.010401932522655">
        <ele>14.449999999999999</ele>
        <time>2021-09-13T13:08:05Z</time>
      </trkpt>
      <trkpt lat="53.597009461373091" lon="10.009697014465928">
        <ele>14.859999999999999</ele>
        <time>2021-09-13T13:08:18Z</time>
      </trkpt>
      <trkpt lat="53.597004683688283" lon="10.009566927328706">
        <ele>14.890000000000001</ele>
        <time>2021-09-13T13:08:21Z</time>
      </trkpt>
      <trkpt lat="53.596968054771423" lon="10.009481934830546">
        <ele>14.93</ele>
        <time>2021-09-13T13:08:27Z</time>
      </trkpt>
      <trkpt lat="53.596971742808819" lon="10.009463578462601">
        <ele>14.94</ele>
        <time>2021-09-13T13:08:28Z</time>
      </trkpt>
      <trkpt lat="53.597004851326346" lon="10.009021935984492">
        <ele>15.539999999999999</ele>
        <time>2021-09-13T13:08:42Z</time>
      </trkpt>
      <trkpt lat="53.597013903781772" lon="10.008809203281999">
        <ele>15.449999999999999</ele>
        <time>2021-09-13T13:08:48Z</time>
      </trkpt>
      <trkpt lat="53.597001582384109" lon="10.008789673447609">
        <ele>15.44</ele>
        <time>2021-09-13T13:08:49Z</time>
      </trkpt>
      <trkpt lat="53.596766218543053" lon="10.00852731987834">
        <ele>14.949999999999999</ele>
        <time>2021-09-13T13:08:59Z</time>
      </trkpt>
      <trkpt lat="53.596587432548404" lon="10.008324813097715">
        <ele>14.630000000000001</ele>
        <time>2021-09-13T13:09:05Z</time>
      </trkpt>
      <trkpt lat="53.596579972654581" lon="10.008286759257317">
        <ele>14.59</ele>
        <time>2021-09-13T13:09:06Z</time>
      </trkpt>
      <trkpt lat="53.596578883007169" lon="10.008248202502728">
        <ele>14.57</ele>
        <time>2021-09-13T13:09:07Z</time>
      </trkpt>
      <trkpt lat="53.596582571044564" lon="10.008202269673347">
        <ele>14.56</ele>
        <time>2021-09-13T13:09:08Z</time>
      </trkpt>
      <trkpt lat="53.596591204404831" lon="10.008156839758158">
        <ele>14.56</ele>
        <time>2021-09-13T13:09:09Z</time>
      </trkpt>
      <trkpt lat="53.596595814451575" lon="10.008109901100397">
        <ele>14.58</ele>
        <time>2021-09-13T13:09:10Z</time>
      </trkpt>
      <trkpt lat="53.596600005403161" lon="10.008063549175858">
        <ele>14.630000000000001</ele>
        <time>2021-09-13T13:09:11Z</time>
      </trkpt>
      <trkpt lat="53.596641244366765" lon="10.007492573931813">
        <ele>15.609999999999999</ele>
        <time>2021-09-13T13:09:23Z</time>
      </trkpt>
      <trkpt lat="53.596721794456244" lon="10.006908942013979">
        <ele>15.67</ele>
        <time>2021-09-13T13:09:34Z</time>
      </trkpt>
      <trkpt lat="53.596902843564749" lon="10.006194803863764">
        <ele>15.66</ele>
        <time>2021-09-13T13:09:46Z</time>
      </trkpt>
      <trkpt lat="53.59701918438077" lon="10.005652913823724">
        <ele>15.16</ele>
        <time>2021-09-13T13:09:55Z</time>
      </trkpt>
      <trkpt lat="53.597088335081935" lon="10.004947744309902">
        <ele>14.220000000000001</ele>
        <time>2021-09-13T13:10:06Z</time>
      </trkpt>
      <trkpt lat="53.597134351730347" lon="10.004337960854173">
        <ele>13.710000000000001</ele>
        <time>2021-09-13T13:10:17Z</time>
      </trkpt>
      <trkpt lat="53.597169555723667" lon="10.003704121336341">
        <ele>12.529999999999999</ele>
        <time>2021-09-13T13:10:27Z</time>
      </trkpt>
      <trkpt lat="53.597037876024842" lon="10.003222580999136">
        <ele>12.199999999999999</ele>
        <time>2021-09-13T13:10:36Z</time>
      </trkpt>
      <trkpt lat="53.596965624019504" lon="10.003021918237209">
        <ele>12.25</ele>
        <time>2021-09-13T13:10:44Z</time>
      </trkpt>
      <trkpt lat="53.59693662263453" lon="10.002793846651912">
        <ele>12.210000000000001</ele>
        <time>2021-09-13T13:11:08Z</time>
      </trkpt>
      <trkpt lat="53.596925977617502" lon="10.002115163952112">
        <ele>11.23</ele>
        <time>2021-09-13T13:11:19Z</time>
      </trkpt>
      <trkpt lat="53.596889935433865" lon="10.001427177339792">
        <ele>9.58</ele>
        <time>2021-09-13T13:11:29Z</time>
      </trkpt>
      <trkpt lat="53.596873339265585" lon="10.001213606446981">
        <ele>9.23</ele>
        <time>2021-09-13T13:11:32Z</time>
      </trkpt>
      <trkpt lat="53.59683595597744" lon="10.000765426084399">
        <ele>8.16</ele>
        <time>2021-09-13T13:11:38Z</time>
      </trkpt>
      <trkpt lat="53.59683595597744" lon="10.000687809661031">
        <ele>7.99</ele>
        <time>2021-09-13T13:11:39Z</time>
      </trkpt>
      <trkpt lat="53.596753980964422" lon="9.999454999342561">
        <ele>5.26</ele>
        <time>2021-09-13T13:11:54Z</time>
      </trkpt>
      <trkpt lat="53.596744425594807" lon="9.999373024329543">
        <ele>5.06</ele>
        <time>2021-09-13T13:11:55Z</time>
      </trkpt>
      <trkpt lat="53.596733948215842" lon="9.999290546402335">
        <ele>4.84</ele>
        <time>2021-09-13T13:11:56Z</time>
      </trkpt>
      <trkpt lat="53.596731182187796" lon="9.999212007969618">
        <ele>4.55</ele>
        <time>2021-09-13T13:11:57Z</time>
      </trkpt>
      <trkpt lat="53.596727913245559" lon="9.999132798984647">
        <ele>4.29</ele>
        <time>2021-09-13T13:11:58Z</time>
      </trkpt>
      <trkpt lat="53.596721962094307" lon="9.999053087085486">
        <ele>4.1</ele>
        <time>2021-09-13T13:11:59Z</time>
      </trkpt>
      <trkpt lat="53.596708215773106" lon="9.998756619170308">
        <ele>3.41</ele>
        <time>2021-09-13T13:12:03Z</time>
      </trkpt>
      <trkpt lat="53.596656583249569" lon="9.998029824346304">
        <ele>1.77</ele>
        <time>2021-09-13T13:12:14Z</time>
      </trkpt>
      <trkpt lat="53.596628252416849" lon="9.997597318142653">
        <ele>0.41</ele>
        <time>2021-09-13T13:12:24Z</time>
      </trkpt>
      <trkpt lat="53.596619786694646" lon="9.997582901269198">
        <ele>0.22</ele>
        <time>2021-09-13T13:12:27Z</time>
      </trkpt>
      <trkpt lat="53.596581062301993" lon="9.997422052547336">
        <ele>0.04</ele>
        <time>2021-09-13T13:12:46Z</time>
      </trkpt>
      <trkpt lat="53.596581481397152" lon="9.997391207143664">
        <ele>0.04</ele>
        <time>2021-09-13T13:12:47Z</time>
      </trkpt>
      <trkpt lat="53.596590785309672" lon="9.997177384793758">
        <ele>-0.19</ele>
        <time>2021-09-13T13:12:56Z</time>
      </trkpt>
      <trkpt lat="53.608875805512071" lon="9.96449894271791">
        <ele>0.69</ele>
        <time>2021-09-13T14:12:18Z</time>
      </trkpt>
      <trkpt lat="53.608914278447628" lon="9.964732378721237">
        <ele>0.69</ele>
        <time>2021-09-13T14:12:37Z</time>
      </trkpt>
      <trkpt lat="53.609200268983841" lon="9.964904710650444">
        <ele>0.34</ele>
        <time>2021-09-13T14:12:48Z</time>
      </trkpt>
      <trkpt lat="53.609536718577147" lon="9.965092968195677">
        <ele>0.5</ele>
        <time>2021-09-13T14:13:00Z</time>
      </trkpt>
      <trkpt lat="53.609839472919703" lon="9.965153988450766">
        <ele>1.69</ele>
        <time>2021-09-13T14:13:12Z</time>
      </trkpt>
      <trkpt lat="53.60985204577446" lon="9.965141834691167">
        <ele>1.89</ele>
        <time>2021-09-13T14:13:13Z</time>
      </trkpt>
      <trkpt lat="53.609862606972456" lon="9.965125741437078">
        <ele>2.04</ele>
        <time>2021-09-13T14:13:14Z</time>
      </trkpt>
      <trkpt lat="53.609871324151754" lon="9.965103445574641">
        <ele>2.13</ele>
        <time>2021-09-13T14:13:15Z</time>
      </trkpt>
      <trkpt lat="53.609878029674292" lon="9.965082155540586">
        <ele>2.18</ele>
        <time>2021-09-13T14:13:16Z</time>
      </trkpt>
      <trkpt lat="53.609884399920702" lon="9.965058015659452">
        <ele>2.2</ele>
        <time>2021-09-13T14:13:17Z</time>
      </trkpt>
      <trkpt lat="53.609889093786478" lon="9.965030439198017">
        <ele>2.21</ele>
        <time>2021-09-13T14:13:18Z</time>
      </trkpt>
      <trkpt lat="53.609895128756762" lon="9.965000348165631">
        <ele>2.21</ele>
        <time>2021-09-13T14:13:19Z</time>
      </trkpt>
      <trkpt lat="53.609907701611519" lon="9.964971765875816">
        <ele>2.19</ele>
        <time>2021-09-13T14:13:20Z</time>
      </trkpt>
      <trkpt lat="53.609924213960767" lon="9.964949553832412">
        <ele>2.16</ele>
        <time>2021-09-13T14:13:21Z</time>
      </trkpt>
      <trkpt lat="53.60994198359549" lon="9.964934717863798">
        <ele>2.13</ele>
        <time>2021-09-13T14:13:22Z</time>
      </trkpt>
      <trkpt lat="53.609965033829212" lon="9.96491527184844">
        <ele>2.1</ele>
        <time>2021-09-13T14:13:23Z</time>
      </trkpt>
      <trkpt lat="53.609989425167441" lon="9.964893814176321">
        <ele>2.04</ele>
        <time>2021-09-13T14:13:24Z</time>
      </trkpt>
      <trkpt lat="53.610158991068602" lon="9.96486296877265">
        <ele>1.68</ele>
        <time>2021-09-13T14:13:31Z</time>
      </trkpt>
      <trkpt lat="53.61018237657845" lon="9.964895993471146">
        <ele>1.61</ele>
        <time>2021-09-13T14:13:32Z</time>
      </trkpt>
      <trkpt lat="53.610199308022857" lon="9.964932538568974">
        <ele>1.55</ele>
        <time>2021-09-13T14:13:33Z</time>
      </trkpt>
      <trkpt lat="53.610392343252897" lon="9.96527242474258">
        <ele>1</ele>
        <time>2021-09-13T14:13:43Z</time>
      </trkpt>
      <trkpt lat="53.610825855284929" lon="9.965720269829035">
        <ele>0.78</ele>
        <time>2021-09-13T14:13:56Z</time>
      </trkpt>
      <trkpt lat="53.611297002062201" lon="9.966085553169251">
        <ele>0.4</ele>
        <time>2021-09-13T14:14:09Z</time>
      </trkpt>
      <trkpt lat="53.611640324816108" lon="9.966370118781924">
        <ele>0.61</ele>
        <time>2021-09-13T14:14:19Z</time>
      </trkpt>
      <trkpt lat="53.612167043611407" lon="9.966848976910114">
        <ele>1.37</ele>
        <time>2021-09-13T14:14:35Z</time>
      </trkpt>
      <trkpt lat="53.612643387168646" lon="9.967130022123456">
        <ele>1.5</ele>
        <time>2021-09-13T14:14:49Z</time>
      </trkpt>
      <trkpt lat="53.612984949722886" lon="9.96725432574749">
        <ele>1.18</ele>
        <time>2021-09-13T14:15:01Z</time>
      </trkpt>
      <trkpt lat="53.613350484520197" lon="9.967209147289395">
        <ele>0.79</ele>
        <time>2021-09-13T14:15:12Z</time>
      </trkpt>
      <trkpt lat="53.613734040409327" lon="9.967201184481382">
        <ele>0.98</ele>
        <time>2021-09-13T14:15:24Z</time>
      </trkpt>
      <trkpt lat="53.614123463630676" lon="9.967152066528797">
        <ele>1.73</ele>
        <time>2021-09-13T14:15:36Z</time>
      </trkpt>
      <trkpt lat="53.614309122785926" lon="9.967129938304424">
        <ele>3.15</ele>
        <time>2021-09-13T14:15:45Z</time>
      </trkpt>
      <trkpt lat="53.614327143877745" lon="9.967128010466695">
        <ele>3.25</ele>
        <time>2021-09-13T14:15:46Z</time>
      </trkpt>
      <trkpt lat="53.6143449973315" lon="9.967128681018949">
        <ele>3.46</ele>
        <time>2021-09-13T14:15:47Z</time>
      </trkpt>
      <trkpt lat="53.614370310679078" lon="9.967127004638314">
        <ele>3.46</ele>
        <time>2021-09-13T14:15:48Z</time>
      </trkpt>
      <trkpt lat="53.614392187446356" lon="9.967129854485393">
        <ele>3.73</ele>
        <time>2021-09-13T14:15:49Z</time>
      </trkpt>
      <trkpt lat="53.614641800522804" lon="9.96686096303165">
        <ele>4.61</ele>
        <time>2021-09-13T14:16:01Z</time>
      </trkpt>
      <trkpt lat="53.61478865146637" lon="9.966073147952557">
        <ele>3.94</ele>
        <time>2021-09-13T14:16:13Z</time>
      </trkpt>
      <trkpt lat="53.614860232919455" lon="9.965793276205659">
        <ele>3.63</ele>
        <time>2021-09-13T14:16:17Z</time>
      </trkpt>
      <trkpt lat="53.61487565562129" lon="9.965720186010003">
        <ele>3.6</ele>
        <time>2021-09-13T14:16:18Z</time>
      </trkpt>
      <trkpt lat="53.614893928170204" lon="9.96564676053822">
        <ele>3.58</ele>
        <time>2021-09-13T14:16:19Z</time>
      </trkpt>
      <trkpt lat="53.615145469084382" lon="9.964773617684841">
        <ele>3.76</ele>
        <time>2021-09-13T14:16:33Z</time>
      </trkpt>
      <trkpt lat="53.615412684157491" lon="9.963959148153663">
        <ele>4.27</ele>
        <time>2021-09-13T14:16:47Z</time>
      </trkpt>
      <trkpt lat="53.61584703437984" lon="9.963249284774065">
        <ele>4.77</ele>
        <time>2021-09-13T14:17:04Z</time>
      </trkpt>
      <trkpt lat="53.615892799571157" lon="9.963148701936007">
        <ele>5.09</ele>
        <time>2021-09-13T14:17:08Z</time>
      </trkpt>
      <trkpt lat="53.615893134847283" lon="9.963114587590098">
        <ele>5.22</ele>
        <time>2021-09-13T14:17:09Z</time>
      </trkpt>
      <trkpt lat="53.615890201181173" lon="9.963083826005459">
        <ele>5.29</ele>
        <time>2021-09-13T14:17:10Z</time>
      </trkpt>
      <trkpt lat="53.615881148725748" lon="9.963053399696946">
        <ele>5.32</ele>
        <time>2021-09-13T14:17:11Z</time>
      </trkpt>
      <trkpt lat="53.615655591711402" lon="9.962451662868261">
        <ele>5.32</ele>
        <time>2021-09-13T14:17:25Z</time>
      </trkpt>
      <trkpt lat="53.615388879552484" lon="9.961691340431571">
        <ele>4.76</ele>
        <time>2021-09-13T14:17:38Z</time>
      </trkpt>
      <trkpt lat="53.615121496841311" lon="9.961100667715073">
        <ele>4.46</ele>
        <time>2021-09-13T14:17:49Z</time>
      </trkpt>
      <trkpt lat="53.614720003679395" lon="9.960545534268022">
        <ele>4.5</ele>
        <time>2021-09-13T14:18:03Z</time>
      </trkpt>
      <trkpt lat="53.614516742527485" lon="9.960013786330819">
        <ele>4.73</ele>
        <time>2021-09-13T14:18:14Z</time>
      </trkpt>
      <trkpt lat="53.614421272650361" lon="9.959152042865753">
        <ele>4.94</ele>
        <time>2021-09-13T14:18:27Z</time>
      </trkpt>
      <trkpt lat="53.614475168287754" lon="9.957930548116565">
        <ele>4.89</ele>
        <time>2021-09-13T14:18:47Z</time>
      </trkpt>
      <trkpt lat="53.614545073360205" lon="9.956669239327312">
        <ele>5.09</ele>
        <time>2021-09-13T14:19:06Z</time>
      </trkpt>
      <trkpt lat="53.614832740277052" lon="9.956529261544347">
        <ele>5.78</ele>
        <time>2021-09-13T14:19:16Z</time>
      </trkpt>
      <trkpt lat="53.615325093269348" lon="9.95640529319644">
        <ele>6.94</ele>
        <time>2021-09-13T14:19:33Z</time>
      </trkpt>
      <trkpt lat="53.615823481231928" lon="9.956241510808468">
        <ele>8.32</ele>
        <time>2021-09-13T14:19:53Z</time>
      </trkpt>
      <trkpt lat="53.615984162315726" lon="9.955952502787113">
        <ele>9.07</ele>
        <time>2021-09-13T14:20:05Z</time>
      </trkpt>
      <trkpt lat="53.615938983857632" lon="9.955264767631888">
        <ele>9.470000000000001</ele>
        <time>2021-09-13T14:20:20Z</time>
      </trkpt>
      <trkpt lat="53.616077955812216" lon="9.954524310305715">
        <ele>10.460000000000001</ele>
        <time>2021-09-13T14:20:38Z</time>
      </trkpt>
      <trkpt lat="53.616299908608198" lon="9.953915700316429">
        <ele>11.65</ele>
        <time>2021-09-13T14:20:56Z</time>
      </trkpt>
      <trkpt lat="53.616482969373465" lon="9.953417647629976">
        <ele>12.66</ele>
        <time>2021-09-13T14:21:11Z</time>
      </trkpt>
      <trkpt lat="53.616731241345406" lon="9.95278112590313">
        <ele>13.85</ele>
        <time>2021-09-13T14:21:31Z</time>
      </trkpt>
      <trkpt lat="53.616966772824526" lon="9.952138988301158">
        <ele>14.57</ele>
        <time>2021-09-13T14:21:49Z</time>
      </trkpt>
      <trkpt lat="53.617133991792798" lon="9.951604893431068">
        <ele>15.300000000000001</ele>
        <time>2021-09-13T14:22:04Z</time>
      </trkpt>
      <trkpt lat="53.617146061733365" lon="9.951601540669799">
        <ele>15.300000000000001</ele>
        <time>2021-09-13T14:22:05Z</time>
      </trkpt>
      <trkpt lat="53.61742434091866" lon="9.95156642049551">
        <ele>15.56</ele>
        <time>2021-09-13T14:22:18Z</time>
      </trkpt>
      <trkpt lat="53.617775542661548" lon="9.951534401625395">
        <ele>15.85</ele>
        <time>2021-09-13T14:22:32Z</time>
      </trkpt>
      <trkpt lat="53.617921303957701" lon="9.951517386361957">
        <ele>16.030000000000001</ele>
        <time>2021-09-13T14:22:39Z</time>
      </trkpt>
      <trkpt lat="53.618015516549349" lon="9.95148628950119">
        <ele>16.690000000000001</ele>
        <time>2021-09-13T14:22:45Z</time>
      </trkpt>
      <trkpt lat="53.618107466027141" lon="9.951463993638754">
        <ele>16.850000000000001</ele>
        <time>2021-09-13T14:22:54Z</time>
      </trkpt>
      <trkpt lat="53.618143005296588" lon="9.951394004747272">
        <ele>16.800000000000001</ele>
        <time>2021-09-13T14:23:30Z</time>
      </trkpt>
      <trkpt lat="53.618154991418123" lon="9.951368104666472">
        <ele>16.780000000000001</ele>
        <time>2021-09-13T14:23:31Z</time>
      </trkpt>
      <trkpt lat="53.618170162662864" lon="9.951343210414052">
        <ele>16.75</ele>
        <time>2021-09-13T14:23:32Z</time>
      </trkpt>
      <trkpt lat="53.618187932297587" lon="9.951315131038427">
        <ele>16.719999999999999</ele>
        <time>2021-09-13T14:23:33Z</time>
      </trkpt>
      <trkpt lat="53.6184670496732" lon="9.951021429151297">
        <ele>16.73</ele>
        <time>2021-09-13T14:23:46Z</time>
      </trkpt>
      <trkpt lat="53.618806852027774" lon="9.951100889593363">
        <ele>16.649999999999999</ele>
        <time>2021-09-13T14:23:58Z</time>
      </trkpt>
      <trkpt lat="53.619217146188021" lon="9.951236676424742">
        <ele>16.48</ele>
        <time>2021-09-13T14:24:11Z</time>
      </trkpt>
      <trkpt lat="53.619556445628405" lon="9.951335750520229">
        <ele>16.390000000000001</ele>
        <time>2021-09-13T14:24:22Z</time>
      </trkpt>
      <trkpt lat="53.619577819481492" lon="9.951321333646774">
        <ele>16.379999999999999</ele>
        <time>2021-09-13T14:24:23Z</time>
      </trkpt>
      <trkpt lat="53.619605731219053" lon="9.951311443001032">
        <ele>16.379999999999999</ele>
        <time>2021-09-13T14:24:24Z</time>
      </trkpt>
      <trkpt lat="53.619640348479152" lon="9.951312951743603">
        <ele>16.379999999999999</ele>
        <time>2021-09-13T14:24:25Z</time>
      </trkpt>
      <trkpt lat="53.619675552472472" lon="9.951324686408043">
        <ele>16.370000000000001</ele>
        <time>2021-09-13T14:24:26Z</time>
      </trkpt>
      <trkpt lat="53.619709582999349" lon="9.951345222070813">
        <ele>16.359999999999999</ele>
        <time>2021-09-13T14:24:27Z</time>
      </trkpt>
      <trkpt lat="53.61974042840302" lon="9.951368104666472">
        <ele>16.359999999999999</ele>
        <time>2021-09-13T14:24:28Z</time>
      </trkpt>
      <trkpt lat="53.620080649852753" lon="9.951594583690167">
        <ele>16.289999999999999</ele>
        <time>2021-09-13T14:24:41Z</time>
      </trkpt>
      <trkpt lat="53.620412657037377" lon="9.951739171519876">
        <ele>15.83</ele>
        <time>2021-09-13T14:24:55Z</time>
      </trkpt>
      <trkpt lat="53.620671825483441" lon="9.951823074370623">
        <ele>15.75</ele>
        <time>2021-09-13T14:25:07Z</time>
      </trkpt>
      <trkpt lat="53.620806941762567" lon="9.951969590038061">
        <ele>15.609999999999999</ele>
        <time>2021-09-13T14:25:17Z</time>
      </trkpt>
      <trkpt lat="53.621151940897107" lon="9.952136976644397">
        <ele>15.58</ele>
        <time>2021-09-13T14:25:30Z</time>
      </trkpt>
      <trkpt lat="53.621393507346511" lon="9.952236218377948">
        <ele>15.35</ele>
        <time>2021-09-13T14:25:42Z</time>
      </trkpt>
      <trkpt lat="53.621409432962537" lon="9.95224510319531">
        <ele>15.33</ele>
        <time>2021-09-13T14:25:43Z</time>
      </trkpt>
      <trkpt lat="53.621431309729815" lon="9.952257759869099">
        <ele>14.960000000000001</ele>
        <time>2021-09-13T14:25:48Z</time>
      </trkpt>
      <trkpt lat="53.621029565110803" lon="9.952827394008637">
        <ele>19.82</ele>
        <time>2021-09-13T14:58:32Z</time>
      </trkpt>
      <trkpt lat="53.621124783530831" lon="9.952709544450045">
        <ele>19.239999999999998</ele>
        <time>2021-09-13T14:58:39Z</time>
      </trkpt>
      <trkpt lat="53.621633732691407" lon="9.952272931113839">
        <ele>14.359999999999999</ele>
        <time>2021-09-13T15:21:24Z</time>
      </trkpt>
      <trkpt lat="53.621605150401592" lon="9.952265890315175">
        <ele>14.359999999999999</ele>
        <time>2021-09-13T15:21:27Z</time>
      </trkpt>
      <trkpt lat="53.621591906994581" lon="9.952265555039048">
        <ele>14.359999999999999</ele>
        <time>2021-09-13T15:21:28Z</time>
      </trkpt>
      <trkpt lat="53.621504148468375" lon="9.952281396836042">
        <ele>14.77</ele>
        <time>2021-09-13T15:21:39Z</time>
      </trkpt>
      <trkpt lat="53.621546728536487" lon="9.952132618054748">
        <ele>14.85</ele>
        <time>2021-09-13T15:24:00Z</time>
      </trkpt>
      <trkpt lat="53.621562067419291" lon="9.952120129019022">
        <ele>14.85</ele>
        <time>2021-09-13T15:24:01Z</time>
      </trkpt>
      <trkpt lat="53.621574807912111" lon="9.952111076563597">
        <ele>14.85</ele>
        <time>2021-09-13T15:24:02Z</time>
      </trkpt>
      <trkpt lat="53.621588721871376" lon="9.952111579477787">
        <ele>14.85</ele>
        <time>2021-09-13T15:24:03Z</time>
      </trkpt>
      <trkpt lat="53.621835485100746" lon="9.952227082103491">
        <ele>14.449999999999999</ele>
        <time>2021-09-13T15:24:16Z</time>
      </trkpt>
      <trkpt lat="53.622179729864001" lon="9.952032370492816">
        <ele>13.94</ele>
        <time>2021-09-13T15:24:29Z</time>
      </trkpt>
      <trkpt lat="53.622549036517739" lon="9.951609335839748">
        <ele>13.91</ele>
        <time>2021-09-13T15:24:46Z</time>
      </trkpt>
      <trkpt lat="53.622795380651951" lon="9.951151600107551">
        <ele>13.359999999999999</ele>
        <time>2021-09-13T15:24:57Z</time>
      </trkpt>
      <trkpt lat="53.62319553270936" lon="9.950504181906581">
        <ele>12.68</ele>
        <time>2021-09-13T15:25:12Z</time>
      </trkpt>
      <trkpt lat="53.623488647863269" lon="9.950016858056188">
        <ele>11.949999999999999</ele>
        <time>2021-09-13T15:25:28Z</time>
      </trkpt>
      <trkpt lat="53.623489821329713" lon="9.949999172240496">
        <ele>11.84</ele>
        <time>2021-09-13T15:25:33Z</time>
      </trkpt>
      <trkpt lat="53.623530808836222" lon="9.949963297694922">
        <ele>11.74</ele>
        <time>2021-09-13T15:25:50Z</time>
      </trkpt>
      <trkpt lat="53.623551093041897" lon="9.949948377907276">
        <ele>11.74</ele>
        <time>2021-09-13T15:25:51Z</time>
      </trkpt>
      <trkpt lat="53.623573137447238" lon="9.94992314837873">
        <ele>11.74</ele>
        <time>2021-09-13T15:25:52Z</time>
      </trkpt>
      <trkpt lat="53.62359425984323" lon="9.949898421764374">
        <ele>11.74</ele>
        <time>2021-09-13T15:25:53Z</time>
      </trkpt>
      <trkpt lat="53.623952670022845" lon="9.949368182569742">
        <ele>11.779999999999999</ele>
        <time>2021-09-13T15:26:07Z</time>
      </trkpt>
      <trkpt lat="53.624420631676912" lon="9.948621103540063">
        <ele>11.34</ele>
        <time>2021-09-13T15:26:22Z</time>
      </trkpt>
      <trkpt lat="53.62461400218308" lon="9.948334190994501">
        <ele>11.26</ele>
        <time>2021-09-13T15:26:28Z</time>
      </trkpt>
      <trkpt lat="53.624645853415132" lon="9.948282726109028">
        <ele>11.24</ele>
        <time>2021-09-13T15:26:29Z</time>
      </trkpt>
      <trkpt lat="53.624676950275898" lon="9.948230758309364">
        <ele>11.220000000000001</ele>
        <time>2021-09-13T15:26:30Z</time>
      </trkpt>
      <trkpt lat="53.625345909968019" lon="9.947244711220264">
        <ele>10.83</ele>
        <time>2021-09-13T15:26:51Z</time>
      </trkpt>
      <trkpt lat="53.625847063958645" lon="9.946554629132152">
        <ele>10.59</ele>
        <time>2021-09-13T15:27:07Z</time>
      </trkpt>
      <trkpt lat="53.626382919028401" lon="9.945694142952561">
        <ele>9.890000000000001</ele>
        <time>2021-09-13T15:27:24Z</time>
      </trkpt>
      <trkpt lat="53.626773683354259" lon="9.944831812754273">
        <ele>9.119999999999999</ele>
        <time>2021-09-13T15:27:38Z</time>
      </trkpt>
      <trkpt lat="53.626823471859097" lon="9.944710358977318">
        <ele>9.01</ele>
        <time>2021-09-13T15:27:40Z</time>
      </trkpt>
      <trkpt lat="53.626845180988312" lon="9.944650512188673">
        <ele>8.949999999999999</ele>
        <time>2021-09-13T15:27:41Z</time>
      </trkpt>
      <trkpt lat="53.626866135746241" lon="9.944596365094185">
        <ele>8.91</ele>
        <time>2021-09-13T15:27:42Z</time>
      </trkpt>
      <trkpt lat="53.626886671409011" lon="9.944540541619062">
        <ele>8.869999999999999</ele>
        <time>2021-09-13T15:27:43Z</time>
      </trkpt>
      <trkpt lat="53.626908380538225" lon="9.944490417838097">
        <ele>8.82</ele>
        <time>2021-09-13T15:27:44Z</time>
      </trkpt>
      <trkpt lat="53.626930173486471" lon="9.944448340684176">
        <ele>8.779999999999999</ele>
        <time>2021-09-13T15:27:45Z</time>
      </trkpt>
      <trkpt lat="53.626948110759258" lon="9.944408442825079">
        <ele>8.75</ele>
        <time>2021-09-13T15:27:46Z</time>
      </trkpt>
      <trkpt lat="53.626961018890142" lon="9.944368209689856">
        <ele>8.710000000000001</ele>
        <time>2021-09-13T15:27:47Z</time>
      </trkpt>
      <trkpt lat="53.626974681392312" lon="9.944325378164649">
        <ele>8.66</ele>
        <time>2021-09-13T15:27:48Z</time>
      </trkpt>
      <trkpt lat="53.627151371911168" lon="9.943825230002403">
        <ele>9.09</ele>
        <time>2021-09-13T15:28:02Z</time>
      </trkpt>
      <trkpt lat="53.627168135717511" lon="9.943810142576695">
        <ele>9.119999999999999</ele>
        <time>2021-09-13T15:28:03Z</time>
      </trkpt>
      <trkpt lat="53.627186492085457" lon="9.943802682682872">
        <ele>9.130000000000001</ele>
        <time>2021-09-13T15:28:04Z</time>
      </trkpt>
      <trkpt lat="53.627249859273434" lon="9.943760270252824">
        <ele>8.75</ele>
        <time>2021-09-13T15:28:11Z</time>
      </trkpt>
      <trkpt lat="53.627067133784294" lon="9.943024339154363">
        <ele>8.869999999999999</ele>
        <time>2021-09-13T15:34:08Z</time>
      </trkpt>
      <trkpt lat="53.627058751881123" lon="9.942956194281578">
        <ele>8.869999999999999</ele>
        <time>2021-09-13T15:34:14Z</time>
      </trkpt>
    </trkseg>
  </trk>

  <trk>
    <name>Montagsradler Volksdorf_2021-09-13</name>
    <extensions>
      <gpxx:TrackExtension xmlns:gpxx="http://www.garmin.com/xmlschemas/GpxExtensions/v3">
        <gpxx:DisplayColor>Cyan</gpxx:DisplayColor>
      </gpxx:TrackExtension>
    </extensions>
    <trkseg>
      <trkpt lat="53.627315573394299" lon="9.943707548081875">
        <ele>13.800000000000001</ele>
        <time>2021-09-13T06:37:57Z</time>
      </trkpt>
      <trkpt lat="53.627308448776603" lon="9.943707631900907">
        <ele>14.4</ele>
        <time>2021-09-13T06:38:49Z</time>
      </trkpt>
      <trkpt lat="53.627310376614332" lon="9.943777536973357">
        <ele>14</ele>
        <time>2021-09-13T06:39:08Z</time>
      </trkpt>
      <trkpt lat="53.627429734915495" lon="9.944008123129606">
        <ele>13.6</ele>
        <time>2021-09-13T06:39:19Z</time>
      </trkpt>
      <trkpt lat="53.62741481512785" lon="9.944079788401723">
        <ele>13.5</ele>
        <time>2021-09-13T06:39:21Z</time>
      </trkpt>
      <trkpt lat="53.627398470416665" lon="9.944101413711906">
        <ele>13.5</ele>
        <time>2021-09-13T06:39:22Z</time>
      </trkpt>
      <trkpt lat="53.627379108220339" lon="9.944115662947297">
        <ele>13.4</ele>
        <time>2021-09-13T06:39:23Z</time>
      </trkpt>
      <trkpt lat="53.627355135977268" lon="9.944131085649133">
        <ele>13.4</ele>
        <time>2021-09-13T06:39:24Z</time>
      </trkpt>
      <trkpt lat="53.627328481525183" lon="9.944152040407062">
        <ele>13.300000000000001</ele>
        <time>2021-09-13T06:39:25Z</time>
      </trkpt>
      <trkpt lat="53.627299899235368" lon="9.944176599383354">
        <ele>13.300000000000001</ele>
        <time>2021-09-13T06:39:26Z</time>
      </trkpt>
      <trkpt lat="53.62692279741168" lon="9.944555964320898">
        <ele>13.300000000000001</ele>
        <time>2021-09-13T06:39:39Z</time>
      </trkpt>
      <trkpt lat="53.626758260652423" lon="9.94495770893991">
        <ele>13.6</ele>
        <time>2021-09-13T06:39:47Z</time>
      </trkpt>
      <trkpt lat="53.626729594543576" lon="9.945010598748922">
        <ele>13.6</ele>
        <time>2021-09-13T06:39:48Z</time>
      </trkpt>
      <trkpt lat="53.626229865476489" lon="9.945999328047037">
        <ele>15.199999999999999</ele>
        <time>2021-09-13T06:40:07Z</time>
      </trkpt>
      <trkpt lat="53.625858211889863" lon="9.946565693244338">
        <ele>15.800000000000001</ele>
        <time>2021-09-13T06:40:21Z</time>
      </trkpt>
      <trkpt lat="53.625472309067845" lon="9.947095597162843">
        <ele>15.9</ele>
        <time>2021-09-13T06:40:34Z</time>
      </trkpt>
      <trkpt lat="53.62489546649158" lon="9.947875197976828">
        <ele>16.100000000000001</ele>
        <time>2021-09-13T06:40:53Z</time>
      </trkpt>
      <trkpt lat="53.624582905322313" lon="9.94836587458849">
        <ele>16.399999999999999</ele>
        <time>2021-09-13T06:41:05Z</time>
      </trkpt>
      <trkpt lat="53.624211000278592" lon="9.9489542003721">
        <ele>16.399999999999999</ele>
        <time>2021-09-13T06:41:18Z</time>
      </trkpt>
      <trkpt lat="53.623930206522346" lon="9.949316214770079">
        <ele>16.5</ele>
        <time>2021-09-13T06:41:28Z</time>
      </trkpt>
      <trkpt lat="53.623840268701315" lon="9.949461054056883">
        <ele>16.699999999999999</ele>
        <time>2021-09-13T06:41:32Z</time>
      </trkpt>
      <trkpt lat="53.623807914555073" lon="9.949482176452875">
        <ele>16.699999999999999</ele>
        <time>2021-09-13T06:41:33Z</time>
      </trkpt>
      <trkpt lat="53.623773129656911" lon="9.949491396546364">
        <ele>16.699999999999999</ele>
        <time>2021-09-13T06:41:34Z</time>
      </trkpt>
      <trkpt lat="53.623738512396812" lon="9.949486199766398">
        <ele>16.800000000000001</ele>
        <time>2021-09-13T06:41:35Z</time>
      </trkpt>
      <trkpt lat="53.623706409707665" lon="9.949469184502959">
        <ele>16.800000000000001</ele>
        <time>2021-09-13T06:41:36Z</time>
      </trkpt>
      <trkpt lat="53.623679000884295" lon="9.949444876983762">
        <ele>16.800000000000001</ele>
        <time>2021-09-13T06:41:37Z</time>
      </trkpt>
      <trkpt lat="53.623661063611507" lon="9.949408415704966">
        <ele>16.800000000000001</ele>
        <time>2021-09-13T06:41:38Z</time>
      </trkpt>
      <trkpt lat="53.623638097196817" lon="9.949369272217155">
        <ele>16.899999999999999</ele>
        <time>2021-09-13T06:41:39Z</time>
      </trkpt>
      <trkpt lat="53.623614627867937" lon="9.949331469833851">
        <ele>16.899999999999999</ele>
        <time>2021-09-13T06:41:40Z</time>
      </trkpt>
      <trkpt lat="53.623318579047918" lon="9.948927378281951">
        <ele>17.800000000000001</ele>
        <time>2021-09-13T06:41:53Z</time>
      </trkpt>
      <trkpt lat="53.623033594340086" lon="9.948685392737389">
        <ele>18.5</ele>
        <time>2021-09-13T06:42:05Z</time>
      </trkpt>
      <trkpt lat="53.622682392597198" lon="9.948415076360107">
        <ele>19.300000000000001</ele>
        <time>2021-09-13T06:42:19Z</time>
      </trkpt>
      <trkpt lat="53.622639812529087" lon="9.948396468535066">
        <ele>19.399999999999999</ele>
        <time>2021-09-13T06:42:21Z</time>
      </trkpt>
      <trkpt lat="53.622618857771158" lon="9.948397725820541">
        <ele>19.5</ele>
        <time>2021-09-13T06:42:22Z</time>
      </trkpt>
      <trkpt lat="53.622597316280007" lon="9.948402252048254">
        <ele>19.600000000000001</ele>
        <time>2021-09-13T06:42:27Z</time>
      </trkpt>
      <trkpt lat="53.622528836131096" lon="9.948452459648252">
        <ele>19.5</ele>
        <time>2021-09-13T06:42:54Z</time>
      </trkpt>
      <trkpt lat="53.622518191114068" lon="9.948478192090988">
        <ele>19.5</ele>
        <time>2021-09-13T06:42:55Z</time>
      </trkpt>
      <trkpt lat="53.622383577749133" lon="9.94887113571167">
        <ele>20.199999999999999</ele>
        <time>2021-09-13T06:43:07Z</time>
      </trkpt>
      <trkpt lat="53.622210491448641" lon="9.94926106184721">
        <ele>19.899999999999999</ele>
        <time>2021-09-13T06:43:17Z</time>
      </trkpt>
      <trkpt lat="53.622172605246305" lon="9.949309844523668">
        <ele>19.800000000000001</ele>
        <time>2021-09-13T06:43:19Z</time>
      </trkpt>
      <trkpt lat="53.622150393202901" lon="9.949311185628176">
        <ele>19.800000000000001</ele>
        <time>2021-09-13T06:43:20Z</time>
      </trkpt>
      <trkpt lat="53.622127175331116" lon="9.949314957484603">
        <ele>19.800000000000001</ele>
        <time>2021-09-13T06:43:21Z</time>
      </trkpt>
      <trkpt lat="53.622101610526443" lon="9.949313113465905">
        <ele>19.800000000000001</ele>
        <time>2021-09-13T06:43:22Z</time>
      </trkpt>
      <trkpt lat="53.622074369341135" lon="9.94929869659245">
        <ele>19.800000000000001</ele>
        <time>2021-09-13T06:43:23Z</time>
      </trkpt>
      <trkpt lat="53.622049642726779" lon="9.949276819825172">
        <ele>19.899999999999999</ele>
        <time>2021-09-13T06:43:24Z</time>
      </trkpt>
      <trkpt lat="53.621666422113776" lon="9.949163999408484">
        <ele>20.800000000000001</ele>
        <time>2021-09-13T06:43:37Z</time>
      </trkpt>
      <trkpt lat="53.621296444907784" lon="9.949101051315665">
        <ele>21.399999999999999</ele>
        <time>2021-09-13T06:43:51Z</time>
      </trkpt>
      <trkpt lat="53.621010789647698" lon="9.9491614010185">
        <ele>21.699999999999999</ele>
        <time>2021-09-13T06:44:03Z</time>
      </trkpt>
      <trkpt lat="53.620671574026346" lon="9.949121419340372">
        <ele>21.699999999999999</ele>
        <time>2021-09-13T06:44:14Z</time>
      </trkpt>
      <trkpt lat="53.620283994823694" lon="9.949080431833863">
        <ele>22.300000000000001</ele>
        <time>2021-09-13T06:44:26Z</time>
      </trkpt>
      <trkpt lat="53.619746128097177" lon="9.949109768494964">
        <ele>22.399999999999999</ele>
        <time>2021-09-13T06:44:40Z</time>
      </trkpt>
      <trkpt lat="53.619310017675161" lon="9.949102392420173">
        <ele>22.5</ele>
        <time>2021-09-13T06:44:51Z</time>
      </trkpt>
      <trkpt lat="53.618755387142301" lon="9.949024524539709">
        <ele>22.199999999999999</ele>
        <time>2021-09-13T06:45:05Z</time>
      </trkpt>
      <trkpt lat="53.618414076045156" lon="9.949039947241545">
        <ele>22.100000000000001</ele>
        <time>2021-09-13T06:45:15Z</time>
      </trkpt>
      <trkpt lat="53.618396557867527" lon="9.949071379378438">
        <ele>22.100000000000001</ele>
        <time>2021-09-13T06:45:16Z</time>
      </trkpt>
      <trkpt lat="53.618157925084233" lon="9.949831953272224">
        <ele>22.399999999999999</ele>
        <time>2021-09-13T06:45:32Z</time>
      </trkpt>
      <trkpt lat="53.618094054982066" lon="9.950247863307595">
        <ele>22</ele>
        <time>2021-09-13T06:45:40Z</time>
      </trkpt>
      <trkpt lat="53.618070920929313" lon="9.950269153341651">
        <ele>21.899999999999999</ele>
        <time>2021-09-13T06:45:41Z</time>
      </trkpt>
      <trkpt lat="53.618044769391418" lon="9.950269991531968">
        <ele>21.800000000000001</ele>
        <time>2021-09-13T06:45:42Z</time>
      </trkpt>
      <trkpt lat="53.618024149909616" lon="9.950251467525959">
        <ele>21.699999999999999</ele>
        <time>2021-09-13T06:45:43Z</time>
      </trkpt>
      <trkpt lat="53.618008056655526" lon="9.950225232169032">
        <ele>21.699999999999999</ele>
        <time>2021-09-13T06:45:44Z</time>
      </trkpt>
      <trkpt lat="53.617996154353023" lon="9.950201343744993">
        <ele>21.600000000000001</ele>
        <time>2021-09-13T06:45:45Z</time>
      </trkpt>
      <trkpt lat="53.617987437173724" lon="9.950182233005762">
        <ele>21.600000000000001</ele>
        <time>2021-09-13T06:45:46Z</time>
      </trkpt>
      <trkpt lat="53.617957346141338" lon="9.950146107003093">
        <ele>21.600000000000001</ele>
        <time>2021-09-13T06:45:51Z</time>
      </trkpt>
      <trkpt lat="53.617946030572057" lon="9.950130600482225">
        <ele>21.600000000000001</ele>
        <time>2021-09-13T06:45:52Z</time>
      </trkpt>
      <trkpt lat="53.617932116612792" lon="9.950107634067535">
        <ele>21.5</ele>
        <time>2021-09-13T06:45:53Z</time>
      </trkpt>
      <trkpt lat="53.617760203778744" lon="9.949682001024485">
        <ele>21.199999999999999</ele>
        <time>2021-09-13T06:46:05Z</time>
      </trkpt>
      <trkpt lat="53.61750204116106" lon="9.949424425140023">
        <ele>21.300000000000001</ele>
        <time>2021-09-13T06:46:17Z</time>
      </trkpt>
      <trkpt lat="53.617444708943367" lon="9.949363740161061">
        <ele>21.399999999999999</ele>
        <time>2021-09-13T06:46:24Z</time>
      </trkpt>
      <trkpt lat="53.617457868531346" lon="9.949396261945367">
        <ele>21.399999999999999</ele>
        <time>2021-09-13T07:08:53Z</time>
      </trkpt>
      <trkpt lat="53.617732375860214" lon="9.949676133692265">
        <ele>19.199999999999999</ele>
        <time>2021-09-13T07:09:08Z</time>
      </trkpt>
      <trkpt lat="53.617784343659878" lon="9.949755594134331">
        <ele>19.100000000000001</ele>
        <time>2021-09-13T07:09:12Z</time>
      </trkpt>
      <trkpt lat="53.617785098031163" lon="9.949778392910957">
        <ele>19.100000000000001</ele>
        <time>2021-09-13T07:09:13Z</time>
      </trkpt>
      <trkpt lat="53.617780236527324" lon="9.949796497821808">
        <ele>19</ele>
        <time>2021-09-13T07:09:17Z</time>
      </trkpt>
      <trkpt lat="53.617780320346355" lon="9.949874617159367">
        <ele>18.899999999999999</ele>
        <time>2021-09-13T07:09:56Z</time>
      </trkpt>
      <trkpt lat="53.617790210992098" lon="9.949898840859532">
        <ele>18.899999999999999</ele>
        <time>2021-09-13T07:09:57Z</time>
      </trkpt>
      <trkpt lat="53.61780202947557" lon="9.949928680434823">
        <ele>18.899999999999999</ele>
        <time>2021-09-13T07:09:58Z</time>
      </trkpt>
      <trkpt lat="53.617939911782742" lon="9.950214754790068">
        <ele>19.199999999999999</ele>
        <time>2021-09-13T07:10:09Z</time>
      </trkpt>
      <trkpt lat="53.617932703346014" lon="9.950234619900584">
        <ele>19.199999999999999</ele>
        <time>2021-09-13T07:10:10Z</time>
      </trkpt>
      <trkpt lat="53.617907138541341" lon="9.950266135856509">
        <ele>19.199999999999999</ele>
        <time>2021-09-13T07:10:16Z</time>
      </trkpt>
      <trkpt lat="53.617854584008455" lon="9.950341237708926">
        <ele>18.800000000000001</ele>
        <time>2021-09-13T07:10:30Z</time>
      </trkpt>
      <trkpt lat="53.617836982011795" lon="9.950373005121946">
        <ele>18.800000000000001</ele>
        <time>2021-09-13T07:10:31Z</time>
      </trkpt>
      <trkpt lat="53.61766573973" lon="9.950680453330278">
        <ele>18.5</ele>
        <time>2021-09-13T07:10:40Z</time>
      </trkpt>
      <trkpt lat="53.617675546556711" lon="9.950717333704233">
        <ele>18.5</ele>
        <time>2021-09-13T07:10:41Z</time>
      </trkpt>
      <trkpt lat="53.617695495486259" lon="9.950740048661828">
        <ele>18.399999999999999</ele>
        <time>2021-09-13T07:10:42Z</time>
      </trkpt>
      <trkpt lat="53.617719886824489" lon="9.950754381716251">
        <ele>18.399999999999999</ele>
        <time>2021-09-13T07:10:43Z</time>
      </trkpt>
      <trkpt lat="53.617745619267225" lon="9.950764188542962">
        <ele>18.399999999999999</ele>
        <time>2021-09-13T07:10:44Z</time>
      </trkpt>
      <trkpt lat="53.617908144369721" lon="9.951139530166984">
        <ele>18.800000000000001</ele>
        <time>2021-09-13T07:10:55Z</time>
      </trkpt>
      <trkpt lat="53.618009984493256" lon="9.951771693304181">
        <ele>18.600000000000001</ele>
        <time>2021-09-13T07:11:08Z</time>
      </trkpt>
      <trkpt lat="53.618159936740994" lon="9.952186597511172">
        <ele>18.300000000000001</ele>
        <time>2021-09-13T07:11:20Z</time>
      </trkpt>
      <trkpt lat="53.618161529302597" lon="9.952188860625029">
        <ele>18.300000000000001</ele>
        <time>2021-09-13T07:11:22Z</time>
      </trkpt>
      <trkpt lat="53.61820176243782" lon="9.952295478433371">
        <ele>18.600000000000001</ele>
        <time>2021-09-13T07:12:04Z</time>
      </trkpt>
      <trkpt lat="53.618210144340992" lon="9.952323054894805">
        <ele>18.600000000000001</ele>
        <time>2021-09-13T07:12:05Z</time>
      </trkpt>
      <trkpt lat="53.618216346949339" lon="9.952353062108159">
        <ele>18.5</ele>
        <time>2021-09-13T07:12:06Z</time>
      </trkpt>
      <trkpt lat="53.618218023329973" lon="9.952380638569593">
        <ele>18.199999999999999</ele>
        <time>2021-09-13T07:12:07Z</time>
      </trkpt>
      <trkpt lat="53.618218945339322" lon="9.952404778450728">
        <ele>17.899999999999999</ele>
        <time>2021-09-13T07:12:11Z</time>
      </trkpt>
      <trkpt lat="53.618253730237484" lon="9.952597478404641">
        <ele>18.100000000000001</ele>
        <time>2021-09-13T07:19:01Z</time>
      </trkpt>
      <trkpt lat="53.618260184302926" lon="9.952625222504139">
        <ele>18.100000000000001</ele>
        <time>2021-09-13T07:19:02Z</time>
      </trkpt>
      <trkpt lat="53.618273427709937" lon="9.952661851420999">
        <ele>18.100000000000001</ele>
        <time>2021-09-13T07:19:03Z</time>
      </trkpt>
      <trkpt lat="53.618400329723954" lon="9.953029900789261">
        <ele>16.800000000000001</ele>
        <time>2021-09-13T07:19:12Z</time>
      </trkpt>
      <trkpt lat="53.618419775739312" lon="9.953077845275402">
        <ele>16.800000000000001</ele>
        <time>2021-09-13T07:19:13Z</time>
      </trkpt>
      <trkpt lat="53.618659749627113" lon="9.953512279316783">
        <ele>16.399999999999999</ele>
        <time>2021-09-13T07:19:22Z</time>
      </trkpt>
      <trkpt lat="53.618689505383372" lon="9.953560307621956">
        <ele>16.300000000000001</ele>
        <time>2021-09-13T07:19:23Z</time>
      </trkpt>
      <trkpt lat="53.61872018314898" lon="9.953609677031636">
        <ele>16.300000000000001</ele>
        <time>2021-09-13T07:19:24Z</time>
      </trkpt>
      <trkpt lat="53.61936860717833" lon="9.954231781885028">
        <ele>15.5</ele>
        <time>2021-09-13T07:19:42Z</time>
      </trkpt>
      <trkpt lat="53.619488216936588" lon="9.954314008355141">
        <ele>15.4</ele>
        <time>2021-09-13T07:19:45Z</time>
      </trkpt>
      <trkpt lat="53.620222471654415" lon="9.954694379121065">
        <ele>15.300000000000001</ele>
        <time>2021-09-13T07:20:03Z</time>
      </trkpt>
      <trkpt lat="53.620249377563596" lon="9.954747017472982">
        <ele>15.300000000000001</ele>
        <time>2021-09-13T07:20:04Z</time>
      </trkpt>
      <trkpt lat="53.620262537151575" lon="9.954810384660959">
        <ele>15.300000000000001</ele>
        <time>2021-09-13T07:20:05Z</time>
      </trkpt>
      <trkpt lat="53.620263459160924" lon="9.954876685515046">
        <ele>15.199999999999999</ele>
        <time>2021-09-13T07:20:06Z</time>
      </trkpt>
      <trkpt lat="53.62025692127645" lon="9.954945836216211">
        <ele>15.199999999999999</ele>
        <time>2021-09-13T07:20:07Z</time>
      </trkpt>
      <trkpt lat="53.620247114449739" lon="9.955016663298011">
        <ele>15.1</ele>
        <time>2021-09-13T07:20:08Z</time>
      </trkpt>
      <trkpt lat="53.620237307623029" lon="9.955084305256605">
        <ele>15.1</ele>
        <time>2021-09-13T07:20:09Z</time>
      </trkpt>
      <trkpt lat="53.620231272652745" lon="9.955148426815867">
        <ele>15.1</ele>
        <time>2021-09-13T07:20:10Z</time>
      </trkpt>
      <trkpt lat="53.62022565677762" lon="9.955213302746415">
        <ele>15</ele>
        <time>2021-09-13T07:20:11Z</time>
      </trkpt>
      <trkpt lat="53.62012691795826" lon="9.956414848566055">
        <ele>13.9</ele>
        <time>2021-09-13T07:20:26Z</time>
      </trkpt>
      <trkpt lat="53.620219537988305" lon="9.957905737683177">
        <ele>12.1</ele>
        <time>2021-09-13T07:20:43Z</time>
      </trkpt>
      <trkpt lat="53.62045775167644" lon="9.95927601121366">
        <ele>11</ele>
        <time>2021-09-13T07:21:00Z</time>
      </trkpt>
      <trkpt lat="53.620453476905823" lon="9.959341138601303">
        <ele>10.9</ele>
        <time>2021-09-13T07:21:01Z</time>
      </trkpt>
      <trkpt lat="53.620432689785957" lon="9.95939520187676">
        <ele>10.9</ele>
        <time>2021-09-13T07:21:02Z</time>
      </trkpt>
      <trkpt lat="53.620401006191969" lon="9.959436440840364">
        <ele>10.800000000000001</ele>
        <time>2021-09-13T07:21:03Z</time>
      </trkpt>
      <trkpt lat="53.620364544913173" lon="9.959472315385938">
        <ele>10.800000000000001</ele>
        <time>2021-09-13T07:21:04Z</time>
      </trkpt>
      <trkpt lat="53.62032875418663" lon="9.959503328427672">
        <ele>10.699999999999999</ele>
        <time>2021-09-13T07:21:05Z</time>
      </trkpt>
      <trkpt lat="53.619664404541254" lon="9.960132222622633">
        <ele>10.300000000000001</ele>
        <time>2021-09-13T07:21:22Z</time>
      </trkpt>
      <trkpt lat="53.619541190564632" lon="9.960270104929805">
        <ele>10.199999999999999</ele>
        <time>2021-09-13T07:21:27Z</time>
      </trkpt>
      <trkpt lat="53.619538173079491" lon="9.960284354165196">
        <ele>10.199999999999999</ele>
        <time>2021-09-13T07:21:28Z</time>
      </trkpt>
      <trkpt lat="53.619538508355618" lon="9.960300531238318">
        <ele>10.1</ele>
        <time>2021-09-13T07:21:29Z</time>
      </trkpt>
      <trkpt lat="53.619540520012379" lon="9.960318887606263">
        <ele>10.1</ele>
        <time>2021-09-13T07:21:30Z</time>
      </trkpt>
      <trkpt lat="53.619545381516218" lon="9.960339171811938">
        <ele>10.1</ele>
        <time>2021-09-13T07:21:31Z</time>
      </trkpt>
      <trkpt lat="53.619552338495851" lon="9.960360378026962">
        <ele>9.9</ele>
        <time>2021-09-13T07:21:32Z</time>
      </trkpt>
      <trkpt lat="53.619645461440086" lon="9.960865471512079">
        <ele>9</ele>
        <time>2021-09-13T07:21:44Z</time>
      </trkpt>
      <trkpt lat="53.619770687073469" lon="9.96141666546464">
        <ele>8.4</ele>
        <time>2021-09-13T07:21:54Z</time>
      </trkpt>
      <trkpt lat="53.61977269873023" lon="9.96147383004427">
        <ele>8.4</ele>
        <time>2021-09-13T07:21:55Z</time>
      </trkpt>
      <trkpt lat="53.619767250493169" lon="9.961530575528741">
        <ele>8.4</ele>
        <time>2021-09-13T07:21:56Z</time>
      </trkpt>
      <trkpt lat="53.619752917438745" lon="9.961582962423563">
        <ele>8.300000000000001</ele>
        <time>2021-09-13T07:21:57Z</time>
      </trkpt>
      <trkpt lat="53.619733722880483" lon="9.961638785898686">
        <ele>8.300000000000001</ele>
        <time>2021-09-13T07:21:58Z</time>
      </trkpt>
      <trkpt lat="53.619735399261117" lon="9.962213700637221">
        <ele>7.8</ele>
        <time>2021-09-13T07:22:09Z</time>
      </trkpt>
      <trkpt lat="53.620120966807008" lon="9.96305943466723">
        <ele>7.5</ele>
        <time>2021-09-13T07:22:27Z</time>
      </trkpt>
      <trkpt lat="53.620644751936197" lon="9.964110190048814">
        <ele>6.7</ele>
        <time>2021-09-13T07:22:46Z</time>
      </trkpt>
      <trkpt lat="53.621095446869731" lon="9.964936226606369">
        <ele>6.3</ele>
        <time>2021-09-13T07:23:02Z</time>
      </trkpt>
      <trkpt lat="53.621628284454346" lon="9.966103071346879">
        <ele>5.4</ele>
        <time>2021-09-13T07:23:24Z</time>
      </trkpt>
      <trkpt lat="53.622134383767843" lon="9.967207303270698">
        <ele>5.2</ele>
        <time>2021-09-13T07:23:45Z</time>
      </trkpt>
      <trkpt lat="53.622563704848289" lon="9.967565713450313">
        <ele>5</ele>
        <time>2021-09-13T07:23:58Z</time>
      </trkpt>
      <trkpt lat="53.622886072844267" lon="9.968282114714384">
        <ele>4.7</ele>
        <time>2021-09-13T07:24:12Z</time>
      </trkpt>
      <trkpt lat="53.623153287917376" lon="9.96902123093605">
        <ele>4.3</ele>
        <time>2021-09-13T07:24:25Z</time>
      </trkpt>
      <trkpt lat="53.623683610931039" lon="9.970171898603439">
        <ele>4.8</ele>
        <time>2021-09-13T07:24:47Z</time>
      </trkpt>
      <trkpt lat="53.623827276751399" lon="9.97035713866353">
        <ele>4.8</ele>
        <time>2021-09-13T07:24:52Z</time>
      </trkpt>
      <trkpt lat="53.623834149912" lon="9.970411704853177">
        <ele>4.8</ele>
        <time>2021-09-13T07:24:53Z</time>
      </trkpt>
      <trkpt lat="53.623849069699645" lon="9.970467863604426">
        <ele>4.8</ele>
        <time>2021-09-13T07:24:54Z</time>
      </trkpt>
      <trkpt lat="53.623870862647891" lon="9.970521591603756">
        <ele>4.7</ele>
        <time>2021-09-13T07:24:55Z</time>
      </trkpt>
      <trkpt lat="53.62389525398612" lon="9.970574146136642">
        <ele>4.6</ele>
        <time>2021-09-13T07:24:56Z</time>
      </trkpt>
      <trkpt lat="53.624329520389438" lon="9.970999862998724">
        <ele>4.5</ele>
        <time>2021-09-13T07:25:10Z</time>
      </trkpt>
      <trkpt lat="53.624695977196097" lon="9.971321979537606">
        <ele>4.1</ele>
        <time>2021-09-13T07:25:22Z</time>
      </trkpt>
      <trkpt lat="53.625029325485229" lon="9.972001919522882">
        <ele>3.9</ele>
        <time>2021-09-13T07:25:36Z</time>
      </trkpt>
      <trkpt lat="53.625280363485217" lon="9.972514472901821">
        <ele>4.3</ele>
        <time>2021-09-13T07:25:48Z</time>
      </trkpt>
      <trkpt lat="53.625648412853479" lon="9.973330534994602">
        <ele>4.6</ele>
        <time>2021-09-13T07:26:04Z</time>
      </trkpt>
      <trkpt lat="53.625996597111225" lon="9.974308116361499">
        <ele>4.7</ele>
        <time>2021-09-13T07:26:22Z</time>
      </trkpt>
      <trkpt lat="53.626284264028072" lon="9.975168770179153">
        <ele>5.4</ele>
        <time>2021-09-13T07:26:38Z</time>
      </trkpt>
      <trkpt lat="53.626353582367301" lon="9.975345209240913">
        <ele>5.4</ele>
        <time>2021-09-13T07:26:46Z</time>
      </trkpt>
      <trkpt lat="53.626390546560287" lon="9.975471273064613">
        <ele>5.2</ele>
        <time>2021-09-13T07:27:07Z</time>
      </trkpt>
      <trkpt lat="53.626396330073476" lon="9.975493904203177">
        <ele>5.2</ele>
        <time>2021-09-13T07:27:08Z</time>
      </trkpt>
      <trkpt lat="53.626404460519552" lon="9.975519804283977">
        <ele>5.2</ele>
        <time>2021-09-13T07:27:09Z</time>
      </trkpt>
      <trkpt lat="53.626545863226056" lon="9.975890787318349">
        <ele>5</ele>
        <time>2021-09-13T07:27:23Z</time>
      </trkpt>
      <trkpt lat="53.626716351136565" lon="9.976362269371748">
        <ele>5</ele>
        <time>2021-09-13T07:27:39Z</time>
      </trkpt>
      <trkpt lat="53.62696043215692" lon="9.976918660104275">
        <ele>5.1</ele>
        <time>2021-09-13T07:27:55Z</time>
      </trkpt>
      <trkpt lat="53.627352453768253" lon="9.977625422179699">
        <ele>4.6</ele>
        <time>2021-09-13T07:28:11Z</time>
      </trkpt>
      <trkpt lat="53.627827456220984" lon="9.978328160941601">
        <ele>4.4</ele>
        <time>2021-09-13T07:28:27Z</time>
      </trkpt>
      <trkpt lat="53.628376973792911" lon="9.978924281895161">
        <ele>4.7</ele>
        <time>2021-09-13T07:28:44Z</time>
      </trkpt>
      <trkpt lat="53.628747118636966" lon="9.979107091203332">
        <ele>5</ele>
        <time>2021-09-13T07:28:56Z</time>
      </trkpt>
      <trkpt lat="53.629118017852306" lon="9.979410767555237">
        <ele>4.7</ele>
        <time>2021-09-13T07:29:07Z</time>
      </trkpt>
      <trkpt lat="53.629542896524072" lon="9.979651579633355">
        <ele>4.8</ele>
        <time>2021-09-13T07:29:20Z</time>
      </trkpt>
      <trkpt lat="53.6299645062536" lon="9.979897169396281">
        <ele>4.8</ele>
        <time>2021-09-13T07:29:33Z</time>
      </trkpt>
      <trkpt lat="53.630309086292982" lon="9.980097161605954">
        <ele>4.9</ele>
        <time>2021-09-13T07:29:44Z</time>
      </trkpt>
      <trkpt lat="53.630842594429851" lon="9.980386421084404">
        <ele>5.2</ele>
        <time>2021-09-13T07:29:58Z</time>
      </trkpt>
      <trkpt lat="53.631389094516635" lon="9.98063737526536">
        <ele>5.4</ele>
        <time>2021-09-13T07:30:13Z</time>
      </trkpt>
      <trkpt lat="53.631806261837482" lon="9.980742316693068">
        <ele>6</ele>
        <time>2021-09-13T07:30:25Z</time>
      </trkpt>
      <trkpt lat="53.632181435823441" lon="9.980845162644982">
        <ele>6.4</ele>
        <time>2021-09-13T07:30:36Z</time>
      </trkpt>
      <trkpt lat="53.632635483518243" lon="9.980998551473022">
        <ele>6.7</ele>
        <time>2021-09-13T07:30:49Z</time>
      </trkpt>
      <trkpt lat="53.633048795163631" lon="9.98108983039856">
        <ele>6.3</ele>
        <time>2021-09-13T07:31:01Z</time>
      </trkpt>
      <trkpt lat="53.633366050198674" lon="9.981061918660998">
        <ele>6.1</ele>
        <time>2021-09-13T07:31:10Z</time>
      </trkpt>
      <trkpt lat="53.633756311610341" lon="9.980996455997229">
        <ele>6.5</ele>
        <time>2021-09-13T07:31:22Z</time>
      </trkpt>
      <trkpt lat="53.63420088775456" lon="9.980858908966184">
        <ele>6.5</ele>
        <time>2021-09-13T07:31:32Z</time>
      </trkpt>
      <trkpt lat="53.63466658629477" lon="9.980688923969865">
        <ele>8</ele>
        <time>2021-09-13T07:31:45Z</time>
      </trkpt>
      <trkpt lat="53.634924916550517" lon="9.981026044115424">
        <ele>8.4</ele>
        <time>2021-09-13T07:31:56Z</time>
      </trkpt>
      <trkpt lat="53.635169249027967" lon="9.981332654133439">
        <ele>8.4</ele>
        <time>2021-09-13T07:32:06Z</time>
      </trkpt>
      <trkpt lat="53.635204117745161" lon="9.981336761265993">
        <ele>8.5</ele>
        <time>2021-09-13T07:32:07Z</time>
      </trkpt>
      <trkpt lat="53.635238064453006" lon="9.981324691325426">
        <ele>8.5</ele>
        <time>2021-09-13T07:32:08Z</time>
      </trkpt>
      <trkpt lat="53.635604605078697" lon="9.981190413236618">
        <ele>8.4</ele>
        <time>2021-09-13T07:32:20Z</time>
      </trkpt>
      <trkpt lat="53.635988747701049" lon="9.981220001354814">
        <ele>8.199999999999999</ele>
        <time>2021-09-13T07:32:33Z</time>
      </trkpt>
      <trkpt lat="53.636338859796524" lon="9.981147581711412">
        <ele>8</ele>
        <time>2021-09-13T07:32:44Z</time>
      </trkpt>
      <trkpt lat="53.636783771216869" lon="9.981095613911748">
        <ele>8</ele>
        <time>2021-09-13T07:32:58Z</time>
      </trkpt>
      <trkpt lat="53.637191466987133" lon="9.981164764612913">
        <ele>8.5</ele>
        <time>2021-09-13T07:33:11Z</time>
      </trkpt>
      <trkpt lat="53.637574184685946" lon="9.981255540624261">
        <ele>9.5</ele>
        <time>2021-09-13T07:33:24Z</time>
      </trkpt>
      <trkpt lat="53.637686669826508" lon="9.981268364936113">
        <ele>9.6</ele>
        <time>2021-09-13T07:33:29Z</time>
      </trkpt>
      <trkpt lat="53.637696392834187" lon="9.981295941397548">
        <ele>9.6</ele>
        <time>2021-09-13T07:33:30Z</time>
      </trkpt>
      <trkpt lat="53.637702763080597" lon="9.98132343403995">
        <ele>9.6</ele>
        <time>2021-09-13T07:33:31Z</time>
      </trkpt>
      <trkpt lat="53.63770485855639" lon="9.981346232816577">
        <ele>9.5</ele>
        <time>2021-09-13T07:33:32Z</time>
      </trkpt>
      <trkpt lat="53.63770586438477" lon="9.981366852298379">
        <ele>9.300000000000001</ele>
        <time>2021-09-13T07:33:33Z</time>
      </trkpt>
      <trkpt lat="53.637707624584436" lon="9.981391495093703">
        <ele>9.199999999999999</ele>
        <time>2021-09-13T07:33:34Z</time>
      </trkpt>
      <trkpt lat="53.637712569907308" lon="9.981416892260313">
        <ele>9.199999999999999</ele>
        <time>2021-09-13T07:33:35Z</time>
      </trkpt>
      <trkpt lat="53.637719275429845" lon="9.981446228921413">
        <ele>9.199999999999999</ele>
        <time>2021-09-13T07:33:36Z</time>
      </trkpt>
      <trkpt lat="53.637723466381431" lon="9.981477744877338">
        <ele>9.199999999999999</ele>
        <time>2021-09-13T07:33:37Z</time>
      </trkpt>
      <trkpt lat="53.637736206874251" lon="9.982077637687326">
        <ele>8.800000000000001</ele>
        <time>2021-09-13T07:33:49Z</time>
      </trkpt>
      <trkpt lat="53.637786498293281" lon="9.982362538576126">
        <ele>8.6</ele>
        <time>2021-09-13T07:33:56Z</time>
      </trkpt>
      <trkpt lat="53.637805692851543" lon="9.982381230220199">
        <ele>8.6</ele>
        <time>2021-09-13T07:33:57Z</time>
      </trkpt>
      <trkpt lat="53.637847350910306" lon="9.982415093109012">
        <ele>8.5</ele>
        <time>2021-09-13T07:33:59Z</time>
      </trkpt>
      <trkpt lat="53.638238785788417" lon="9.982450883835554">
        <ele>8.5</ele>
        <time>2021-09-13T07:34:13Z</time>
      </trkpt>
      <trkpt lat="53.638529721647501" lon="9.982507126405835">
        <ele>8.800000000000001</ele>
        <time>2021-09-13T07:34:26Z</time>
      </trkpt>
      <trkpt lat="53.638551011681557" lon="9.982513077557087">
        <ele>8.800000000000001</ele>
        <time>2021-09-13T07:34:27Z</time>
      </trkpt>
      <trkpt lat="53.638646062463522" lon="9.982483824715018">
        <ele>8.800000000000001</ele>
        <time>2021-09-13T07:34:32Z</time>
      </trkpt>
      <trkpt lat="53.638730384409428" lon="9.982407130300999">
        <ele>8.699999999999999</ele>
        <time>2021-09-13T07:34:36Z</time>
      </trkpt>
      <trkpt lat="53.639125674962997" lon="9.982278719544411">
        <ele>9.4</ele>
        <time>2021-09-13T07:34:49Z</time>
      </trkpt>
      <trkpt lat="53.639553990215063" lon="9.982196995988488">
        <ele>9.5</ele>
        <time>2021-09-13T07:35:01Z</time>
      </trkpt>
      <trkpt lat="53.640008457005024" lon="9.982110494747758">
        <ele>9.9</ele>
        <time>2021-09-13T07:35:15Z</time>
      </trkpt>
      <trkpt lat="53.640246000140905" lon="9.982025837525725">
        <ele>9.800000000000001</ele>
        <time>2021-09-13T07:35:22Z</time>
      </trkpt>
      <trkpt lat="53.640277935191989" lon="9.9820426851511">
        <ele>9.800000000000001</ele>
        <time>2021-09-13T07:35:23Z</time>
      </trkpt>
      <trkpt lat="53.640711782500148" lon="9.982136730104685">
        <ele>9.6</ele>
        <time>2021-09-13T07:35:35Z</time>
      </trkpt>
      <trkpt lat="53.641206314787269" lon="9.982032207772136">
        <ele>10.199999999999999</ele>
        <time>2021-09-13T07:35:49Z</time>
      </trkpt>
      <trkpt lat="53.64179908297956" lon="9.982038578018546">
        <ele>10.5</ele>
        <time>2021-09-13T07:36:05Z</time>
      </trkpt>
      <trkpt lat="53.642396042123437" lon="9.981866078451276">
        <ele>10.4</ele>
        <time>2021-09-13T07:36:21Z</time>
      </trkpt>
      <trkpt lat="53.643033402040601" lon="9.981773626059294">
        <ele>10.4</ele>
        <time>2021-09-13T07:36:38Z</time>
      </trkpt>
      <trkpt lat="53.643464399501681" lon="9.981431141495705">
        <ele>10.300000000000001</ele>
        <time>2021-09-13T07:36:51Z</time>
      </trkpt>
      <trkpt lat="53.643810404464602" lon="9.981376491487026">
        <ele>10.699999999999999</ele>
        <time>2021-09-13T07:37:02Z</time>
      </trkpt>
      <trkpt lat="53.643908472731709" lon="9.980983212590218">
        <ele>11.199999999999999</ele>
        <time>2021-09-13T07:37:11Z</time>
      </trkpt>
      <trkpt lat="53.64430527202785" lon="9.98059680685401">
        <ele>12.800000000000001</ele>
        <time>2021-09-13T07:37:26Z</time>
      </trkpt>
      <trkpt lat="53.644830146804452" lon="9.979957016184926">
        <ele>14.6</ele>
        <time>2021-09-13T07:37:46Z</time>
      </trkpt>
      <trkpt lat="53.645489048212767" lon="9.979504980146885">
        <ele>13.699999999999999</ele>
        <time>2021-09-13T07:38:05Z</time>
      </trkpt>
      <trkpt lat="53.646017946302891" lon="9.97884021140635">
        <ele>12.6</ele>
        <time>2021-09-13T07:38:20Z</time>
      </trkpt>
      <trkpt lat="53.646417846903205" lon="9.978341655805707">
        <ele>12.199999999999999</ele>
        <time>2021-09-13T07:38:34Z</time>
      </trkpt>
      <trkpt lat="53.646315252408385" lon="9.977744612842798">
        <ele>12.1</ele>
        <time>2021-09-13T07:38:45Z</time>
      </trkpt>
      <trkpt lat="53.646027753129601" lon="9.976791590452194">
        <ele>12</ele>
        <time>2021-09-13T07:39:02Z</time>
      </trkpt>
      <trkpt lat="53.645836897194386" lon="9.976180465891957">
        <ele>11.9</ele>
        <time>2021-09-13T07:39:15Z</time>
      </trkpt>
      <trkpt lat="53.64582197740674" lon="9.976099161431193">
        <ele>12</ele>
        <time>2021-09-13T07:39:18Z</time>
      </trkpt>
      <trkpt lat="53.645824240520597" lon="9.976079380139709">
        <ele>12</ele>
        <time>2021-09-13T07:39:19Z</time>
      </trkpt>
      <trkpt lat="53.64583077840507" lon="9.976061275228858">
        <ele>12</ele>
        <time>2021-09-13T07:39:20Z</time>
      </trkpt>
      <trkpt lat="53.645842429250479" lon="9.976054569706321">
        <ele>12</ele>
        <time>2021-09-13T07:39:21Z</time>
      </trkpt>
      <trkpt lat="53.645854247733951" lon="9.976059682667255">
        <ele>12</ele>
        <time>2021-09-13T07:39:22Z</time>
      </trkpt>
      <trkpt lat="53.645866066217422" lon="9.976079212501645">
        <ele>12</ele>
        <time>2021-09-13T07:39:23Z</time>
      </trkpt>
      <trkpt lat="53.645877381786704" lon="9.97611022554338">
        <ele>11.9</ele>
        <time>2021-09-13T07:39:24Z</time>
      </trkpt>
      <trkpt lat="53.646152308210731" lon="9.976935340091586">
        <ele>10.6</ele>
        <time>2021-09-13T07:39:39Z</time>
      </trkpt>
      <trkpt lat="53.646585484966636" lon="9.978341991081834">
        <ele>8</ele>
        <time>2021-09-13T07:39:55Z</time>
      </trkpt>
      <trkpt lat="53.646927466616035" lon="9.979668259620667">
        <ele>6</ele>
        <time>2021-09-13T07:40:10Z</time>
      </trkpt>
      <trkpt lat="53.646913804113865" lon="9.979729531332851">
        <ele>5.9</ele>
        <time>2021-09-13T07:40:11Z</time>
      </trkpt>
      <trkpt lat="53.646935597062111" lon="9.979804130271077">
        <ele>5.8</ele>
        <time>2021-09-13T07:40:12Z</time>
      </trkpt>
      <trkpt lat="53.646924030035734" lon="9.979859450832009">
        <ele>5.7</ele>
        <time>2021-09-13T07:40:13Z</time>
      </trkpt>
      <trkpt lat="53.646966442465782" lon="9.979896079748869">
        <ele>5.6</ele>
        <time>2021-09-13T07:40:14Z</time>
      </trkpt>
      <trkpt lat="53.646978680044413" lon="9.979927930980921">
        <ele>5.5</ele>
        <time>2021-09-13T07:40:15Z</time>
      </trkpt>
      <trkpt lat="53.647300880402327" lon="9.981756107881665">
        <ele>5.4</ele>
        <time>2021-09-13T07:40:47Z</time>
      </trkpt>
      <trkpt lat="53.648620527237654" lon="9.985381616279483">
        <ele>6.5</ele>
        <time>2021-09-13T07:41:37Z</time>
      </trkpt>
      <trkpt lat="53.648545844480395" lon="9.98588914051652">
        <ele>8.1</ele>
        <time>2021-09-13T07:41:49Z</time>
      </trkpt>
      <trkpt lat="53.648254573345184" lon="9.986009756103158">
        <ele>9.6</ele>
        <time>2021-09-13T07:42:01Z</time>
      </trkpt>
      <trkpt lat="53.648204952478409" lon="9.98555202037096">
        <ele>10.199999999999999</ele>
        <time>2021-09-13T07:42:12Z</time>
      </trkpt>
      <trkpt lat="53.64850209094584" lon="9.985437272116542">
        <ele>11.199999999999999</ele>
        <time>2021-09-13T07:42:24Z</time>
      </trkpt>
      <trkpt lat="53.648799816146493" lon="9.985825940966606">
        <ele>11.800000000000001</ele>
        <time>2021-09-13T07:42:36Z</time>
      </trkpt>
      <trkpt lat="53.648818675428629" lon="9.985890565440059">
        <ele>11.6</ele>
        <time>2021-09-13T07:42:37Z</time>
      </trkpt>
      <trkpt lat="53.648859411478043" lon="9.986015874892473">
        <ele>11.199999999999999</ele>
        <time>2021-09-13T07:42:39Z</time>
      </trkpt>
      <trkpt lat="53.649142971262336" lon="9.98700762167573">
        <ele>10.4</ele>
        <time>2021-09-13T07:42:53Z</time>
      </trkpt>
      <trkpt lat="53.649335922673345" lon="9.98784463852644">
        <ele>10.300000000000001</ele>
        <time>2021-09-13T07:43:08Z</time>
      </trkpt>
      <trkpt lat="53.649353692308068" lon="9.98787053860724">
        <ele>10.300000000000001</ele>
        <time>2021-09-13T07:43:10Z</time>
      </trkpt>
      <trkpt lat="53.6496352404356" lon="9.987877830862999">
        <ele>10.199999999999999</ele>
        <time>2021-09-13T07:43:23Z</time>
      </trkpt>
      <trkpt lat="53.649640521034598" lon="9.987986963242292">
        <ele>10.300000000000001</ele>
        <time>2021-09-13T07:43:26Z</time>
      </trkpt>
      <trkpt lat="53.649621661752462" lon="9.988280078396201">
        <ele>10.300000000000001</ele>
        <time>2021-09-13T07:43:32Z</time>
      </trkpt>
      <trkpt lat="53.649697015061975" lon="9.988391306251288">
        <ele>10.199999999999999</ele>
        <time>2021-09-13T07:43:38Z</time>
      </trkpt>
      <trkpt lat="53.649712102487683" lon="9.988413350656629">
        <ele>10.1</ele>
        <time>2021-09-13T07:43:39Z</time>
      </trkpt>
      <trkpt lat="53.649729285389185" lon="9.988441430032253">
        <ele>10</ele>
        <time>2021-09-13T07:43:40Z</time>
      </trkpt>
      <trkpt lat="53.64974906668067" lon="9.988476382568479">
        <ele>10</ele>
        <time>2021-09-13T07:43:41Z</time>
      </trkpt>
      <trkpt lat="53.649770356714725" lon="9.988512760028243">
        <ele>10</ele>
        <time>2021-09-13T07:43:42Z</time>
      </trkpt>
      <trkpt lat="53.650055257603526" lon="9.988888772204518">
        <ele>9.800000000000001</ele>
        <time>2021-09-13T07:43:54Z</time>
      </trkpt>
      <trkpt lat="53.650612737983465" lon="9.989545159041882">
        <ele>9.300000000000001</ele>
        <time>2021-09-13T07:44:08Z</time>
      </trkpt>
      <trkpt lat="53.651325115934014" lon="9.990076571702957">
        <ele>9.6</ele>
        <time>2021-09-13T07:44:27Z</time>
      </trkpt>
      <trkpt lat="53.651900785043836" lon="9.990245047956705">
        <ele>9.6</ele>
        <time>2021-09-13T07:44:42Z</time>
      </trkpt>
      <trkpt lat="53.652322897687554" lon="9.990542018786073">
        <ele>9.699999999999999</ele>
        <time>2021-09-13T07:44:56Z</time>
      </trkpt>
      <trkpt lat="53.652586173266172" lon="9.991074521094561">
        <ele>9.6</ele>
        <time>2021-09-13T07:45:08Z</time>
      </trkpt>
      <trkpt lat="53.652787338942289" lon="9.991581039503217">
        <ele>9.699999999999999</ele>
        <time>2021-09-13T07:45:18Z</time>
      </trkpt>
      <trkpt lat="53.6530492734164" lon="9.992134748026729">
        <ele>9.800000000000001</ele>
        <time>2021-09-13T07:45:29Z</time>
      </trkpt>
      <trkpt lat="53.653320344164968" lon="9.992697173729539">
        <ele>10.300000000000001</ele>
        <time>2021-09-13T07:45:40Z</time>
      </trkpt>
      <trkpt lat="53.653738433495164" lon="9.993600575253367">
        <ele>10.4</ele>
        <time>2021-09-13T07:45:57Z</time>
      </trkpt>
      <trkpt lat="53.653846057131886" lon="9.993891092017293">
        <ele>10.1</ele>
        <time>2021-09-13T07:46:04Z</time>
      </trkpt>
      <trkpt lat="53.654081504791975" lon="9.994435664266348">
        <ele>9.800000000000001</ele>
        <time>2021-09-13T07:46:15Z</time>
      </trkpt>
      <trkpt lat="53.6542943213135" lon="9.994943104684353">
        <ele>10.1</ele>
        <time>2021-09-13T07:46:26Z</time>
      </trkpt>
      <trkpt lat="53.654489032924175" lon="9.995419783517718">
        <ele>10.4</ele>
        <time>2021-09-13T07:46:37Z</time>
      </trkpt>
      <trkpt lat="53.654736131429672" lon="9.995965361595154">
        <ele>10.699999999999999</ele>
        <time>2021-09-13T07:46:49Z</time>
      </trkpt>
      <trkpt lat="53.654993791133165" lon="9.996498115360737">
        <ele>10.6</ele>
        <time>2021-09-13T07:47:01Z</time>
      </trkpt>
      <trkpt lat="53.655211804434657" lon="9.996970603242517">
        <ele>10.6</ele>
        <time>2021-09-13T07:47:12Z</time>
      </trkpt>
      <trkpt lat="53.6554064322263" lon="9.997465638443828">
        <ele>11</ele>
        <time>2021-09-13T07:47:21Z</time>
      </trkpt>
      <trkpt lat="53.655419005081058" lon="9.997497741132975">
        <ele>11.199999999999999</ele>
        <time>2021-09-13T07:47:22Z</time>
      </trkpt>
      <trkpt lat="53.655520426109433" lon="9.997593713924289">
        <ele>11.6</ele>
        <time>2021-09-13T07:47:27Z</time>
      </trkpt>
      <trkpt lat="53.655568202957511" lon="9.997591953724623">
        <ele>11.800000000000001</ele>
        <time>2021-09-13T07:47:29Z</time>
      </trkpt>
      <trkpt lat="53.655610783025622" lon="9.997621541842818">
        <ele>11.800000000000001</ele>
        <time>2021-09-13T07:47:31Z</time>
      </trkpt>
      <trkpt lat="53.655626038089395" lon="9.997648447751999">
        <ele>11.800000000000001</ele>
        <time>2021-09-13T07:47:32Z</time>
      </trkpt>
      <trkpt lat="53.655702732503414" lon="9.99782832339406">
        <ele>11.699999999999999</ele>
        <time>2021-09-13T07:47:38Z</time>
      </trkpt>
      <trkpt lat="53.655890235677361" lon="9.998330734670162">
        <ele>11.4</ele>
        <time>2021-09-13T07:47:48Z</time>
      </trkpt>
      <trkpt lat="53.656267253682017" lon="9.99917202629149">
        <ele>11.800000000000001</ele>
        <time>2021-09-13T07:48:04Z</time>
      </trkpt>
      <trkpt lat="53.656438747420907" lon="9.999829838052392">
        <ele>11.800000000000001</ele>
        <time>2021-09-13T07:48:15Z</time>
      </trkpt>
      <trkpt lat="53.656668495386839" lon="10.000629471614957">
        <ele>11.5</ele>
        <time>2021-09-13T07:48:29Z</time>
      </trkpt>
      <trkpt lat="53.65696806460619" lon="10.000989139080048">
        <ele>11.699999999999999</ele>
        <time>2021-09-13T07:48:39Z</time>
      </trkpt>
      <trkpt lat="53.657392105087638" lon="10.00161618925631">
        <ele>12.1</ele>
        <time>2021-09-13T07:48:55Z</time>
      </trkpt>
      <trkpt lat="53.657653369009495" lon="10.002123126760125">
        <ele>13</ele>
        <time>2021-09-13T07:49:09Z</time>
      </trkpt>
      <trkpt lat="53.657914884388447" lon="10.002367962151766">
        <ele>13.199999999999999</ele>
        <time>2021-09-13T07:49:20Z</time>
      </trkpt>
      <trkpt lat="53.658142536878586" lon="10.002578096464276">
        <ele>13.5</ele>
        <time>2021-09-13T07:49:30Z</time>
      </trkpt>
      <trkpt lat="53.658167012035847" lon="10.002604415640235">
        <ele>13.6</ele>
        <time>2021-09-13T07:49:31Z</time>
      </trkpt>
      <trkpt lat="53.658344876021147" lon="10.00294866040349">
        <ele>13.9</ele>
        <time>2021-09-13T07:49:41Z</time>
      </trkpt>
      <trkpt lat="53.658352252095938" lon="10.002991994842887">
        <ele>13.9</ele>
        <time>2021-09-13T07:49:42Z</time>
      </trkpt>
      <trkpt lat="53.658358873799443" lon="10.003035580739379">
        <ele>13.9</ele>
        <time>2021-09-13T07:49:43Z</time>
      </trkpt>
      <trkpt lat="53.658366668969393" lon="10.003085704520345">
        <ele>13.9</ele>
        <time>2021-09-13T07:49:44Z</time>
      </trkpt>
      <trkpt lat="53.658377649262547" lon="10.003144796937704">
        <ele>13.9</ele>
        <time>2021-09-13T07:49:45Z</time>
      </trkpt>
      <trkpt lat="53.658405393362045" lon="10.003696493804455">
        <ele>14.4</ele>
        <time>2021-09-13T07:49:57Z</time>
      </trkpt>
      <trkpt lat="53.658393155783415" lon="10.003718957304955">
        <ele>14.4</ele>
        <time>2021-09-13T07:49:58Z</time>
      </trkpt>
      <trkpt lat="53.65837974473834" lon="10.003741672262549">
        <ele>14.5</ele>
        <time>2021-09-13T07:50:03Z</time>
      </trkpt>
      <trkpt lat="53.658360885456204" lon="10.003966726362705">
        <ele>14.5</ele>
        <time>2021-09-13T07:50:37Z</time>
      </trkpt>
      <trkpt lat="53.658363819122314" lon="10.004008384421468">
        <ele>14.5</ele>
        <time>2021-09-13T07:50:39Z</time>
      </trkpt>
      <trkpt lat="53.658361388370395" lon="10.004056245088577">
        <ele>14.5</ele>
        <time>2021-09-13T07:50:41Z</time>
      </trkpt>
      <trkpt lat="53.658353760838509" lon="10.004088263958693">
        <ele>14.5</ele>
        <time>2021-09-13T07:50:42Z</time>
      </trkpt>
      <trkpt lat="53.65834990516305" lon="10.004117600619793">
        <ele>14.4</ele>
        <time>2021-09-13T07:50:43Z</time>
      </trkpt>
      <trkpt lat="53.658345630392432" lon="10.004150960594416">
        <ele>14.300000000000001</ele>
        <time>2021-09-13T07:50:44Z</time>
      </trkpt>
      <trkpt lat="53.658342948183417" lon="10.004182811826468">
        <ele>14.199999999999999</ele>
        <time>2021-09-13T07:50:45Z</time>
      </trkpt>
      <trkpt lat="53.658340098336339" lon="10.004219273105264">
        <ele>14.199999999999999</ele>
        <time>2021-09-13T07:50:46Z</time>
      </trkpt>
      <trkpt lat="53.658339092507958" lon="10.00425623729825">
        <ele>14.1</ele>
        <time>2021-09-13T07:50:47Z</time>
      </trkpt>
      <trkpt lat="53.658339343965054" lon="10.004300326108932">
        <ele>14.1</ele>
        <time>2021-09-13T07:50:48Z</time>
      </trkpt>
      <trkpt lat="53.658340601250529" lon="10.004338547587395">
        <ele>14.1</ele>
        <time>2021-09-13T07:50:49Z</time>
      </trkpt>
      <trkpt lat="53.658346552401781" lon="10.004371404647827">
        <ele>14.1</ele>
        <time>2021-09-13T07:50:50Z</time>
      </trkpt>
      <trkpt lat="53.658352000638843" lon="10.004406021907926">
        <ele>14.1</ele>
        <time>2021-09-13T07:50:51Z</time>
      </trkpt>
      <trkpt lat="53.65835677832365" lon="10.004438711330295">
        <ele>14</ele>
        <time>2021-09-13T07:50:52Z</time>
      </trkpt>
      <trkpt lat="53.658374715596437" lon="10.004576425999403">
        <ele>14</ele>
        <time>2021-09-13T07:51:00Z</time>
      </trkpt>
      <trkpt lat="53.65842861123383" lon="10.004845233634114">
        <ele>14.199999999999999</ele>
        <time>2021-09-13T07:51:19Z</time>
      </trkpt>
      <trkpt lat="53.658497594296932" lon="10.005197692662477">
        <ele>14.300000000000001</ele>
        <time>2021-09-13T07:51:31Z</time>
      </trkpt>
      <trkpt lat="53.658621646463871" lon="10.005722315981984">
        <ele>14.1</ele>
        <time>2021-09-13T07:51:40Z</time>
      </trkpt>
      <trkpt lat="53.658623909577727" lon="10.005792137235403">
        <ele>14.1</ele>
        <time>2021-09-13T07:51:41Z</time>
      </trkpt>
      <trkpt lat="53.658620472997427" lon="10.00585600733757">
        <ele>14.1</ele>
        <time>2021-09-13T07:51:42Z</time>
      </trkpt>
      <trkpt lat="53.658597758039832" lon="10.006024483591318">
        <ele>14.1</ele>
        <time>2021-09-13T07:51:45Z</time>
      </trkpt>
      <trkpt lat="53.658599937334657" lon="10.006069075316191">
        <ele>14.1</ele>
        <time>2021-09-13T07:51:46Z</time>
      </trkpt>
      <trkpt lat="53.658607397228479" lon="10.006107883527875">
        <ele>14.1</ele>
        <time>2021-09-13T07:51:47Z</time>
      </trkpt>
      <trkpt lat="53.658614018931985" lon="10.006143003702164">
        <ele>14.1</ele>
        <time>2021-09-13T07:51:48Z</time>
      </trkpt>
      <trkpt lat="53.65862064063549" lon="10.006174854934216">
        <ele>14.1</ele>
        <time>2021-09-13T07:51:49Z</time>
      </trkpt>
      <trkpt lat="53.658640841022134" lon="10.006229588761926">
        <ele>14.1</ele>
        <time>2021-09-13T07:51:53Z</time>
      </trkpt>
      <trkpt lat="53.658695323392749" lon="10.006447266787291">
        <ele>14.1</ele>
        <time>2021-09-13T07:52:07Z</time>
      </trkpt>
      <trkpt lat="53.65896362811327" lon="10.007002903148532">
        <ele>14.6</ele>
        <time>2021-09-13T07:52:22Z</time>
      </trkpt>
      <trkpt lat="53.6594024207443" lon="10.007862132042646">
        <ele>14.199999999999999</ele>
        <time>2021-09-13T07:52:42Z</time>
      </trkpt>
      <trkpt lat="53.659539297223091" lon="10.008244346827269">
        <ele>13.800000000000001</ele>
        <time>2021-09-13T07:52:50Z</time>
      </trkpt>
      <trkpt lat="53.659524712711573" lon="10.008291704580188">
        <ele>13.699999999999999</ele>
        <time>2021-09-13T07:52:51Z</time>
      </trkpt>
      <trkpt lat="53.659511134028435" lon="10.008334200829268">
        <ele>13.699999999999999</ele>
        <time>2021-09-13T07:52:52Z</time>
      </trkpt>
      <trkpt lat="53.659502081573009" lon="10.00837292522192">
        <ele>13.6</ele>
        <time>2021-09-13T07:52:53Z</time>
      </trkpt>
      <trkpt lat="53.659492107108235" lon="10.008417516946793">
        <ele>13.6</ele>
        <time>2021-09-13T07:52:54Z</time>
      </trkpt>
      <trkpt lat="53.659555222839117" lon="10.008764527738094">
        <ele>13.6</ele>
        <time>2021-09-13T07:53:04Z</time>
      </trkpt>
      <trkpt lat="53.659772649407387" lon="10.009160069748759">
        <ele>13.300000000000001</ele>
        <time>2021-09-13T07:53:16Z</time>
      </trkpt>
      <trkpt lat="53.659788658842444" lon="10.009177420288324">
        <ele>13.300000000000001</ele>
        <time>2021-09-13T07:53:18Z</time>
      </trkpt>
      <trkpt lat="53.659943137317896" lon="10.009377412497997">
        <ele>13.5</ele>
        <time>2021-09-13T07:53:37Z</time>
      </trkpt>
      <trkpt lat="53.659959062933922" lon="10.009408760815859">
        <ele>13.5</ele>
        <time>2021-09-13T07:53:38Z</time>
      </trkpt>
      <trkpt lat="53.65997364744544" lon="10.009444300085306">
        <ele>13.5</ele>
        <time>2021-09-13T07:53:39Z</time>
      </trkpt>
      <trkpt lat="53.659990495070815" lon="10.00947967171669">
        <ele>13.5</ele>
        <time>2021-09-13T07:53:40Z</time>
      </trkpt>
      <trkpt lat="53.660012874752283" lon="10.009523257613182">
        <ele>13.5</ele>
        <time>2021-09-13T07:53:41Z</time>
      </trkpt>
      <trkpt lat="53.660039780661464" lon="10.009569358080626">
        <ele>13.5</ele>
        <time>2021-09-13T07:53:42Z</time>
      </trkpt>
      <trkpt lat="53.660392574965954" lon="10.01032205298543">
        <ele>13.300000000000001</ele>
        <time>2021-09-13T07:53:57Z</time>
      </trkpt>
      <trkpt lat="53.660714272409678" lon="10.01123677007854">
        <ele>13.4</ele>
        <time>2021-09-13T07:54:13Z</time>
      </trkpt>
      <trkpt lat="53.661064384505153" lon="10.012133968994021">
        <ele>13.300000000000001</ele>
        <time>2021-09-13T07:54:30Z</time>
      </trkpt>
      <trkpt lat="53.661461770534515" lon="10.013085147365928">
        <ele>13.4</ele>
        <time>2021-09-13T07:54:47Z</time>
      </trkpt>
      <trkpt lat="53.661962505429983" lon="10.014023082330823">
        <ele>13.4</ele>
        <time>2021-09-13T07:55:05Z</time>
      </trkpt>
      <trkpt lat="53.662106757983565" lon="10.014369338750839">
        <ele>13.4</ele>
        <time>2021-09-13T07:55:12Z</time>
      </trkpt>
      <trkpt lat="53.662099465727806" lon="10.014423904940486">
        <ele>13.4</ele>
        <time>2021-09-13T07:55:13Z</time>
      </trkpt>
      <trkpt lat="53.662087060511112" lon="10.014475453644991">
        <ele>13.5</ele>
        <time>2021-09-13T07:55:14Z</time>
      </trkpt>
      <trkpt lat="53.661939287558198" lon="10.015331581234932">
        <ele>14</ele>
        <time>2021-09-13T07:55:30Z</time>
      </trkpt>
      <trkpt lat="53.661950267851353" lon="10.016095675528049">
        <ele>14.6</ele>
        <time>2021-09-13T07:55:45Z</time>
      </trkpt>
      <trkpt lat="53.662011288106441" lon="10.016439752653241">
        <ele>15.6</ele>
        <time>2021-09-13T07:55:55Z</time>
      </trkpt>
      <trkpt lat="53.662111535668373" lon="10.016956329345703">
        <ele>15.800000000000001</ele>
        <time>2021-09-13T07:56:06Z</time>
      </trkpt>
      <trkpt lat="53.661802662536502" lon="10.017557227984071">
        <ele>16.800000000000001</ele>
        <time>2021-09-13T07:56:21Z</time>
      </trkpt>
      <trkpt lat="53.661616751924157" lon="10.017677089199424">
        <ele>17.100000000000001</ele>
        <time>2021-09-13T07:56:28Z</time>
      </trkpt>
      <trkpt lat="53.661602335050702" lon="10.017712041735649">
        <ele>17.100000000000001</ele>
        <time>2021-09-13T07:56:29Z</time>
      </trkpt>
      <trkpt lat="53.66159244440496" lon="10.017745485529304">
        <ele>17.100000000000001</ele>
        <time>2021-09-13T07:56:30Z</time>
      </trkpt>
      <trkpt lat="53.661583978682756" lon="10.01776828430593">
        <ele>17</ele>
        <time>2021-09-13T07:56:31Z</time>
      </trkpt>
      <trkpt lat="53.661579452455044" lon="10.017790161073208">
        <ele>17</ele>
        <time>2021-09-13T07:56:32Z</time>
      </trkpt>
      <trkpt lat="53.661572579294443" lon="10.017818659543991">
        <ele>16.899999999999999</ele>
        <time>2021-09-13T07:56:33Z</time>
      </trkpt>
      <trkpt lat="53.661564029753208" lon="10.017864173278213">
        <ele>16.899999999999999</ele>
        <time>2021-09-13T07:56:34Z</time>
      </trkpt>
      <trkpt lat="53.661558916792274" lon="10.017931060865521">
        <ele>16.800000000000001</ele>
        <time>2021-09-13T07:56:35Z</time>
      </trkpt>
      <trkpt lat="53.66155338473618" lon="10.018004570156336">
        <ele>16.800000000000001</ele>
        <time>2021-09-13T07:56:36Z</time>
      </trkpt>
      <trkpt lat="53.661550534889102" lon="10.018725581467152">
        <ele>17.199999999999999</ele>
        <time>2021-09-13T07:56:48Z</time>
      </trkpt>
      <trkpt lat="53.661559168249369" lon="10.019343998283148">
        <ele>18.100000000000001</ele>
        <time>2021-09-13T07:57:01Z</time>
      </trkpt>
      <trkpt lat="53.661504266783595" lon="10.020166346803308">
        <ele>19.199999999999999</ele>
        <time>2021-09-13T07:57:18Z</time>
      </trkpt>
      <trkpt lat="53.661415921524167" lon="10.021071340888739">
        <ele>20.300000000000001</ele>
        <time>2021-09-13T07:57:37Z</time>
      </trkpt>
      <trkpt lat="53.661375101655722" lon="10.02134894952178">
        <ele>21.100000000000001</ele>
        <time>2021-09-13T07:57:49Z</time>
      </trkpt>
      <trkpt lat="53.661357834935188" lon="10.021460093557835">
        <ele>21.600000000000001</ele>
        <time>2021-09-13T08:01:44Z</time>
      </trkpt>
      <trkpt lat="53.661353811621666" lon="10.021482137963176">
        <ele>21.600000000000001</ele>
        <time>2021-09-13T08:01:45Z</time>
      </trkpt>
      <trkpt lat="53.661348028108478" lon="10.021506110206246">
        <ele>21.600000000000001</ele>
        <time>2021-09-13T08:01:46Z</time>
      </trkpt>
      <trkpt lat="53.66126311942935" lon="10.021798303350806">
        <ele>21.5</ele>
        <time>2021-09-13T08:02:00Z</time>
      </trkpt>
      <trkpt lat="53.661237051710486" lon="10.02189570106566">
        <ele>21.399999999999999</ele>
        <time>2021-09-13T08:02:25Z</time>
      </trkpt>
      <trkpt lat="53.661218695342541" lon="10.021922690793872">
        <ele>21.399999999999999</ele>
        <time>2021-09-13T08:02:26Z</time>
      </trkpt>
      <trkpt lat="53.661196902394295" lon="10.021948758512735">
        <ele>21.399999999999999</ele>
        <time>2021-09-13T08:02:27Z</time>
      </trkpt>
      <trkpt lat="53.661174438893795" lon="10.021965689957142">
        <ele>21.399999999999999</ele>
        <time>2021-09-13T08:02:28Z</time>
      </trkpt>
      <trkpt lat="53.661153148859739" lon="10.021974490955472">
        <ele>21.399999999999999</ele>
        <time>2021-09-13T08:02:29Z</time>
      </trkpt>
      <trkpt lat="53.661119202151895" lon="10.02199930138886">
        <ele>21.399999999999999</ele>
        <time>2021-09-13T08:02:33Z</time>
      </trkpt>
      <trkpt lat="53.661109646782279" lon="10.022021010518074">
        <ele>21.399999999999999</ele>
        <time>2021-09-13T08:02:34Z</time>
      </trkpt>
      <trkpt lat="53.661100175231695" lon="10.022049089893699">
        <ele>21.399999999999999</ele>
        <time>2021-09-13T08:02:35Z</time>
      </trkpt>
      <trkpt lat="53.660975703969598" lon="10.022847298532724">
        <ele>22</ele>
        <time>2021-09-13T08:02:51Z</time>
      </trkpt>
      <trkpt lat="53.660792727023363" lon="10.02383703365922">
        <ele>22.399999999999999</ele>
        <time>2021-09-13T08:03:09Z</time>
      </trkpt>
      <trkpt lat="53.660574965178967" lon="10.024721743538976">
        <ele>21.800000000000001</ele>
        <time>2021-09-13T08:03:24Z</time>
      </trkpt>
      <trkpt lat="53.660288974642754" lon="10.025870148092508">
        <ele>20.699999999999999</ele>
        <time>2021-09-13T08:03:42Z</time>
      </trkpt>
      <trkpt lat="53.660128377377987" lon="10.026541454717517">
        <ele>20.100000000000001</ele>
        <time>2021-09-13T08:03:55Z</time>
      </trkpt>
      <trkpt lat="53.659974317997694" lon="10.027202619239688">
        <ele>20.100000000000001</ele>
        <time>2021-09-13T08:04:07Z</time>
      </trkpt>
      <trkpt lat="53.659802656620741" lon="10.02788825891912">
        <ele>20</ele>
        <time>2021-09-13T08:04:19Z</time>
      </trkpt>
      <trkpt lat="53.659740127623081" lon="10.028675487264991">
        <ele>18.800000000000001</ele>
        <time>2021-09-13T08:04:32Z</time>
      </trkpt>
      <trkpt lat="53.659750940278172" lon="10.028808256611228">
        <ele>18.600000000000001</ele>
        <time>2021-09-13T08:04:35Z</time>
      </trkpt>
      <trkpt lat="53.659766362980008" lon="10.028833653777838">
        <ele>18.5</ele>
        <time>2021-09-13T08:04:36Z</time>
      </trkpt>
      <trkpt lat="53.659779522567987" lon="10.028849076479673">
        <ele>18.399999999999999</ele>
        <time>2021-09-13T08:04:37Z</time>
      </trkpt>
      <trkpt lat="53.659873064607382" lon="10.028883526101708">
        <ele>18.100000000000001</ele>
        <time>2021-09-13T08:04:42Z</time>
      </trkpt>
      <trkpt lat="53.659886308014393" lon="10.028909426182508">
        <ele>18.100000000000001</ele>
        <time>2021-09-13T08:04:43Z</time>
      </trkpt>
      <trkpt lat="53.659918326884508" lon="10.029095252975821">
        <ele>18.100000000000001</ele>
        <time>2021-09-13T08:04:47Z</time>
      </trkpt>
      <trkpt lat="53.65995604544878" lon="10.029308320954442">
        <ele>17.899999999999999</ele>
        <time>2021-09-13T08:04:52Z</time>
      </trkpt>
      <trkpt lat="53.660227032378316" lon="10.029766475781798">
        <ele>17.699999999999999</ele>
        <time>2021-09-13T08:05:03Z</time>
      </trkpt>
      <trkpt lat="53.66029953584075" lon="10.030546830967069">
        <ele>17.699999999999999</ele>
        <time>2021-09-13T08:05:16Z</time>
      </trkpt>
      <trkpt lat="53.660349743440747" lon="10.031046811491251">
        <ele>17.600000000000001</ele>
        <time>2021-09-13T08:05:27Z</time>
      </trkpt>
      <trkpt lat="53.660384444519877" lon="10.031662378460169">
        <ele>17.300000000000001</ele>
        <time>2021-09-13T08:05:40Z</time>
      </trkpt>
      <trkpt lat="53.660413529723883" lon="10.032224385067821">
        <ele>17.300000000000001</ele>
        <time>2021-09-13T08:05:53Z</time>
      </trkpt>
      <trkpt lat="53.660442950204015" lon="10.032880520448089">
        <ele>17.100000000000001</ele>
        <time>2021-09-13T08:06:05Z</time>
      </trkpt>
      <trkpt lat="53.660460552200675" lon="10.033329706639051">
        <ele>16.699999999999999</ele>
        <time>2021-09-13T08:06:17Z</time>
      </trkpt>
      <trkpt lat="53.660494247451425" lon="10.03351679071784">
        <ele>16.100000000000001</ele>
        <time>2021-09-13T08:06:27Z</time>
      </trkpt>
      <trkpt lat="53.660464491695166" lon="10.034139733761549">
        <ele>16.100000000000001</ele>
        <time>2021-09-13T08:07:27Z</time>
      </trkpt>
      <trkpt lat="53.66044077090919" lon="10.034197736531496">
        <ele>16.100000000000001</ele>
        <time>2021-09-13T08:07:29Z</time>
      </trkpt>
      <trkpt lat="53.660429958254099" lon="10.034340228885412">
        <ele>16.100000000000001</ele>
        <time>2021-09-13T08:07:34Z</time>
      </trkpt>
      <trkpt lat="53.660449488088489" lon="10.034387670457363">
        <ele>16.199999999999999</ele>
        <time>2021-09-13T08:07:41Z</time>
      </trkpt>
      <trkpt lat="53.660521656274796" lon="10.03450870513916">
        <ele>15.800000000000001</ele>
        <time>2021-09-13T08:33:43Z</time>
      </trkpt>
      <trkpt lat="53.660751571878791" lon="10.034653628244996">
        <ele>14.6</ele>
        <time>2021-09-13T08:33:55Z</time>
      </trkpt>
      <trkpt lat="53.661051476374269" lon="10.034765107557178">
        <ele>14.800000000000001</ele>
        <time>2021-09-13T08:34:07Z</time>
      </trkpt>
      <trkpt lat="53.661439055576921" lon="10.034832749515772">
        <ele>15.1</ele>
        <time>2021-09-13T08:34:20Z</time>
      </trkpt>
      <trkpt lat="53.661496723070741" lon="10.034861834719777">
        <ele>15.300000000000001</ele>
        <time>2021-09-13T08:34:22Z</time>
      </trkpt>
      <trkpt lat="53.661520192399621" lon="10.034892428666353">
        <ele>15.300000000000001</ele>
        <time>2021-09-13T08:34:23Z</time>
      </trkpt>
      <trkpt lat="53.661537794396281" lon="10.034924196079373">
        <ele>15.300000000000001</ele>
        <time>2021-09-13T08:34:24Z</time>
      </trkpt>
      <trkpt lat="53.661557910963893" lon="10.034946575760841">
        <ele>15.300000000000001</ele>
        <time>2021-09-13T08:34:25Z</time>
      </trkpt>
      <trkpt lat="53.661582805216312" lon="10.034958058968186">
        <ele>15.300000000000001</ele>
        <time>2021-09-13T08:34:26Z</time>
      </trkpt>
      <trkpt lat="53.661611136049032" lon="10.034955628216267">
        <ele>15.300000000000001</ele>
        <time>2021-09-13T08:34:27Z</time>
      </trkpt>
      <trkpt lat="53.661641394719481" lon="10.034947246313095">
        <ele>15.300000000000001</ele>
        <time>2021-09-13T08:34:28Z</time>
      </trkpt>
      <trkpt lat="53.661672910675406" lon="10.0349435582757">
        <ele>15.300000000000001</ele>
        <time>2021-09-13T08:34:29Z</time>
      </trkpt>
      <trkpt lat="53.66170727647841" lon="10.034946994856">
        <ele>15.300000000000001</ele>
        <time>2021-09-13T08:34:30Z</time>
      </trkpt>
      <trkpt lat="53.661737199872732" lon="10.03496116027236">
        <ele>15.300000000000001</ele>
        <time>2021-09-13T08:34:31Z</time>
      </trkpt>
      <trkpt lat="53.66188270971179" lon="10.034990748390555">
        <ele>15.300000000000001</ele>
        <time>2021-09-13T08:34:37Z</time>
      </trkpt>
      <trkpt lat="53.661910034716129" lon="10.034993933513761">
        <ele>15.300000000000001</ele>
        <time>2021-09-13T08:34:38Z</time>
      </trkpt>
      <trkpt lat="53.661930151283741" lon="10.034996196627617">
        <ele>15.300000000000001</ele>
        <time>2021-09-13T08:34:39Z</time>
      </trkpt>
      <trkpt lat="53.662214716896415" lon="10.035009859129786">
        <ele>15.300000000000001</ele>
        <time>2021-09-13T08:34:51Z</time>
      </trkpt>
      <trkpt lat="53.662510765716434" lon="10.035022012889385">
        <ele>15.699999999999999</ele>
        <time>2021-09-13T08:35:04Z</time>
      </trkpt>
      <trkpt lat="53.662791978567839" lon="10.035031232982874">
        <ele>16.300000000000001</ele>
        <time>2021-09-13T08:35:15Z</time>
      </trkpt>
      <trkpt lat="53.663079561665654" lon="10.035081189125776">
        <ele>16.600000000000001</ele>
        <time>2021-09-13T08:35:27Z</time>
      </trkpt>
      <trkpt lat="53.663316518068314" lon="10.035106586292386">
        <ele>16.699999999999999</ele>
        <time>2021-09-13T08:35:35Z</time>
      </trkpt>
      <trkpt lat="53.663339149206877" lon="10.035125948488712">
        <ele>16.699999999999999</ele>
        <time>2021-09-13T08:35:36Z</time>
      </trkpt>
      <trkpt lat="53.663360271602869" lon="10.035152267664671">
        <ele>16.699999999999999</ele>
        <time>2021-09-13T08:35:37Z</time>
      </trkpt>
      <trkpt lat="53.663376532495022" lon="10.035183532163501">
        <ele>16.800000000000001</ele>
        <time>2021-09-13T08:35:38Z</time>
      </trkpt>
      <trkpt lat="53.663390530273318" lon="10.035212785005569">
        <ele>16.800000000000001</ele>
        <time>2021-09-13T08:35:39Z</time>
      </trkpt>
      <trkpt lat="53.663519779220223" lon="10.035725086927414">
        <ele>17.199999999999999</ele>
        <time>2021-09-13T08:35:52Z</time>
      </trkpt>
      <trkpt lat="53.663631426170468" lon="10.036357585340738">
        <ele>17.300000000000001</ele>
        <time>2021-09-13T08:36:04Z</time>
      </trkpt>
      <trkpt lat="53.663707533851266" lon="10.036809286102653">
        <ele>17.399999999999999</ele>
        <time>2021-09-13T08:36:12Z</time>
      </trkpt>
      <trkpt lat="53.663771403953433" lon="10.037448825314641">
        <ele>16.899999999999999</ele>
        <time>2021-09-13T08:36:25Z</time>
      </trkpt>
      <trkpt lat="53.663891516625881" lon="10.038165142759681">
        <ele>16.800000000000001</ele>
        <time>2021-09-13T08:36:37Z</time>
      </trkpt>
      <trkpt lat="53.663974497467279" lon="10.038758330047131">
        <ele>17</ele>
        <time>2021-09-13T08:36:49Z</time>
      </trkpt>
      <trkpt lat="53.664204496890306" lon="10.039097713306546">
        <ele>17.5</ele>
        <time>2021-09-13T08:37:01Z</time>
      </trkpt>
      <trkpt lat="53.664340786635876" lon="10.039231739938259">
        <ele>17.699999999999999</ele>
        <time>2021-09-13T08:37:06Z</time>
      </trkpt>
      <trkpt lat="53.664586124941707" lon="10.03939594142139">
        <ele>17.899999999999999</ele>
        <time>2021-09-13T08:37:17Z</time>
      </trkpt>
      <trkpt lat="53.664834732189775" lon="10.039499206468463">
        <ele>18.100000000000001</ele>
        <time>2021-09-13T08:37:27Z</time>
      </trkpt>
      <trkpt lat="53.665202865377069" lon="10.039770947769284">
        <ele>17.800000000000001</ele>
        <time>2021-09-13T08:37:39Z</time>
      </trkpt>
      <trkpt lat="53.665469912812114" lon="10.03983473405242">
        <ele>17.5</ele>
        <time>2021-09-13T08:37:46Z</time>
      </trkpt>
      <trkpt lat="53.665507799014449" lon="10.039847055450082">
        <ele>17.5</ele>
        <time>2021-09-13T08:37:47Z</time>
      </trkpt>
      <trkpt lat="53.665543757379055" lon="10.039867926388979">
        <ele>17.5</ele>
        <time>2021-09-13T08:37:48Z</time>
      </trkpt>
      <trkpt lat="53.66592169739306" lon="10.039940848946571">
        <ele>17.699999999999999</ele>
        <time>2021-09-13T08:38:00Z</time>
      </trkpt>
      <trkpt lat="53.666194276884198" lon="10.039920564740896">
        <ele>17.699999999999999</ele>
        <time>2021-09-13T08:38:11Z</time>
      </trkpt>
      <trkpt lat="53.666215734556317" lon="10.039923079311848">
        <ele>17.699999999999999</ele>
        <time>2021-09-13T08:38:12Z</time>
      </trkpt>
      <trkpt lat="53.66623979061842" lon="10.039925929158926">
        <ele>17.800000000000001</ele>
        <time>2021-09-13T08:38:13Z</time>
      </trkpt>
      <trkpt lat="53.666544975712895" lon="10.039943112060428">
        <ele>18</ele>
        <time>2021-09-13T08:38:23Z</time>
      </trkpt>
      <trkpt lat="53.666623178869486" lon="10.039988374337554">
        <ele>18.100000000000001</ele>
        <time>2021-09-13T08:38:26Z</time>
      </trkpt>
      <trkpt lat="53.666665926575661" lon="10.040045622736216">
        <ele>18.100000000000001</ele>
        <time>2021-09-13T08:38:28Z</time>
      </trkpt>
      <trkpt lat="53.666684031486511" lon="10.040073031559587">
        <ele>18.100000000000001</ele>
        <time>2021-09-13T08:38:29Z</time>
      </trkpt>
      <trkpt lat="53.666700711473823" lon="10.040109660476446">
        <ele>18.100000000000001</ele>
        <time>2021-09-13T08:38:30Z</time>
      </trkpt>
      <trkpt lat="53.666716134175658" lon="10.040140924975276">
        <ele>18.100000000000001</ele>
        <time>2021-09-13T08:38:31Z</time>
      </trkpt>
      <trkpt lat="53.666728539392352" lon="10.040184007957578">
        <ele>18.100000000000001</ele>
        <time>2021-09-13T08:38:32Z</time>
      </trkpt>
      <trkpt lat="53.666737927123904" lon="10.040226671844721">
        <ele>18.199999999999999</ele>
        <time>2021-09-13T08:38:33Z</time>
      </trkpt>
      <trkpt lat="53.666746644303203" lon="10.040271515026689">
        <ele>18.199999999999999</ele>
        <time>2021-09-13T08:38:34Z</time>
      </trkpt>
      <trkpt lat="53.666820488870144" lon="10.040871659293771">
        <ele>18.699999999999999</ele>
        <time>2021-09-13T08:38:46Z</time>
      </trkpt>
      <trkpt lat="53.666828200221062" lon="10.041637094691396">
        <ele>19.399999999999999</ele>
        <time>2021-09-13T08:38:59Z</time>
      </trkpt>
      <trkpt lat="53.666812861338258" lon="10.042579639703035">
        <ele>19.899999999999999</ele>
        <time>2021-09-13T08:39:14Z</time>
      </trkpt>
      <trkpt lat="53.66679978556931" lon="10.043651601299644">
        <ele>19.699999999999999</ele>
        <time>2021-09-13T08:39:30Z</time>
      </trkpt>
      <trkpt lat="53.666785201057792" lon="10.044504962861538">
        <ele>19.899999999999999</ele>
        <time>2021-09-13T08:39:43Z</time>
      </trkpt>
      <trkpt lat="53.666781177744269" lon="10.044874353334308">
        <ele>20</ele>
        <time>2021-09-13T08:39:49Z</time>
      </trkpt>
      <trkpt lat="53.666764497756958" lon="10.0449248123914">
        <ele>20</ele>
        <time>2021-09-13T08:39:50Z</time>
      </trkpt>
      <trkpt lat="53.66673868149519" lon="10.04495557397604">
        <ele>19.899999999999999</ele>
        <time>2021-09-13T08:39:51Z</time>
      </trkpt>
      <trkpt lat="53.666712362319231" lon="10.044959513470531">
        <ele>19.899999999999999</ele>
        <time>2021-09-13T08:39:52Z</time>
      </trkpt>
      <trkpt lat="53.66669031791389" lon="10.044949455186725">
        <ele>19.899999999999999</ele>
        <time>2021-09-13T08:39:53Z</time>
      </trkpt>
      <trkpt lat="53.666669027879834" lon="10.044926656410098">
        <ele>19.800000000000001</ele>
        <time>2021-09-13T08:39:54Z</time>
      </trkpt>
      <trkpt lat="53.666643043980002" lon="10.044898828491569">
        <ele>19.699999999999999</ele>
        <time>2021-09-13T08:39:55Z</time>
      </trkpt>
      <trkpt lat="53.666504491120577" lon="10.044845100492239">
        <ele>19.399999999999999</ele>
        <time>2021-09-13T08:39:59Z</time>
      </trkpt>
      <trkpt lat="53.666478926315904" lon="10.044873766601086">
        <ele>19.399999999999999</ele>
        <time>2021-09-13T08:40:00Z</time>
      </trkpt>
      <trkpt lat="53.666461575776339" lon="10.04498784430325">
        <ele>19.199999999999999</ele>
        <time>2021-09-13T08:40:03Z</time>
      </trkpt>
      <trkpt lat="53.66646115668118" lon="10.045034447684884">
        <ele>19.600000000000001</ele>
        <time>2021-09-13T08:40:08Z</time>
      </trkpt>
      <trkpt lat="53.666468029841781" lon="10.045154225081205">
        <ele>20</ele>
        <time>2021-09-13T08:40:19Z</time>
      </trkpt>
      <trkpt lat="53.666473561897874" lon="10.045188590884209">
        <ele>20</ele>
        <time>2021-09-13T08:40:20Z</time>
      </trkpt>
      <trkpt lat="53.66648705676198" lon="10.045217759907246">
        <ele>20.100000000000001</ele>
        <time>2021-09-13T08:40:21Z</time>
      </trkpt>
      <trkpt lat="53.666504239663482" lon="10.045251371338964">
        <ele>20.100000000000001</ele>
        <time>2021-09-13T08:40:22Z</time>
      </trkpt>
      <trkpt lat="53.666523769497871" lon="10.045280121266842">
        <ele>20.100000000000001</ele>
        <time>2021-09-13T08:40:23Z</time>
      </trkpt>
      <trkpt lat="53.666573893278837" lon="10.045733582228422">
        <ele>20.199999999999999</ele>
        <time>2021-09-13T08:40:33Z</time>
      </trkpt>
      <trkpt lat="53.666556794196367" lon="10.045871715992689">
        <ele>20.300000000000001</ele>
        <time>2021-09-13T08:40:37Z</time>
      </trkpt>
      <trkpt lat="53.666554028168321" lon="10.046501951292157">
        <ele>20.5</ele>
        <time>2021-09-13T08:40:51Z</time>
      </trkpt>
      <trkpt lat="53.666509101167321" lon="10.047159846872091">
        <ele>21</ele>
        <time>2021-09-13T08:41:03Z</time>
      </trkpt>
      <trkpt lat="53.666498623788357" lon="10.047963922843337">
        <ele>21.100000000000001</ele>
        <time>2021-09-13T08:41:15Z</time>
      </trkpt>
      <trkpt lat="53.666479680687189" lon="10.048761880025268">
        <ele>21.600000000000001</ele>
        <time>2021-09-13T08:41:28Z</time>
      </trkpt>
      <trkpt lat="53.666484793648124" lon="10.049013672396541">
        <ele>22</ele>
        <time>2021-09-13T08:41:32Z</time>
      </trkpt>
      <trkpt lat="53.666502395644784" lon="10.049053570255637">
        <ele>22.100000000000001</ele>
        <time>2021-09-13T08:41:33Z</time>
      </trkpt>
      <trkpt lat="53.666528631001711" lon="10.049086008220911">
        <ele>22.300000000000001</ele>
        <time>2021-09-13T08:41:34Z</time>
      </trkpt>
      <trkpt lat="53.666559476405382" lon="10.049103861674666">
        <ele>22.300000000000001</ele>
        <time>2021-09-13T08:41:35Z</time>
      </trkpt>
      <trkpt lat="53.66659359075129" lon="10.049114255234599">
        <ele>22.300000000000001</ele>
        <time>2021-09-13T08:41:36Z</time>
      </trkpt>
      <trkpt lat="53.666627872735262" lon="10.049116434529424">
        <ele>22.399999999999999</ele>
        <time>2021-09-13T08:41:37Z</time>
      </trkpt>
      <trkpt lat="53.666663831099868" lon="10.049119284376502">
        <ele>22.300000000000001</ele>
        <time>2021-09-13T08:41:38Z</time>
      </trkpt>
      <trkpt lat="53.667028779163957" lon="10.049185920506716">
        <ele>22</ele>
        <time>2021-09-13T08:41:49Z</time>
      </trkpt>
      <trkpt lat="53.667384339496493" lon="10.049255155026913">
        <ele>22.199999999999999</ele>
        <time>2021-09-13T08:42:01Z</time>
      </trkpt>
      <trkpt lat="53.667887169867754" lon="10.049352720379829">
        <ele>23</ele>
        <time>2021-09-13T08:42:15Z</time>
      </trkpt>
      <trkpt lat="53.668535426259041" lon="10.04941625520587">
        <ele>23.600000000000001</ele>
        <time>2021-09-13T08:42:33Z</time>
      </trkpt>
      <trkpt lat="53.668964663520455" lon="10.049450788646936">
        <ele>23.699999999999999</ele>
        <time>2021-09-13T08:42:46Z</time>
      </trkpt>
      <trkpt lat="53.669291557744145" lon="10.049477778375149">
        <ele>23.800000000000001</ele>
        <time>2021-09-13T08:42:58Z</time>
      </trkpt>
      <trkpt lat="53.669681902974844" lon="10.049529075622559">
        <ele>23.899999999999999</ele>
        <time>2021-09-13T08:43:10Z</time>
      </trkpt>
      <trkpt lat="53.670081216841936" lon="10.049561010673642">
        <ele>24.100000000000001</ele>
        <time>2021-09-13T08:43:22Z</time>
      </trkpt>
      <trkpt lat="53.670376930385828" lon="10.049631586298347">
        <ele>24.600000000000001</ele>
        <time>2021-09-13T08:43:32Z</time>
      </trkpt>
      <trkpt lat="53.670387240126729" lon="10.049658240750432">
        <ele>24.600000000000001</ele>
        <time>2021-09-13T08:43:33Z</time>
      </trkpt>
      <trkpt lat="53.670405093580484" lon="10.049720853567123">
        <ele>24.5</ele>
        <time>2021-09-13T08:43:35Z</time>
      </trkpt>
      <trkpt lat="53.670407859608531" lon="10.049750693142414">
        <ele>24.5</ele>
        <time>2021-09-13T08:43:36Z</time>
      </trkpt>
      <trkpt lat="53.670411044731736" lon="10.049785226583481">
        <ele>24.5</ele>
        <time>2021-09-13T08:43:37Z</time>
      </trkpt>
      <trkpt lat="53.670420264825225" lon="10.049823699519038">
        <ele>24.5</ele>
        <time>2021-09-13T08:43:38Z</time>
      </trkpt>
      <trkpt lat="53.670554207637906" lon="10.050405068323016">
        <ele>24.699999999999999</ele>
        <time>2021-09-13T08:43:50Z</time>
      </trkpt>
      <trkpt lat="53.670616401359439" lon="10.050907731056213">
        <ele>24.800000000000001</ele>
        <time>2021-09-13T08:44:00Z</time>
      </trkpt>
      <trkpt lat="53.670714218169451" lon="10.051657240837812">
        <ele>24.600000000000001</ele>
        <time>2021-09-13T08:44:13Z</time>
      </trkpt>
      <trkpt lat="53.671015966683626" lon="10.051924372091889">
        <ele>24.600000000000001</ele>
        <time>2021-09-13T08:44:24Z</time>
      </trkpt>
      <trkpt lat="53.671387871727347" lon="10.051949769258499">
        <ele>25.600000000000001</ele>
        <time>2021-09-13T08:44:37Z</time>
      </trkpt>
      <trkpt lat="53.671672688797116" lon="10.051931664347649">
        <ele>26</ele>
        <time>2021-09-13T08:44:48Z</time>
      </trkpt>
      <trkpt lat="53.67207108065486" lon="10.051840553060174">
        <ele>27.300000000000001</ele>
        <time>2021-09-13T08:45:03Z</time>
      </trkpt>
      <trkpt lat="53.672272581607103" lon="10.051840217784047">
        <ele>27.800000000000001</ele>
        <time>2021-09-13T08:45:11Z</time>
      </trkpt>
      <trkpt lat="53.672286830842495" lon="10.051865614950657">
        <ele>27.800000000000001</ele>
        <time>2021-09-13T08:45:12Z</time>
      </trkpt>
      <trkpt lat="53.672452373430133" lon="10.052388897165656">
        <ele>28</ele>
        <time>2021-09-13T08:45:25Z</time>
      </trkpt>
      <trkpt lat="53.672677092254162" lon="10.053103035315871">
        <ele>27.699999999999999</ele>
        <time>2021-09-13T08:45:40Z</time>
      </trkpt>
      <trkpt lat="53.67283433675766" lon="10.053663616999984">
        <ele>27.399999999999999</ele>
        <time>2021-09-13T08:45:51Z</time>
      </trkpt>
      <trkpt lat="53.672963669523597" lon="10.054083885625005">
        <ele>27.199999999999999</ele>
        <time>2021-09-13T08:46:00Z</time>
      </trkpt>
      <trkpt lat="53.673052182421088" lon="10.054455371573567">
        <ele>27.300000000000001</ele>
        <time>2021-09-13T08:46:08Z</time>
      </trkpt>
      <trkpt lat="53.673050757497549" lon="10.054498203098774">
        <ele>27.300000000000001</ele>
        <time>2021-09-13T08:46:09Z</time>
      </trkpt>
      <trkpt lat="53.673040028661489" lon="10.05453810095787">
        <ele>27.399999999999999</ele>
        <time>2021-09-13T08:46:10Z</time>
      </trkpt>
      <trkpt lat="53.673028461635113" lon="10.054579339921474">
        <ele>27.399999999999999</ele>
        <time>2021-09-13T08:46:11Z</time>
      </trkpt>
      <trkpt lat="53.673015050590038" lon="10.054616471752524">
        <ele>27.399999999999999</ele>
        <time>2021-09-13T08:46:12Z</time>
      </trkpt>
      <trkpt lat="53.672998622059822" lon="10.054642707109451">
        <ele>27.399999999999999</ele>
        <time>2021-09-13T08:46:13Z</time>
      </trkpt>
      <trkpt lat="53.672983115538955" lon="10.054665338248014">
        <ele>27.399999999999999</ele>
        <time>2021-09-13T08:46:14Z</time>
      </trkpt>
      <trkpt lat="53.672971045598388" lon="10.054687634110451">
        <ele>27.300000000000001</ele>
        <time>2021-09-13T08:46:15Z</time>
      </trkpt>
      <trkpt lat="53.67295847274363" lon="10.054710349068046">
        <ele>27.300000000000001</ele>
        <time>2021-09-13T08:46:16Z</time>
      </trkpt>
      <trkpt lat="53.672942463308573" lon="10.054728873074055">
        <ele>27.199999999999999</ele>
        <time>2021-09-13T08:46:17Z</time>
      </trkpt>
      <trkpt lat="53.672672482207417" lon="10.0549959205091">
        <ele>26.800000000000001</ele>
        <time>2021-09-13T08:46:26Z</time>
      </trkpt>
      <trkpt lat="53.672571396455169" lon="10.055198930203915">
        <ele>26.600000000000001</ele>
        <time>2021-09-13T08:46:30Z</time>
      </trkpt>
      <trkpt lat="53.672571564093232" lon="10.055261040106416">
        <ele>26.600000000000001</ele>
        <time>2021-09-13T08:46:31Z</time>
      </trkpt>
      <trkpt lat="53.672580029815435" lon="10.055316528305411">
        <ele>26.600000000000001</ele>
        <time>2021-09-13T08:46:32Z</time>
      </trkpt>
      <trkpt lat="53.672756887972355" lon="10.055983895435929">
        <ele>26.699999999999999</ele>
        <time>2021-09-13T08:46:44Z</time>
      </trkpt>
      <trkpt lat="53.673054194077849" lon="10.056820660829544">
        <ele>26.899999999999999</ele>
        <time>2021-09-13T08:47:00Z</time>
      </trkpt>
      <trkpt lat="53.67318126372993" lon="10.057198517024517">
        <ele>26.800000000000001</ele>
        <time>2021-09-13T08:47:11Z</time>
      </trkpt>
      <trkpt lat="53.673314452171326" lon="10.057494146749377">
        <ele>26.5</ele>
        <time>2021-09-13T08:47:23Z</time>
      </trkpt>
      <trkpt lat="53.673630366101861" lon="10.058263102546334">
        <ele>26.199999999999999</ele>
        <time>2021-09-13T08:47:41Z</time>
      </trkpt>
      <trkpt lat="53.673957763239741" lon="10.059148482978344">
        <ele>26.399999999999999</ele>
        <time>2021-09-13T08:47:58Z</time>
      </trkpt>
      <trkpt lat="53.674284489825368" lon="10.059979045763612">
        <ele>26.100000000000001</ele>
        <time>2021-09-13T08:48:14Z</time>
      </trkpt>
      <trkpt lat="53.674446009099483" lon="10.060422029346228">
        <ele>26</ele>
        <time>2021-09-13T08:48:22Z</time>
      </trkpt>
      <trkpt lat="53.674468053504825" lon="10.06047684699297">
        <ele>26</ele>
        <time>2021-09-13T08:48:23Z</time>
      </trkpt>
      <trkpt lat="53.674791259691119" lon="10.061286371201277">
        <ele>25.699999999999999</ele>
        <time>2021-09-13T08:48:38Z</time>
      </trkpt>
      <trkpt lat="53.675231393426657" lon="10.062167141586542">
        <ele>25.899999999999999</ele>
        <time>2021-09-13T08:48:55Z</time>
      </trkpt>
      <trkpt lat="53.675565747544169" lon="10.062930732965469">
        <ele>25.899999999999999</ele>
        <time>2021-09-13T08:49:09Z</time>
      </trkpt>
      <trkpt lat="53.67559609003365" lon="10.063071632757783">
        <ele>25.899999999999999</ele>
        <time>2021-09-13T08:49:11Z</time>
      </trkpt>
      <trkpt lat="53.675612434744835" lon="10.063218986615539">
        <ele>25.800000000000001</ele>
        <time>2021-09-13T08:49:13Z</time>
      </trkpt>
      <trkpt lat="53.675630874931812" lon="10.063429372385144">
        <ele>25.800000000000001</ele>
        <time>2021-09-13T08:49:16Z</time>
      </trkpt>
      <trkpt lat="53.675640681758523" lon="10.063498858362436">
        <ele>25.800000000000001</ele>
        <time>2021-09-13T08:49:17Z</time>
      </trkpt>
      <trkpt lat="53.675651913508773" lon="10.063564656302333">
        <ele>25.800000000000001</ele>
        <time>2021-09-13T08:49:18Z</time>
      </trkpt>
      <trkpt lat="53.675854839384556" lon="10.064310310408473">
        <ele>26.100000000000001</ele>
        <time>2021-09-13T08:49:31Z</time>
      </trkpt>
      <trkpt lat="53.676103362813592" lon="10.06500156596303">
        <ele>25.899999999999999</ele>
        <time>2021-09-13T08:49:43Z</time>
      </trkpt>
      <trkpt lat="53.676384072750807" lon="10.065698688849807">
        <ele>25.899999999999999</ele>
        <time>2021-09-13T08:49:57Z</time>
      </trkpt>
      <trkpt lat="53.676636619493365" lon="10.066380221396685">
        <ele>26.199999999999999</ele>
        <time>2021-09-13T08:50:10Z</time>
      </trkpt>
      <trkpt lat="53.676848681643605" lon="10.066913897171617">
        <ele>26.399999999999999</ele>
        <time>2021-09-13T08:50:21Z</time>
      </trkpt>
      <trkpt lat="53.67708052508533" lon="10.06761864759028">
        <ele>26</ele>
        <time>2021-09-13T08:50:32Z</time>
      </trkpt>
      <trkpt lat="53.677356457337737" lon="10.068325996398926">
        <ele>25.699999999999999</ele>
        <time>2021-09-13T08:50:42Z</time>
      </trkpt>
      <trkpt lat="53.677756190299988" lon="10.069433078169823">
        <ele>25.100000000000001</ele>
        <time>2021-09-13T08:51:01Z</time>
      </trkpt>
      <trkpt lat="53.678026255220175" lon="10.070131290704012">
        <ele>23</ele>
        <time>2021-09-13T08:51:14Z</time>
      </trkpt>
      <trkpt lat="53.678232617676258" lon="10.070578213781118">
        <ele>21.800000000000001</ele>
        <time>2021-09-13T08:51:24Z</time>
      </trkpt>
      <trkpt lat="53.678252818062901" lon="10.070897312834859">
        <ele>21.399999999999999</ele>
        <time>2021-09-13T08:51:32Z</time>
      </trkpt>
      <trkpt lat="53.678254578262568" lon="10.070942910388112">
        <ele>21.399999999999999</ele>
        <time>2021-09-13T08:51:33Z</time>
      </trkpt>
      <trkpt lat="53.678254745900631" lon="10.070994542911649">
        <ele>21.399999999999999</ele>
        <time>2021-09-13T08:51:34Z</time>
      </trkpt>
      <trkpt lat="53.678248543292284" lon="10.071043493226171">
        <ele>21.300000000000001</ele>
        <time>2021-09-13T08:51:35Z</time>
      </trkpt>
      <trkpt lat="53.678236808627844" lon="10.071096299216151">
        <ele>21.300000000000001</ele>
        <time>2021-09-13T08:51:36Z</time>
      </trkpt>
      <trkpt lat="53.678231863304973" lon="10.071159666404128">
        <ele>21.300000000000001</ele>
        <time>2021-09-13T08:51:37Z</time>
      </trkpt>
      <trkpt lat="53.678233623504639" lon="10.071216830983758">
        <ele>21.300000000000001</ele>
        <time>2021-09-13T08:51:38Z</time>
      </trkpt>
      <trkpt lat="53.67823270149529" lon="10.071267290040851">
        <ele>21.199999999999999</ele>
        <time>2021-09-13T08:51:39Z</time>
      </trkpt>
      <trkpt lat="53.678228929638863" lon="10.071334093809128">
        <ele>21.199999999999999</ele>
        <time>2021-09-13T08:51:40Z</time>
      </trkpt>
      <trkpt lat="53.678224235773087" lon="10.07139871828258">
        <ele>21.199999999999999</ele>
        <time>2021-09-13T08:51:41Z</time>
      </trkpt>
      <trkpt lat="53.678215853869915" lon="10.071479436010122">
        <ele>21.199999999999999</ele>
        <time>2021-09-13T08:51:42Z</time>
      </trkpt>
      <trkpt lat="53.678209148347378" lon="10.071556465700269">
        <ele>21.199999999999999</ele>
        <time>2021-09-13T08:51:43Z</time>
      </trkpt>
      <trkpt lat="53.678204454481602" lon="10.071613462641835">
        <ele>21.100000000000001</ele>
        <time>2021-09-13T08:51:44Z</time>
      </trkpt>
      <trkpt lat="53.678159276023507" lon="10.072264233604074">
        <ele>20.699999999999999</ele>
        <time>2021-09-13T08:51:54Z</time>
      </trkpt>
      <trkpt lat="53.678118120878935" lon="10.07296135649085">
        <ele>20.300000000000001</ele>
        <time>2021-09-13T08:52:04Z</time>
      </trkpt>
      <trkpt lat="53.678108816966414" lon="10.0730917789042">
        <ele>20.199999999999999</ele>
        <time>2021-09-13T08:52:06Z</time>
      </trkpt>
      <trkpt lat="53.678097166121006" lon="10.073169143870473">
        <ele>20.199999999999999</ele>
        <time>2021-09-13T08:52:07Z</time>
      </trkpt>
      <trkpt lat="53.678087862208486" lon="10.073245083913207">
        <ele>20.100000000000001</ele>
        <time>2021-09-13T08:52:08Z</time>
      </trkpt>
      <trkpt lat="53.678090628236532" lon="10.073324041441083">
        <ele>20.100000000000001</ele>
        <time>2021-09-13T08:52:09Z</time>
      </trkpt>
      <trkpt lat="53.678091550245881" lon="10.073390090838075">
        <ele>20.100000000000001</ele>
        <time>2021-09-13T08:52:10Z</time>
      </trkpt>
      <trkpt lat="53.678078474476933" lon="10.073821842670441">
        <ele>19.899999999999999</ele>
        <time>2021-09-13T08:52:16Z</time>
      </trkpt>
      <trkpt lat="53.67808316834271" lon="10.073891077190638">
        <ele>19.899999999999999</ele>
        <time>2021-09-13T08:52:17Z</time>
      </trkpt>
      <trkpt lat="53.67807830683887" lon="10.073961233720183">
        <ele>19.800000000000001</ele>
        <time>2021-09-13T08:52:18Z</time>
      </trkpt>
      <trkpt lat="53.678070344030857" lon="10.074036587029696">
        <ele>19.800000000000001</ele>
        <time>2021-09-13T08:52:19Z</time>
      </trkpt>
      <trkpt lat="53.678067745640874" lon="10.074118226766586">
        <ele>19.699999999999999</ele>
        <time>2021-09-13T08:52:20Z</time>
      </trkpt>
      <trkpt lat="53.678048299625516" lon="10.074794813990593">
        <ele>19</ele>
        <time>2021-09-13T08:52:29Z</time>
      </trkpt>
      <trkpt lat="53.678134549409151" lon="10.075292531400919">
        <ele>17.800000000000001</ele>
        <time>2021-09-13T08:52:39Z</time>
      </trkpt>
      <trkpt lat="53.678161036223173" lon="10.075805755332112">
        <ele>18.899999999999999</ele>
        <time>2021-09-13T08:52:52Z</time>
      </trkpt>
      <trkpt lat="53.678040839731693" lon="10.076251169666648">
        <ele>18.699999999999999</ele>
        <time>2021-09-13T08:53:02Z</time>
      </trkpt>
      <trkpt lat="53.67777781561017" lon="10.076509332284331">
        <ele>18.399999999999999</ele>
        <time>2021-09-13T08:53:11Z</time>
      </trkpt>
      <trkpt lat="53.677469780668616" lon="10.076967235654593">
        <ele>18.300000000000001</ele>
        <time>2021-09-13T08:53:22Z</time>
      </trkpt>
      <trkpt lat="53.677357882261276" lon="10.077209137380123">
        <ele>18.600000000000001</ele>
        <time>2021-09-13T08:53:29Z</time>
      </trkpt>
      <trkpt lat="53.677340615540743" lon="10.077254148200154">
        <ele>18.600000000000001</ele>
        <time>2021-09-13T08:53:30Z</time>
      </trkpt>
      <trkpt lat="53.677048338577151" lon="10.077781789004803">
        <ele>18.199999999999999</ele>
        <time>2021-09-13T08:53:42Z</time>
      </trkpt>
      <trkpt lat="53.676748434081674" lon="10.077978428453207">
        <ele>18.100000000000001</ele>
        <time>2021-09-13T08:53:51Z</time>
      </trkpt>
      <trkpt lat="53.676423383876681" lon="10.078123435378075">
        <ele>16.600000000000001</ele>
        <time>2021-09-13T08:54:00Z</time>
      </trkpt>
      <trkpt lat="53.676149128004909" lon="10.078432476148009">
        <ele>16.399999999999999</ele>
        <time>2021-09-13T08:54:10Z</time>
      </trkpt>
      <trkpt lat="53.675870262086391" lon="10.078825587406754">
        <ele>16.600000000000001</ele>
        <time>2021-09-13T08:54:21Z</time>
      </trkpt>
      <trkpt lat="53.675604723393917" lon="10.079200007021427">
        <ele>17.100000000000001</ele>
        <time>2021-09-13T08:54:31Z</time>
      </trkpt>
      <trkpt lat="53.675281265750527" lon="10.079653719440103">
        <ele>16.600000000000001</ele>
        <time>2021-09-13T08:54:43Z</time>
      </trkpt>
      <trkpt lat="53.675054702907801" lon="10.080112712457776">
        <ele>17.100000000000001</ele>
        <time>2021-09-13T08:54:54Z</time>
      </trkpt>
      <trkpt lat="53.674857895821333" lon="10.080639095976949">
        <ele>16.800000000000001</ele>
        <time>2021-09-13T08:55:04Z</time>
      </trkpt>
      <trkpt lat="53.674701573327184" lon="10.081090042367578">
        <ele>16.800000000000001</ele>
        <time>2021-09-13T08:55:14Z</time>
      </trkpt>
      <trkpt lat="53.674680450931191" lon="10.081170005723834">
        <ele>16.800000000000001</ele>
        <time>2021-09-13T08:55:16Z</time>
      </trkpt>
      <trkpt lat="53.67466720752418" lon="10.081223649904132">
        <ele>16.800000000000001</ele>
        <time>2021-09-13T08:55:17Z</time>
      </trkpt>
      <trkpt lat="53.674658825621009" lon="10.081274528056383">
        <ele>16.800000000000001</ele>
        <time>2021-09-13T08:55:18Z</time>
      </trkpt>
      <trkpt lat="53.674647090956569" lon="10.081325070932508">
        <ele>16.800000000000001</ele>
        <time>2021-09-13T08:55:19Z</time>
      </trkpt>
      <trkpt lat="53.674632757902145" lon="10.081388019025326">
        <ele>16.800000000000001</ele>
        <time>2021-09-13T08:55:20Z</time>
      </trkpt>
      <trkpt lat="53.674491606652737" lon="10.082025043666363">
        <ele>17</ele>
        <time>2021-09-13T08:55:32Z</time>
      </trkpt>
      <trkpt lat="53.674301421269774" lon="10.082654021680355">
        <ele>17.300000000000001</ele>
        <time>2021-09-13T08:55:43Z</time>
      </trkpt>
      <trkpt lat="53.674112660810351" lon="10.083115864545107">
        <ele>17.199999999999999</ele>
        <time>2021-09-13T08:55:52Z</time>
      </trkpt>
      <trkpt lat="53.674052646383643" lon="10.083244694396853">
        <ele>17.199999999999999</ele>
        <time>2021-09-13T08:55:55Z</time>
      </trkpt>
      <trkpt lat="53.674039905890822" lon="10.083288364112377">
        <ele>17.199999999999999</ele>
        <time>2021-09-13T08:55:56Z</time>
      </trkpt>
      <trkpt lat="53.67402071133256" lon="10.083330692723393">
        <ele>17.100000000000001</ele>
        <time>2021-09-13T08:55:57Z</time>
      </trkpt>
      <trkpt lat="53.673996822908521" lon="10.083376122638583">
        <ele>17.100000000000001</ele>
        <time>2021-09-13T08:55:58Z</time>
      </trkpt>
      <trkpt lat="53.673976371064782" lon="10.083419289439917">
        <ele>17</ele>
        <time>2021-09-13T08:55:59Z</time>
      </trkpt>
      <trkpt lat="53.673958601430058" lon="10.083454409614205">
        <ele>17</ele>
        <time>2021-09-13T08:56:00Z</time>
      </trkpt>
      <trkpt lat="53.67393764667213" lon="10.083492966368794">
        <ele>17</ele>
        <time>2021-09-13T08:56:01Z</time>
      </trkpt>
      <trkpt lat="53.673910405486822" lon="10.083526158705354">
        <ele>17.100000000000001</ele>
        <time>2021-09-13T08:56:02Z</time>
      </trkpt>
      <trkpt lat="53.673877967521548" lon="10.083555746823549">
        <ele>17.199999999999999</ele>
        <time>2021-09-13T08:56:03Z</time>
      </trkpt>
      <trkpt lat="53.673844607546926" lon="10.083585251122713">
        <ele>17.199999999999999</ele>
        <time>2021-09-13T08:56:04Z</time>
      </trkpt>
      <trkpt lat="53.67381158284843" lon="10.083623556420207">
        <ele>17.300000000000001</ele>
        <time>2021-09-13T08:56:05Z</time>
      </trkpt>
      <trkpt lat="53.673779228702188" lon="10.083661610260606">
        <ele>17.300000000000001</ele>
        <time>2021-09-13T08:56:06Z</time>
      </trkpt>
      <trkpt lat="53.673758273944259" lon="10.083701256662607">
        <ele>17.300000000000001</ele>
        <time>2021-09-13T08:56:07Z</time>
      </trkpt>
      <trkpt lat="53.673739917576313" lon="10.083738220855594">
        <ele>17.300000000000001</ele>
        <time>2021-09-13T08:56:08Z</time>
      </trkpt>
      <trkpt lat="53.673718878999352" lon="10.083770826458931">
        <ele>17.300000000000001</ele>
        <time>2021-09-13T08:56:09Z</time>
      </trkpt>
      <trkpt lat="53.673692895099521" lon="10.083801923319697">
        <ele>17.300000000000001</ele>
        <time>2021-09-13T08:56:10Z</time>
      </trkpt>
      <trkpt lat="53.673670934513211" lon="10.083845928311348">
        <ele>17.300000000000001</ele>
        <time>2021-09-13T08:56:11Z</time>
      </trkpt>
      <trkpt lat="53.67364788427949" lon="10.083884736523032">
        <ele>17.300000000000001</ele>
        <time>2021-09-13T08:56:12Z</time>
      </trkpt>
      <trkpt lat="53.673618715256453" lon="10.083923460915685">
        <ele>17.300000000000001</ele>
        <time>2021-09-13T08:56:13Z</time>
      </trkpt>
      <trkpt lat="53.67359222844243" lon="10.083961011841893">
        <ele>17.300000000000001</ele>
        <time>2021-09-13T08:56:14Z</time>
      </trkpt>
      <trkpt lat="53.673571022227407" lon="10.083996718749404">
        <ele>17.399999999999999</ele>
        <time>2021-09-13T08:56:15Z</time>
      </trkpt>
      <trkpt lat="53.673546630889177" lon="10.084029911085963">
        <ele>17.399999999999999</ele>
        <time>2021-09-13T08:56:16Z</time>
      </trkpt>
      <trkpt lat="53.673518216237426" lon="10.084071233868599">
        <ele>17.5</ele>
        <time>2021-09-13T08:56:17Z</time>
      </trkpt>
      <trkpt lat="53.673487789928913" lon="10.084114484488964">
        <ele>17.5</ele>
        <time>2021-09-13T08:56:18Z</time>
      </trkpt>
      <trkpt lat="53.673034496605396" lon="10.084501812234521">
        <ele>17.699999999999999</ele>
        <time>2021-09-13T08:56:30Z</time>
      </trkpt>
      <trkpt lat="53.672648090869188" lon="10.084796855226159">
        <ele>17.899999999999999</ele>
        <time>2021-09-13T08:56:42Z</time>
      </trkpt>
      <trkpt lat="53.672637781128287" lon="10.08482376113534">
        <ele>18</ele>
        <time>2021-09-13T08:56:43Z</time>
      </trkpt>
      <trkpt lat="53.672630405053496" lon="10.084855277091265">
        <ele>18</ele>
        <time>2021-09-13T08:56:44Z</time>
      </trkpt>
      <trkpt lat="53.672616658732295" lon="10.084954099729657">
        <ele>17.899999999999999</ele>
        <time>2021-09-13T08:56:46Z</time>
      </trkpt>
      <trkpt lat="53.672565193846822" lon="10.08515652269125">
        <ele>17.300000000000001</ele>
        <time>2021-09-13T08:56:49Z</time>
      </trkpt>
      <trkpt lat="53.672401746734977" lon="10.08580544963479">
        <ele>16.399999999999999</ele>
        <time>2021-09-13T08:57:00Z</time>
      </trkpt>
      <trkpt lat="53.672400573268533" lon="10.08588214404881">
        <ele>16.399999999999999</ele>
        <time>2021-09-13T08:57:02Z</time>
      </trkpt>
      <trkpt lat="53.672407111153007" lon="10.085924472659826">
        <ele>16.399999999999999</ele>
        <time>2021-09-13T08:57:03Z</time>
      </trkpt>
      <trkpt lat="53.672412978485227" lon="10.085963113233447">
        <ele>16.399999999999999</ele>
        <time>2021-09-13T08:57:04Z</time>
      </trkpt>
      <trkpt lat="53.672514483332634" lon="10.086316326633096">
        <ele>16.399999999999999</ele>
        <time>2021-09-13T08:57:16Z</time>
      </trkpt>
      <trkpt lat="53.672518003731966" lon="10.086318422108889">
        <ele>16.399999999999999</ele>
        <time>2021-09-13T08:57:17Z</time>
      </trkpt>
      <trkpt lat="53.672456480562687" lon="10.086349854245782">
        <ele>16.399999999999999</ele>
        <time>2021-09-13T08:57:37Z</time>
      </trkpt>
      <trkpt lat="53.672443991526961" lon="10.086339209228754">
        <ele>16.399999999999999</ele>
        <time>2021-09-13T08:57:38Z</time>
      </trkpt>
      <trkpt lat="53.672431167215109" lon="10.086319511756301">
        <ele>16.399999999999999</ele>
        <time>2021-09-13T08:57:39Z</time>
      </trkpt>
      <trkpt lat="53.672418929636478" lon="10.086301574483514">
        <ele>16.399999999999999</ele>
        <time>2021-09-13T08:57:40Z</time>
      </trkpt>
      <trkpt lat="53.672404512763023" lon="10.08628573268652">
        <ele>16.399999999999999</ele>
        <time>2021-09-13T08:57:41Z</time>
      </trkpt>
      <trkpt lat="53.672388084232807" lon="10.086264945566654">
        <ele>16.399999999999999</ele>
        <time>2021-09-13T08:57:42Z</time>
      </trkpt>
      <trkpt lat="53.672297140583396" lon="10.086063360795379">
        <ele>16.199999999999999</ele>
        <time>2021-09-13T08:57:51Z</time>
      </trkpt>
      <trkpt lat="53.672250034287572" lon="10.08605414070189">
        <ele>15.6</ele>
        <time>2021-09-13T08:57:56Z</time>
      </trkpt>
      <trkpt lat="53.672219021245837" lon="10.086150784045458">
        <ele>15.199999999999999</ele>
        <time>2021-09-13T08:58:00Z</time>
      </trkpt>
      <trkpt lat="53.672218769788742" lon="10.086213732138276">
        <ele>14.300000000000001</ele>
        <time>2021-09-13T08:58:02Z</time>
      </trkpt>
      <trkpt lat="53.672223379835486" lon="10.086254719644785">
        <ele>13.9</ele>
        <time>2021-09-13T08:58:03Z</time>
      </trkpt>
      <trkpt lat="53.672217512503266" lon="10.086296964436769">
        <ele>13.5</ele>
        <time>2021-09-13T08:58:04Z</time>
      </trkpt>
      <trkpt lat="53.672204269096255" lon="10.086339125409722">
        <ele>13.1</ele>
        <time>2021-09-13T08:58:05Z</time>
      </trkpt>
      <trkpt lat="53.672186750918627" lon="10.086379945278168">
        <ele>12.699999999999999</ele>
        <time>2021-09-13T08:58:06Z</time>
      </trkpt>
      <trkpt lat="53.67216981947422" lon="10.086415065452456">
        <ele>12.4</ele>
        <time>2021-09-13T08:58:07Z</time>
      </trkpt>
      <trkpt lat="53.671955410391092" lon="10.086676580831409">
        <ele>11.4</ele>
        <time>2021-09-13T08:58:18Z</time>
      </trkpt>
      <trkpt lat="53.671530028805137" lon="10.086993500590324">
        <ele>10.800000000000001</ele>
        <time>2021-09-13T08:58:29Z</time>
      </trkpt>
      <trkpt lat="53.671213695779443" lon="10.087054604664445">
        <ele>11.5</ele>
        <time>2021-09-13T08:58:41Z</time>
      </trkpt>
      <trkpt lat="53.671021079644561" lon="10.086869113147259">
        <ele>13.6</ele>
        <time>2021-09-13T08:58:53Z</time>
      </trkpt>
      <trkpt lat="53.670862661674619" lon="10.086733996868134">
        <ele>14.9</ele>
        <time>2021-09-13T08:59:02Z</time>
      </trkpt>
      <trkpt lat="53.670814968645573" lon="10.086721340194345">
        <ele>15.6</ele>
        <time>2021-09-13T08:59:08Z</time>
      </trkpt>
      <trkpt lat="53.670749925076962" lon="10.08677925914526">
        <ele>15.699999999999999</ele>
        <time>2021-09-13T08:59:16Z</time>
      </trkpt>
      <trkpt lat="53.670733580365777" lon="10.086834831163287">
        <ele>15.699999999999999</ele>
        <time>2021-09-13T08:59:18Z</time>
      </trkpt>
      <trkpt lat="53.670737184584141" lon="10.086866514757276">
        <ele>15.699999999999999</ele>
        <time>2021-09-13T08:59:19Z</time>
      </trkpt>
      <trkpt lat="53.670745566487312" lon="10.086898617446423">
        <ele>15.699999999999999</ele>
        <time>2021-09-13T08:59:20Z</time>
      </trkpt>
      <trkpt lat="53.670757720246911" lon="10.08693122304976">
        <ele>15.699999999999999</ele>
        <time>2021-09-13T08:59:21Z</time>
      </trkpt>
      <trkpt lat="53.670770041644573" lon="10.086966762319207">
        <ele>15.699999999999999</ele>
        <time>2021-09-13T08:59:22Z</time>
      </trkpt>
      <trkpt lat="53.670961484313011" lon="10.087569002062082">
        <ele>15.6</ele>
        <time>2021-09-13T08:59:36Z</time>
      </trkpt>
      <trkpt lat="53.671177988871932" lon="10.088128158822656">
        <ele>16.399999999999999</ele>
        <time>2021-09-13T08:59:49Z</time>
      </trkpt>
      <trkpt lat="53.671423494815826" lon="10.088811283931136">
        <ele>17.199999999999999</ele>
        <time>2021-09-13T09:00:03Z</time>
      </trkpt>
      <trkpt lat="53.671636814251542" lon="10.089396508410573">
        <ele>17.800000000000001</ele>
        <time>2021-09-13T09:00:15Z</time>
      </trkpt>
      <trkpt lat="53.671776792034507" lon="10.089832032099366">
        <ele>18.300000000000001</ele>
        <time>2021-09-13T09:00:25Z</time>
      </trkpt>
      <trkpt lat="53.671981226652861" lon="10.090457992628217">
        <ele>19.100000000000001</ele>
        <time>2021-09-13T09:00:37Z</time>
      </trkpt>
      <trkpt lat="53.672199742868543" lon="10.090938359498978">
        <ele>19.600000000000001</ele>
        <time>2021-09-13T09:00:49Z</time>
      </trkpt>
      <trkpt lat="53.672482380643487" lon="10.09116031229496">
        <ele>19.899999999999999</ele>
        <time>2021-09-13T09:00:59Z</time>
      </trkpt>
      <trkpt lat="53.672902146354318" lon="10.091513777151704">
        <ele>20.100000000000001</ele>
        <time>2021-09-13T09:01:12Z</time>
      </trkpt>
      <trkpt lat="53.673310512676835" lon="10.091871516779065">
        <ele>20.100000000000001</ele>
        <time>2021-09-13T09:01:23Z</time>
      </trkpt>
      <trkpt lat="53.673880398273468" lon="10.092228418216109">
        <ele>20.100000000000001</ele>
        <time>2021-09-13T09:01:39Z</time>
      </trkpt>
      <trkpt lat="53.673891797661781" lon="10.092270579189062">
        <ele>20.100000000000001</ele>
        <time>2021-09-13T09:01:40Z</time>
      </trkpt>
      <trkpt lat="53.673895569518209" lon="10.092317182570696">
        <ele>20.100000000000001</ele>
        <time>2021-09-13T09:01:41Z</time>
      </trkpt>
      <trkpt lat="53.673894228413701" lon="10.092364959418774">
        <ele>20.100000000000001</ele>
        <time>2021-09-13T09:01:42Z</time>
      </trkpt>
      <trkpt lat="53.673793226480484" lon="10.093016484752297">
        <ele>19.899999999999999</ele>
        <time>2021-09-13T09:01:57Z</time>
      </trkpt>
      <trkpt lat="53.673767745494843" lon="10.093170711770654">
        <ele>19.899999999999999</ele>
        <time>2021-09-13T09:02:01Z</time>
      </trkpt>
      <trkpt lat="53.673690967261791" lon="10.093889208510518">
        <ele>20.100000000000001</ele>
        <time>2021-09-13T09:02:17Z</time>
      </trkpt>
      <trkpt lat="53.673602035269141" lon="10.094460602849722">
        <ele>20.199999999999999</ele>
        <time>2021-09-13T09:02:30Z</time>
      </trkpt>
      <trkpt lat="53.673559287562966" lon="10.095153534784913">
        <ele>20</ele>
        <time>2021-09-13T09:02:44Z</time>
      </trkpt>
      <trkpt lat="53.673503967002034" lon="10.095739178359509">
        <ele>19.800000000000001</ele>
        <time>2021-09-13T09:02:55Z</time>
      </trkpt>
      <trkpt lat="53.673319229856133" lon="10.096371928229928">
        <ele>19.800000000000001</ele>
        <time>2021-09-13T09:03:07Z</time>
      </trkpt>
      <trkpt lat="53.673079926520586" lon="10.097019262611866">
        <ele>20.199999999999999</ele>
        <time>2021-09-13T09:03:21Z</time>
      </trkpt>
      <trkpt lat="53.67279720492661" lon="10.097818728536367">
        <ele>20.100000000000001</ele>
        <time>2021-09-13T09:03:36Z</time>
      </trkpt>
      <trkpt lat="53.672556560486555" lon="10.098629845306277">
        <ele>19.899999999999999</ele>
        <time>2021-09-13T09:03:49Z</time>
      </trkpt>
      <trkpt lat="53.672537030652165" lon="10.098691955208778">
        <ele>19.899999999999999</ele>
        <time>2021-09-13T09:03:50Z</time>
      </trkpt>
      <trkpt lat="53.672519596293569" lon="10.098756747320294">
        <ele>19.899999999999999</ele>
        <time>2021-09-13T09:03:51Z</time>
      </trkpt>
      <trkpt lat="53.672321867197752" lon="10.099561158567667">
        <ele>19.300000000000001</ele>
        <time>2021-09-13T09:04:02Z</time>
      </trkpt>
      <trkpt lat="53.672302505001426" lon="10.09963458403945">
        <ele>19.300000000000001</ele>
        <time>2021-09-13T09:04:03Z</time>
      </trkpt>
      <trkpt lat="53.672271743416786" lon="10.099779590964317">
        <ele>19.100000000000001</ele>
        <time>2021-09-13T09:04:05Z</time>
      </trkpt>
      <trkpt lat="53.672253889963031" lon="10.099845556542277">
        <ele>19</ele>
        <time>2021-09-13T09:04:06Z</time>
      </trkpt>
      <trkpt lat="53.672237293794751" lon="10.099917724728584">
        <ele>18.899999999999999</ele>
        <time>2021-09-13T09:04:07Z</time>
      </trkpt>
      <trkpt lat="53.672226062044501" lon="10.099992491304874">
        <ele>18.800000000000001</ele>
        <time>2021-09-13T09:04:08Z</time>
      </trkpt>
      <trkpt lat="53.672212567180395" lon="10.100068766623735">
        <ele>18.699999999999999</ele>
        <time>2021-09-13T09:04:09Z</time>
      </trkpt>
      <trkpt lat="53.672196725383401" lon="10.100148227065802">
        <ele>18.5</ele>
        <time>2021-09-13T09:04:10Z</time>
      </trkpt>
      <trkpt lat="53.671956919133663" lon="10.101289758458734">
        <ele>17.399999999999999</ele>
        <time>2021-09-13T09:04:24Z</time>
      </trkpt>
      <trkpt lat="53.671940825879574" lon="10.101360836997628">
        <ele>17.399999999999999</ele>
        <time>2021-09-13T09:04:25Z</time>
      </trkpt>
      <trkpt lat="53.671930516138673" lon="10.101425377652049">
        <ele>17.300000000000001</ele>
        <time>2021-09-13T09:04:26Z</time>
      </trkpt>
      <trkpt lat="53.671928672119975" lon="10.101484889164567">
        <ele>17.199999999999999</ele>
        <time>2021-09-13T09:04:27Z</time>
      </trkpt>
      <trkpt lat="53.671934874728322" lon="10.101539622992277">
        <ele>17.199999999999999</ele>
        <time>2021-09-13T09:04:28Z</time>
      </trkpt>
      <trkpt lat="53.67195088416338" lon="10.101584382355213">
        <ele>17.100000000000001</ele>
        <time>2021-09-13T09:04:29Z</time>
      </trkpt>
      <trkpt lat="53.671975275501609" lon="10.101611455902457">
        <ele>16.899999999999999</ele>
        <time>2021-09-13T09:04:30Z</time>
      </trkpt>
      <trkpt lat="53.672007126733661" lon="10.101631572470069">
        <ele>16.899999999999999</ele>
        <time>2021-09-13T09:04:31Z</time>
      </trkpt>
      <trkpt lat="53.67205155082047" lon="10.101644899696112">
        <ele>16.800000000000001</ele>
        <time>2021-09-13T09:04:32Z</time>
      </trkpt>
      <trkpt lat="53.672098992392421" lon="10.10166434571147">
        <ele>16.699999999999999</ele>
        <time>2021-09-13T09:04:33Z</time>
      </trkpt>
      <trkpt lat="53.672136962413788" lon="10.101693514734507">
        <ele>16.699999999999999</ele>
        <time>2021-09-13T09:04:34Z</time>
      </trkpt>
      <trkpt lat="53.672465113922954" lon="10.101961735635996">
        <ele>16.300000000000001</ele>
        <time>2021-09-13T09:04:43Z</time>
      </trkpt>
      <trkpt lat="53.672669967636466" lon="10.102121997624636">
        <ele>16.100000000000001</ele>
        <time>2021-09-13T09:04:48Z</time>
      </trkpt>
      <trkpt lat="53.672712044790387" lon="10.102158710360527">
        <ele>16</ele>
        <time>2021-09-13T09:04:49Z</time>
      </trkpt>
      <trkpt lat="53.6731499992311" lon="10.102466577664018">
        <ele>15.699999999999999</ele>
        <time>2021-09-13T09:05:00Z</time>
      </trkpt>
      <trkpt lat="53.673280505463481" lon="10.102564226835966">
        <ele>15.699999999999999</ele>
        <time>2021-09-13T09:05:03Z</time>
      </trkpt>
      <trkpt lat="53.673329874873161" lon="10.102599179372191">
        <ele>15.800000000000001</ele>
        <time>2021-09-13T09:05:04Z</time>
      </trkpt>
      <trkpt lat="53.673939658328891" lon="10.102914506569505">
        <ele>15.699999999999999</ele>
        <time>2021-09-13T09:05:18Z</time>
      </trkpt>
      <trkpt lat="53.674470819532871" lon="10.103166801854968">
        <ele>15.9</ele>
        <time>2021-09-13T09:05:31Z</time>
      </trkpt>
      <trkpt lat="53.674955209717155" lon="10.10335941798985">
        <ele>16.300000000000001</ele>
        <time>2021-09-13T09:05:44Z</time>
      </trkpt>
      <trkpt lat="53.675423339009285" lon="10.103599643334746">
        <ele>16.399999999999999</ele>
        <time>2021-09-13T09:05:57Z</time>
      </trkpt>
      <trkpt lat="53.675547977909446" lon="10.103726042434573">
        <ele>16.5</ele>
        <time>2021-09-13T09:06:02Z</time>
      </trkpt>
      <trkpt lat="53.675552504137158" lon="10.103759737685323">
        <ele>16.5</ele>
        <time>2021-09-13T09:06:03Z</time>
      </trkpt>
      <trkpt lat="53.675550408661366" lon="10.103788990527391">
        <ele>16.5</ele>
        <time>2021-09-13T09:06:04Z</time>
      </trkpt>
      <trkpt lat="53.67554672062397" lon="10.10380994528532">
        <ele>16.5</ele>
        <time>2021-09-13T09:06:05Z</time>
      </trkpt>
      <trkpt lat="53.675544122233987" lon="10.103827714920044">
        <ele>16.5</ele>
        <time>2021-09-13T09:06:06Z</time>
      </trkpt>
      <trkpt lat="53.675541440024972" lon="10.103842215612531">
        <ele>16.5</ele>
        <time>2021-09-13T09:06:07Z</time>
      </trkpt>
      <trkpt lat="53.675538254901767" lon="10.103854620829225">
        <ele>16.399999999999999</ele>
        <time>2021-09-13T09:06:08Z</time>
      </trkpt>
      <trkpt lat="53.67552325129509" lon="10.103960400447249">
        <ele>15.800000000000001</ele>
        <time>2021-09-13T09:06:14Z</time>
      </trkpt>
      <trkpt lat="53.675495004281402" lon="10.104079088196158">
        <ele>14.6</ele>
        <time>2021-09-13T09:06:20Z</time>
      </trkpt>
      <trkpt lat="53.675455860793591" lon="10.104171959683299">
        <ele>12.6</ele>
        <time>2021-09-13T09:06:29Z</time>
      </trkpt>
      <trkpt lat="53.675324684008956" lon="10.104571273550391">
        <ele>12.6</ele>
        <time>2021-09-13T09:07:01Z</time>
      </trkpt>
      <trkpt lat="53.675337759777904" lon="10.10460346005857">
        <ele>12.6</ele>
        <time>2021-09-13T09:07:02Z</time>
      </trkpt>
      <trkpt lat="53.675351087003946" lon="10.104626845568419">
        <ele>12.6</ele>
        <time>2021-09-13T09:07:03Z</time>
      </trkpt>
      <trkpt lat="53.675394589081407" lon="10.104762548580766">
        <ele>10.1</ele>
        <time>2021-09-13T09:07:08Z</time>
      </trkpt>
      <trkpt lat="53.675405066460371" lon="10.10478719137609">
        <ele>10</ele>
        <time>2021-09-13T09:07:09Z</time>
      </trkpt>
      <trkpt lat="53.675414202734828" lon="10.104811163619161">
        <ele>10.1</ele>
        <time>2021-09-13T09:07:10Z</time>
      </trkpt>
      <trkpt lat="53.675421243533492" lon="10.104839662089944">
        <ele>10.1</ele>
        <time>2021-09-13T09:07:11Z</time>
      </trkpt>
      <trkpt lat="53.675428200513124" lon="10.104870088398457">
        <ele>10.1</ele>
        <time>2021-09-13T09:07:12Z</time>
      </trkpt>
      <trkpt lat="53.675434906035662" lon="10.104896994307637">
        <ele>10.199999999999999</ele>
        <time>2021-09-13T09:07:13Z</time>
      </trkpt>
      <trkpt lat="53.675442785024643" lon="10.104919960722327">
        <ele>10.199999999999999</ele>
        <time>2021-09-13T09:07:14Z</time>
      </trkpt>
      <trkpt lat="53.675450077280402" lon="10.104944352060556">
        <ele>10.300000000000001</ele>
        <time>2021-09-13T09:07:15Z</time>
      </trkpt>
      <trkpt lat="53.675458626821637" lon="10.104972347617149">
        <ele>10.4</ele>
        <time>2021-09-13T09:07:16Z</time>
      </trkpt>
      <trkpt lat="53.675468768924475" lon="10.105000846087933">
        <ele>10.5</ele>
        <time>2021-09-13T09:07:17Z</time>
      </trkpt>
      <trkpt lat="53.675478240475059" lon="10.105027249082923">
        <ele>10.6</ele>
        <time>2021-09-13T09:07:18Z</time>
      </trkpt>
      <trkpt lat="53.675486957654357" lon="10.105059687048197">
        <ele>10.800000000000001</ele>
        <time>2021-09-13T09:07:19Z</time>
      </trkpt>
      <trkpt lat="53.675497183576226" lon="10.1050940528512">
        <ele>10.9</ele>
        <time>2021-09-13T09:07:20Z</time>
      </trkpt>
      <trkpt lat="53.675613943487406" lon="10.105565618723631">
        <ele>10.9</ele>
        <time>2021-09-13T09:07:32Z</time>
      </trkpt>
      <trkpt lat="53.675619978457689" lon="10.105601577088237">
        <ele>10.800000000000001</ele>
        <time>2021-09-13T09:07:33Z</time>
      </trkpt>
      <trkpt lat="53.675622325390577" lon="10.10563594289124">
        <ele>10.6</ele>
        <time>2021-09-13T09:07:34Z</time>
      </trkpt>
      <trkpt lat="53.675627270713449" lon="10.10567550547421">
        <ele>10.4</ele>
        <time>2021-09-13T09:07:35Z</time>
      </trkpt>
      <trkpt lat="53.675637077540159" lon="10.105719761922956">
        <ele>10.199999999999999</ele>
        <time>2021-09-13T09:07:36Z</time>
      </trkpt>
      <trkpt lat="53.675592904910445" lon="10.10615486651659">
        <ele>7.2</ele>
        <time>2021-09-13T09:07:43Z</time>
      </trkpt>
      <trkpt lat="53.675359049811959" lon="10.106553845107555">
        <ele>6.3</ele>
        <time>2021-09-13T09:07:55Z</time>
      </trkpt>
      <trkpt lat="53.675210019573569" lon="10.106751741841435">
        <ele>7.2</ele>
        <time>2021-09-13T09:08:06Z</time>
      </trkpt>
      <trkpt lat="53.674810118973255" lon="10.107460012659431">
        <ele>14.800000000000001</ele>
        <time>2021-09-13T09:14:29Z</time>
      </trkpt>
      <trkpt lat="53.674795869737864" lon="10.107494378462434">
        <ele>14.800000000000001</ele>
        <time>2021-09-13T09:14:30Z</time>
      </trkpt>
      <trkpt lat="53.674777764827013" lon="10.107529414817691">
        <ele>14.800000000000001</ele>
        <time>2021-09-13T09:14:31Z</time>
      </trkpt>
      <trkpt lat="53.674756977707148" lon="10.107566881924868">
        <ele>14.800000000000001</ele>
        <time>2021-09-13T09:14:32Z</time>
      </trkpt>
      <trkpt lat="53.674737112596631" lon="10.107607115060091">
        <ele>14.800000000000001</ele>
        <time>2021-09-13T09:14:33Z</time>
      </trkpt>
      <trkpt lat="53.67472043260932" lon="10.107646090909839">
        <ele>14.800000000000001</ele>
        <time>2021-09-13T09:14:34Z</time>
      </trkpt>
      <trkpt lat="53.674459168687463" lon="10.108297700062394">
        <ele>14.4</ele>
        <time>2021-09-13T09:14:48Z</time>
      </trkpt>
      <trkpt lat="53.674285914748907" lon="10.108779156580567">
        <ele>14.5</ele>
        <time>2021-09-13T09:14:58Z</time>
      </trkpt>
      <trkpt lat="53.673974107950926" lon="10.1094682328403">
        <ele>14.6</ele>
        <time>2021-09-13T09:15:12Z</time>
      </trkpt>
      <trkpt lat="53.673695158213377" lon="10.110161667689681">
        <ele>14.199999999999999</ele>
        <time>2021-09-13T09:15:24Z</time>
      </trkpt>
      <trkpt lat="53.673486281186342" lon="10.110651254653931">
        <ele>14.5</ele>
        <time>2021-09-13T09:15:33Z</time>
      </trkpt>
      <trkpt lat="53.673273213207722" lon="10.11110513471067">
        <ele>14.5</ele>
        <time>2021-09-13T09:15:42Z</time>
      </trkpt>
      <trkpt lat="53.67323792539537" lon="10.111117037013173">
        <ele>14.5</ele>
        <time>2021-09-13T09:15:43Z</time>
      </trkpt>
      <trkpt lat="53.672810364514589" lon="10.111039085313678">
        <ele>14.9</ele>
        <time>2021-09-13T09:15:55Z</time>
      </trkpt>
      <trkpt lat="53.672354137524962" lon="10.110864071175456">
        <ele>15.5</ele>
        <time>2021-09-13T09:16:08Z</time>
      </trkpt>
      <trkpt lat="53.671965636312962" lon="10.110685033723712">
        <ele>16.100000000000001</ele>
        <time>2021-09-13T09:16:20Z</time>
      </trkpt>
      <trkpt lat="53.671558443456888" lon="10.110471211373806">
        <ele>16.199999999999999</ele>
        <time>2021-09-13T09:16:33Z</time>
      </trkpt>
      <trkpt lat="53.671117639169097" lon="10.110213803127408">
        <ele>15.800000000000001</ele>
        <time>2021-09-13T09:16:45Z</time>
      </trkpt>
      <trkpt lat="53.670857129618526" lon="10.109972488135099">
        <ele>15.300000000000001</ele>
        <time>2021-09-13T09:16:52Z</time>
      </trkpt>
      <trkpt lat="53.670558147132397" lon="10.109421713277698">
        <ele>13.6</ele>
        <time>2021-09-13T09:17:03Z</time>
      </trkpt>
      <trkpt lat="53.670389419421554" lon="10.109069338068366">
        <ele>12.1</ele>
        <time>2021-09-13T09:17:11Z</time>
      </trkpt>
      <trkpt lat="53.670174339786172" lon="10.108731295913458">
        <ele>9.699999999999999</ele>
        <time>2021-09-13T09:17:21Z</time>
      </trkpt>
      <trkpt lat="53.670001588761806" lon="10.108544295653701">
        <ele>8.4</ele>
        <time>2021-09-13T09:17:31Z</time>
      </trkpt>
      <trkpt lat="53.669985663145781" lon="10.108552509918809">
        <ele>8.4</ele>
        <time>2021-09-13T09:17:32Z</time>
      </trkpt>
      <trkpt lat="53.669938808307052" lon="10.10862342081964">
        <ele>8.6</ele>
        <time>2021-09-13T09:17:36Z</time>
      </trkpt>
      <trkpt lat="53.669921457767487" lon="10.108649153262377">
        <ele>8.699999999999999</ele>
        <time>2021-09-13T09:17:37Z</time>
      </trkpt>
      <trkpt lat="53.669902263209224" lon="10.108679747208953">
        <ele>8.800000000000001</ele>
        <time>2021-09-13T09:17:38Z</time>
      </trkpt>
      <trkpt lat="53.669786173850298" lon="10.10888921096921">
        <ele>11</ele>
        <time>2021-09-13T09:17:50Z</time>
      </trkpt>
      <trkpt lat="53.669776618480682" lon="10.108894743025303">
        <ele>11.199999999999999</ele>
        <time>2021-09-13T09:17:51Z</time>
      </trkpt>
      <trkpt lat="53.669763207435608" lon="10.108909411355853">
        <ele>11.699999999999999</ele>
        <time>2021-09-13T09:17:55Z</time>
      </trkpt>
      <trkpt lat="53.669381160289049" lon="10.109333535656333">
        <ele>14.800000000000001</ele>
        <time>2021-09-13T09:18:42Z</time>
      </trkpt>
      <trkpt lat="53.669360456988215" lon="10.109354238957167">
        <ele>14.9</ele>
        <time>2021-09-13T09:18:43Z</time>
      </trkpt>
      <trkpt lat="53.669343274086714" lon="10.10937100276351">
        <ele>14.9</ele>
        <time>2021-09-13T09:18:44Z</time>
      </trkpt>
      <trkpt lat="53.669227687641978" lon="10.109518608078361">
        <ele>14.800000000000001</ele>
        <time>2021-09-13T09:18:52Z</time>
      </trkpt>
      <trkpt lat="53.669216455891728" lon="10.109541239216924">
        <ele>14.699999999999999</ele>
        <time>2021-09-13T09:18:53Z</time>
      </trkpt>
      <trkpt lat="53.669204218313098" lon="10.10956110432744">
        <ele>14.699999999999999</ele>
        <time>2021-09-13T09:18:54Z</time>
      </trkpt>
      <trkpt lat="53.669186532497406" lon="10.109582226723433">
        <ele>14.699999999999999</ele>
        <time>2021-09-13T09:18:55Z</time>
      </trkpt>
      <trkpt lat="53.668977823108435" lon="10.109897805377841">
        <ele>15.1</ele>
        <time>2021-09-13T09:19:05Z</time>
      </trkpt>
      <trkpt lat="53.668766096234322" lon="10.110129732638597">
        <ele>15</ele>
        <time>2021-09-13T09:19:15Z</time>
      </trkpt>
      <trkpt lat="53.668533833697438" lon="10.110260071232915">
        <ele>15</ele>
        <time>2021-09-13T09:19:26Z</time>
      </trkpt>
      <trkpt lat="53.66851631551981" lon="10.110289575532079">
        <ele>15</ele>
        <time>2021-09-13T09:19:28Z</time>
      </trkpt>
      <trkpt lat="53.668508604168892" lon="10.110299466177821">
        <ele>15</ele>
        <time>2021-09-13T09:19:32Z</time>
      </trkpt>
      <trkpt lat="53.668346330523491" lon="10.110419495031238">
        <ele>15.199999999999999</ele>
        <time>2021-09-13T09:19:54Z</time>
      </trkpt>
      <trkpt lat="53.668326549232006" lon="10.110443886369467">
        <ele>15.199999999999999</ele>
        <time>2021-09-13T09:19:55Z</time>
      </trkpt>
      <trkpt lat="53.668309282511473" lon="10.110458135604858">
        <ele>15.199999999999999</ele>
        <time>2021-09-13T09:19:56Z</time>
      </trkpt>
      <trkpt lat="53.668288998305798" lon="10.110472217202187">
        <ele>15.199999999999999</ele>
        <time>2021-09-13T09:19:57Z</time>
      </trkpt>
      <trkpt lat="53.668272150680423" lon="10.110486634075642">
        <ele>15.199999999999999</ele>
        <time>2021-09-13T09:19:58Z</time>
      </trkpt>
      <trkpt lat="53.66825295612216" lon="10.110505241900682">
        <ele>15.1</ele>
        <time>2021-09-13T09:19:59Z</time>
      </trkpt>
      <trkpt lat="53.668028572574258" lon="10.110690565779805">
        <ele>15.1</ele>
        <time>2021-09-13T09:20:08Z</time>
      </trkpt>
      <trkpt lat="53.66784350015223" lon="10.11077974922955">
        <ele>15</ele>
        <time>2021-09-13T09:20:15Z</time>
      </trkpt>
      <trkpt lat="53.667819024994969" lon="10.110800033435225">
        <ele>15</ele>
        <time>2021-09-13T09:20:16Z</time>
      </trkpt>
      <trkpt lat="53.667789101600647" lon="10.110814785584807">
        <ele>15.1</ele>
        <time>2021-09-13T09:20:17Z</time>
      </trkpt>
      <trkpt lat="53.667763452976942" lon="10.110837751999497">
        <ele>15.1</ele>
        <time>2021-09-13T09:20:18Z</time>
      </trkpt>
      <trkpt lat="53.667735373601317" lon="10.110863735899329">
        <ele>15.1</ele>
        <time>2021-09-13T09:20:19Z</time>
      </trkpt>
      <trkpt lat="53.667705366387963" lon="10.110881002619863">
        <ele>15.1</ele>
        <time>2021-09-13T09:20:20Z</time>
      </trkpt>
      <trkpt lat="53.667676281183958" lon="10.110898772254586">
        <ele>15.1</ele>
        <time>2021-09-13T09:20:21Z</time>
      </trkpt>
      <trkpt lat="53.667649039998651" lon="10.1109170448035">
        <ele>15.1</ele>
        <time>2021-09-13T09:20:22Z</time>
      </trkpt>
      <trkpt lat="53.667627833783627" lon="10.110934479162097">
        <ele>15.199999999999999</ele>
        <time>2021-09-13T09:20:23Z</time>
      </trkpt>
      <trkpt lat="53.667601766064763" lon="10.110952751711011">
        <ele>15.199999999999999</ele>
        <time>2021-09-13T09:20:24Z</time>
      </trkpt>
      <trkpt lat="53.667265400290489" lon="10.111162969842553">
        <ele>14.800000000000001</ele>
        <time>2021-09-13T09:20:36Z</time>
      </trkpt>
      <trkpt lat="53.666903721168637" lon="10.111272856593132">
        <ele>14.800000000000001</ele>
        <time>2021-09-13T09:20:48Z</time>
      </trkpt>
      <trkpt lat="53.66664974950254" lon="10.11111100204289">
        <ele>14.800000000000001</ele>
        <time>2021-09-13T09:20:57Z</time>
      </trkpt>
      <trkpt lat="53.666312796995044" lon="10.110819479450583">
        <ele>15.199999999999999</ele>
        <time>2021-09-13T09:21:08Z</time>
      </trkpt>
      <trkpt lat="53.665922787040472" lon="10.110382363200188">
        <ele>15.5</ele>
        <time>2021-09-13T09:21:22Z</time>
      </trkpt>
      <trkpt lat="53.66575657390058" lon="10.110114896669984">
        <ele>15.800000000000001</ele>
        <time>2021-09-13T09:21:29Z</time>
      </trkpt>
      <trkpt lat="53.66573503240943" lon="10.110071813687682">
        <ele>15.9</ele>
        <time>2021-09-13T09:21:30Z</time>
      </trkpt>
      <trkpt lat="53.665697565302253" lon="10.110026383772492">
        <ele>15.9</ele>
        <time>2021-09-13T09:21:32Z</time>
      </trkpt>
      <trkpt lat="53.665669737383723" lon="10.109992437064648">
        <ele>15.9</ele>
        <time>2021-09-13T09:21:33Z</time>
      </trkpt>
      <trkpt lat="53.665267573669553" lon="10.10962120257318">
        <ele>15.800000000000001</ele>
        <time>2021-09-13T09:21:45Z</time>
      </trkpt>
      <trkpt lat="53.664965741336346" lon="10.109437219798565">
        <ele>15.9</ele>
        <time>2021-09-13T09:21:55Z</time>
      </trkpt>
      <trkpt lat="53.664926178753376" lon="10.109447361901402">
        <ele>15.699999999999999</ele>
        <time>2021-09-13T09:21:57Z</time>
      </trkpt>
      <trkpt lat="53.664910839870572" lon="10.109454905614257">
        <ele>15.5</ele>
        <time>2021-09-13T09:21:58Z</time>
      </trkpt>
      <trkpt lat="53.664876138791442" lon="10.109480386599898">
        <ele>15.199999999999999</ele>
        <time>2021-09-13T09:22:00Z</time>
      </trkpt>
      <trkpt lat="53.664858704432845" lon="10.109499329701066">
        <ele>14.9</ele>
        <time>2021-09-13T09:22:01Z</time>
      </trkpt>
      <trkpt lat="53.664802713319659" lon="10.109551548957825">
        <ele>14.1</ele>
        <time>2021-09-13T09:22:04Z</time>
      </trkpt>
      <trkpt lat="53.664778405800462" lon="10.109572755172849">
        <ele>13.9</ele>
        <time>2021-09-13T09:22:05Z</time>
      </trkpt>
      <trkpt lat="53.664590734988451" lon="10.109810968860984">
        <ele>12</ele>
        <time>2021-09-13T09:22:14Z</time>
      </trkpt>
      <trkpt lat="53.664576066657901" lon="10.109833097085357">
        <ele>11.9</ele>
        <time>2021-09-13T09:22:15Z</time>
      </trkpt>
      <trkpt lat="53.664558632299304" lon="10.109860170632601">
        <ele>11.800000000000001</ele>
        <time>2021-09-13T09:22:16Z</time>
      </trkpt>
      <trkpt lat="53.66453449241817" lon="10.109896128997207">
        <ele>11.699999999999999</ele>
        <time>2021-09-13T09:22:17Z</time>
      </trkpt>
      <trkpt lat="53.664502892643213" lon="10.109933596104383">
        <ele>11.6</ele>
        <time>2021-09-13T09:22:18Z</time>
      </trkpt>
      <trkpt lat="53.664475819095969" lon="10.109972236678004">
        <ele>11.6</ele>
        <time>2021-09-13T09:22:19Z</time>
      </trkpt>
      <trkpt lat="53.664451511576772" lon="10.110013391822577">
        <ele>11.6</ele>
        <time>2021-09-13T09:22:20Z</time>
      </trkpt>
      <trkpt lat="53.664429970085621" lon="10.110045662149787">
        <ele>11.6</ele>
        <time>2021-09-13T09:22:21Z</time>
      </trkpt>
      <trkpt lat="53.664358556270599" lon="10.110135013237596">
        <ele>11.5</ele>
        <time>2021-09-13T09:22:24Z</time>
      </trkpt>
      <trkpt lat="53.664335673674941" lon="10.110147418454289">
        <ele>11.5</ele>
        <time>2021-09-13T09:22:25Z</time>
      </trkpt>
      <trkpt lat="53.664310947060585" lon="10.110152196139097">
        <ele>11.6</ele>
        <time>2021-09-13T09:22:26Z</time>
      </trkpt>
      <trkpt lat="53.664283286780119" lon="10.110162254422903">
        <ele>11.6</ele>
        <time>2021-09-13T09:22:27Z</time>
      </trkpt>
      <trkpt lat="53.664253447204828" lon="10.110176671296358">
        <ele>11.699999999999999</ele>
        <time>2021-09-13T09:22:28Z</time>
      </trkpt>
      <trkpt lat="53.664231486618519" lon="10.110176419839263">
        <ele>11.699999999999999</ele>
        <time>2021-09-13T09:22:29Z</time>
      </trkpt>
      <trkpt lat="53.664152109995484" lon="10.110201230272651">
        <ele>12.1</ele>
        <time>2021-09-13T09:22:33Z</time>
      </trkpt>
      <trkpt lat="53.664134005084634" lon="10.110215228050947">
        <ele>12.199999999999999</ele>
        <time>2021-09-13T09:22:34Z</time>
      </trkpt>
      <trkpt lat="53.664117492735386" lon="10.110226208344102">
        <ele>12.300000000000001</ele>
        <time>2021-09-13T09:22:35Z</time>
      </trkpt>
      <trkpt lat="53.664088407531381" lon="10.110234757885337">
        <ele>13.300000000000001</ele>
        <time>2021-09-13T09:22:40Z</time>
      </trkpt>
      <trkpt lat="53.663826221600175" lon="10.110286641865969">
        <ele>14.9</ele>
        <time>2021-09-13T09:23:09Z</time>
      </trkpt>
      <trkpt lat="53.663808284327388" lon="10.110287312418222">
        <ele>15</ele>
        <time>2021-09-13T09:23:10Z</time>
      </trkpt>
      <trkpt lat="53.663792191073298" lon="10.110291419550776">
        <ele>15.1</ele>
        <time>2021-09-13T09:23:11Z</time>
      </trkpt>
      <trkpt lat="53.663773499429226" lon="10.110295442864299">
        <ele>15.199999999999999</ele>
        <time>2021-09-13T09:23:12Z</time>
      </trkpt>
      <trkpt lat="53.663752879947424" lon="10.110287480056286">
        <ele>15.4</ele>
        <time>2021-09-13T09:23:13Z</time>
      </trkpt>
      <trkpt lat="53.663737457245588" lon="10.110275326296687">
        <ele>15.5</ele>
        <time>2021-09-13T09:23:14Z</time>
      </trkpt>
      <trkpt lat="53.663720609620214" lon="10.110266357660294">
        <ele>15.6</ele>
        <time>2021-09-13T09:23:15Z</time>
      </trkpt>
      <trkpt lat="53.663523299619555" lon="10.110154962167144">
        <ele>16.699999999999999</ele>
        <time>2021-09-13T09:23:26Z</time>
      </trkpt>
      <trkpt lat="53.663368569687009" lon="10.110120177268982">
        <ele>17.600000000000001</ele>
        <time>2021-09-13T09:23:37Z</time>
      </trkpt>
      <trkpt lat="53.663355074822903" lon="10.110140210017562">
        <ele>17.600000000000001</ele>
        <time>2021-09-13T09:23:38Z</time>
      </trkpt>
      <trkpt lat="53.663341077044606" lon="10.110163344070315">
        <ele>17.699999999999999</ele>
        <time>2021-09-13T09:23:39Z</time>
      </trkpt>
      <trkpt lat="53.663136977702379" lon="10.110596185550094">
        <ele>16.399999999999999</ele>
        <time>2021-09-13T09:23:53Z</time>
      </trkpt>
      <trkpt lat="53.663007142022252" lon="10.110931126400828">
        <ele>16</ele>
        <time>2021-09-13T09:24:01Z</time>
      </trkpt>
      <trkpt lat="53.662986690178514" lon="10.110970353707671">
        <ele>16.100000000000001</ele>
        <time>2021-09-13T09:24:02Z</time>
      </trkpt>
      <trkpt lat="53.662811424583197" lon="10.111378552392125">
        <ele>17.800000000000001</ele>
        <time>2021-09-13T09:24:14Z</time>
      </trkpt>
      <trkpt lat="53.662757193669677" lon="10.111502436921">
        <ele>18.600000000000001</ele>
        <time>2021-09-13T09:24:18Z</time>
      </trkpt>
      <trkpt lat="53.662742106243968" lon="10.111537724733353">
        <ele>18.800000000000001</ele>
        <time>2021-09-13T09:24:19Z</time>
      </trkpt>
      <trkpt lat="53.662659293040633" lon="10.111790439113975">
        <ele>19.699999999999999</ele>
        <time>2021-09-13T09:24:31Z</time>
      </trkpt>
      <trkpt lat="53.662658538669348" lon="10.111793037503958">
        <ele>19.800000000000001</ele>
        <time>2021-09-13T09:24:32Z</time>
      </trkpt>
      <trkpt lat="53.662516716867685" lon="10.111818099394441">
        <ele>19.100000000000001</ele>
        <time>2021-09-13T09:24:53Z</time>
      </trkpt>
      <trkpt lat="53.662499114871025" lon="10.111814411357045">
        <ele>19</ele>
        <time>2021-09-13T09:24:54Z</time>
      </trkpt>
      <trkpt lat="53.662467263638973" lon="10.111804017797112">
        <ele>18.600000000000001</ele>
        <time>2021-09-13T09:24:56Z</time>
      </trkpt>
      <trkpt lat="53.662447482347488" lon="10.11179412715137">
        <ele>18.399999999999999</ele>
        <time>2021-09-13T09:24:57Z</time>
      </trkpt>
      <trkpt lat="53.66242652758956" lon="10.111785493791103">
        <ele>18</ele>
        <time>2021-09-13T09:24:58Z</time>
      </trkpt>
      <trkpt lat="53.662407416850328" lon="10.111780045554042">
        <ele>17.699999999999999</ele>
        <time>2021-09-13T09:24:59Z</time>
      </trkpt>
      <trkpt lat="53.662365172058344" lon="10.111802341416478">
        <ele>16.800000000000001</ele>
        <time>2021-09-13T09:25:02Z</time>
      </trkpt>
      <trkpt lat="53.66234689950943" lon="10.111821200698614">
        <ele>16.699999999999999</ele>
        <time>2021-09-13T09:25:03Z</time>
      </trkpt>
      <trkpt lat="53.662337427958846" lon="10.111852465197444">
        <ele>16.5</ele>
        <time>2021-09-13T09:25:04Z</time>
      </trkpt>
      <trkpt lat="53.66230926476419" lon="10.111969225108624">
        <ele>15.800000000000001</ele>
        <time>2021-09-13T09:25:08Z</time>
      </trkpt>
      <trkpt lat="53.662237348034978" lon="10.112322689965367">
        <ele>14.300000000000001</ele>
        <time>2021-09-13T09:25:16Z</time>
      </trkpt>
      <trkpt lat="53.662113379687071" lon="10.112766595557332">
        <ele>14.1</ele>
        <time>2021-09-13T09:25:26Z</time>
      </trkpt>
      <trkpt lat="53.661990333348513" lon="10.11315886862576">
        <ele>15.5</ele>
        <time>2021-09-13T09:25:36Z</time>
      </trkpt>
      <trkpt lat="53.661980023607612" lon="10.113194156438112">
        <ele>15.5</ele>
        <time>2021-09-13T09:25:37Z</time>
      </trkpt>
      <trkpt lat="53.661962253972888" lon="10.113239083439112">
        <ele>15.4</ele>
        <time>2021-09-13T09:25:38Z</time>
      </trkpt>
      <trkpt lat="53.661949764937162" lon="10.113282669335604">
        <ele>15.4</ele>
        <time>2021-09-13T09:25:39Z</time>
      </trkpt>
      <trkpt lat="53.661931743845344" lon="10.113318460062146">
        <ele>15.4</ele>
        <time>2021-09-13T09:25:40Z</time>
      </trkpt>
      <trkpt lat="53.661915650591254" lon="10.113361375406384">
        <ele>15.4</ele>
        <time>2021-09-13T09:25:41Z</time>
      </trkpt>
      <trkpt lat="53.661902826279402" lon="10.113407140597701">
        <ele>15.300000000000001</ele>
        <time>2021-09-13T09:25:42Z</time>
      </trkpt>
      <trkpt lat="53.661889331415296" lon="10.113449972122908">
        <ele>15.300000000000001</ele>
        <time>2021-09-13T09:25:43Z</time>
      </trkpt>
      <trkpt lat="53.661874495446682" lon="10.113491294905543">
        <ele>15.300000000000001</ele>
        <time>2021-09-13T09:25:44Z</time>
      </trkpt>
      <trkpt lat="53.661856222897768" lon="10.11353068985045">
        <ele>15.300000000000001</ele>
        <time>2021-09-13T09:25:45Z</time>
      </trkpt>
      <trkpt lat="53.661841470748186" lon="10.113570671528578">
        <ele>15.300000000000001</ele>
        <time>2021-09-13T09:25:46Z</time>
      </trkpt>
      <trkpt lat="53.661825628951192" lon="10.113613503053784">
        <ele>15.300000000000001</ele>
        <time>2021-09-13T09:25:47Z</time>
      </trkpt>
      <trkpt lat="53.661807775497437" lon="10.113647198304534">
        <ele>15.300000000000001</ele>
        <time>2021-09-13T09:25:48Z</time>
      </trkpt>
      <trkpt lat="53.661795537918806" lon="10.113679300993681">
        <ele>15.4</ele>
        <time>2021-09-13T09:25:49Z</time>
      </trkpt>
      <trkpt lat="53.66165304556489" lon="10.114106526598334">
        <ele>15.1</ele>
        <time>2021-09-13T09:26:01Z</time>
      </trkpt>
      <trkpt lat="53.66156461648643" lon="10.114402491599321">
        <ele>15.199999999999999</ele>
        <time>2021-09-13T09:26:08Z</time>
      </trkpt>
      <trkpt lat="53.661544248461723" lon="10.11444884352386">
        <ele>15.300000000000001</ele>
        <time>2021-09-13T09:26:09Z</time>
      </trkpt>
      <trkpt lat="53.661533854901791" lon="10.114483879879117">
        <ele>15.300000000000001</ele>
        <time>2021-09-13T09:26:10Z</time>
      </trkpt>
      <trkpt lat="53.6613813880831" lon="10.114775989204645">
        <ele>15.5</ele>
        <time>2021-09-13T09:26:18Z</time>
      </trkpt>
      <trkpt lat="53.661374095827341" lon="10.114801386371255">
        <ele>15.6</ele>
        <time>2021-09-13T09:26:19Z</time>
      </trkpt>
      <trkpt lat="53.661359427496791" lon="10.114825861528516">
        <ele>15.800000000000001</ele>
        <time>2021-09-13T09:26:20Z</time>
      </trkpt>
      <trkpt lat="53.661345932632685" lon="10.114850252866745">
        <ele>15.9</ele>
        <time>2021-09-13T09:26:21Z</time>
      </trkpt>
      <trkpt lat="53.661327827721834" lon="10.114883612841368">
        <ele>15.9</ele>
        <time>2021-09-13T09:26:22Z</time>
      </trkpt>
      <trkpt lat="53.661313494667411" lon="10.114919738844037">
        <ele>16</ele>
        <time>2021-09-13T09:26:23Z</time>
      </trkpt>
      <trkpt lat="53.661280805245042" lon="10.114991655573249">
        <ele>16.100000000000001</ele>
        <time>2021-09-13T09:26:24Z</time>
      </trkpt>
      <trkpt lat="53.661258593201637" lon="10.115039013326168">
        <ele>16.199999999999999</ele>
        <time>2021-09-13T09:26:25Z</time>
      </trkpt>
      <trkpt lat="53.661237470805645" lon="10.115092154592276">
        <ele>16.300000000000001</ele>
        <time>2021-09-13T09:26:26Z</time>
      </trkpt>
      <trkpt lat="53.661229088902473" lon="10.115132052451372">
        <ele>16.399999999999999</ele>
        <time>2021-09-13T09:26:27Z</time>
      </trkpt>
      <trkpt lat="53.661166559904814" lon="10.115454839542508">
        <ele>17</ele>
        <time>2021-09-13T09:26:34Z</time>
      </trkpt>
      <trkpt lat="53.66111995652318" lon="10.115966470912099">
        <ele>17.399999999999999</ele>
        <time>2021-09-13T09:26:43Z</time>
      </trkpt>
      <trkpt lat="53.661094643175602" lon="10.116039980202913">
        <ele>17.300000000000001</ele>
        <time>2021-09-13T09:26:47Z</time>
      </trkpt>
      <trkpt lat="53.661036137491465" lon="10.116342734545469">
        <ele>17</ele>
        <time>2021-09-13T09:27:08Z</time>
      </trkpt>
      <trkpt lat="53.66103152744472" lon="10.116384476423264">
        <ele>16.899999999999999</ele>
        <time>2021-09-13T09:27:09Z</time>
      </trkpt>
      <trkpt lat="53.661026582121849" lon="10.116423787549138">
        <ele>16.899999999999999</ele>
        <time>2021-09-13T09:27:10Z</time>
      </trkpt>
      <trkpt lat="53.661021301522851" lon="10.116450190544128">
        <ele>16.899999999999999</ele>
        <time>2021-09-13T09:27:11Z</time>
      </trkpt>
      <trkpt lat="53.661000598222017" lon="10.116550186648965">
        <ele>16.800000000000001</ele>
        <time>2021-09-13T09:27:14Z</time>
      </trkpt>
      <trkpt lat="53.660985762253404" lon="10.116585977375507">
        <ele>16.600000000000001</ele>
        <time>2021-09-13T09:27:15Z</time>
      </trkpt>
      <trkpt lat="53.660966819152236" lon="10.116629227995872">
        <ele>16.5</ele>
        <time>2021-09-13T09:27:16Z</time>
      </trkpt>
      <trkpt lat="53.660947708413005" lon="10.116676753386855">
        <ele>16.399999999999999</ele>
        <time>2021-09-13T09:27:17Z</time>
      </trkpt>
      <trkpt lat="53.660930022597313" lon="10.116725200787187">
        <ele>16.300000000000001</ele>
        <time>2021-09-13T09:27:18Z</time>
      </trkpt>
      <trkpt lat="53.66078183054924" lon="10.117225768044591">
        <ele>15.5</ele>
        <time>2021-09-13T09:27:30Z</time>
      </trkpt>
      <trkpt lat="53.660751655697823" lon="10.117322076112032">
        <ele>15.5</ele>
        <time>2021-09-13T09:27:35Z</time>
      </trkpt>
      <trkpt lat="53.660742100328207" lon="10.117346718907356">
        <ele>15.5</ele>
        <time>2021-09-13T09:27:36Z</time>
      </trkpt>
      <trkpt lat="53.660730784758925" lon="10.117379575967789">
        <ele>15.6</ele>
        <time>2021-09-13T09:27:37Z</time>
      </trkpt>
      <trkpt lat="53.660725420340896" lon="10.117412684485316">
        <ele>15.6</ele>
        <time>2021-09-13T09:27:38Z</time>
      </trkpt>
      <trkpt lat="53.660719888284802" lon="10.117445960640907">
        <ele>15.699999999999999</ele>
        <time>2021-09-13T09:27:39Z</time>
      </trkpt>
      <trkpt lat="53.660715529695153" lon="10.117473872378469">
        <ele>15.800000000000001</ele>
        <time>2021-09-13T09:27:40Z</time>
      </trkpt>
      <trkpt lat="53.66064939647913" lon="10.117863044142723">
        <ele>18.100000000000001</ele>
        <time>2021-09-13T09:27:54Z</time>
      </trkpt>
      <trkpt lat="53.660575300455093" lon="10.118272164836526">
        <ele>18.800000000000001</ele>
        <time>2021-09-13T09:28:05Z</time>
      </trkpt>
      <trkpt lat="53.660610001534224" lon="10.118760326877236">
        <ele>18.899999999999999</ele>
        <time>2021-09-13T09:28:16Z</time>
      </trkpt>
      <trkpt lat="53.660630621016026" lon="10.119350329041481">
        <ele>19.699999999999999</ele>
        <time>2021-09-13T09:28:29Z</time>
      </trkpt>
      <trkpt lat="53.660618551075459" lon="10.119474967941642">
        <ele>19.399999999999999</ele>
        <time>2021-09-13T09:28:31Z</time>
      </trkpt>
      <trkpt lat="53.660620059818029" lon="10.119538083672523">
        <ele>19.199999999999999</ele>
        <time>2021-09-13T09:28:32Z</time>
      </trkpt>
      <trkpt lat="53.660613857209682" lon="10.119598936289549">
        <ele>18.899999999999999</ele>
        <time>2021-09-13T09:28:33Z</time>
      </trkpt>
      <trkpt lat="53.660615952685475" lon="10.119649395346642">
        <ele>18.600000000000001</ele>
        <time>2021-09-13T09:28:34Z</time>
      </trkpt>
      <trkpt lat="53.660627184435725" lon="10.119700273498893">
        <ele>18.399999999999999</ele>
        <time>2021-09-13T09:28:35Z</time>
      </trkpt>
      <trkpt lat="53.660633806139231" lon="10.119760790839791">
        <ele>18.199999999999999</ele>
        <time>2021-09-13T09:28:36Z</time>
      </trkpt>
      <trkpt lat="53.660639589652419" lon="10.11982231400907">
        <ele>18.100000000000001</ele>
        <time>2021-09-13T09:28:37Z</time>
      </trkpt>
      <trkpt lat="53.660767078399658" lon="10.120358001440763">
        <ele>16.300000000000001</ele>
        <time>2021-09-13T09:28:46Z</time>
      </trkpt>
      <trkpt lat="53.660779986530542" lon="10.120477611199021">
        <ele>16</ele>
        <time>2021-09-13T09:28:49Z</time>
      </trkpt>
      <trkpt lat="53.660787027329206" lon="10.120518347248435">
        <ele>15.800000000000001</ele>
        <time>2021-09-13T09:28:50Z</time>
      </trkpt>
      <trkpt lat="53.660805635154247" lon="10.120570315048099">
        <ele>15.6</ele>
        <time>2021-09-13T09:28:51Z</time>
      </trkpt>
      <trkpt lat="53.661060612648726" lon="10.121310269460082">
        <ele>15.300000000000001</ele>
        <time>2021-09-13T09:29:03Z</time>
      </trkpt>
      <trkpt lat="53.660983415320516" lon="10.122047290205956">
        <ele>15.4</ele>
        <time>2021-09-13T09:29:18Z</time>
      </trkpt>
      <trkpt lat="53.660892890766263" lon="10.122241163626313">
        <ele>15.300000000000001</ele>
        <time>2021-09-13T09:29:24Z</time>
      </trkpt>
      <trkpt lat="53.660879982635379" lon="10.122275277972221">
        <ele>15.300000000000001</ele>
        <time>2021-09-13T09:29:25Z</time>
      </trkpt>
      <trkpt lat="53.660866068676114" lon="10.12231676839292">
        <ele>15.4</ele>
        <time>2021-09-13T09:29:26Z</time>
      </trkpt>
      <trkpt lat="53.660851735621691" lon="10.122361024841666">
        <ele>15.5</ele>
        <time>2021-09-13T09:29:27Z</time>
      </trkpt>
      <trkpt lat="53.660840755328536" lon="10.12240276671946">
        <ele>15.6</ele>
        <time>2021-09-13T09:29:28Z</time>
      </trkpt>
      <trkpt lat="53.660831032320857" lon="10.122438557446003">
        <ele>15.699999999999999</ele>
        <time>2021-09-13T09:29:29Z</time>
      </trkpt>
      <trkpt lat="53.660822147503495" lon="10.122472001239657">
        <ele>15.800000000000001</ele>
        <time>2021-09-13T09:29:30Z</time>
      </trkpt>
      <trkpt lat="53.66081309504807" lon="10.122500332072377">
        <ele>16</ele>
        <time>2021-09-13T09:29:31Z</time>
      </trkpt>
      <trkpt lat="53.660800438374281" lon="10.122525729238987">
        <ele>16.100000000000001</ele>
        <time>2021-09-13T09:29:32Z</time>
      </trkpt>
      <trkpt lat="53.660789709538221" lon="10.122556071728468">
        <ele>16.300000000000001</ele>
        <time>2021-09-13T09:29:33Z</time>
      </trkpt>
      <trkpt lat="53.660777388140559" lon="10.122598316520452">
        <ele>16.399999999999999</ele>
        <time>2021-09-13T09:29:34Z</time>
      </trkpt>
      <trkpt lat="53.660763641819358" lon="10.122643327340484">
        <ele>16.600000000000001</ele>
        <time>2021-09-13T09:29:35Z</time>
      </trkpt>
      <trkpt lat="53.660754337906837" lon="10.122693367302418">
        <ele>16.699999999999999</ele>
        <time>2021-09-13T09:29:36Z</time>
      </trkpt>
      <trkpt lat="53.660745117813349" lon="10.122747179120779">
        <ele>16.699999999999999</ele>
        <time>2021-09-13T09:29:37Z</time>
      </trkpt>
      <trkpt lat="53.66073053330183" lon="10.122795039787889">
        <ele>16.800000000000001</ele>
        <time>2021-09-13T09:29:38Z</time>
      </trkpt>
      <trkpt lat="53.660717122256756" lon="10.122842816635966">
        <ele>16.899999999999999</ele>
        <time>2021-09-13T09:29:39Z</time>
      </trkpt>
      <trkpt lat="53.660705471411347" lon="10.122888162732124">
        <ele>16.899999999999999</ele>
        <time>2021-09-13T09:29:40Z</time>
      </trkpt>
      <trkpt lat="53.660695161670446" lon="10.122927390038967">
        <ele>17</ele>
        <time>2021-09-13T09:29:41Z</time>
      </trkpt>
      <trkpt lat="53.660672698169947" lon="10.122985057532787">
        <ele>16.899999999999999</ele>
        <time>2021-09-13T09:29:46Z</time>
      </trkpt>
      <trkpt lat="53.660755343735218" lon="10.123251685872674">
        <ele>19.5</ele>
        <time>2021-09-13T09:30:49Z</time>
      </trkpt>
      <trkpt lat="53.660734975710511" lon="10.123239615932107">
        <ele>19.199999999999999</ele>
        <time>2021-09-13T09:30:50Z</time>
      </trkpt>
      <trkpt lat="53.660616455599666" lon="10.123174991458654">
        <ele>18</ele>
        <time>2021-09-13T09:30:56Z</time>
      </trkpt>
      <trkpt lat="53.660597763955593" lon="10.123171722516418">
        <ele>17.399999999999999</ele>
        <time>2021-09-13T09:30:58Z</time>
      </trkpt>
      <trkpt lat="53.660579994320869" lon="10.123166777193546">
        <ele>17.100000000000001</ele>
        <time>2021-09-13T09:30:59Z</time>
      </trkpt>
      <trkpt lat="53.660528361797333" lon="10.123169794678688">
        <ele>16.399999999999999</ele>
        <time>2021-09-13T09:31:02Z</time>
      </trkpt>
      <trkpt lat="53.660513190552592" lon="10.123188989236951">
        <ele>16.199999999999999</ele>
        <time>2021-09-13T09:31:03Z</time>
      </trkpt>
      <trkpt lat="53.660494582727551" lon="10.123214637860656">
        <ele>16</ele>
        <time>2021-09-13T09:31:04Z</time>
      </trkpt>
      <trkpt lat="53.660478824749589" lon="10.123242465779185">
        <ele>15.9</ele>
        <time>2021-09-13T09:31:05Z</time>
      </trkpt>
      <trkpt lat="53.660459127277136" lon="10.123271299526095">
        <ele>15.800000000000001</ele>
        <time>2021-09-13T09:31:06Z</time>
      </trkpt>
      <trkpt lat="53.660438004881144" lon="10.123297870159149">
        <ele>15.699999999999999</ele>
        <time>2021-09-13T09:31:07Z</time>
      </trkpt>
      <trkpt lat="53.660245640203357" lon="10.123594673350453">
        <ele>15.5</ele>
        <time>2021-09-13T09:31:17Z</time>
      </trkpt>
      <trkpt lat="53.660108093172312" lon="10.12381293810904">
        <ele>15.5</ele>
        <time>2021-09-13T09:31:24Z</time>
      </trkpt>
      <trkpt lat="53.660103147849441" lon="10.123841604217887">
        <ele>15.5</ele>
        <time>2021-09-13T09:31:25Z</time>
      </trkpt>
      <trkpt lat="53.660106332972646" lon="10.123869683593512">
        <ele>15.5</ele>
        <time>2021-09-13T09:31:26Z</time>
      </trkpt>
      <trkpt lat="53.660133993253112" lon="10.12391846626997">
        <ele>15.5</ele>
        <time>2021-09-13T09:31:28Z</time>
      </trkpt>
      <trkpt lat="53.660292327404022" lon="10.124090295284986">
        <ele>16</ele>
        <time>2021-09-13T09:31:43Z</time>
      </trkpt>
      <trkpt lat="53.660403555259109" lon="10.124259274452925">
        <ele>17.800000000000001</ele>
        <time>2021-09-13T09:32:01Z</time>
      </trkpt>
      <trkpt lat="53.660393580794334" lon="10.124332197010517">
        <ele>18.199999999999999</ele>
        <time>2021-09-13T09:32:07Z</time>
      </trkpt>
      <trkpt lat="53.660309426486492" lon="10.124707035720348">
        <ele>19.399999999999999</ele>
        <time>2021-09-13T09:32:33Z</time>
      </trkpt>
      <trkpt lat="53.660301547497511" lon="10.124730169773102">
        <ele>19.399999999999999</ele>
        <time>2021-09-13T09:32:34Z</time>
      </trkpt>
      <trkpt lat="53.660290567204356" lon="10.124751543626189">
        <ele>19.5</ele>
        <time>2021-09-13T09:32:35Z</time>
      </trkpt>
      <trkpt lat="53.660277742892504" lon="10.12477065436542">
        <ele>19.5</ele>
        <time>2021-09-13T09:32:36Z</time>
      </trkpt>
      <trkpt lat="53.660268355160952" lon="10.124795297160745">
        <ele>19.600000000000001</ele>
        <time>2021-09-13T09:32:37Z</time>
      </trkpt>
      <trkpt lat="53.660260308533907" lon="10.124820023775101">
        <ele>19.600000000000001</ele>
        <time>2021-09-13T09:32:38Z</time>
      </trkpt>
      <trkpt lat="53.660088060423732" lon="10.125443888828158">
        <ele>19.699999999999999</ele>
        <time>2021-09-13T09:32:51Z</time>
      </trkpt>
      <trkpt lat="53.659990327432752" lon="10.125541621819139">
        <ele>19.100000000000001</ele>
        <time>2021-09-13T09:32:55Z</time>
      </trkpt>
      <trkpt lat="53.659882284700871" lon="10.125597948208451">
        <ele>18.399999999999999</ele>
        <time>2021-09-13T09:33:00Z</time>
      </trkpt>
      <trkpt lat="53.659870969131589" lon="10.125635331496596">
        <ele>18.300000000000001</ele>
        <time>2021-09-13T09:33:01Z</time>
      </trkpt>
      <trkpt lat="53.659859569743276" lon="10.125675061717629">
        <ele>18.100000000000001</ele>
        <time>2021-09-13T09:33:02Z</time>
      </trkpt>
      <trkpt lat="53.659845571964979" lon="10.125715881586075">
        <ele>18</ele>
        <time>2021-09-13T09:33:03Z</time>
      </trkpt>
      <trkpt lat="53.659837106242776" lon="10.125751085579395">
        <ele>17.899999999999999</ele>
        <time>2021-09-13T09:33:04Z</time>
      </trkpt>
      <trkpt lat="53.659829143434763" lon="10.12577866204083">
        <ele>17.699999999999999</ele>
        <time>2021-09-13T09:33:05Z</time>
      </trkpt>
      <trkpt lat="53.659820426255465" lon="10.125806070864201">
        <ele>17.600000000000001</ele>
        <time>2021-09-13T09:33:06Z</time>
      </trkpt>
      <trkpt lat="53.659813133999705" lon="10.12583582662046">
        <ele>17.399999999999999</ele>
        <time>2021-09-13T09:33:07Z</time>
      </trkpt>
      <trkpt lat="53.659671982750297" lon="10.126346033066511">
        <ele>17.699999999999999</ele>
        <time>2021-09-13T09:33:19Z</time>
      </trkpt>
      <trkpt lat="53.659543069079518" lon="10.127047095447779">
        <ele>18.699999999999999</ele>
        <time>2021-09-13T09:33:32Z</time>
      </trkpt>
      <trkpt lat="53.659495040774345" lon="10.127150444313884">
        <ele>19.600000000000001</ele>
        <time>2021-09-13T09:33:40Z</time>
      </trkpt>
      <trkpt lat="53.659470733255148" lon="10.127175841480494">
        <ele>19.600000000000001</ele>
        <time>2021-09-13T09:33:41Z</time>
      </trkpt>
      <trkpt lat="53.659439384937286" lon="10.127185061573982">
        <ele>19.600000000000001</ele>
        <time>2021-09-13T09:33:42Z</time>
      </trkpt>
      <trkpt lat="53.65940485149622" lon="10.127184558659792">
        <ele>19.5</ele>
        <time>2021-09-13T09:33:43Z</time>
      </trkpt>
      <trkpt lat="53.659371323883533" lon="10.127180367708206">
        <ele>19.300000000000001</ele>
        <time>2021-09-13T09:33:44Z</time>
      </trkpt>
      <trkpt lat="53.659345591440797" lon="10.127174919471145">
        <ele>19.100000000000001</ele>
        <time>2021-09-13T09:33:45Z</time>
      </trkpt>
      <trkpt lat="53.659319942817092" lon="10.127210123464465">
        <ele>18.300000000000001</ele>
        <time>2021-09-13T09:33:51Z</time>
      </trkpt>
      <trkpt lat="53.659290857613087" lon="10.127359153702855">
        <ele>17.899999999999999</ele>
        <time>2021-09-13T09:33:58Z</time>
      </trkpt>
      <trkpt lat="53.659282475709915" lon="10.127394944429398">
        <ele>17.800000000000001</ele>
        <time>2021-09-13T09:33:59Z</time>
      </trkpt>
      <trkpt lat="53.659275518730283" lon="10.127426544204354">
        <ele>17.800000000000001</ele>
        <time>2021-09-13T09:34:00Z</time>
      </trkpt>
      <trkpt lat="53.659231849014759" lon="10.127766849473119">
        <ele>18.100000000000001</ele>
        <time>2021-09-13T09:34:09Z</time>
      </trkpt>
      <trkpt lat="53.659221120178699" lon="10.127811776474118">
        <ele>18.100000000000001</ele>
        <time>2021-09-13T09:34:10Z</time>
      </trkpt>
      <trkpt lat="53.659212738275528" lon="10.127861984074116">
        <ele>18.100000000000001</ele>
        <time>2021-09-13T09:34:11Z</time>
      </trkpt>
      <trkpt lat="53.659191280603409" lon="10.127975475043058">
        <ele>18.100000000000001</ele>
        <time>2021-09-13T09:34:13Z</time>
      </trkpt>
      <trkpt lat="53.659192286431789" lon="10.128034483641386">
        <ele>18.100000000000001</ele>
        <time>2021-09-13T09:34:14Z</time>
      </trkpt>
      <trkpt lat="53.659191951155663" lon="10.128091815859079">
        <ele>18.100000000000001</ele>
        <time>2021-09-13T09:34:15Z</time>
      </trkpt>
      <trkpt lat="53.659188766032457" lon="10.128551395609975">
        <ele>18.199999999999999</ele>
        <time>2021-09-13T09:34:25Z</time>
      </trkpt>
      <trkpt lat="53.659287169575691" lon="10.129217673093081">
        <ele>18.300000000000001</ele>
        <time>2021-09-13T09:34:35Z</time>
      </trkpt>
      <trkpt lat="53.659296557307243" lon="10.129935499280691">
        <ele>18.600000000000001</ele>
        <time>2021-09-13T09:34:46Z</time>
      </trkpt>
      <trkpt lat="53.659295551478863" lon="10.130029041320086">
        <ele>18.800000000000001</ele>
        <time>2021-09-13T09:34:48Z</time>
      </trkpt>
      <trkpt lat="53.659299239516258" lon="10.130076818168163">
        <ele>19</ele>
        <time>2021-09-13T09:34:49Z</time>
      </trkpt>
      <trkpt lat="53.659295635297894" lon="10.130135742947459">
        <ele>19.100000000000001</ele>
        <time>2021-09-13T09:34:50Z</time>
      </trkpt>
      <trkpt lat="53.659193711355329" lon="10.130789447575808">
        <ele>18.5</ele>
        <time>2021-09-13T09:34:59Z</time>
      </trkpt>
      <trkpt lat="53.659093379974365" lon="10.131361177191138">
        <ele>18.699999999999999</ele>
        <time>2021-09-13T09:35:09Z</time>
      </trkpt>
      <trkpt lat="53.65890746936202" lon="10.131922848522663">
        <ele>18.600000000000001</ele>
        <time>2021-09-13T09:35:20Z</time>
      </trkpt>
      <trkpt lat="53.658660035580397" lon="10.132361054420471">
        <ele>18.300000000000001</ele>
        <time>2021-09-13T09:35:30Z</time>
      </trkpt>
      <trkpt lat="53.658356023952365" lon="10.132774030789733">
        <ele>18.300000000000001</ele>
        <time>2021-09-13T09:35:40Z</time>
      </trkpt>
      <trkpt lat="53.658113786950707" lon="10.133293708786368">
        <ele>18.300000000000001</ele>
        <time>2021-09-13T09:35:49Z</time>
      </trkpt>
      <trkpt lat="53.658095011487603" lon="10.133339054882526">
        <ele>18.300000000000001</ele>
        <time>2021-09-13T09:35:50Z</time>
      </trkpt>
      <trkpt lat="53.657974395900965" lon="10.1337496843189">
        <ele>18.5</ele>
        <time>2021-09-13T09:35:58Z</time>
      </trkpt>
      <trkpt lat="53.657735427841544" lon="10.134363826364279">
        <ele>18.300000000000001</ele>
        <time>2021-09-13T09:36:09Z</time>
      </trkpt>
      <trkpt lat="53.657326977699995" lon="10.135167064145207">
        <ele>18.600000000000001</ele>
        <time>2021-09-13T09:36:23Z</time>
      </trkpt>
      <trkpt lat="53.657068898901343" lon="10.135625386610627">
        <ele>19</ele>
        <time>2021-09-13T09:36:33Z</time>
      </trkpt>
      <trkpt lat="53.656835295259953" lon="10.13602034188807">
        <ele>19.600000000000001</ele>
        <time>2021-09-13T09:36:46Z</time>
      </trkpt>
      <trkpt lat="53.656646367162466" lon="10.136371878907084">
        <ele>19.300000000000001</ele>
        <time>2021-09-13T09:36:55Z</time>
      </trkpt>
      <trkpt lat="53.65635534748435" lon="10.137054333463311">
        <ele>19.399999999999999</ele>
        <time>2021-09-13T09:37:09Z</time>
      </trkpt>
      <trkpt lat="53.656092993915081" lon="10.137394387274981">
        <ele>19.5</ele>
        <time>2021-09-13T09:37:19Z</time>
      </trkpt>
      <trkpt lat="53.655945556238294" lon="10.137604689225554">
        <ele>19.5</ele>
        <time>2021-09-13T09:37:24Z</time>
      </trkpt>
      <trkpt lat="53.655912699177861" lon="10.137654645368457">
        <ele>19.5</ele>
        <time>2021-09-13T09:37:25Z</time>
      </trkpt>
      <trkpt lat="53.65550902672112" lon="10.138263506814837">
        <ele>19.300000000000001</ele>
        <time>2021-09-13T09:37:37Z</time>
      </trkpt>
      <trkpt lat="53.655228568241" lon="10.138805564492941">
        <ele>19.5</ele>
        <time>2021-09-13T09:37:47Z</time>
      </trkpt>
      <trkpt lat="53.655075347051024" lon="10.139059536159039">
        <ele>19.5</ele>
        <time>2021-09-13T09:37:52Z</time>
      </trkpt>
      <trkpt lat="53.655043831095099" lon="10.139101697131991">
        <ele>19.5</ele>
        <time>2021-09-13T09:37:53Z</time>
      </trkpt>
      <trkpt lat="53.655019104480743" lon="10.13914167881012">
        <ele>19.5</ele>
        <time>2021-09-13T09:37:54Z</time>
      </trkpt>
      <trkpt lat="53.655003346502781" lon="10.139184175059199">
        <ele>19.5</ele>
        <time>2021-09-13T09:37:55Z</time>
      </trkpt>
      <trkpt lat="53.654983313754201" lon="10.139230443164706">
        <ele>19.5</ele>
        <time>2021-09-13T09:37:56Z</time>
      </trkpt>
      <trkpt lat="53.654965292662382" lon="10.13928048312664">
        <ele>19.5</ele>
        <time>2021-09-13T09:37:57Z</time>
      </trkpt>
      <trkpt lat="53.654922042042017" lon="10.139355584979057">
        <ele>19.600000000000001</ele>
        <time>2021-09-13T09:37:59Z</time>
      </trkpt>
      <trkpt lat="53.654666226357222" lon="10.139924883842468">
        <ele>19.699999999999999</ele>
        <time>2021-09-13T09:38:10Z</time>
      </trkpt>
      <trkpt lat="53.654455002397299" lon="10.140289077535272">
        <ele>20.100000000000001</ele>
        <time>2021-09-13T09:38:20Z</time>
      </trkpt>
      <trkpt lat="53.654269259423018" lon="10.140370549634099">
        <ele>21.300000000000001</ele>
        <time>2021-09-13T09:38:35Z</time>
      </trkpt>
      <trkpt lat="53.654091982170939" lon="10.140456380322576">
        <ele>21.5</ele>
        <time>2021-09-13T09:38:54Z</time>
      </trkpt>
      <trkpt lat="53.654069351032376" lon="10.140474233776331">
        <ele>22.300000000000001</ele>
        <time>2021-09-13T09:38:57Z</time>
      </trkpt>
      <trkpt lat="53.653957787901163" lon="10.140624856576324">
        <ele>23.600000000000001</ele>
        <time>2021-09-13T09:39:18Z</time>
      </trkpt>
      <trkpt lat="53.653947729617357" lon="10.140647990629077">
        <ele>23.600000000000001</ele>
        <time>2021-09-13T09:39:19Z</time>
      </trkpt>
      <trkpt lat="53.653935240581632" lon="10.140674812719226">
        <ele>23.600000000000001</ele>
        <time>2021-09-13T09:39:20Z</time>
      </trkpt>
      <trkpt lat="53.653924008831382" lon="10.140704400837421">
        <ele>23.600000000000001</ele>
        <time>2021-09-13T09:39:21Z</time>
      </trkpt>
      <trkpt lat="53.653915375471115" lon="10.140733234584332">
        <ele>23.5</ele>
        <time>2021-09-13T09:39:22Z</time>
      </trkpt>
      <trkpt lat="53.653903473168612" lon="10.140766510739923">
        <ele>23.399999999999999</ele>
        <time>2021-09-13T09:39:23Z</time>
      </trkpt>
      <trkpt lat="53.653888469561934" lon="10.140800876542926">
        <ele>23.199999999999999</ele>
        <time>2021-09-13T09:39:24Z</time>
      </trkpt>
      <trkpt lat="53.653738098219037" lon="10.141270346939564">
        <ele>23.800000000000001</ele>
        <time>2021-09-13T09:39:37Z</time>
      </trkpt>
      <trkpt lat="53.653727285563946" lon="10.141308233141899">
        <ele>23.800000000000001</ele>
        <time>2021-09-13T09:39:38Z</time>
      </trkpt>
      <trkpt lat="53.653718987479806" lon="10.141351316124201">
        <ele>23.800000000000001</ele>
        <time>2021-09-13T09:39:39Z</time>
      </trkpt>
      <trkpt lat="53.653559647500515" lon="10.141810644418001">
        <ele>23.300000000000001</ele>
        <time>2021-09-13T09:39:49Z</time>
      </trkpt>
      <trkpt lat="53.653374826535583" lon="10.142315737903118">
        <ele>24.100000000000001</ele>
        <time>2021-09-13T09:40:00Z</time>
      </trkpt>
      <trkpt lat="53.653239039704204" lon="10.142852012068033">
        <ele>23.399999999999999</ele>
        <time>2021-09-13T09:40:08Z</time>
      </trkpt>
      <trkpt lat="53.653023540973663" lon="10.143522312864661">
        <ele>24.300000000000001</ele>
        <time>2021-09-13T09:40:21Z</time>
      </trkpt>
      <trkpt lat="53.652861686423421" lon="10.14398155733943">
        <ele>24.600000000000001</ele>
        <time>2021-09-13T09:40:29Z</time>
      </trkpt>
      <trkpt lat="53.652847018092871" lon="10.144043834879994">
        <ele>24.600000000000001</ele>
        <time>2021-09-13T09:40:30Z</time>
      </trkpt>
      <trkpt lat="53.652839306741953" lon="10.144102005288005">
        <ele>24.600000000000001</ele>
        <time>2021-09-13T09:40:31Z</time>
      </trkpt>
      <trkpt lat="53.652829751372337" lon="10.144166797399521">
        <ele>24.600000000000001</ele>
        <time>2021-09-13T09:40:32Z</time>
      </trkpt>
      <trkpt lat="53.65282254293561" lon="10.144226560369134">
        <ele>24.600000000000001</ele>
        <time>2021-09-13T09:40:33Z</time>
      </trkpt>
      <trkpt lat="53.652818016707897" lon="10.14471254311502">
        <ele>23.600000000000001</ele>
        <time>2021-09-13T09:40:41Z</time>
      </trkpt>
      <trkpt lat="53.652814328670502" lon="10.144751183688641">
        <ele>23.5</ele>
        <time>2021-09-13T09:40:42Z</time>
      </trkpt>
      <trkpt lat="53.652809048071504" lon="10.144783370196819">
        <ele>23.300000000000001</ele>
        <time>2021-09-13T09:40:43Z</time>
      </trkpt>
      <trkpt lat="53.652604864910245" lon="10.145118813961744">
        <ele>23.699999999999999</ele>
        <time>2021-09-13T09:40:55Z</time>
      </trkpt>
      <trkpt lat="53.65256454795599" lon="10.145138259977102">
        <ele>23.899999999999999</ele>
        <time>2021-09-13T09:41:00Z</time>
      </trkpt>
      <trkpt lat="53.652438232675195" lon="10.145205231383443">
        <ele>23.899999999999999</ele>
        <time>2021-09-13T09:41:20Z</time>
      </trkpt>
      <trkpt lat="53.652414260432124" lon="10.145214786753058">
        <ele>23.899999999999999</ele>
        <time>2021-09-13T09:41:21Z</time>
      </trkpt>
      <trkpt lat="53.652394311502576" lon="10.145219229161739">
        <ele>23.899999999999999</ele>
        <time>2021-09-13T09:41:22Z</time>
      </trkpt>
      <trkpt lat="53.652358520776033" lon="10.145225431770086">
        <ele>23.899999999999999</ele>
        <time>2021-09-13T09:41:24Z</time>
      </trkpt>
      <trkpt lat="53.652153583243489" lon="10.145356021821499">
        <ele>23.800000000000001</ele>
        <time>2021-09-13T09:41:34Z</time>
      </trkpt>
      <trkpt lat="53.651952920481563" lon="10.145362392067909">
        <ele>23.399999999999999</ele>
        <time>2021-09-13T09:41:42Z</time>
      </trkpt>
      <trkpt lat="53.651922326534986" lon="10.145367253571749">
        <ele>23.399999999999999</ele>
        <time>2021-09-13T09:41:43Z</time>
      </trkpt>
      <trkpt lat="53.651888128370047" lon="10.145358787849545">
        <ele>23.399999999999999</ele>
        <time>2021-09-13T09:41:44Z</time>
      </trkpt>
      <trkpt lat="53.651539692655206" lon="10.145339844748378">
        <ele>22.600000000000001</ele>
        <time>2021-09-13T09:41:55Z</time>
      </trkpt>
      <trkpt lat="53.650873079895973" lon="10.145243117585778">
        <ele>21.899999999999999</ele>
        <time>2021-09-13T09:42:12Z</time>
      </trkpt>
      <trkpt lat="53.650536295026541" lon="10.145284021273255">
        <ele>22.800000000000001</ele>
        <time>2021-09-13T09:42:23Z</time>
      </trkpt>
      <trkpt lat="53.650530846789479" lon="10.145310005173087">
        <ele>22.800000000000001</ele>
        <time>2021-09-13T09:42:24Z</time>
      </trkpt>
      <trkpt lat="53.650527829304338" lon="10.145337246358395">
        <ele>22.899999999999999</ele>
        <time>2021-09-13T09:42:25Z</time>
      </trkpt>
      <trkpt lat="53.650523973628879" lon="10.145373372361064">
        <ele>23.100000000000001</ele>
        <time>2021-09-13T09:42:26Z</time>
      </trkpt>
      <trkpt lat="53.650522297248244" lon="10.145415030419827">
        <ele>23.199999999999999</ele>
        <time>2021-09-13T09:42:27Z</time>
      </trkpt>
      <trkpt lat="53.650521291419864" lon="10.145891038700938">
        <ele>23.800000000000001</ele>
        <time>2021-09-13T09:42:38Z</time>
      </trkpt>
      <trkpt lat="53.650436047464609" lon="10.146504761651158">
        <ele>23.199999999999999</ele>
        <time>2021-09-13T09:42:50Z</time>
      </trkpt>
      <trkpt lat="53.650398915633559" lon="10.146872811019421">
        <ele>23.300000000000001</ele>
        <time>2021-09-13T09:42:55Z</time>
      </trkpt>
      <trkpt lat="53.650402603670955" lon="10.146933915093541">
        <ele>23.300000000000001</ele>
        <time>2021-09-13T09:42:56Z</time>
      </trkpt>
      <trkpt lat="53.650493463501334" lon="10.147500867024064">
        <ele>22.600000000000001</ele>
        <time>2021-09-13T09:43:06Z</time>
      </trkpt>
      <trkpt lat="53.650629753246903" lon="10.147949634119868">
        <ele>23.600000000000001</ele>
        <time>2021-09-13T09:43:16Z</time>
      </trkpt>
      <trkpt lat="53.650668477639556" lon="10.148534355685115">
        <ele>23.699999999999999</ele>
        <time>2021-09-13T09:43:26Z</time>
      </trkpt>
      <trkpt lat="53.650717176496983" lon="10.149180600419641">
        <ele>23.100000000000001</ele>
        <time>2021-09-13T09:43:34Z</time>
      </trkpt>
      <trkpt lat="53.650712063536048" lon="10.149274226278067">
        <ele>23.100000000000001</ele>
        <time>2021-09-13T09:43:35Z</time>
      </trkpt>
      <trkpt lat="53.650670740753412" lon="10.150291537865996">
        <ele>22.5</ele>
        <time>2021-09-13T09:43:49Z</time>
      </trkpt>
      <trkpt lat="53.650586167350411" lon="10.15085706487298">
        <ele>22.199999999999999</ele>
        <time>2021-09-13T09:43:58Z</time>
      </trkpt>
      <trkpt lat="53.650625729933381" lon="10.151631385087967">
        <ele>22.5</ele>
        <time>2021-09-13T09:44:08Z</time>
      </trkpt>
      <trkpt lat="53.650688929483294" lon="10.152469407767057">
        <ele>22.899999999999999</ele>
        <time>2021-09-13T09:44:19Z</time>
      </trkpt>
      <trkpt lat="53.650699155405164" lon="10.15254576690495">
        <ele>22.899999999999999</ele>
        <time>2021-09-13T09:44:20Z</time>
      </trkpt>
      <trkpt lat="53.650838127359748" lon="10.153237860649824">
        <ele>23.100000000000001</ele>
        <time>2021-09-13T09:44:30Z</time>
      </trkpt>
      <trkpt lat="53.650849191471934" lon="10.153846554458141">
        <ele>23.5</ele>
        <time>2021-09-13T09:44:40Z</time>
      </trkpt>
      <trkpt lat="53.650820693001151" lon="10.154529344290495">
        <ele>24.100000000000001</ele>
        <time>2021-09-13T09:44:51Z</time>
      </trkpt>
      <trkpt lat="53.650739723816514" lon="10.155197717249393">
        <ele>24.399999999999999</ele>
        <time>2021-09-13T09:45:02Z</time>
      </trkpt>
      <trkpt lat="53.650732515379786" lon="10.155249768868089">
        <ele>24.399999999999999</ele>
        <time>2021-09-13T09:45:03Z</time>
      </trkpt>
      <trkpt lat="53.650727653875947" lon="10.155306346714497">
        <ele>24.399999999999999</ele>
        <time>2021-09-13T09:45:04Z</time>
      </trkpt>
      <trkpt lat="53.650639643892646" lon="10.155691746622324">
        <ele>24.600000000000001</ele>
        <time>2021-09-13T09:45:12Z</time>
      </trkpt>
      <trkpt lat="53.650621455162764" lon="10.155732063576579">
        <ele>24.600000000000001</ele>
        <time>2021-09-13T09:45:13Z</time>
      </trkpt>
      <trkpt lat="53.650602428242564" lon="10.155769782140851">
        <ele>24.699999999999999</ele>
        <time>2021-09-13T09:45:14Z</time>
      </trkpt>
      <trkpt lat="53.65027729421854" lon="10.15613129362464">
        <ele>25.899999999999999</ele>
        <time>2021-09-13T09:45:26Z</time>
      </trkpt>
      <trkpt lat="53.650219459086657" lon="10.156191643327475">
        <ele>26.100000000000001</ele>
        <time>2021-09-13T09:45:28Z</time>
      </trkpt>
      <trkpt lat="53.65019179880619" lon="10.156237659975886">
        <ele>26.199999999999999</ele>
        <time>2021-09-13T09:45:29Z</time>
      </trkpt>
      <trkpt lat="53.64995333366096" lon="10.156670333817601">
        <ele>26.699999999999999</ele>
        <time>2021-09-13T09:45:40Z</time>
      </trkpt>
      <trkpt lat="53.649746049195528" lon="10.156956408172846">
        <ele>26.800000000000001</ele>
        <time>2021-09-13T09:45:48Z</time>
      </trkpt>
      <trkpt lat="53.649714197963476" lon="10.156996389850974">
        <ele>26.800000000000001</ele>
        <time>2021-09-13T09:45:49Z</time>
      </trkpt>
      <trkpt lat="53.649683687835932" lon="10.157039137557149">
        <ele>26.800000000000001</ele>
        <time>2021-09-13T09:45:50Z</time>
      </trkpt>
      <trkpt lat="53.649656865745783" lon="10.157080125063658">
        <ele>26.899999999999999</ele>
        <time>2021-09-13T09:45:51Z</time>
      </trkpt>
      <trkpt lat="53.649632558226585" lon="10.1571124792099">
        <ele>26.899999999999999</ele>
        <time>2021-09-13T09:45:52Z</time>
      </trkpt>
      <trkpt lat="53.64960640668869" lon="10.157136283814907">
        <ele>26.899999999999999</ele>
        <time>2021-09-13T09:45:53Z</time>
      </trkpt>
      <trkpt lat="53.649579165503383" lon="10.157165452837944">
        <ele>27</ele>
        <time>2021-09-13T09:45:54Z</time>
      </trkpt>
      <trkpt lat="53.649511272087693" lon="10.157262599095702">
        <ele>27.100000000000001</ele>
        <time>2021-09-13T09:45:57Z</time>
      </trkpt>
      <trkpt lat="53.649489479139447" lon="10.157294115051627">
        <ele>27.199999999999999</ele>
        <time>2021-09-13T09:45:58Z</time>
      </trkpt>
      <trkpt lat="53.649466428905725" lon="10.157325714826584">
        <ele>27.199999999999999</ele>
        <time>2021-09-13T09:45:59Z</time>
      </trkpt>
      <trkpt lat="53.649438684806228" lon="10.157352620735765">
        <ele>27.300000000000001</ele>
        <time>2021-09-13T09:46:00Z</time>
      </trkpt>
      <trkpt lat="53.649409934878349" lon="10.157380113378167">
        <ele>27.399999999999999</ele>
        <time>2021-09-13T09:46:01Z</time>
      </trkpt>
      <trkpt lat="53.649381771683693" lon="10.157408779487014">
        <ele>27.5</ele>
        <time>2021-09-13T09:46:02Z</time>
      </trkpt>
      <trkpt lat="53.649352351203561" lon="10.157428476959467">
        <ele>27.600000000000001</ele>
        <time>2021-09-13T09:46:03Z</time>
      </trkpt>
      <trkpt lat="53.649223186075687" lon="10.157609274610877">
        <ele>28.399999999999999</ele>
        <time>2021-09-13T09:46:09Z</time>
      </trkpt>
      <trkpt lat="53.649207511916757" lon="10.157659566029906">
        <ele>28.399999999999999</ele>
        <time>2021-09-13T09:46:10Z</time>
      </trkpt>
      <trkpt lat="53.649196783080697" lon="10.157718742266297">
        <ele>28.399999999999999</ele>
        <time>2021-09-13T09:46:11Z</time>
      </trkpt>
      <trkpt lat="53.649197537451982" lon="10.157808344811201">
        <ele>28.399999999999999</ele>
        <time>2021-09-13T09:46:13Z</time>
      </trkpt>
      <trkpt lat="53.649208266288042" lon="10.157952262088656">
        <ele>28.399999999999999</ele>
        <time>2021-09-13T09:46:16Z</time>
      </trkpt>
      <trkpt lat="53.649363415315747" lon="10.158492140471935">
        <ele>28.600000000000001</ele>
        <time>2021-09-13T09:46:27Z</time>
      </trkpt>
      <trkpt lat="53.649542033672333" lon="10.158939817920327">
        <ele>29.800000000000001</ele>
        <time>2021-09-13T09:46:37Z</time>
      </trkpt>
      <trkpt lat="53.649667343124747" lon="10.159140648320317">
        <ele>30.199999999999999</ele>
        <time>2021-09-13T09:46:42Z</time>
      </trkpt>
      <trkpt lat="53.649788042530417" lon="10.15952629968524">
        <ele>31.199999999999999</ele>
        <time>2021-09-13T09:46:52Z</time>
      </trkpt>
      <trkpt lat="53.649913100525737" lon="10.160021837800741">
        <ele>31.699999999999999</ele>
        <time>2021-09-13T09:47:04Z</time>
      </trkpt>
      <trkpt lat="53.650112003087997" lon="10.160760534927249">
        <ele>31.800000000000001</ele>
        <time>2021-09-13T09:47:18Z</time>
      </trkpt>
      <trkpt lat="53.650142345577478" lon="10.160905877128243">
        <ele>31.800000000000001</ele>
        <time>2021-09-13T09:47:21Z</time>
      </trkpt>
      <trkpt lat="53.650148632004857" lon="10.160947032272816">
        <ele>31.699999999999999</ele>
        <time>2021-09-13T09:47:22Z</time>
      </trkpt>
      <trkpt lat="53.650232031941414" lon="10.161344250664115">
        <ele>31.5</ele>
        <time>2021-09-13T09:47:32Z</time>
      </trkpt>
      <trkpt lat="53.650227589532733" lon="10.161372581496835">
        <ele>31.399999999999999</ele>
        <time>2021-09-13T09:47:33Z</time>
      </trkpt>
      <trkpt lat="53.65022012963891" lon="10.161403678357601">
        <ele>31.399999999999999</ele>
        <time>2021-09-13T09:47:34Z</time>
      </trkpt>
      <trkpt lat="53.650193056091666" lon="10.16145640052855">
        <ele>31.199999999999999</ele>
        <time>2021-09-13T09:47:36Z</time>
      </trkpt>
      <trkpt lat="53.650179645046592" lon="10.16149110160768">
        <ele>31.199999999999999</ele>
        <time>2021-09-13T09:47:37Z</time>
      </trkpt>
      <trkpt lat="53.65017612464726" lon="10.161531921476126">
        <ele>31.100000000000001</ele>
        <time>2021-09-13T09:47:38Z</time>
      </trkpt>
      <trkpt lat="53.650098005309701" lon="10.16210725530982">
        <ele>30.899999999999999</ele>
        <time>2021-09-13T09:47:49Z</time>
      </trkpt>
      <trkpt lat="53.650012258440256" lon="10.162586532533169">
        <ele>30.800000000000001</ele>
        <time>2021-09-13T09:47:57Z</time>
      </trkpt>
      <trkpt lat="53.650015527382493" lon="10.162628944963217">
        <ele>30.800000000000001</ele>
        <time>2021-09-13T09:47:58Z</time>
      </trkpt>
      <trkpt lat="53.650019131600857" lon="10.16266968101263">
        <ele>30.899999999999999</ele>
        <time>2021-09-13T09:47:59Z</time>
      </trkpt>
      <trkpt lat="53.65003002807498" lon="10.16272340901196">
        <ele>31.100000000000001</ele>
        <time>2021-09-13T09:48:01Z</time>
      </trkpt>
      <trkpt lat="53.650043187662959" lon="10.162758696824312">
        <ele>31.199999999999999</ele>
        <time>2021-09-13T09:48:02Z</time>
      </trkpt>
      <trkpt lat="53.650054922327399" lon="10.162796415388584">
        <ele>31.399999999999999</ele>
        <time>2021-09-13T09:48:03Z</time>
      </trkpt>
      <trkpt lat="53.650051821023226" lon="10.162824830040336">
        <ele>31.399999999999999</ele>
        <time>2021-09-13T09:48:04Z</time>
      </trkpt>
      <trkpt lat="53.650037152692676" lon="10.162853328511119">
        <ele>31.5</ele>
        <time>2021-09-13T09:48:05Z</time>
      </trkpt>
      <trkpt lat="53.650013515725732" lon="10.162871768698096">
        <ele>31.600000000000001</ele>
        <time>2021-09-13T09:48:06Z</time>
      </trkpt>
      <trkpt lat="53.649984011426568" lon="10.162894232198596">
        <ele>31.600000000000001</ele>
        <time>2021-09-13T09:48:07Z</time>
      </trkpt>
      <trkpt lat="53.649762896820903" lon="10.162975369021297">
        <ele>32.100000000000001</ele>
        <time>2021-09-13T09:48:18Z</time>
      </trkpt>
      <trkpt lat="53.649761220440269" lon="10.162977548316121">
        <ele>32.100000000000001</ele>
        <time>2021-09-13T09:48:20Z</time>
      </trkpt>
      <trkpt lat="53.64973490126431" lon="10.16307276673615">
        <ele>32</ele>
        <time>2021-09-13T09:48:40Z</time>
      </trkpt>
      <trkpt lat="53.649757113307714" lon="10.163080645725131">
        <ele>32</ele>
        <time>2021-09-13T09:48:41Z</time>
      </trkpt>
      <trkpt lat="53.649779995903373" lon="10.163089111447334">
        <ele>32</ele>
        <time>2021-09-13T09:48:42Z</time>
      </trkpt>
      <trkpt lat="53.649801285937428" lon="10.163090955466032">
        <ele>32</ele>
        <time>2021-09-13T09:48:43Z</time>
      </trkpt>
      <trkpt lat="53.650089958682656" lon="10.163227245211601">
        <ele>31.600000000000001</ele>
        <time>2021-09-13T09:48:56Z</time>
      </trkpt>
      <trkpt lat="53.650129353627563" lon="10.163288181647658">
        <ele>31.800000000000001</ele>
        <time>2021-09-13T09:49:04Z</time>
      </trkpt>
      <trkpt lat="53.650070931762457" lon="10.163333276286721">
        <ele>31.800000000000001</ele>
        <time>2021-09-13T09:49:12Z</time>
      </trkpt>
      <trkpt lat="53.650060454383492" lon="10.163354147225618">
        <ele>31.800000000000001</ele>
        <time>2021-09-13T09:49:13Z</time>
      </trkpt>
      <trkpt lat="53.650049641728401" lon="10.163384741172194">
        <ele>31.800000000000001</ele>
        <time>2021-09-13T09:49:14Z</time>
      </trkpt>
      <trkpt lat="53.650043942034245" lon="10.163410557433963">
        <ele>31.800000000000001</ele>
        <time>2021-09-13T09:49:15Z</time>
      </trkpt>
      <trkpt lat="53.65004226565361" lon="10.163444839417934">
        <ele>31.800000000000001</ele>
        <time>2021-09-13T09:49:16Z</time>
      </trkpt>
      <trkpt lat="53.650041008368134" lon="10.163481300696731">
        <ele>31.800000000000001</ele>
        <time>2021-09-13T09:49:17Z</time>
      </trkpt>
      <trkpt lat="53.650034135207534" lon="10.163519941270351">
        <ele>31.800000000000001</ele>
        <time>2021-09-13T09:49:18Z</time>
      </trkpt>
      <trkpt lat="53.65002466365695" lon="10.163561264052987">
        <ele>31.800000000000001</ele>
        <time>2021-09-13T09:49:19Z</time>
      </trkpt>
      <trkpt lat="53.650014521554112" lon="10.163600072264671">
        <ele>31.800000000000001</ele>
        <time>2021-09-13T09:49:20Z</time>
      </trkpt>
      <trkpt lat="53.649973282590508" lon="10.163822444155812">
        <ele>31.800000000000001</ele>
        <time>2021-09-13T09:49:26Z</time>
      </trkpt>
      <trkpt lat="53.649965822696686" lon="10.163847338408232">
        <ele>31.800000000000001</ele>
        <time>2021-09-13T09:49:27Z</time>
      </trkpt>
      <trkpt lat="53.649958614259958" lon="10.163875753059983">
        <ele>31.800000000000001</ele>
        <time>2021-09-13T09:49:28Z</time>
      </trkpt>
      <trkpt lat="53.649950232356787" lon="10.163907771930099">
        <ele>31.800000000000001</ele>
        <time>2021-09-13T09:49:29Z</time>
      </trkpt>
      <trkpt lat="53.64994109608233" lon="10.163932917639613">
        <ele>31.800000000000001</ele>
        <time>2021-09-13T09:49:30Z</time>
      </trkpt>
      <trkpt lat="53.649816373363137" lon="10.164444632828236">
        <ele>31.5</ele>
        <time>2021-09-13T09:49:40Z</time>
      </trkpt>
      <trkpt lat="53.649667426943779" lon="10.164839839562774">
        <ele>31.600000000000001</ele>
        <time>2021-09-13T09:49:50Z</time>
      </trkpt>
      <trkpt lat="53.649375736713409" lon="10.165436128154397">
        <ele>32.600000000000001</ele>
        <time>2021-09-13T09:50:02Z</time>
      </trkpt>
      <trkpt lat="53.649367690086365" lon="10.165474098175764">
        <ele>32.700000000000003</ele>
        <time>2021-09-13T09:50:03Z</time>
      </trkpt>
      <trkpt lat="53.649355201050639" lon="10.165521372109652">
        <ele>32.899999999999999</ele>
        <time>2021-09-13T09:50:04Z</time>
      </trkpt>
      <trkpt lat="53.649344136938453" lon="10.165565880015492">
        <ele>33</ele>
        <time>2021-09-13T09:50:05Z</time>
      </trkpt>
      <trkpt lat="53.649339191615582" lon="10.165618183091283">
        <ele>33.100000000000001</ele>
        <time>2021-09-13T09:50:06Z</time>
      </trkpt>
      <trkpt lat="53.649343801662326" lon="10.165671491995454">
        <ele>33.200000000000003</ele>
        <time>2021-09-13T09:50:07Z</time>
      </trkpt>
      <trkpt lat="53.649285715073347" lon="10.166058400645852">
        <ele>33.899999999999999</ele>
        <time>2021-09-13T09:50:14Z</time>
      </trkpt>
      <trkpt lat="53.649263167753816" lon="10.166095364838839">
        <ele>34</ele>
        <time>2021-09-13T09:50:15Z</time>
      </trkpt>
      <trkpt lat="53.649234669283032" lon="10.166121264919639">
        <ele>34</ele>
        <time>2021-09-13T09:50:16Z</time>
      </trkpt>
      <trkpt lat="53.649206589907408" lon="10.166133418679237">
        <ele>34.100000000000001</ele>
        <time>2021-09-13T09:50:17Z</time>
      </trkpt>
      <trkpt lat="53.649177001789212" lon="10.166142806410789">
        <ele>34.200000000000003</ele>
        <time>2021-09-13T09:50:18Z</time>
      </trkpt>
      <trkpt lat="53.649147413671017" lon="10.166154792532325">
        <ele>34.299999999999997</ele>
        <time>2021-09-13T09:50:19Z</time>
      </trkpt>
      <trkpt lat="53.649116903543472" lon="10.166167700663209">
        <ele>34.399999999999999</ele>
        <time>2021-09-13T09:50:20Z</time>
      </trkpt>
      <trkpt lat="53.648904925212264" lon="10.166244311258197">
        <ele>35</ele>
        <time>2021-09-13T09:50:31Z</time>
      </trkpt>
      <trkpt lat="53.648876175284386" lon="10.166259650141001">
        <ele>35.100000000000001</ele>
        <time>2021-09-13T09:50:33Z</time>
      </trkpt>
      <trkpt lat="53.648857232183218" lon="10.166267696768045">
        <ele>35.100000000000001</ele>
        <time>2021-09-13T09:50:34Z</time>
      </trkpt>
      <trkpt lat="53.648836864158511" lon="10.166276497766376">
        <ele>35.100000000000001</ele>
        <time>2021-09-13T09:50:35Z</time>
      </trkpt>
      <trkpt lat="53.648816496133804" lon="10.166275827214122">
        <ele>35.100000000000001</ele>
        <time>2021-09-13T09:50:36Z</time>
      </trkpt>
      <trkpt lat="53.648794954642653" lon="10.166264260187745">
        <ele>35.100000000000001</ele>
        <time>2021-09-13T09:50:37Z</time>
      </trkpt>
      <trkpt lat="53.648773664608598" lon="10.166252441704273">
        <ele>35.100000000000001</ele>
        <time>2021-09-13T09:50:38Z</time>
      </trkpt>
      <trkpt lat="53.648600997403264" lon="10.165917752310634">
        <ele>36.200000000000003</ele>
        <time>2021-09-13T09:50:50Z</time>
      </trkpt>
      <trkpt lat="53.648603763431311" lon="10.165832005441189">
        <ele>36.299999999999997</ele>
        <time>2021-09-13T09:50:52Z</time>
      </trkpt>
      <trkpt lat="53.648609966039658" lon="10.165800992399454">
        <ele>36.200000000000003</ele>
        <time>2021-09-13T09:50:53Z</time>
      </trkpt>
      <trkpt lat="53.648568727076054" lon="10.165770314633846">
        <ele>35.799999999999997</ele>
        <time>2021-09-13T09:50:59Z</time>
      </trkpt>
      <trkpt lat="53.648521117866039" lon="10.165763022378087">
        <ele>35.600000000000001</ele>
        <time>2021-09-13T09:51:02Z</time>
      </trkpt>
      <trkpt lat="53.648467976599932" lon="10.165737038478255">
        <ele>35.299999999999997</ele>
        <time>2021-09-13T09:51:06Z</time>
      </trkpt>
      <trkpt lat="53.64845272153616" lon="10.165734691545367">
        <ele>35.100000000000001</ele>
        <time>2021-09-13T09:51:07Z</time>
      </trkpt>
      <trkpt lat="53.648433359339833" lon="10.165740558877587">
        <ele>34.899999999999999</ele>
        <time>2021-09-13T09:51:08Z</time>
      </trkpt>
      <trkpt lat="53.648410644382238" lon="10.165743073448539">
        <ele>34.700000000000003</ele>
        <time>2021-09-13T09:51:09Z</time>
      </trkpt>
      <trkpt lat="53.648380301892757" lon="10.165737541392446">
        <ele>34.5</ele>
        <time>2021-09-13T09:51:10Z</time>
      </trkpt>
      <trkpt lat="53.648337805643678" lon="10.165730165317655">
        <ele>34.200000000000003</ele>
        <time>2021-09-13T09:51:11Z</time>
      </trkpt>
      <trkpt lat="53.648300254717469" lon="10.165724130347371">
        <ele>34</ele>
        <time>2021-09-13T09:51:12Z</time>
      </trkpt>
      <trkpt lat="53.647882416844368" lon="10.165632348507643">
        <ele>32.799999999999997</ele>
        <time>2021-09-13T09:51:23Z</time>
      </trkpt>
      <trkpt lat="53.647491401061416" lon="10.165728237479925">
        <ele>33.200000000000003</ele>
        <time>2021-09-13T09:51:33Z</time>
      </trkpt>
      <trkpt lat="53.647405318915844" lon="10.165737541392446">
        <ele>33.399999999999999</ele>
        <time>2021-09-13T09:51:36Z</time>
      </trkpt>
      <trkpt lat="53.647373132407665" lon="10.165680879727006">
        <ele>33.600000000000001</ele>
        <time>2021-09-13T09:51:39Z</time>
      </trkpt>
      <trkpt lat="53.647357625886798" lon="10.16566788777709">
        <ele>33.600000000000001</ele>
        <time>2021-09-13T09:51:40Z</time>
      </trkpt>
      <trkpt lat="53.647339353337884" lon="10.165659673511982">
        <ele>33.600000000000001</ele>
        <time>2021-09-13T09:51:41Z</time>
      </trkpt>
      <trkpt lat="53.647322086617351" lon="10.165654895827174">
        <ele>33.600000000000001</ele>
        <time>2021-09-13T09:51:42Z</time>
      </trkpt>
      <trkpt lat="53.64730691537261" lon="10.165652800351381">
        <ele>33.600000000000001</ele>
        <time>2021-09-13T09:51:43Z</time>
      </trkpt>
      <trkpt lat="53.647252433001995" lon="10.165588008239865">
        <ele>33.5</ele>
        <time>2021-09-13T09:51:52Z</time>
      </trkpt>
      <trkpt lat="53.647267101332545" lon="10.165698481723666">
        <ele>33.5</ele>
        <time>2021-09-13T09:52:14Z</time>
      </trkpt>
      <trkpt lat="53.647280763834715" lon="10.165752628818154">
        <ele>33.5</ele>
        <time>2021-09-13T09:52:16Z</time>
      </trkpt>
      <trkpt lat="53.64727221429348" lon="10.165870059281588">
        <ele>33.5</ele>
        <time>2021-09-13T09:52:20Z</time>
      </trkpt>
      <trkpt lat="53.647257797420025" lon="10.1658936124295">
        <ele>33.600000000000001</ele>
        <time>2021-09-13T09:52:21Z</time>
      </trkpt>
      <trkpt lat="53.647236758843064" lon="10.165908448398113">
        <ele>33.600000000000001</ele>
        <time>2021-09-13T09:52:22Z</time>
      </trkpt>
      <trkpt lat="53.647214630618691" lon="10.165916243568063">
        <ele>33.700000000000003</ele>
        <time>2021-09-13T09:52:23Z</time>
      </trkpt>
      <trkpt lat="53.647198872640729" lon="10.165918506681919">
        <ele>33.700000000000003</ele>
        <time>2021-09-13T09:52:24Z</time>
      </trkpt>
      <trkpt lat="53.647183114662766" lon="10.165922781452537">
        <ele>33.700000000000003</ele>
        <time>2021-09-13T09:52:25Z</time>
      </trkpt>
      <trkpt lat="53.647037269547582" lon="10.165636958554387">
        <ele>33.799999999999997</ele>
        <time>2021-09-13T09:52:35Z</time>
      </trkpt>
      <trkpt lat="53.646909948438406" lon="10.164863308891654">
        <ele>33.899999999999999</ele>
        <time>2021-09-13T09:52:48Z</time>
      </trkpt>
      <trkpt lat="53.646813221275806" lon="10.163980778306723">
        <ele>33.5</ele>
        <time>2021-09-13T09:53:04Z</time>
      </trkpt>
      <trkpt lat="53.646745914593339" lon="10.163600323721766">
        <ele>33.600000000000001</ele>
        <time>2021-09-13T09:53:16Z</time>
      </trkpt>
      <trkpt lat="53.646743902936578" lon="10.163598312065005">
        <ele>33.600000000000001</ele>
        <time>2021-09-13T09:53:20Z</time>
      </trkpt>
      <trkpt lat="53.646691013127565" lon="10.163619183003902">
        <ele>33.600000000000001</ele>
        <time>2021-09-13T09:53:24Z</time>
      </trkpt>
      <trkpt lat="53.646679362282157" lon="10.163633599877357">
        <ele>33.600000000000001</ele>
        <time>2021-09-13T09:53:25Z</time>
      </trkpt>
      <trkpt lat="53.646664693951607" lon="10.163646172732115">
        <ele>33.700000000000003</ele>
        <time>2021-09-13T09:53:26Z</time>
      </trkpt>
      <trkpt lat="53.646643152460456" lon="10.163655979558825">
        <ele>33.700000000000003</ele>
        <time>2021-09-13T09:53:27Z</time>
      </trkpt>
      <trkpt lat="53.646626221016049" lon="10.163649693131447">
        <ele>33.700000000000003</ele>
        <time>2021-09-13T09:53:28Z</time>
      </trkpt>
      <trkpt lat="53.646619347855449" lon="10.163626810535789">
        <ele>33.799999999999997</ele>
        <time>2021-09-13T09:53:29Z</time>
      </trkpt>
      <trkpt lat="53.646617252379656" lon="10.163598228245974">
        <ele>33.799999999999997</ele>
        <time>2021-09-13T09:53:30Z</time>
      </trkpt>
      <trkpt lat="53.646612809970975" lon="10.163567215204239">
        <ele>33.799999999999997</ele>
        <time>2021-09-13T09:53:31Z</time>
      </trkpt>
      <trkpt lat="53.646588418632746" lon="10.163330426439643">
        <ele>33.899999999999999</ele>
        <time>2021-09-13T09:53:37Z</time>
      </trkpt>
      <trkpt lat="53.646578108891845" lon="10.163315925747156">
        <ele>34</ele>
        <time>2021-09-13T09:53:38Z</time>
      </trkpt>
      <trkpt lat="53.646542485803366" lon="10.163299413397908">
        <ele>34.399999999999999</ele>
        <time>2021-09-13T09:53:44Z</time>
      </trkpt>
      <trkpt lat="53.646451542153955" lon="10.163237135857344">
        <ele>34.700000000000003</ele>
        <time>2021-09-13T09:53:51Z</time>
      </trkpt>
      <trkpt lat="53.646405609324574" lon="10.163215594366193">
        <ele>34.700000000000003</ele>
        <time>2021-09-13T09:53:53Z</time>
      </trkpt>
      <trkpt lat="53.6460330337286" lon="10.162977464497089">
        <ele>35</ele>
        <time>2021-09-13T09:54:05Z</time>
      </trkpt>
      <trkpt lat="53.645762968808413" lon="10.16276003792882">
        <ele>35.399999999999999</ele>
        <time>2021-09-13T09:54:14Z</time>
      </trkpt>
      <trkpt lat="53.645506734028459" lon="10.162598686292768">
        <ele>36.399999999999999</ele>
        <time>2021-09-13T09:54:25Z</time>
      </trkpt>
      <trkpt lat="53.645305316895247" lon="10.162526434287429">
        <ele>37.100000000000001</ele>
        <time>2021-09-13T09:54:32Z</time>
      </trkpt>
      <trkpt lat="53.645169697701931" lon="10.162486787885427">
        <ele>37.200000000000003</ele>
        <time>2021-09-13T09:54:36Z</time>
      </trkpt>
      <trkpt lat="53.644899129867554" lon="10.162439094856381">
        <ele>37.600000000000001</ele>
        <time>2021-09-13T09:54:44Z</time>
      </trkpt>
      <trkpt lat="53.644848754629493" lon="10.162462312728167">
        <ele>37.700000000000003</ele>
        <time>2021-09-13T09:54:46Z</time>
      </trkpt>
      <trkpt lat="53.644824028015137" lon="10.162483099848032">
        <ele>37.799999999999997</ele>
        <time>2021-09-13T09:54:47Z</time>
      </trkpt>
      <trkpt lat="53.644798044115305" lon="10.162499779835343">
        <ele>37.899999999999999</ele>
        <time>2021-09-13T09:54:48Z</time>
      </trkpt>
      <trkpt lat="53.644768791273236" lon="10.162522913888097">
        <ele>38</ele>
        <time>2021-09-13T09:54:49Z</time>
      </trkpt>
      <trkpt lat="53.644742220640182" lon="10.162551160901785">
        <ele>38</ele>
        <time>2021-09-13T09:54:50Z</time>
      </trkpt>
      <trkpt lat="53.64471766166389" lon="10.162572870030999">
        <ele>38.100000000000001</ele>
        <time>2021-09-13T09:54:51Z</time>
      </trkpt>
      <trkpt lat="53.644681703299284" lon="10.162592651322484">
        <ele>38.100000000000001</ele>
        <time>2021-09-13T09:54:52Z</time>
      </trkpt>
      <trkpt lat="53.644641386345029" lon="10.162607487291098">
        <ele>38.200000000000003</ele>
        <time>2021-09-13T09:54:53Z</time>
      </trkpt>
      <trkpt lat="53.644599309191108" lon="10.162608996033669">
        <ele>38.200000000000003</ele>
        <time>2021-09-13T09:54:54Z</time>
      </trkpt>
      <trkpt lat="53.644574163481593" lon="10.162593489512801">
        <ele>38.200000000000003</ele>
        <time>2021-09-13T09:54:55Z</time>
      </trkpt>
      <trkpt lat="53.644547089934349" lon="10.162577228620648">
        <ele>38.200000000000003</ele>
        <time>2021-09-13T09:54:56Z</time>
      </trkpt>
      <trkpt lat="53.644515573978424" lon="10.162560464814305">
        <ele>38.200000000000003</ele>
        <time>2021-09-13T09:54:57Z</time>
      </trkpt>
      <trkpt lat="53.644483974203467" lon="10.162540012970567">
        <ele>38.200000000000003</ele>
        <time>2021-09-13T09:54:58Z</time>
      </trkpt>
      <trkpt lat="53.64445480518043" lon="10.16252551227808">
        <ele>38.200000000000003</ele>
        <time>2021-09-13T09:54:59Z</time>
      </trkpt>
      <trkpt lat="53.644205946475267" lon="10.16241948120296">
        <ele>38.299999999999997</ele>
        <time>2021-09-13T09:55:07Z</time>
      </trkpt>
      <trkpt lat="53.644047947600484" lon="10.162338092923164">
        <ele>38.299999999999997</ele>
        <time>2021-09-13T09:55:11Z</time>
      </trkpt>
      <trkpt lat="53.643862958997488" lon="10.162208341062069">
        <ele>38.399999999999999</ele>
        <time>2021-09-13T09:55:18Z</time>
      </trkpt>
      <trkpt lat="53.643837980926037" lon="10.162181602790952">
        <ele>38.5</ele>
        <time>2021-09-13T09:55:19Z</time>
      </trkpt>
      <trkpt lat="53.643329702317715" lon="10.161545248702168">
        <ele>37.899999999999999</ele>
        <time>2021-09-13T09:55:33Z</time>
      </trkpt>
      <trkpt lat="53.643211936578155" lon="10.161391692236066">
        <ele>37.600000000000001</ele>
        <time>2021-09-13T09:55:36Z</time>
      </trkpt>
      <trkpt lat="53.642847575247288" lon="10.160756008699536">
        <ele>36.299999999999997</ele>
        <time>2021-09-13T09:55:46Z</time>
      </trkpt>
      <trkpt lat="53.64250224083662" lon="10.160107081755996">
        <ele>35</ele>
        <time>2021-09-13T09:55:56Z</time>
      </trkpt>
      <trkpt lat="53.642180627211928" lon="10.159757640212774">
        <ele>33.799999999999997</ele>
        <time>2021-09-13T09:56:05Z</time>
      </trkpt>
      <trkpt lat="53.641672180965543" lon="10.159598216414452">
        <ele>32.899999999999999</ele>
        <time>2021-09-13T09:56:17Z</time>
      </trkpt>
      <trkpt lat="53.641238668933511" lon="10.159462261945009">
        <ele>32.100000000000001</ele>
        <time>2021-09-13T09:56:27Z</time>
      </trkpt>
      <trkpt lat="53.640801887959242" lon="10.159533089026809">
        <ele>31.899999999999999</ele>
        <time>2021-09-13T09:56:38Z</time>
      </trkpt>
      <trkpt lat="53.640578258782625" lon="10.159575585275888">
        <ele>31.800000000000001</ele>
        <time>2021-09-13T09:56:44Z</time>
      </trkpt>
      <trkpt lat="53.640558226034045" lon="10.159550439566374">
        <ele>31.800000000000001</ele>
        <time>2021-09-13T09:56:45Z</time>
      </trkpt>
      <trkpt lat="53.640538612380624" lon="10.159525880590081">
        <ele>31.699999999999999</ele>
        <time>2021-09-13T09:56:46Z</time>
      </trkpt>
      <trkpt lat="53.640479017049074" lon="10.159417670220137">
        <ele>31.399999999999999</ele>
        <time>2021-09-13T09:56:50Z</time>
      </trkpt>
      <trkpt lat="53.640215238556266" lon="10.159194376319647">
        <ele>30.800000000000001</ele>
        <time>2021-09-13T09:57:00Z</time>
      </trkpt>
      <trkpt lat="53.639944922178984" lon="10.158802606165409">
        <ele>30.300000000000001</ele>
        <time>2021-09-13T09:57:09Z</time>
      </trkpt>
      <trkpt lat="53.63972338847816" lon="10.158539330586791">
        <ele>29.699999999999999</ele>
        <time>2021-09-13T09:57:16Z</time>
      </trkpt>
      <trkpt lat="53.639710145071149" lon="10.158491637557745">
        <ele>29.699999999999999</ele>
        <time>2021-09-13T09:57:17Z</time>
      </trkpt>
      <trkpt lat="53.63970335572958" lon="10.158442184329033">
        <ele>29.699999999999999</ele>
        <time>2021-09-13T09:57:18Z</time>
      </trkpt>
      <trkpt lat="53.63957385532558" lon="10.157822091132402">
        <ele>29.399999999999999</ele>
        <time>2021-09-13T09:57:32Z</time>
      </trkpt>
      <trkpt lat="53.639373863115907" lon="10.157377347350121">
        <ele>29.300000000000001</ele>
        <time>2021-09-13T09:57:45Z</time>
      </trkpt>
      <trkpt lat="53.639263641089201" lon="10.157060176134109">
        <ele>29.199999999999999</ele>
        <time>2021-09-13T09:57:55Z</time>
      </trkpt>
      <trkpt lat="53.639273615553975" lon="10.157002005726099">
        <ele>29.100000000000001</ele>
        <time>2021-09-13T09:57:57Z</time>
      </trkpt>
      <trkpt lat="53.63931636326015" lon="10.156807126477361">
        <ele>28.800000000000001</ele>
        <time>2021-09-13T09:58:06Z</time>
      </trkpt>
      <trkpt lat="53.639319632202387" lon="10.156766725704074">
        <ele>28.800000000000001</ele>
        <time>2021-09-13T09:58:07Z</time>
      </trkpt>
      <trkpt lat="53.639326337724924" lon="10.156721966341138">
        <ele>28.800000000000001</ele>
        <time>2021-09-13T09:58:08Z</time>
      </trkpt>
      <trkpt lat="53.639336228370667" lon="10.156680224463344">
        <ele>28.800000000000001</ele>
        <time>2021-09-13T09:58:09Z</time>
      </trkpt>
      <trkpt lat="53.639339748769999" lon="10.156626999378204">
        <ele>28.800000000000001</ele>
        <time>2021-09-13T09:58:10Z</time>
      </trkpt>
      <trkpt lat="53.639357099309564" lon="10.156587604433298">
        <ele>28.800000000000001</ele>
        <time>2021-09-13T09:58:11Z</time>
      </trkpt>
      <trkpt lat="53.63937889225781" lon="10.156564302742481">
        <ele>28.899999999999999</ele>
        <time>2021-09-13T09:58:12Z</time>
      </trkpt>
      <trkpt lat="53.639397080987692" lon="10.156546784564853">
        <ele>28.899999999999999</ele>
        <time>2021-09-13T09:58:13Z</time>
      </trkpt>
      <trkpt lat="53.639409570023417" lon="10.156519208103418">
        <ele>28.899999999999999</ele>
        <time>2021-09-13T09:58:14Z</time>
      </trkpt>
      <trkpt lat="53.639423483982682" lon="10.156484339386225">
        <ele>28.899999999999999</ele>
        <time>2021-09-13T09:58:15Z</time>
      </trkpt>
      <trkpt lat="53.639437397941947" lon="10.156445950269699">
        <ele>28.899999999999999</ele>
        <time>2021-09-13T09:58:16Z</time>
      </trkpt>
      <trkpt lat="53.639663709327579" lon="10.155835077166557">
        <ele>29.199999999999999</ele>
        <time>2021-09-13T09:58:29Z</time>
      </trkpt>
      <trkpt lat="53.639786252751946" lon="10.155487898737192">
        <ele>28.899999999999999</ele>
        <time>2021-09-13T09:58:38Z</time>
      </trkpt>
      <trkpt lat="53.639801759272814" lon="10.155471218749881">
        <ele>28.899999999999999</ele>
        <time>2021-09-13T09:58:39Z</time>
      </trkpt>
      <trkpt lat="53.639818439260125" lon="10.155467865988612">
        <ele>28.699999999999999</ele>
        <time>2021-09-13T09:58:40Z</time>
      </trkpt>
      <trkpt lat="53.639834448695183" lon="10.155469542369246">
        <ele>28.699999999999999</ele>
        <time>2021-09-13T09:58:41Z</time>
      </trkpt>
      <trkpt lat="53.639848614111543" lon="10.155479600653052">
        <ele>28.699999999999999</ele>
        <time>2021-09-13T09:58:42Z</time>
      </trkpt>
      <trkpt lat="53.63985825330019" lon="10.15549561008811">
        <ele>28.600000000000001</ele>
        <time>2021-09-13T09:58:46Z</time>
      </trkpt>
      <trkpt lat="53.639905108138919" lon="10.15545898117125">
        <ele>28.800000000000001</ele>
        <time>2021-09-13T09:59:15Z</time>
      </trkpt>
      <trkpt lat="53.639916172251105" lon="10.155418245121837">
        <ele>28.800000000000001</ele>
        <time>2021-09-13T09:59:16Z</time>
      </trkpt>
      <trkpt lat="53.639924051240087" lon="10.155347418040037">
        <ele>28.800000000000001</ele>
        <time>2021-09-13T09:59:18Z</time>
      </trkpt>
      <trkpt lat="53.639911478385329" lon="10.155316656455398">
        <ele>28.800000000000001</ele>
        <time>2021-09-13T09:59:19Z</time>
      </trkpt>
      <trkpt lat="53.639896139502525" lon="10.15528698451817">
        <ele>28.800000000000001</ele>
        <time>2021-09-13T09:59:20Z</time>
      </trkpt>
      <trkpt lat="53.639878369867802" lon="10.155258318409324">
        <ele>28.800000000000001</ele>
        <time>2021-09-13T09:59:21Z</time>
      </trkpt>
      <trkpt lat="53.639863030984998" lon="10.155230741947889">
        <ele>28.800000000000001</ele>
        <time>2021-09-13T09:59:22Z</time>
      </trkpt>
      <trkpt lat="53.639662954956293" lon="10.154880126938224">
        <ele>29</ele>
        <time>2021-09-13T09:59:34Z</time>
      </trkpt>
      <trkpt lat="53.639435637742281" lon="10.154521968215704">
        <ele>29.600000000000001</ele>
        <time>2021-09-13T09:59:47Z</time>
      </trkpt>
      <trkpt lat="53.639208320528269" lon="10.154195493087173">
        <ele>30.199999999999999</ele>
        <time>2021-09-13T09:59:57Z</time>
      </trkpt>
      <trkpt lat="53.638969352468848" lon="10.153825683519244">
        <ele>30.5</ele>
        <time>2021-09-13T10:00:07Z</time>
      </trkpt>
      <trkpt lat="53.638676656410098" lon="10.153358392417431">
        <ele>30.699999999999999</ele>
        <time>2021-09-13T10:00:19Z</time>
      </trkpt>
      <trkpt lat="53.638473311439157" lon="10.153060331940651">
        <ele>30.899999999999999</ele>
        <time>2021-09-13T10:00:28Z</time>
      </trkpt>
      <trkpt lat="53.638282790780067" lon="10.152756739407778">
        <ele>31.100000000000001</ele>
        <time>2021-09-13T10:00:37Z</time>
      </trkpt>
      <trkpt lat="53.63796385936439" lon="10.152307469397783">
        <ele>30.800000000000001</ele>
        <time>2021-09-13T10:00:47Z</time>
      </trkpt>
      <trkpt lat="53.63761642947793" lon="10.151779828593135">
        <ele>30.699999999999999</ele>
        <time>2021-09-13T10:01:00Z</time>
      </trkpt>
      <trkpt lat="53.637229017913342" lon="10.151181360706687">
        <ele>30.800000000000001</ele>
        <time>2021-09-13T10:01:12Z</time>
      </trkpt>
      <trkpt lat="53.636942692101002" lon="10.150743070989847">
        <ele>31.100000000000001</ele>
        <time>2021-09-13T10:01:22Z</time>
      </trkpt>
      <trkpt lat="53.636688971891999" lon="10.150307882577181">
        <ele>31.100000000000001</ele>
        <time>2021-09-13T10:01:33Z</time>
      </trkpt>
      <trkpt lat="53.636446483433247" lon="10.149950226768851">
        <ele>31.100000000000001</ele>
        <time>2021-09-13T10:01:43Z</time>
      </trkpt>
      <trkpt lat="53.636201312765479" lon="10.149547643959522">
        <ele>31.699999999999999</ele>
        <time>2021-09-13T10:01:55Z</time>
      </trkpt>
      <trkpt lat="53.636148422956467" lon="10.149466507136822">
        <ele>31.699999999999999</ele>
        <time>2021-09-13T10:02:02Z</time>
      </trkpt>
      <trkpt lat="53.635966619476676" lon="10.149136763066053">
        <ele>31.600000000000001</ele>
        <time>2021-09-13T10:04:02Z</time>
      </trkpt>
      <trkpt lat="53.635716419667006" lon="10.148712052032351">
        <ele>32.299999999999997</ele>
        <time>2021-09-13T10:04:15Z</time>
      </trkpt>
      <trkpt lat="53.635437050834298" lon="10.148271918296814">
        <ele>32.600000000000001</ele>
        <time>2021-09-13T10:04:28Z</time>
      </trkpt>
      <trkpt lat="53.635160448029637" lon="10.147875789552927">
        <ele>32.700000000000003</ele>
        <time>2021-09-13T10:04:39Z</time>
      </trkpt>
      <trkpt lat="53.634918965399265" lon="10.147429956123233">
        <ele>32.700000000000003</ele>
        <time>2021-09-13T10:04:50Z</time>
      </trkpt>
      <trkpt lat="53.634621994569898" lon="10.146992420777678">
        <ele>32.5</ele>
        <time>2021-09-13T10:05:02Z</time>
      </trkpt>
      <trkpt lat="53.634369531646371" lon="10.146575253456831">
        <ele>32.399999999999999</ele>
        <time>2021-09-13T10:05:12Z</time>
      </trkpt>
      <trkpt lat="53.634116062894464" lon="10.146128414198756">
        <ele>32.299999999999997</ele>
        <time>2021-09-13T10:05:23Z</time>
      </trkpt>
      <trkpt lat="53.633884051814675" lon="10.145718203857541">
        <ele>32.299999999999997</ele>
        <time>2021-09-13T10:05:34Z</time>
      </trkpt>
      <trkpt lat="53.633577944710851" lon="10.14525786973536">
        <ele>32</ele>
        <time>2021-09-13T10:05:46Z</time>
      </trkpt>
      <trkpt lat="53.633337551727891" lon="10.144770294427872">
        <ele>31.300000000000001</ele>
        <time>2021-09-13T10:05:57Z</time>
      </trkpt>
      <trkpt lat="53.633335707709193" lon="10.144767444580793">
        <ele>31.100000000000001</ele>
        <time>2021-09-13T10:05:59Z</time>
      </trkpt>
      <trkpt lat="53.633266221731901" lon="10.144653283059597">
        <ele>31</ele>
        <time>2021-09-13T10:06:10Z</time>
      </trkpt>
      <trkpt lat="53.633248284459114" lon="10.144616402685642">
        <ele>31</ele>
        <time>2021-09-13T10:06:11Z</time>
      </trkpt>
      <trkpt lat="53.633231101557612" lon="10.144578600302339">
        <ele>31</ele>
        <time>2021-09-13T10:06:12Z</time>
      </trkpt>
      <trkpt lat="53.633216349408031" lon="10.144547000527382">
        <ele>31</ele>
        <time>2021-09-13T10:06:13Z</time>
      </trkpt>
      <trkpt lat="53.633202603086829" lon="10.144524788483977">
        <ele>30.899999999999999</ele>
        <time>2021-09-13T10:06:14Z</time>
      </trkpt>
      <trkpt lat="53.633188353851438" lon="10.144507102668285">
        <ele>30.899999999999999</ele>
        <time>2021-09-13T10:06:15Z</time>
      </trkpt>
      <trkpt lat="53.633173266425729" lon="10.144482459872961">
        <ele>30.899999999999999</ele>
        <time>2021-09-13T10:06:16Z</time>
      </trkpt>
      <trkpt lat="53.632942596450448" lon="10.143988598138094">
        <ele>30.199999999999999</ele>
        <time>2021-09-13T10:06:28Z</time>
      </trkpt>
      <trkpt lat="53.632630119100213" lon="10.143656674772501">
        <ele>29.199999999999999</ele>
        <time>2021-09-13T10:06:39Z</time>
      </trkpt>
      <trkpt lat="53.63226005807519" lon="10.143315698951483">
        <ele>28.399999999999999</ele>
        <time>2021-09-13T10:06:51Z</time>
      </trkpt>
      <trkpt lat="53.632004493847489" lon="10.143079748377204">
        <ele>27.800000000000001</ele>
        <time>2021-09-13T10:06:59Z</time>
      </trkpt>
      <trkpt lat="53.631646754220128" lon="10.142728462815285">
        <ele>26.800000000000001</ele>
        <time>2021-09-13T10:07:09Z</time>
      </trkpt>
      <trkpt lat="53.631282392889261" lon="10.142344906926155">
        <ele>25.600000000000001</ele>
        <time>2021-09-13T10:07:18Z</time>
      </trkpt>
      <trkpt lat="53.630909733474255" lon="10.142003847286105">
        <ele>25.399999999999999</ele>
        <time>2021-09-13T10:07:28Z</time>
      </trkpt>
      <trkpt lat="53.630559286102653" lon="10.14167133718729">
        <ele>25.100000000000001</ele>
        <time>2021-09-13T10:07:38Z</time>
      </trkpt>
      <trkpt lat="53.63012133166194" lon="10.141303539276123">
        <ele>24.600000000000001</ele>
        <time>2021-09-13T10:07:50Z</time>
      </trkpt>
      <trkpt lat="53.629613723605871" lon="10.140855442732573">
        <ele>23.899999999999999</ele>
        <time>2021-09-13T10:08:02Z</time>
      </trkpt>
      <trkpt lat="53.629360590130091" lon="10.140431066974998">
        <ele>23.300000000000001</ele>
        <time>2021-09-13T10:08:14Z</time>
      </trkpt>
      <trkpt lat="53.629260091111064" lon="10.140153290703893">
        <ele>23.699999999999999</ele>
        <time>2021-09-13T10:08:27Z</time>
      </trkpt>
      <trkpt lat="53.629193371161819" lon="10.140153206884861">
        <ele>23.800000000000001</ele>
        <time>2021-09-13T10:08:41Z</time>
      </trkpt>
      <trkpt lat="53.629046268761158" lon="10.140187069773674">
        <ele>23.600000000000001</ele>
        <time>2021-09-13T10:08:53Z</time>
      </trkpt>
      <trkpt lat="53.628977118059993" lon="10.140200732275844">
        <ele>23.300000000000001</ele>
        <time>2021-09-13T10:09:14Z</time>
      </trkpt>
      <trkpt lat="53.628925736993551" lon="10.140182375907898">
        <ele>23.199999999999999</ele>
        <time>2021-09-13T10:09:16Z</time>
      </trkpt>
      <trkpt lat="53.628895813599229" lon="10.140176424756646">
        <ele>23.199999999999999</ele>
        <time>2021-09-13T10:09:17Z</time>
      </trkpt>
      <trkpt lat="53.628865135833621" lon="10.140177430585027">
        <ele>23.199999999999999</ele>
        <time>2021-09-13T10:09:18Z</time>
      </trkpt>
      <trkpt lat="53.628836218267679" lon="10.140182208269835">
        <ele>23.100000000000001</ele>
        <time>2021-09-13T10:09:19Z</time>
      </trkpt>
      <trkpt lat="53.628381751477718" lon="10.139916753396392">
        <ele>22.600000000000001</ele>
        <time>2021-09-13T10:09:32Z</time>
      </trkpt>
      <trkpt lat="53.627714551985264" lon="10.139366649091244">
        <ele>22.800000000000001</ele>
        <time>2021-09-13T10:09:51Z</time>
      </trkpt>
      <trkpt lat="53.627716982737184" lon="10.139279896393418">
        <ele>22.199999999999999</ele>
        <time>2021-09-13T11:00:46Z</time>
      </trkpt>
      <trkpt lat="53.627721257507801" lon="10.139215523377061">
        <ele>22.100000000000001</ele>
        <time>2021-09-13T11:00:47Z</time>
      </trkpt>
      <trkpt lat="53.627721508964896" lon="10.139149893075228">
        <ele>22</ele>
        <time>2021-09-13T11:00:48Z</time>
      </trkpt>
      <trkpt lat="53.627716731280088" lon="10.139084095135331">
        <ele>21.899999999999999</ele>
        <time>2021-09-13T11:00:49Z</time>
      </trkpt>
      <trkpt lat="53.627708349376917" lon="10.139027768746018">
        <ele>21.899999999999999</ele>
        <time>2021-09-13T11:00:50Z</time>
      </trkpt>
      <trkpt lat="53.627700135111809" lon="10.138985691592097">
        <ele>21.899999999999999</ele>
        <time>2021-09-13T11:00:51Z</time>
      </trkpt>
      <trkpt lat="53.627661410719156" lon="10.138745969161391">
        <ele>21</ele>
        <time>2021-09-13T11:01:01Z</time>
      </trkpt>
      <trkpt lat="53.627624278888106" lon="10.138606075197458">
        <ele>21</ele>
        <time>2021-09-13T11:01:08Z</time>
      </trkpt>
      <trkpt lat="53.627616986632347" lon="10.138578834012151">
        <ele>21</ele>
        <time>2021-09-13T11:01:09Z</time>
      </trkpt>
      <trkpt lat="53.627609107643366" lon="10.138543965294957">
        <ele>21</ele>
        <time>2021-09-13T11:01:10Z</time>
      </trkpt>
      <trkpt lat="53.627603072673082" lon="10.138506917282939">
        <ele>21</ele>
        <time>2021-09-13T11:01:11Z</time>
      </trkpt>
      <trkpt lat="53.627595193684101" lon="10.138467689976096">
        <ele>21</ele>
        <time>2021-09-13T11:01:12Z</time>
      </trkpt>
      <trkpt lat="53.627586895599961" lon="10.138423852622509">
        <ele>21</ele>
        <time>2021-09-13T11:01:13Z</time>
      </trkpt>
      <trkpt lat="53.627579351887107" lon="10.138382110744715">
        <ele>21</ele>
        <time>2021-09-13T11:01:14Z</time>
      </trkpt>
      <trkpt lat="53.627569964155555" lon="10.138335255905986">
        <ele>21</ele>
        <time>2021-09-13T11:01:15Z</time>
      </trkpt>
      <trkpt lat="53.62744951620698" lon="10.137806441634893">
        <ele>20.800000000000001</ele>
        <time>2021-09-13T11:01:27Z</time>
      </trkpt>
      <trkpt lat="53.627289170399308" lon="10.137126920744777">
        <ele>20.5</ele>
        <time>2021-09-13T11:01:39Z</time>
      </trkpt>
      <trkpt lat="53.62709085457027" lon="10.136509509757161">
        <ele>20.300000000000001</ele>
        <time>2021-09-13T11:01:50Z</time>
      </trkpt>
      <trkpt lat="53.62688566558063" lon="10.135918334126472">
        <ele>20.199999999999999</ele>
        <time>2021-09-13T11:02:01Z</time>
      </trkpt>
      <trkpt lat="53.626519292593002" lon="10.13544132001698">
        <ele>19.699999999999999</ele>
        <time>2021-09-13T11:02:12Z</time>
      </trkpt>
      <trkpt lat="53.626326005905867" lon="10.135014178231359">
        <ele>19.399999999999999</ele>
        <time>2021-09-13T11:02:23Z</time>
      </trkpt>
      <trkpt lat="53.626227183267474" lon="10.134450411424041">
        <ele>19</ele>
        <time>2021-09-13T11:02:35Z</time>
      </trkpt>
      <trkpt lat="53.626126097515225" lon="10.134107591584325">
        <ele>18.899999999999999</ele>
        <time>2021-09-13T11:02:43Z</time>
      </trkpt>
      <trkpt lat="53.626100448891521" lon="10.134071633219719">
        <ele>18.899999999999999</ele>
        <time>2021-09-13T11:02:44Z</time>
      </trkpt>
      <trkpt lat="53.626072788611054" lon="10.13405411504209">
        <ele>18.800000000000001</ele>
        <time>2021-09-13T11:02:45Z</time>
      </trkpt>
      <trkpt lat="53.626048481091857" lon="10.134043889120221">
        <ele>18.800000000000001</ele>
        <time>2021-09-13T11:02:46Z</time>
      </trkpt>
      <trkpt lat="53.626026604324579" lon="10.134040787816048">
        <ele>18.800000000000001</ele>
        <time>2021-09-13T11:02:47Z</time>
      </trkpt>
      <trkpt lat="53.626001877710223" lon="10.13403014279902">
        <ele>18.699999999999999</ele>
        <time>2021-09-13T11:02:48Z</time>
      </trkpt>
      <trkpt lat="53.625977737829089" lon="10.134011199697852">
        <ele>18.699999999999999</ele>
        <time>2021-09-13T11:02:49Z</time>
      </trkpt>
      <trkpt lat="53.625954268500209" lon="10.13399351388216">
        <ele>18.699999999999999</ele>
        <time>2021-09-13T11:02:50Z</time>
      </trkpt>
      <trkpt lat="53.625690992921591" lon="10.133858565241098">
        <ele>18.699999999999999</ele>
        <time>2021-09-13T11:03:01Z</time>
      </trkpt>
      <trkpt lat="53.625413803383708" lon="10.13343938626349">
        <ele>18.800000000000001</ele>
        <time>2021-09-13T11:03:14Z</time>
      </trkpt>
      <trkpt lat="53.625401481986046" lon="10.133402338251472">
        <ele>18.800000000000001</ele>
        <time>2021-09-13T11:03:15Z</time>
      </trkpt>
      <trkpt lat="53.625298971310258" lon="10.132816946133971">
        <ele>18.699999999999999</ele>
        <time>2021-09-13T11:03:26Z</time>
      </trkpt>
      <trkpt lat="53.625243734568357" lon="10.132511341944337">
        <ele>18.5</ele>
        <time>2021-09-13T11:03:31Z</time>
      </trkpt>
      <trkpt lat="53.625231245532632" lon="10.132447723299265">
        <ele>18.5</ele>
        <time>2021-09-13T11:03:32Z</time>
      </trkpt>
      <trkpt lat="53.62521599046886" lon="10.132382176816463">
        <ele>18.5</ele>
        <time>2021-09-13T11:03:33Z</time>
      </trkpt>
      <trkpt lat="53.625207021832466" lon="10.132320150732994">
        <ele>18.5</ele>
        <time>2021-09-13T11:03:34Z</time>
      </trkpt>
      <trkpt lat="53.625197634100914" lon="10.132259298115969">
        <ele>18.5</ele>
        <time>2021-09-13T11:03:35Z</time>
      </trkpt>
      <trkpt lat="53.625185647979379" lon="10.13219928368926">
        <ele>18.5</ele>
        <time>2021-09-13T11:03:36Z</time>
      </trkpt>
      <trkpt lat="53.625172823667526" lon="10.132137928158045">
        <ele>18.5</ele>
        <time>2021-09-13T11:03:37Z</time>
      </trkpt>
      <trkpt lat="53.625161089003086" lon="10.132079757750034">
        <ele>18.399999999999999</ele>
        <time>2021-09-13T11:03:38Z</time>
      </trkpt>
      <trkpt lat="53.625148180872202" lon="10.132027370855212">
        <ele>18.399999999999999</ele>
        <time>2021-09-13T11:03:39Z</time>
      </trkpt>
      <trkpt lat="53.624944500625134" lon="10.131356818601489">
        <ele>17.800000000000001</ele>
        <time>2021-09-13T11:03:50Z</time>
      </trkpt>
      <trkpt lat="53.624754063785076" lon="10.130623485893011">
        <ele>17.199999999999999</ele>
        <time>2021-09-13T11:04:01Z</time>
      </trkpt>
      <trkpt lat="53.624511994421482" lon="10.130047732964158">
        <ele>16.5</ele>
        <time>2021-09-13T11:04:11Z</time>
      </trkpt>
      <trkpt lat="53.624214688315988" lon="10.129462424665689">
        <ele>16.5</ele>
        <time>2021-09-13T11:04:22Z</time>
      </trkpt>
      <trkpt lat="53.624027688056231" lon="10.128776952624321">
        <ele>16.199999999999999</ele>
        <time>2021-09-13T11:04:33Z</time>
      </trkpt>
      <trkpt lat="53.623843705281615" lon="10.127970026805997">
        <ele>15.4</ele>
        <time>2021-09-13T11:04:45Z</time>
      </trkpt>
      <trkpt lat="53.623773716390133" lon="10.127549674361944">
        <ele>15.1</ele>
        <time>2021-09-13T11:04:52Z</time>
      </trkpt>
      <trkpt lat="53.623759215697646" lon="10.12750256806612">
        <ele>15.1</ele>
        <time>2021-09-13T11:04:53Z</time>
      </trkpt>
      <trkpt lat="53.62361378967762" lon="10.126845259219408">
        <ele>14</ele>
        <time>2021-09-13T11:05:05Z</time>
      </trkpt>
      <trkpt lat="53.623298713937402" lon="10.12655952014029">
        <ele>13.699999999999999</ele>
        <time>2021-09-13T11:05:15Z</time>
      </trkpt>
      <trkpt lat="53.623182289302349" lon="10.126401018351316">
        <ele>13.6</ele>
        <time>2021-09-13T11:05:20Z</time>
      </trkpt>
      <trkpt lat="53.62315597012639" lon="10.126401102170348">
        <ele>13.6</ele>
        <time>2021-09-13T11:05:21Z</time>
      </trkpt>
      <trkpt lat="53.623013393953443" lon="10.126457931473851">
        <ele>13.699999999999999</ele>
        <time>2021-09-13T11:05:34Z</time>
      </trkpt>
      <trkpt lat="53.623025212436914" lon="10.126448962837458">
        <ele>13.699999999999999</ele>
        <time>2021-09-13T11:05:37Z</time>
      </trkpt>
      <trkpt lat="53.623058991506696" lon="10.126418201252818">
        <ele>13.699999999999999</ele>
        <time>2021-09-13T11:05:40Z</time>
      </trkpt>
      <trkpt lat="53.623071061447263" lon="10.126408813521266">
        <ele>13.699999999999999</ele>
        <time>2021-09-13T11:05:41Z</time>
      </trkpt>
      <trkpt lat="53.623085394501686" lon="10.126399090513587">
        <ele>13.6</ele>
        <time>2021-09-13T11:05:42Z</time>
      </trkpt>
      <trkpt lat="53.62334406003356" lon="10.126049146056175">
        <ele>13.800000000000001</ele>
        <time>2021-09-13T11:05:55Z</time>
      </trkpt>
      <trkpt lat="53.623485211282969" lon="10.125291254371405">
        <ele>13.4</ele>
        <time>2021-09-13T11:06:09Z</time>
      </trkpt>
      <trkpt lat="53.623437937349081" lon="10.124741988256574">
        <ele>13.800000000000001</ele>
        <time>2021-09-13T11:06:21Z</time>
      </trkpt>
      <trkpt lat="53.623168962076306" lon="10.124475611373782">
        <ele>13.699999999999999</ele>
        <time>2021-09-13T11:06:31Z</time>
      </trkpt>
      <trkpt lat="53.623049771413207" lon="10.124377040192485">
        <ele>13.6</ele>
        <time>2021-09-13T11:06:35Z</time>
      </trkpt>
      <trkpt lat="53.623021608218551" lon="10.124354911968112">
        <ele>13.6</ele>
        <time>2021-09-13T11:06:36Z</time>
      </trkpt>
      <trkpt lat="53.622602596879005" lon="10.123988790437579">
        <ele>13.800000000000001</ele>
        <time>2021-09-13T11:06:48Z</time>
      </trkpt>
      <trkpt lat="53.622277965769172" lon="10.123374732211232">
        <ele>13.9</ele>
        <time>2021-09-13T11:07:00Z</time>
      </trkpt>
      <trkpt lat="53.622188279405236" lon="10.12298078276217">
        <ele>13.9</ele>
        <time>2021-09-13T11:07:07Z</time>
      </trkpt>
      <trkpt lat="53.622166570276022" lon="10.122945830225945">
        <ele>13.800000000000001</ele>
        <time>2021-09-13T11:07:08Z</time>
      </trkpt>
      <trkpt lat="53.621877310797572" lon="10.122847845777869">
        <ele>13.4</ele>
        <time>2021-09-13T11:07:17Z</time>
      </trkpt>
      <trkpt lat="53.621831880882382" lon="10.122848600149155">
        <ele>13.300000000000001</ele>
        <time>2021-09-13T11:07:18Z</time>
      </trkpt>
      <trkpt lat="53.621788043528795" lon="10.122858071699739">
        <ele>13.300000000000001</ele>
        <time>2021-09-13T11:07:19Z</time>
      </trkpt>
      <trkpt lat="53.621362494304776" lon="10.122992685064673">
        <ele>13.199999999999999</ele>
        <time>2021-09-13T11:07:31Z</time>
      </trkpt>
      <trkpt lat="53.621053034439683" lon="10.123107600957155">
        <ele>13.300000000000001</ele>
        <time>2021-09-13T11:07:41Z</time>
      </trkpt>
      <trkpt lat="53.620584066957235" lon="10.12325688265264">
        <ele>13.1</ele>
        <time>2021-09-13T11:07:54Z</time>
      </trkpt>
      <trkpt lat="53.620210150256753" lon="10.123362494632602">
        <ele>12.9</ele>
        <time>2021-09-13T11:08:03Z</time>
      </trkpt>
      <trkpt lat="53.619688963517547" lon="10.123481601476669">
        <ele>12.800000000000001</ele>
        <time>2021-09-13T11:08:15Z</time>
      </trkpt>
      <trkpt lat="53.619110528379679" lon="10.123597271740437">
        <ele>12.300000000000001</ele>
        <time>2021-09-13T11:08:28Z</time>
      </trkpt>
      <trkpt lat="53.618415165692568" lon="10.123638510704041">
        <ele>12.199999999999999</ele>
        <time>2021-09-13T11:08:45Z</time>
      </trkpt>
      <trkpt lat="53.617974780499935" lon="10.123684192076325">
        <ele>12</ele>
        <time>2021-09-13T11:08:56Z</time>
      </trkpt>
      <trkpt lat="53.617462730035186" lon="10.123713109642267">
        <ele>12.199999999999999</ele>
        <time>2021-09-13T11:09:09Z</time>
      </trkpt>
      <trkpt lat="53.616954535245895" lon="10.123711014166474">
        <ele>12.9</ele>
        <time>2021-09-13T11:09:23Z</time>
      </trkpt>
      <trkpt lat="53.616397054865956" lon="10.123497024178505">
        <ele>12.9</ele>
        <time>2021-09-13T11:09:39Z</time>
      </trkpt>
      <trkpt lat="53.616306614130735" lon="10.123468777164817">
        <ele>12.699999999999999</ele>
        <time>2021-09-13T11:09:46Z</time>
      </trkpt>
      <trkpt lat="53.616231847554445" lon="10.12346064671874">
        <ele>13.1</ele>
        <time>2021-09-13T11:10:13Z</time>
      </trkpt>
      <trkpt lat="53.616208294406533" lon="10.123451258987188">
        <ele>13.1</ele>
        <time>2021-09-13T11:10:14Z</time>
      </trkpt>
      <trkpt lat="53.616183400154114" lon="10.1234420388937">
        <ele>13.1</ele>
        <time>2021-09-13T11:10:15Z</time>
      </trkpt>
      <trkpt lat="53.615574538707733" lon="10.123316645622253">
        <ele>13.199999999999999</ele>
        <time>2021-09-13T11:10:32Z</time>
      </trkpt>
      <trkpt lat="53.614831063896418" lon="10.123285381123424">
        <ele>13.199999999999999</ele>
        <time>2021-09-13T11:10:49Z</time>
      </trkpt>
      <trkpt lat="53.61413293518126" lon="10.123429214581847">
        <ele>12.9</ele>
        <time>2021-09-13T11:11:06Z</time>
      </trkpt>
      <trkpt lat="53.614102005958557" lon="10.123423514887691">
        <ele>12.800000000000001</ele>
        <time>2021-09-13T11:11:07Z</time>
      </trkpt>
      <trkpt lat="53.614078871905804" lon="10.123401638120413">
        <ele>12.800000000000001</ele>
        <time>2021-09-13T11:11:08Z</time>
      </trkpt>
      <trkpt lat="53.613751055672765" lon="10.122932083904743">
        <ele>13</ele>
        <time>2021-09-13T11:11:23Z</time>
      </trkpt>
      <trkpt lat="53.613403122872114" lon="10.122514246031642">
        <ele>13.199999999999999</ele>
        <time>2021-09-13T11:11:36Z</time>
      </trkpt>
      <trkpt lat="53.613073714077473" lon="10.122130019590259">
        <ele>13.5</ele>
        <time>2021-09-13T11:11:47Z</time>
      </trkpt>
      <trkpt lat="53.612715471535921" lon="10.12171620503068">
        <ele>13.699999999999999</ele>
        <time>2021-09-13T11:11:59Z</time>
      </trkpt>
      <trkpt lat="53.612433504313231" lon="10.121469274163246">
        <ele>13.699999999999999</ele>
        <time>2021-09-13T11:12:09Z</time>
      </trkpt>
      <trkpt lat="53.611904019489884" lon="10.121013047173619">
        <ele>13.800000000000001</ele>
        <time>2021-09-13T11:12:24Z</time>
      </trkpt>
      <trkpt lat="53.611547201871872" lon="10.120687326416373">
        <ele>13.6</ele>
        <time>2021-09-13T11:12:36Z</time>
      </trkpt>
      <trkpt lat="53.611189881339669" lon="10.120333861559629">
        <ele>14.5</ele>
        <time>2021-09-13T11:12:48Z</time>
      </trkpt>
      <trkpt lat="53.610786879435182" lon="10.119941588491201">
        <ele>14.6</ele>
        <time>2021-09-13T11:13:00Z</time>
      </trkpt>
      <trkpt lat="53.61038513481617" lon="10.119567085057497">
        <ele>14.199999999999999</ele>
        <time>2021-09-13T11:13:11Z</time>
      </trkpt>
      <trkpt lat="53.609871072694659" lon="10.119105828925967">
        <ele>14</ele>
        <time>2021-09-13T11:13:26Z</time>
      </trkpt>
      <trkpt lat="53.609616430476308" lon="10.119012957438827">
        <ele>13.6</ele>
        <time>2021-09-13T11:13:32Z</time>
      </trkpt>
      <trkpt lat="53.609259109944105" lon="10.118900053203106">
        <ele>13.5</ele>
        <time>2021-09-13T11:13:43Z</time>
      </trkpt>
      <trkpt lat="53.608851749449968" lon="10.118725122883916">
        <ele>13.9</ele>
        <time>2021-09-13T11:13:56Z</time>
      </trkpt>
      <trkpt lat="53.608379596844316" lon="10.118464948609471">
        <ele>14.4</ele>
        <time>2021-09-13T11:14:09Z</time>
      </trkpt>
      <trkpt lat="53.607988329604268" lon="10.118090864270926">
        <ele>15</ele>
        <time>2021-09-13T11:14:22Z</time>
      </trkpt>
      <trkpt lat="53.607511147856712" lon="10.117686688899994">
        <ele>15.199999999999999</ele>
        <time>2021-09-13T11:14:38Z</time>
      </trkpt>
      <trkpt lat="53.607402518391609" lon="10.11757998727262">
        <ele>15</ele>
        <time>2021-09-13T11:14:43Z</time>
      </trkpt>
      <trkpt lat="53.607389526441693" lon="10.117541430518031">
        <ele>14.800000000000001</ele>
        <time>2021-09-13T11:14:44Z</time>
      </trkpt>
      <trkpt lat="53.607381395995617" lon="10.117501113563776">
        <ele>14.699999999999999</ele>
        <time>2021-09-13T11:14:45Z</time>
      </trkpt>
      <trkpt lat="53.60737225972116" lon="10.117299193516374">
        <ele>14.5</ele>
        <time>2021-09-13T11:14:51Z</time>
      </trkpt>
      <trkpt lat="53.607552889734507" lon="10.117007419466972">
        <ele>15.1</ele>
        <time>2021-09-13T11:15:04Z</time>
      </trkpt>
      <trkpt lat="53.607552638277411" lon="10.117006078362465">
        <ele>15.1</ele>
        <time>2021-09-13T11:15:06Z</time>
      </trkpt>
      <trkpt lat="53.607555152848363" lon="10.116908513009548">
        <ele>15.1</ele>
        <time>2021-09-13T11:15:49Z</time>
      </trkpt>
      <trkpt lat="53.607564959675074" lon="10.116720842197537">
        <ele>15.199999999999999</ele>
        <time>2021-09-13T11:15:54Z</time>
      </trkpt>
      <trkpt lat="53.607552051544189" lon="10.116696367040277">
        <ele>15.199999999999999</ele>
        <time>2021-09-13T11:15:55Z</time>
      </trkpt>
      <trkpt lat="53.607534365728498" lon="10.116677507758141">
        <ele>15.300000000000001</ele>
        <time>2021-09-13T11:15:56Z</time>
      </trkpt>
      <trkpt lat="53.60745582729578" lon="10.11659980751574">
        <ele>14.9</ele>
        <time>2021-09-13T11:16:04Z</time>
      </trkpt>
      <trkpt lat="53.607402434572577" lon="10.116581870242953">
        <ele>15.1</ele>
        <time>2021-09-13T11:16:18Z</time>
      </trkpt>
      <trkpt lat="53.607250470668077" lon="10.11659050360322">
        <ele>24.199999999999999</ele>
        <time>2021-09-13T11:16:23Z</time>
      </trkpt>
      <trkpt lat="53.60729455947876" lon="10.116598550230265">
        <ele>15</ele>
        <time>2021-09-13T11:16:24Z</time>
      </trkpt>
      <trkpt lat="53.607269329950213" lon="10.116500398144126">
        <ele>24.199999999999999</ele>
        <time>2021-09-13T11:18:28Z</time>
      </trkpt>
      <trkpt lat="53.607353400439024" lon="10.115826576948166">
        <ele>15.699999999999999</ele>
        <time>2021-09-13T11:18:54Z</time>
      </trkpt>
      <trkpt lat="53.607252314686775" lon="10.115603785961866">
        <ele>16</ele>
        <time>2021-09-13T11:19:04Z</time>
      </trkpt>
      <trkpt lat="53.606940926983953" lon="10.115368505939841">
        <ele>16.600000000000001</ele>
        <time>2021-09-13T11:19:17Z</time>
      </trkpt>
      <trkpt lat="53.606456704437733" lon="10.11508896946907">
        <ele>16.899999999999999</ele>
        <time>2021-09-13T11:19:32Z</time>
      </trkpt>
      <trkpt lat="53.6060646828264" lon="10.114625282585621">
        <ele>17.300000000000001</ele>
        <time>2021-09-13T11:19:47Z</time>
      </trkpt>
      <trkpt lat="53.605936104431748" lon="10.1140340231359">
        <ele>17.300000000000001</ele>
        <time>2021-09-13T11:19:58Z</time>
      </trkpt>
      <trkpt lat="53.605895787477493" lon="10.113932266831398">
        <ele>17.300000000000001</ele>
        <time>2021-09-13T11:20:00Z</time>
      </trkpt>
      <trkpt lat="53.605861086398363" lon="10.113898990675807">
        <ele>17.199999999999999</ele>
        <time>2021-09-13T11:20:01Z</time>
      </trkpt>
      <trkpt lat="53.605823451653123" lon="10.113882645964622">
        <ele>17.199999999999999</ele>
        <time>2021-09-13T11:20:02Z</time>
      </trkpt>
      <trkpt lat="53.605336295440793" lon="10.113748200237751">
        <ele>17.199999999999999</ele>
        <time>2021-09-13T11:20:15Z</time>
      </trkpt>
      <trkpt lat="53.604789627715945" lon="10.113326506689191">
        <ele>17.300000000000001</ele>
        <time>2021-09-13T11:20:30Z</time>
      </trkpt>
      <trkpt lat="53.60433591529727" lon="10.112416902557015">
        <ele>16.199999999999999</ele>
        <time>2021-09-13T11:20:47Z</time>
      </trkpt>
      <trkpt lat="53.6040442250669" lon="10.111541412770748">
        <ele>15.800000000000001</ele>
        <time>2021-09-13T11:21:03Z</time>
      </trkpt>
      <trkpt lat="53.60390106216073" lon="10.11087303981185">
        <ele>14.699999999999999</ele>
        <time>2021-09-13T11:21:17Z</time>
      </trkpt>
      <trkpt lat="53.603897793218493" lon="10.109744500368834">
        <ele>12.699999999999999</ele>
        <time>2021-09-13T11:21:33Z</time>
      </trkpt>
      <trkpt lat="53.603893518447876" lon="10.109681552276015">
        <ele>12.6</ele>
        <time>2021-09-13T11:21:34Z</time>
      </trkpt>
      <trkpt lat="53.603881699964404" lon="10.10963587090373">
        <ele>12.5</ele>
        <time>2021-09-13T11:21:35Z</time>
      </trkpt>
      <trkpt lat="53.603862337768078" lon="10.109605612233281">
        <ele>12.4</ele>
        <time>2021-09-13T11:21:36Z</time>
      </trkpt>
      <trkpt lat="53.603835934773088" lon="10.109592536464334">
        <ele>12.300000000000001</ele>
        <time>2021-09-13T11:21:37Z</time>
      </trkpt>
      <trkpt lat="53.603804670274258" lon="10.109589686617255">
        <ele>12.1</ele>
        <time>2021-09-13T11:21:38Z</time>
      </trkpt>
      <trkpt lat="53.603772316128016" lon="10.109590357169509">
        <ele>12</ele>
        <time>2021-09-13T11:21:39Z</time>
      </trkpt>
      <trkpt lat="53.603736106306314" lon="10.109591949731112">
        <ele>11.9</ele>
        <time>2021-09-13T11:21:40Z</time>
      </trkpt>
      <trkpt lat="53.603212321177125" lon="10.109467143192887">
        <ele>11.4</ele>
        <time>2021-09-13T11:21:54Z</time>
      </trkpt>
      <trkpt lat="53.602883163839579" lon="10.10920193977654">
        <ele>11.1</ele>
        <time>2021-09-13T11:22:04Z</time>
      </trkpt>
      <trkpt lat="53.602107921615243" lon="10.108501967042685">
        <ele>10.800000000000001</ele>
        <time>2021-09-13T11:22:23Z</time>
      </trkpt>
      <trkpt lat="53.601168561726809" lon="10.107688587158918">
        <ele>10.4</ele>
        <time>2021-09-13T11:22:46Z</time>
      </trkpt>
      <trkpt lat="53.600770924240351" lon="10.107489181682467">
        <ele>10.1</ele>
        <time>2021-09-13T11:22:58Z</time>
      </trkpt>
      <trkpt lat="53.600437492132187" lon="10.107452133670449">
        <ele>9.9</ele>
        <time>2021-09-13T11:23:10Z</time>
      </trkpt>
      <trkpt lat="53.600423745810986" lon="10.107429837808013">
        <ele>9.800000000000001</ele>
        <time>2021-09-13T11:23:11Z</time>
      </trkpt>
      <trkpt lat="53.600420812144876" lon="10.107403015717864">
        <ele>9.800000000000001</ele>
        <time>2021-09-13T11:23:12Z</time>
      </trkpt>
      <trkpt lat="53.600424835458398" lon="10.107375187799335">
        <ele>9.699999999999999</ele>
        <time>2021-09-13T11:23:13Z</time>
      </trkpt>
      <trkpt lat="53.60043128952384" lon="10.107343923300505">
        <ele>9.699999999999999</ele>
        <time>2021-09-13T11:23:14Z</time>
      </trkpt>
      <trkpt lat="53.600500943139195" lon="10.106614278629422">
        <ele>9.300000000000001</ele>
        <time>2021-09-13T11:23:27Z</time>
      </trkpt>
      <trkpt lat="53.600543774664402" lon="10.105623537674546">
        <ele>8.699999999999999</ele>
        <time>2021-09-13T11:23:42Z</time>
      </trkpt>
      <trkpt lat="53.600442437455058" lon="10.105179212987423">
        <ele>8.5</ele>
        <time>2021-09-13T11:23:51Z</time>
      </trkpt>
      <trkpt lat="53.6003452911973" lon="10.104496590793133">
        <ele>8.199999999999999</ele>
        <time>2021-09-13T11:24:03Z</time>
      </trkpt>
      <trkpt lat="53.60016843304038" lon="10.104204816743731">
        <ele>8.9</ele>
        <time>2021-09-13T11:24:12Z</time>
      </trkpt>
      <trkpt lat="53.599938433617353" lon="10.104008931666613">
        <ele>9.1</ele>
        <time>2021-09-13T11:24:21Z</time>
      </trkpt>
      <trkpt lat="53.59955906867981" lon="10.104073220863938">
        <ele>9.300000000000001</ele>
        <time>2021-09-13T11:24:31Z</time>
      </trkpt>
      <trkpt lat="53.599214656278491" lon="10.104010440409184">
        <ele>9.4</ele>
        <time>2021-09-13T11:24:42Z</time>
      </trkpt>
      <trkpt lat="53.599134525284171" lon="10.103916143998504">
        <ele>9.4</ele>
        <time>2021-09-13T11:24:46Z</time>
      </trkpt>
      <trkpt lat="53.598923971876502" lon="10.103326141834259">
        <ele>8.9</ele>
        <time>2021-09-13T11:24:59Z</time>
      </trkpt>
      <trkpt lat="53.598723476752639" lon="10.10261963121593">
        <ele>8.5</ele>
        <time>2021-09-13T11:25:13Z</time>
      </trkpt>
      <trkpt lat="53.598535135388374" lon="10.101990653201938">
        <ele>8.199999999999999</ele>
        <time>2021-09-13T11:25:25Z</time>
      </trkpt>
      <trkpt lat="53.598514515906572" lon="10.101942038163543">
        <ele>8.199999999999999</ele>
        <time>2021-09-13T11:25:26Z</time>
      </trkpt>
      <trkpt lat="53.598494650796056" lon="10.101897194981575">
        <ele>8.199999999999999</ele>
        <time>2021-09-13T11:25:27Z</time>
      </trkpt>
      <trkpt lat="53.598479563370347" lon="10.101853022351861">
        <ele>8.199999999999999</ele>
        <time>2021-09-13T11:25:28Z</time>
      </trkpt>
      <trkpt lat="53.598465230315924" lon="10.101807257160544">
        <ele>8.199999999999999</ele>
        <time>2021-09-13T11:25:29Z</time>
      </trkpt>
      <trkpt lat="53.598378393799067" lon="10.101587316021323">
        <ele>8.1</ele>
        <time>2021-09-13T11:25:35Z</time>
      </trkpt>
      <trkpt lat="53.598383674398065" lon="10.10155295021832">
        <ele>8</ele>
        <time>2021-09-13T11:25:36Z</time>
      </trkpt>
      <trkpt lat="53.598388032987714" lon="10.101516069844365">
        <ele>7.9</ele>
        <time>2021-09-13T11:25:37Z</time>
      </trkpt>
      <trkpt lat="53.598340759053826" lon="10.101001504808664">
        <ele>7.5</ele>
        <time>2021-09-13T11:25:49Z</time>
      </trkpt>
      <trkpt lat="53.598169516772032" lon="10.100262220948935">
        <ele>6.9</ele>
        <time>2021-09-13T11:26:01Z</time>
      </trkpt>
      <trkpt lat="53.59803163446486" lon="10.099553447216749">
        <ele>6.8</ele>
        <time>2021-09-13T11:26:13Z</time>
      </trkpt>
      <trkpt lat="53.597902888432145" lon="10.098924972116947">
        <ele>6.5</ele>
        <time>2021-09-13T11:26:23Z</time>
      </trkpt>
      <trkpt lat="53.597903726622462" lon="10.098807793110609">
        <ele>6.3</ele>
        <time>2021-09-13T11:26:25Z</time>
      </trkpt>
      <trkpt lat="53.597890567034483" lon="10.098756579682231">
        <ele>6.2</ele>
        <time>2021-09-13T11:26:26Z</time>
      </trkpt>
      <trkpt lat="53.597868103533983" lon="10.098717855289578">
        <ele>6.2</ele>
        <time>2021-09-13T11:26:27Z</time>
      </trkpt>
      <trkpt lat="53.597842371091247" lon="10.098677789792418">
        <ele>6.1</ele>
        <time>2021-09-13T11:26:28Z</time>
      </trkpt>
      <trkpt lat="53.597820578143001" lon="10.098635293543339">
        <ele>6</ele>
        <time>2021-09-13T11:26:29Z</time>
      </trkpt>
      <trkpt lat="53.597804820165038" lon="10.0985923781991">
        <ele>6</ele>
        <time>2021-09-13T11:26:30Z</time>
      </trkpt>
      <trkpt lat="53.597789984196424" lon="10.09854200296104">
        <ele>5.9</ele>
        <time>2021-09-13T11:26:31Z</time>
      </trkpt>
      <trkpt lat="53.597779339179397" lon="10.098488442599773">
        <ele>5.8</ele>
        <time>2021-09-13T11:26:32Z</time>
      </trkpt>
      <trkpt lat="53.597766431048512" lon="10.098434379324317">
        <ele>5.8</ele>
        <time>2021-09-13T11:26:33Z</time>
      </trkpt>
      <trkpt lat="53.597759641706944" lon="10.098380567505956">
        <ele>5.7</ele>
        <time>2021-09-13T11:26:34Z</time>
      </trkpt>
      <trkpt lat="53.597700214013457" lon="10.097867092117667">
        <ele>5.5</ele>
        <time>2021-09-13T11:26:44Z</time>
      </trkpt>
      <trkpt lat="53.597694765776396" lon="10.097821662202477">
        <ele>5.5</ele>
        <time>2021-09-13T11:26:45Z</time>
      </trkpt>
      <trkpt lat="53.597690491005778" lon="10.097769442945719">
        <ele>5.5</ele>
        <time>2021-09-13T11:26:46Z</time>
      </trkpt>
      <trkpt lat="53.597691999748349" lon="10.097708757966757">
        <ele>5.5</ele>
        <time>2021-09-13T11:26:47Z</time>
      </trkpt>
      <trkpt lat="53.597694430500269" lon="10.097650000825524">
        <ele>5.5</ele>
        <time>2021-09-13T11:26:48Z</time>
      </trkpt>
      <trkpt lat="53.597699459642172" lon="10.097584286704659">
        <ele>5.5</ele>
        <time>2021-09-13T11:26:49Z</time>
      </trkpt>
      <trkpt lat="53.597708260640502" lon="10.097511112689972">
        <ele>5.5</ele>
        <time>2021-09-13T11:26:50Z</time>
      </trkpt>
      <trkpt lat="53.597710775211453" lon="10.097440453246236">
        <ele>5.5</ele>
        <time>2021-09-13T11:26:51Z</time>
      </trkpt>
      <trkpt lat="53.597709601745009" lon="10.097372140735388">
        <ele>5.6</ele>
        <time>2021-09-13T11:26:52Z</time>
      </trkpt>
      <trkpt lat="53.597613042220473" lon="10.096637215465307">
        <ele>5.6</ele>
        <time>2021-09-13T11:27:02Z</time>
      </trkpt>
      <trkpt lat="53.597514806315303" lon="10.096204960718751">
        <ele>5.6</ele>
        <time>2021-09-13T11:27:08Z</time>
      </trkpt>
      <trkpt lat="53.597499718889594" lon="10.096135307103395">
        <ele>5.6</ele>
        <time>2021-09-13T11:27:09Z</time>
      </trkpt>
      <trkpt lat="53.597442554309964" lon="10.095830038189888">
        <ele>5.7</ele>
        <time>2021-09-13T11:27:13Z</time>
      </trkpt>
      <trkpt lat="53.597258236259222" lon="10.09504146873951">
        <ele>5.7</ele>
        <time>2021-09-13T11:27:25Z</time>
      </trkpt>
      <trkpt lat="53.597107194364071" lon="10.094297239556909">
        <ele>5.5</ele>
        <time>2021-09-13T11:27:37Z</time>
      </trkpt>
      <trkpt lat="53.596851546317339" lon="10.093888957053423">
        <ele>5.4</ele>
        <time>2021-09-13T11:27:46Z</time>
      </trkpt>
      <trkpt lat="53.596764458343387" lon="10.093071386218071">
        <ele>5.1</ele>
        <time>2021-09-13T11:27:58Z</time>
      </trkpt>
      <trkpt lat="53.596770409494638" lon="10.092216599732637">
        <ele>5</ele>
        <time>2021-09-13T11:28:11Z</time>
      </trkpt>
      <trkpt lat="53.596758507192135" lon="10.092115011066198">
        <ele>5</ele>
        <time>2021-09-13T11:28:17Z</time>
      </trkpt>
      <trkpt lat="53.596728332340717" lon="10.091836731880903">
        <ele>4.8</ele>
        <time>2021-09-13T11:28:44Z</time>
      </trkpt>
      <trkpt lat="53.596724225208163" lon="10.091803371906281">
        <ele>4.8</ele>
        <time>2021-09-13T11:28:45Z</time>
      </trkpt>
      <trkpt lat="53.596719782799482" lon="10.091772861778736">
        <ele>4.8</ele>
        <time>2021-09-13T11:28:46Z</time>
      </trkpt>
      <trkpt lat="53.596715591847897" lon="10.091742854565382">
        <ele>4.8</ele>
        <time>2021-09-13T11:28:47Z</time>
      </trkpt>
      <trkpt lat="53.596703773364425" lon="10.091711841523647">
        <ele>4.9</ele>
        <time>2021-09-13T11:28:48Z</time>
      </trkpt>
      <trkpt lat="53.596691535785794" lon="10.091684265062213">
        <ele>5</ele>
        <time>2021-09-13T11:28:49Z</time>
      </trkpt>
      <trkpt lat="53.596678292378783" lon="10.091649647802114">
        <ele>5.1</ele>
        <time>2021-09-13T11:28:50Z</time>
      </trkpt>
      <trkpt lat="53.596649877727032" lon="10.091496091336012">
        <ele>5.2</ele>
        <time>2021-09-13T11:28:54Z</time>
      </trkpt>
      <trkpt lat="53.596646692603827" lon="10.09145837277174">
        <ele>5.2</ele>
        <time>2021-09-13T11:28:55Z</time>
      </trkpt>
      <trkpt lat="53.596612578257918" lon="10.091228624805808">
        <ele>5.3</ele>
        <time>2021-09-13T11:29:00Z</time>
      </trkpt>
      <trkpt lat="53.596621714532375" lon="10.091176824644208">
        <ele>5.3</ele>
        <time>2021-09-13T11:29:01Z</time>
      </trkpt>
      <trkpt lat="53.596640909090638" lon="10.091144219040871">
        <ele>5.3</ele>
        <time>2021-09-13T11:29:02Z</time>
      </trkpt>
      <trkpt lat="53.596666725352407" lon="10.091124605387449">
        <ele>5.2</ele>
        <time>2021-09-13T11:29:03Z</time>
      </trkpt>
      <trkpt lat="53.596694972366095" lon="10.091117396950722">
        <ele>5.2</ele>
        <time>2021-09-13T11:29:04Z</time>
      </trkpt>
      <trkpt lat="53.596723135560751" lon="10.091117145493627">
        <ele>5.2</ele>
        <time>2021-09-13T11:29:05Z</time>
      </trkpt>
      <trkpt lat="53.596749873831868" lon="10.091121839359403">
        <ele>5.1</ele>
        <time>2021-09-13T11:29:06Z</time>
      </trkpt>
      <trkpt lat="53.596776947379112" lon="10.091126365587115">
        <ele>5.1</ele>
        <time>2021-09-13T11:29:07Z</time>
      </trkpt>
      <trkpt lat="53.596805948764086" lon="10.091127036139369">
        <ele>5.1</ele>
        <time>2021-09-13T11:29:08Z</time>
      </trkpt>
      <trkpt lat="53.597155138850212" lon="10.090955039486289">
        <ele>4.9</ele>
        <time>2021-09-13T11:29:19Z</time>
      </trkpt>
      <trkpt lat="53.597539030015469" lon="10.090409377589822">
        <ele>4.5</ele>
        <time>2021-09-13T11:29:32Z</time>
      </trkpt>
      <trkpt lat="53.59761823900044" lon="10.090072508901358">
        <ele>4.5</ele>
        <time>2021-09-13T11:29:37Z</time>
      </trkpt>
      <trkpt lat="53.597622932866216" lon="10.089999502524734">
        <ele>4.5</ele>
        <time>2021-09-13T11:29:38Z</time>
      </trkpt>
      <trkpt lat="53.59766224399209" lon="10.088738948106766">
        <ele>4.1</ele>
        <time>2021-09-13T11:29:57Z</time>
      </trkpt>
      <trkpt lat="53.59758697450161" lon="10.087838061153889">
        <ele>4</ele>
        <time>2021-09-13T11:30:11Z</time>
      </trkpt>
      <trkpt lat="53.597669620066881" lon="10.086828460916877">
        <ele>4</ele>
        <time>2021-09-13T11:30:26Z</time>
      </trkpt>
      <trkpt lat="53.597831474617124" lon="10.085983984172344">
        <ele>4.5</ele>
        <time>2021-09-13T11:30:40Z</time>
      </trkpt>
      <trkpt lat="53.598006404936314" lon="10.085067339241505">
        <ele>4.3</ele>
        <time>2021-09-13T11:30:54Z</time>
      </trkpt>
      <trkpt lat="53.598093409091234" lon="10.084317661821842">
        <ele>4.2</ele>
        <time>2021-09-13T11:31:06Z</time>
      </trkpt>
      <trkpt lat="53.598138839006424" lon="10.083619030192494">
        <ele>4.4</ele>
        <time>2021-09-13T11:31:19Z</time>
      </trkpt>
      <trkpt lat="53.598100114613771" lon="10.083032716065645">
        <ele>4.5</ele>
        <time>2021-09-13T11:31:29Z</time>
      </trkpt>
      <trkpt lat="53.59815870411694" lon="10.082506248727441">
        <ele>3.9</ele>
        <time>2021-09-13T11:31:37Z</time>
      </trkpt>
      <trkpt lat="53.598166415467858" lon="10.082219503819942">
        <ele>3.6</ele>
        <time>2021-09-13T11:31:40Z</time>
      </trkpt>
      <trkpt lat="53.598170354962349" lon="10.0821284763515">
        <ele>3.5</ele>
        <time>2021-09-13T11:31:41Z</time>
      </trkpt>
      <trkpt lat="53.598167337477207" lon="10.08203954435885">
        <ele>3.5</ele>
        <time>2021-09-13T11:31:42Z</time>
      </trkpt>
      <trkpt lat="53.598186364397407" lon="10.081135975196958">
        <ele>3.3</ele>
        <time>2021-09-13T11:31:54Z</time>
      </trkpt>
      <trkpt lat="53.59810397028923" lon="10.080221509560943">
        <ele>3.3</ele>
        <time>2021-09-13T11:32:07Z</time>
      </trkpt>
      <trkpt lat="53.598063485696912" lon="10.079422043636441">
        <ele>3.5</ele>
        <time>2021-09-13T11:32:20Z</time>
      </trkpt>
      <trkpt lat="53.59796860255301" lon="10.078710839152336">
        <ele>3.3</ele>
        <time>2021-09-13T11:32:31Z</time>
      </trkpt>
      <trkpt lat="53.597822841256857" lon="10.077667292207479">
        <ele>3.2</ele>
        <time>2021-09-13T11:32:47Z</time>
      </trkpt>
      <trkpt lat="53.597555458545685" lon="10.076979221776128">
        <ele>2.9</ele>
        <time>2021-09-13T11:32:59Z</time>
      </trkpt>
      <trkpt lat="53.59722931869328" lon="10.076327780261636">
        <ele>2.9</ele>
        <time>2021-09-13T11:33:11Z</time>
      </trkpt>
      <trkpt lat="53.59706855379045" lon="10.076011531054974">
        <ele>2.9</ele>
        <time>2021-09-13T11:33:17Z</time>
      </trkpt>
      <trkpt lat="53.597019519656897" lon="10.075897956266999">
        <ele>2.9</ele>
        <time>2021-09-13T11:33:19Z</time>
      </trkpt>
      <trkpt lat="53.596608554944396" lon="10.074928672984242">
        <ele>3.1</ele>
        <time>2021-09-13T11:33:36Z</time>
      </trkpt>
      <trkpt lat="53.596162218600512" lon="10.073918905109167">
        <ele>3</ele>
        <time>2021-09-13T11:33:55Z</time>
      </trkpt>
      <trkpt lat="53.595943450927734" lon="10.073206527158618">
        <ele>3.3</ele>
        <time>2021-09-13T11:34:08Z</time>
      </trkpt>
      <trkpt lat="53.595895506441593" lon="10.073017347604036">
        <ele>4.5</ele>
        <time>2021-09-13T11:34:19Z</time>
      </trkpt>
      <trkpt lat="53.595805987715721" lon="10.072893211618066">
        <ele>4.5</ele>
        <time>2021-09-13T11:34:40Z</time>
      </trkpt>
      <trkpt lat="53.595791906118393" lon="10.07287829183042">
        <ele>4.5</ele>
        <time>2021-09-13T11:34:41Z</time>
      </trkpt>
      <trkpt lat="53.595773968845606" lon="10.072870664298534">
        <ele>4.5</ele>
        <time>2021-09-13T11:34:42Z</time>
      </trkpt>
      <trkpt lat="53.595755025744438" lon="10.072871167212725">
        <ele>4.5</ele>
        <time>2021-09-13T11:34:43Z</time>
      </trkpt>
      <trkpt lat="53.595731807872653" lon="10.072880387306213">
        <ele>4.6</ele>
        <time>2021-09-13T11:34:44Z</time>
      </trkpt>
      <trkpt lat="53.59570624306798" lon="10.0728948879987">
        <ele>4.6</ele>
        <time>2021-09-13T11:34:45Z</time>
      </trkpt>
      <trkpt lat="53.595559978857636" lon="10.072983149439096">
        <ele>4.8</ele>
        <time>2021-09-13T11:34:52Z</time>
      </trkpt>
      <trkpt lat="53.595548830926418" lon="10.07297158241272">
        <ele>4.8</ele>
        <time>2021-09-13T11:34:53Z</time>
      </trkpt>
      <trkpt lat="53.595542963594198" lon="10.072952890768647">
        <ele>4.8</ele>
        <time>2021-09-13T11:34:54Z</time>
      </trkpt>
      <trkpt lat="53.595544723793864" lon="10.072930175811052">
        <ele>4.8</ele>
        <time>2021-09-13T11:34:55Z</time>
      </trkpt>
      <trkpt lat="53.595551764592528" lon="10.072912322357297">
        <ele>4.8</ele>
        <time>2021-09-13T11:34:56Z</time>
      </trkpt>
      <trkpt lat="53.59559191390872" lon="10.072864545509219">
        <ele>4.8</ele>
        <time>2021-09-13T11:34:59Z</time>
      </trkpt>
      <trkpt lat="53.595599792897701" lon="10.072833532467484">
        <ele>4.8</ele>
        <time>2021-09-13T11:35:00Z</time>
      </trkpt>
      <trkpt lat="53.595602475106716" lon="10.072801848873496">
        <ele>4.7</ele>
        <time>2021-09-13T11:35:01Z</time>
      </trkpt>
      <trkpt lat="53.595603313297033" lon="10.072760945186019">
        <ele>4.6</ele>
        <time>2021-09-13T11:35:02Z</time>
      </trkpt>
      <trkpt lat="53.595599206164479" lon="10.072710989043117">
        <ele>4.4</ele>
        <time>2021-09-13T11:35:03Z</time>
      </trkpt>
      <trkpt lat="53.595586214214563" lon="10.07265935651958">
        <ele>4.2</ele>
        <time>2021-09-13T11:35:04Z</time>
      </trkpt>
      <trkpt lat="53.595568193122745" lon="10.072610909119248">
        <ele>4.1</ele>
        <time>2021-09-13T11:35:05Z</time>
      </trkpt>
      <trkpt lat="53.595364596694708" lon="10.072198435664177">
        <ele>3.4</ele>
        <time>2021-09-13T11:35:16Z</time>
      </trkpt>
      <trkpt lat="53.594962432980537" lon="10.071548838168383">
        <ele>3.2</ele>
        <time>2021-09-13T11:35:31Z</time>
      </trkpt>
      <trkpt lat="53.594791358336806" lon="10.071329986676574">
        <ele>3.1</ele>
        <time>2021-09-13T11:35:42Z</time>
      </trkpt>
      <trkpt lat="53.594768811017275" lon="10.071293357759714">
        <ele>2.9</ele>
        <time>2021-09-13T11:36:13Z</time>
      </trkpt>
      <trkpt lat="53.594756992533803" lon="10.07127801887691">
        <ele>2.9</ele>
        <time>2021-09-13T11:36:14Z</time>
      </trkpt>
      <trkpt lat="53.594465721398592" lon="10.070918016135693">
        <ele>2.9</ele>
        <time>2021-09-13T11:36:28Z</time>
      </trkpt>
      <trkpt lat="53.594113765284419" lon="10.070488359779119">
        <ele>2.6</ele>
        <time>2021-09-13T11:36:43Z</time>
      </trkpt>
      <trkpt lat="53.594099516049027" lon="10.070467991754413">
        <ele>2.5</ele>
        <time>2021-09-13T11:36:48Z</time>
      </trkpt>
      <trkpt lat="53.5940629709512" lon="10.070419544354081">
        <ele>2.5</ele>
        <time>2021-09-13T11:36:59Z</time>
      </trkpt>
      <trkpt lat="53.594047129154205" lon="10.070404624566436">
        <ele>2.4</ele>
        <time>2021-09-13T11:37:00Z</time>
      </trkpt>
      <trkpt lat="53.594031538814306" lon="10.070385597646236">
        <ele>2.4</ele>
        <time>2021-09-13T11:37:01Z</time>
      </trkpt>
      <trkpt lat="53.594014523550868" lon="10.07036380469799">
        <ele>2.4</ele>
        <time>2021-09-13T11:37:02Z</time>
      </trkpt>
      <trkpt lat="53.593637589365244" lon="10.070231622084975">
        <ele>2.2</ele>
        <time>2021-09-13T11:37:15Z</time>
      </trkpt>
      <trkpt lat="53.593087065964937" lon="10.070297168567777">
        <ele>2.2</ele>
        <time>2021-09-13T11:37:31Z</time>
      </trkpt>
      <trkpt lat="53.592514162883162" lon="10.070699919015169">
        <ele>2.3</ele>
        <time>2021-09-13T11:37:50Z</time>
      </trkpt>
      <trkpt lat="53.592478707432747" lon="10.070750713348389">
        <ele>2.4</ele>
        <time>2021-09-13T11:37:52Z</time>
      </trkpt>
      <trkpt lat="53.592471918091178" lon="10.070795807987452">
        <ele>2.4</ele>
        <time>2021-09-13T11:37:53Z</time>
      </trkpt>
      <trkpt lat="53.592471582815051" lon="10.070845680311322">
        <ele>2.4</ele>
        <time>2021-09-13T11:37:54Z</time>
      </trkpt>
      <trkpt lat="53.59247493557632" lon="10.071145668625832">
        <ele>2.5</ele>
        <time>2021-09-13T11:38:00Z</time>
      </trkpt>
      <trkpt lat="53.592457249760628" lon="10.071173999458551">
        <ele>2.5</ele>
        <time>2021-09-13T11:38:01Z</time>
      </trkpt>
      <trkpt lat="53.592437552288175" lon="10.071185985580087">
        <ele>2.5</ele>
        <time>2021-09-13T11:38:02Z</time>
      </trkpt>
      <trkpt lat="53.592423889786005" lon="10.071187913417816">
        <ele>2.5</ele>
        <time>2021-09-13T11:38:03Z</time>
      </trkpt>
      <trkpt lat="53.592413496226072" lon="10.07118271663785">
        <ele>2.6</ele>
        <time>2021-09-13T11:38:04Z</time>
      </trkpt>
      <trkpt lat="53.592391954734921" lon="10.071183806285262">
        <ele>2.8</ele>
        <time>2021-09-13T11:38:07Z</time>
      </trkpt>
      <trkpt lat="53.592104790732265" lon="10.071318671107292">
        <ele>3</ele>
        <time>2021-09-13T11:38:20Z</time>
      </trkpt>
      <trkpt lat="53.591835396364331" lon="10.071472562849522">
        <ele>3</ele>
        <time>2021-09-13T11:38:31Z</time>
      </trkpt>
      <trkpt lat="53.591809747740626" lon="10.071543306112289">
        <ele>3</ele>
        <time>2021-09-13T11:38:32Z</time>
      </trkpt>
      <trkpt lat="53.591702543199062" lon="10.071466276422143">
        <ele>3</ele>
        <time>2021-09-13T11:38:33Z</time>
      </trkpt>
      <trkpt lat="53.59167505055666" lon="10.071485890075564">
        <ele>3</ele>
        <time>2021-09-13T11:38:34Z</time>
      </trkpt>
      <trkpt lat="53.591648396104574" lon="10.071505419909954">
        <ele>3</ele>
        <time>2021-09-13T11:38:35Z</time>
      </trkpt>
      <trkpt lat="53.591613611206412" lon="10.071500223129988">
        <ele>3</ele>
        <time>2021-09-13T11:38:36Z</time>
      </trkpt>
      <trkpt lat="53.591579832136631" lon="10.07148421369493">
        <ele>3</ele>
        <time>2021-09-13T11:38:37Z</time>
      </trkpt>
      <trkpt lat="53.591555189341307" lon="10.07146175019443">
        <ele>3</ele>
        <time>2021-09-13T11:38:38Z</time>
      </trkpt>
      <trkpt lat="53.591546220704913" lon="10.071426965296268">
        <ele>3</ele>
        <time>2021-09-13T11:38:39Z</time>
      </trkpt>
      <trkpt lat="53.591543538495898" lon="10.071387151256204">
        <ele>3</ele>
        <time>2021-09-13T11:38:40Z</time>
      </trkpt>
      <trkpt lat="53.591545550152659" lon="10.071357311680913">
        <ele>3</ele>
        <time>2021-09-13T11:38:41Z</time>
      </trkpt>
      <trkpt lat="53.591538928449154" lon="10.071325963363051">
        <ele>3</ele>
        <time>2021-09-13T11:38:42Z</time>
      </trkpt>
      <trkpt lat="53.591532642021775" lon="10.071278270334005">
        <ele>3</ele>
        <time>2021-09-13T11:38:43Z</time>
      </trkpt>
      <trkpt lat="53.591530714184046" lon="10.071222614496946">
        <ele>3</ele>
        <time>2021-09-13T11:38:44Z</time>
      </trkpt>
      <trkpt lat="53.591522248461843" lon="10.071172909811139">
        <ele>3</ele>
        <time>2021-09-13T11:38:45Z</time>
      </trkpt>
      <trkpt lat="53.591465838253498" lon="10.070534963160753">
        <ele>2.7</ele>
        <time>2021-09-13T11:38:56Z</time>
      </trkpt>
      <trkpt lat="53.591230558231473" lon="10.069906990975142">
        <ele>2.4</ele>
        <time>2021-09-13T11:39:09Z</time>
      </trkpt>
      <trkpt lat="53.590990165248513" lon="10.069185309112072">
        <ele>1.7</ele>
        <time>2021-09-13T11:39:23Z</time>
      </trkpt>
      <trkpt lat="53.590940041467547" lon="10.069033931940794">
        <ele>1.3</ele>
        <time>2021-09-13T11:39:27Z</time>
      </trkpt>
      <trkpt lat="53.59093526378274" lon="10.06900149397552">
        <ele>1.3</ele>
        <time>2021-09-13T11:39:28Z</time>
      </trkpt>
      <trkpt lat="53.590954123064876" lon="10.068909041583538">
        <ele>1.2</ele>
        <time>2021-09-13T11:39:32Z</time>
      </trkpt>
      <trkpt lat="53.590956553816795" lon="10.068851374089718">
        <ele>1.3</ele>
        <time>2021-09-13T11:39:34Z</time>
      </trkpt>
      <trkpt lat="53.59095236286521" lon="10.068815248087049">
        <ele>1.3</ele>
        <time>2021-09-13T11:39:35Z</time>
      </trkpt>
      <trkpt lat="53.590942723676562" lon="10.068780966103077">
        <ele>1.3</ele>
        <time>2021-09-13T11:39:36Z</time>
      </trkpt>
      <trkpt lat="53.590925289317966" lon="10.068744588643312">
        <ele>1.4</ele>
        <time>2021-09-13T11:39:37Z</time>
      </trkpt>
      <trkpt lat="53.590907184407115" lon="10.068702595308423">
        <ele>1.4</ele>
        <time>2021-09-13T11:39:38Z</time>
      </trkpt>
      <trkpt lat="53.590895617380738" lon="10.068651884794235">
        <ele>1.4</ele>
        <time>2021-09-13T11:39:39Z</time>
      </trkpt>
      <trkpt lat="53.590707443654537" lon="10.068015195429325">
        <ele>1.2</ele>
        <time>2021-09-13T11:39:51Z</time>
      </trkpt>
      <trkpt lat="53.590629827231169" lon="10.067756613716483">
        <ele>1.2</ele>
        <time>2021-09-13T11:39:56Z</time>
      </trkpt>
      <trkpt lat="53.590618344023824" lon="10.067701796069741">
        <ele>1.2</ele>
        <time>2021-09-13T11:39:57Z</time>
      </trkpt>
      <trkpt lat="53.590600993484259" lon="10.06764555349946">
        <ele>1.2</ele>
        <time>2021-09-13T11:39:58Z</time>
      </trkpt>
      <trkpt lat="53.590580122545362" lon="10.067584784701467">
        <ele>1.2</ele>
        <time>2021-09-13T11:39:59Z</time>
      </trkpt>
      <trkpt lat="53.590556653216481" lon="10.067526027560234">
        <ele>1.2</ele>
        <time>2021-09-13T11:40:00Z</time>
      </trkpt>
      <trkpt lat="53.59053511172533" lon="10.067454027011991">
        <ele>1.2</ele>
        <time>2021-09-13T11:40:01Z</time>
      </trkpt>
      <trkpt lat="53.590320451185107" lon="10.066893864423037">
        <ele>0.8</ele>
        <time>2021-09-13T11:40:12Z</time>
      </trkpt>
      <trkpt lat="53.590265214443207" lon="10.066781211644411">
        <ele>0.7</ele>
        <time>2021-09-13T11:40:15Z</time>
      </trkpt>
      <trkpt lat="53.590236632153392" lon="10.066776433959603">
        <ele>0.6</ele>
        <time>2021-09-13T11:40:16Z</time>
      </trkpt>
      <trkpt lat="53.590206876397133" lon="10.066780289635062">
        <ele>0.6</ele>
        <time>2021-09-13T11:40:17Z</time>
      </trkpt>
      <trkpt lat="53.58998442068696" lon="10.066629247739911">
        <ele>0.6</ele>
        <time>2021-09-13T11:40:26Z</time>
      </trkpt>
      <trkpt lat="53.589701531454921" lon="10.066042179241776">
        <ele>0.5</ele>
        <time>2021-09-13T11:40:38Z</time>
      </trkpt>
      <trkpt lat="53.589397603645921" lon="10.065537923946977">
        <ele>0.6</ele>
        <time>2021-09-13T11:40:48Z</time>
      </trkpt>
      <trkpt lat="53.588964678347111" lon="10.064876675605774">
        <ele>0.7</ele>
        <time>2021-09-13T11:41:00Z</time>
      </trkpt>
      <trkpt lat="53.588238637894392" lon="10.063806977123022">
        <ele>0.4</ele>
        <time>2021-09-13T11:41:21Z</time>
      </trkpt>
      <trkpt lat="53.58795465901494" lon="10.063325772061944">
        <ele>0.7</ele>
        <time>2021-09-13T11:41:33Z</time>
      </trkpt>
      <trkpt lat="53.587951641529799" lon="10.063258297741413">
        <ele>0.8</ele>
        <time>2021-09-13T11:41:35Z</time>
      </trkpt>
      <trkpt lat="53.587955581024289" lon="10.0632278714329">
        <ele>0.8</ele>
        <time>2021-09-13T11:41:36Z</time>
      </trkpt>
      <trkpt lat="53.587963543832302" lon="10.063200127333403">
        <ele>0.8</ele>
        <time>2021-09-13T11:41:37Z</time>
      </trkpt>
      <trkpt lat="53.588172420859337" lon="10.062751024961472">
        <ele>1</ele>
        <time>2021-09-13T11:41:51Z</time>
      </trkpt>
      <trkpt lat="53.588488418608904" lon="10.062226820737123">
        <ele>1.4</ele>
        <time>2021-09-13T11:42:04Z</time>
      </trkpt>
      <trkpt lat="53.588850600644946" lon="10.06162466481328">
        <ele>2.5</ele>
        <time>2021-09-13T11:42:20Z</time>
      </trkpt>
      <trkpt lat="53.589098956435919" lon="10.061195259913802">
        <ele>3.1</ele>
        <time>2021-09-13T11:42:31Z</time>
      </trkpt>
      <trkpt lat="53.589095436036587" lon="10.06116827018559">
        <ele>3.2</ele>
        <time>2021-09-13T11:42:32Z</time>
      </trkpt>
      <trkpt lat="53.589054867625237" lon="10.061082355678082">
        <ele>3.2</ele>
        <time>2021-09-13T11:42:35Z</time>
      </trkpt>
      <trkpt lat="53.589009689167142" lon="10.061023682355881">
        <ele>3.2</ele>
        <time>2021-09-13T11:42:37Z</time>
      </trkpt>
      <trkpt lat="53.588792514055967" lon="10.061315456405282">
        <ele>2.9</ele>
        <time>2021-09-13T11:42:46Z</time>
      </trkpt>
      <trkpt lat="53.588374760001898" lon="10.062001682817936">
        <ele>1.9</ele>
        <time>2021-09-13T11:42:59Z</time>
      </trkpt>
      <trkpt lat="53.588291862979531" lon="10.062085166573524">
        <ele>1.6</ele>
        <time>2021-09-13T11:43:02Z</time>
      </trkpt>
      <trkpt lat="53.588274428620934" lon="10.062070833519101">
        <ele>1.6</ele>
        <time>2021-09-13T11:43:03Z</time>
      </trkpt>
      <trkpt lat="53.588259927928448" lon="10.062047280371189">
        <ele>1.5</ele>
        <time>2021-09-13T11:43:04Z</time>
      </trkpt>
      <trkpt lat="53.58824442140758" lon="10.062014255672693">
        <ele>1.5</ele>
        <time>2021-09-13T11:43:05Z</time>
      </trkpt>
      <trkpt lat="53.58822631649673" lon="10.061972262337804">
        <ele>1.4</ele>
        <time>2021-09-13T11:43:06Z</time>
      </trkpt>
      <trkpt lat="53.587988773360848" lon="10.061507066711783">
        <ele>1.1</ele>
        <time>2021-09-13T11:43:18Z</time>
      </trkpt>
      <trkpt lat="53.587777046486735" lon="10.061195595189929">
        <ele>0.9</ele>
        <time>2021-09-13T11:43:25Z</time>
      </trkpt>
      <trkpt lat="53.587747123092413" lon="10.061158463358879">
        <ele>0.8</ele>
        <time>2021-09-13T11:43:26Z</time>
      </trkpt>
      <trkpt lat="53.587713427841663" lon="10.061123678460717">
        <ele>0.8</ele>
        <time>2021-09-13T11:43:27Z</time>
      </trkpt>
      <trkpt lat="53.587683169171214" lon="10.061087720096111">
        <ele>0.8</ele>
        <time>2021-09-13T11:43:28Z</time>
      </trkpt>
      <trkpt lat="53.587645199149847" lon="10.061044553294778">
        <ele>0.8</ele>
        <time>2021-09-13T11:43:29Z</time>
      </trkpt>
      <trkpt lat="53.587170699611306" lon="10.060498472303152">
        <ele>0.4</ele>
        <time>2021-09-13T11:43:42Z</time>
      </trkpt>
      <trkpt lat="53.586938101798296" lon="10.060157077386975">
        <ele>0.3</ele>
        <time>2021-09-13T11:43:52Z</time>
      </trkpt>
      <trkpt lat="53.586619505658746" lon="10.059679057449102">
        <ele>8.9</ele>
        <time>2021-09-13T11:44:03Z</time>
      </trkpt>
      <trkpt lat="53.586283810436726" lon="10.059092910960317">
        <ele>8.6</ele>
        <time>2021-09-13T11:44:15Z</time>
      </trkpt>
      <trkpt lat="53.586029168218374" lon="10.05857465788722">
        <ele>-0.1</ele>
        <time>2021-09-13T11:44:26Z</time>
      </trkpt>
      <trkpt lat="53.585753990337253" lon="10.058030504733324">
        <ele>8.5</ele>
        <time>2021-09-13T11:44:36Z</time>
      </trkpt>
      <trkpt lat="53.585341349244118" lon="10.057270685210824">
        <ele>8.699999999999999</ele>
        <time>2021-09-13T11:44:49Z</time>
      </trkpt>
      <trkpt lat="53.585074720904231" lon="10.056710438802838">
        <ele>8.699999999999999</ele>
        <time>2021-09-13T11:45:01Z</time>
      </trkpt>
      <trkpt lat="53.584773056209087" lon="10.056171985343099">
        <ele>8.800000000000001</ele>
        <time>2021-09-13T11:45:12Z</time>
      </trkpt>
      <trkpt lat="53.5843959543854" lon="10.055473102256656">
        <ele>0.1</ele>
        <time>2021-09-13T11:45:25Z</time>
      </trkpt>
      <trkpt lat="53.584099402651191" lon="10.054882345721126">
        <ele>0.1</ele>
        <time>2021-09-13T11:45:38Z</time>
      </trkpt>
      <trkpt lat="53.583968477323651" lon="10.054406085982919">
        <ele>0.2</ele>
        <time>2021-09-13T11:45:49Z</time>
      </trkpt>
      <trkpt lat="53.584166876971722" lon="10.054059829562902">
        <ele>0.9</ele>
        <time>2021-09-13T11:46:02Z</time>
      </trkpt>
      <trkpt lat="53.584449011832476" lon="10.053721703588963">
        <ele>1.7</ele>
        <time>2021-09-13T11:46:15Z</time>
      </trkpt>
      <trkpt lat="53.584668282419443" lon="10.053466390818357">
        <ele>2.6</ele>
        <time>2021-09-13T11:46:29Z</time>
      </trkpt>
      <trkpt lat="53.584744306281209" lon="10.05338684655726">
        <ele>2.6</ele>
        <time>2021-09-13T11:46:37Z</time>
      </trkpt>
      <trkpt lat="53.584758974611759" lon="10.053370166569948">
        <ele>2.6</ele>
        <time>2021-09-13T11:46:38Z</time>
      </trkpt>
      <trkpt lat="53.584777247160673" lon="10.053343512117863">
        <ele>2.6</ele>
        <time>2021-09-13T11:46:39Z</time>
      </trkpt>
      <trkpt lat="53.584793172776699" lon="10.053316354751587">
        <ele>2.6</ele>
        <time>2021-09-13T11:46:40Z</time>
      </trkpt>
      <trkpt lat="53.584821922704577" lon="10.053276792168617">
        <ele>2.6</ele>
        <time>2021-09-13T11:46:45Z</time>
      </trkpt>
      <trkpt lat="53.584813959896564" lon="10.053285174071789">
        <ele>2.6</ele>
        <time>2021-09-13T11:47:44Z</time>
      </trkpt>
      <trkpt lat="53.584803901612759" lon="10.053275534883142">
        <ele>2.6</ele>
        <time>2021-09-13T11:47:45Z</time>
      </trkpt>
      <trkpt lat="53.584624109789729" lon="10.052883680909872">
        <ele>2.3</ele>
        <time>2021-09-13T11:47:56Z</time>
      </trkpt>
      <trkpt lat="53.584550013765693" lon="10.05250389687717">
        <ele>2.1</ele>
        <time>2021-09-13T11:48:02Z</time>
      </trkpt>
      <trkpt lat="53.584360415115952" lon="10.051656486466527">
        <ele>1</ele>
        <time>2021-09-13T11:48:14Z</time>
      </trkpt>
      <trkpt lat="53.584344238042831" lon="10.051594628021121">
        <ele>1</ele>
        <time>2021-09-13T11:48:15Z</time>
      </trkpt>
      <trkpt lat="53.584316493943334" lon="10.051457835361362">
        <ele>1</ele>
        <time>2021-09-13T11:48:17Z</time>
      </trkpt>
      <trkpt lat="53.584248935803771" lon="10.051217945292592">
        <ele>0.9</ele>
        <time>2021-09-13T11:48:20Z</time>
      </trkpt>
      <trkpt lat="53.584103845059872" lon="10.050537418574095">
        <ele>0.3</ele>
        <time>2021-09-13T11:48:28Z</time>
      </trkpt>
      <trkpt lat="53.58408079482615" lon="10.05045217461884">
        <ele>0.3</ele>
        <time>2021-09-13T11:48:29Z</time>
      </trkpt>
      <trkpt lat="53.583932770416141" lon="10.049735605716705">
        <ele>-0.3</ele>
        <time>2021-09-13T11:48:37Z</time>
      </trkpt>
      <trkpt lat="53.583832355216146" lon="10.049293795600533">
        <ele>-0.7</ele>
        <time>2021-09-13T11:48:42Z</time>
      </trkpt>
      <trkpt lat="53.583717020228505" lon="10.048891883343458">
        <ele>-1.1</ele>
        <time>2021-09-13T11:48:47Z</time>
      </trkpt>
      <trkpt lat="53.583675194531679" lon="10.048665488138795">
        <ele>-1.4</ele>
        <time>2021-09-13T11:48:50Z</time>
      </trkpt>
      <trkpt lat="53.583659688010812" lon="10.04851427860558">
        <ele>-1.5</ele>
        <time>2021-09-13T11:48:52Z</time>
      </trkpt>
      <trkpt lat="53.583661364391446" lon="10.048437668010592">
        <ele>-1.5</ele>
        <time>2021-09-13T11:48:53Z</time>
      </trkpt>
      <trkpt lat="53.583663711324334" lon="10.048364074900746">
        <ele>-1.6</ele>
        <time>2021-09-13T11:48:54Z</time>
      </trkpt>
      <trkpt lat="53.58366446569562" lon="10.048290984705091">
        <ele>-1.6</ele>
        <time>2021-09-13T11:48:55Z</time>
      </trkpt>
      <trkpt lat="53.583670919761062" lon="10.048218565061688">
        <ele>-1.6</ele>
        <time>2021-09-13T11:48:56Z</time>
      </trkpt>
      <trkpt lat="53.583683995530009" lon="10.048147067427635">
        <ele>-1.6</ele>
        <time>2021-09-13T11:48:57Z</time>
      </trkpt>
      <trkpt lat="53.583694892004132" lon="10.048073558136821">
        <ele>-1.6</ele>
        <time>2021-09-13T11:48:58Z</time>
      </trkpt>
      <trkpt lat="53.583811987191439" lon="10.047510797157884">
        <ele>-0.5</ele>
        <time>2021-09-13T11:49:09Z</time>
      </trkpt>
      <trkpt lat="53.583828583359718" lon="10.047495709732175">
        <ele>-0.5</ele>
        <time>2021-09-13T11:49:10Z</time>
      </trkpt>
      <trkpt lat="53.583844173699617" lon="10.047490680590272">
        <ele>-0.5</ele>
        <time>2021-09-13T11:49:11Z</time>
      </trkpt>
      <trkpt lat="53.583862278610468" lon="10.047492943704128">
        <ele>-0.5</ele>
        <time>2021-09-13T11:49:12Z</time>
      </trkpt>
      <trkpt lat="53.583882981911302" lon="10.047503923997283">
        <ele>-0.4</ele>
        <time>2021-09-13T11:49:13Z</time>
      </trkpt>
      <trkpt lat="53.58390293084085" lon="10.047519598156214">
        <ele>-0.4</ele>
        <time>2021-09-13T11:49:14Z</time>
      </trkpt>
      <trkpt lat="53.583923634141684" lon="10.047535439953208">
        <ele>-0.4</ele>
        <time>2021-09-13T11:49:15Z</time>
      </trkpt>
      <trkpt lat="53.583946852013469" lon="10.047553293406963">
        <ele>-0.3</ele>
        <time>2021-09-13T11:49:16Z</time>
      </trkpt>
      <trkpt lat="53.583971410989761" lon="10.047574331983924">
        <ele>-0.3</ele>
        <time>2021-09-13T11:49:17Z</time>
      </trkpt>
      <trkpt lat="53.584101246669888" lon="10.047611128538847">
        <ele>-0.1</ele>
        <time>2021-09-13T11:49:28Z</time>
      </trkpt>
      <trkpt lat="53.584135612472892" lon="10.047585563734174">
        <ele>8.4</ele>
        <time>2021-09-13T11:49:40Z</time>
      </trkpt>
      <trkpt lat="53.584235440939665" lon="10.047429241240025">
        <ele>8.5</ele>
        <time>2021-09-13T11:49:52Z</time>
      </trkpt>
      <trkpt lat="53.584280619397759" lon="10.047381715849042">
        <ele>-0.1</ele>
        <time>2021-09-13T11:50:25Z</time>
      </trkpt>
      <trkpt lat="53.584294617176056" lon="10.047365790233016">
        <ele>-0.1</ele>
        <time>2021-09-13T11:50:26Z</time>
      </trkpt>
      <trkpt lat="53.58431238681078" lon="10.047352379187942">
        <ele>-0.1</ele>
        <time>2021-09-13T11:50:27Z</time>
      </trkpt>
      <trkpt lat="53.584395702928305" lon="10.047279708087444">
        <ele>0.2</ele>
        <time>2021-09-13T11:50:35Z</time>
      </trkpt>
      <trkpt lat="53.584365947172046" lon="10.047203516587615">
        <ele>0.2</ele>
        <time>2021-09-13T11:51:12Z</time>
      </trkpt>
      <trkpt lat="53.584345998242497" lon="10.047181807458401">
        <ele>0.2</ele>
        <time>2021-09-13T11:51:13Z</time>
      </trkpt>
      <trkpt lat="53.584020780399442" lon="10.046920962631702">
        <ele>0.2</ele>
        <time>2021-09-13T11:51:25Z</time>
      </trkpt>
      <trkpt lat="53.583885999396443" lon="10.046889865770936">
        <ele>-0.3</ele>
        <time>2021-09-13T11:51:31Z</time>
      </trkpt>
      <trkpt lat="53.583879042416811" lon="10.046851141378284">
        <ele>-0.4</ele>
        <time>2021-09-13T11:51:33Z</time>
      </trkpt>
      <trkpt lat="53.583883568644524" lon="10.046819038689137">
        <ele>-0.4</ele>
        <time>2021-09-13T11:51:34Z</time>
      </trkpt>
      <trkpt lat="53.584043243899941" lon="10.046283854171634">
        <ele>-0.5</ele>
        <time>2021-09-13T11:51:47Z</time>
      </trkpt>
      <trkpt lat="53.584214905276895" lon="10.045783622190356">
        <ele>-0.7</ele>
        <time>2021-09-13T11:51:58Z</time>
      </trkpt>
      <trkpt lat="53.584383632987738" lon="10.045317588374019">
        <ele>-0.2</ele>
        <time>2021-09-13T11:52:09Z</time>
      </trkpt>
      <trkpt lat="53.584444988518953" lon="10.045219017192721">
        <ele>-0.1</ele>
        <time>2021-09-13T11:52:12Z</time>
      </trkpt>
      <trkpt lat="53.58445999212563" lon="10.045174257829785">
        <ele>-0.1</ele>
        <time>2021-09-13T11:52:13Z</time>
      </trkpt>
      <trkpt lat="53.584475666284561" lon="10.045128241181374">
        <ele>5.5</ele>
        <time>2021-09-13T11:52:14Z</time>
      </trkpt>
      <trkpt lat="53.584729637950659" lon="10.044377474114299">
        <ele>-0.3</ele>
        <time>2021-09-13T11:52:28Z</time>
      </trkpt>
      <trkpt lat="53.584997439756989" lon="10.043554119765759">
        <ele>-0.8</ele>
        <time>2021-09-13T11:52:43Z</time>
      </trkpt>
      <trkpt lat="53.585230875760317" lon="10.042970068752766">
        <ele>-0.8</ele>
        <time>2021-09-13T11:52:56Z</time>
      </trkpt>
      <trkpt lat="53.585261553525925" lon="10.042473021894693">
        <ele>-0.9</ele>
        <time>2021-09-13T11:53:07Z</time>
      </trkpt>
      <trkpt lat="53.585253925994039" lon="10.042445780709386">
        <ele>-0.8</ele>
        <time>2021-09-13T11:53:12Z</time>
      </trkpt>
      <trkpt lat="53.585268845781684" lon="10.042315777391195">
        <ele>-0.7</ele>
        <time>2021-09-13T11:53:44Z</time>
      </trkpt>
      <trkpt lat="53.585268259048462" lon="10.04228032194078">
        <ele>-0.7</ele>
        <time>2021-09-13T11:53:45Z</time>
      </trkpt>
      <trkpt lat="53.585260212421417" lon="10.042237155139446">
        <ele>-0.7</ele>
        <time>2021-09-13T11:53:46Z</time>
      </trkpt>
      <trkpt lat="53.585247807204723" lon="10.042200442403555">
        <ele>-0.7</ele>
        <time>2021-09-13T11:53:47Z</time>
      </trkpt>
      <trkpt lat="53.585227942094207" lon="10.042173704132438">
        <ele>-0.7</ele>
        <time>2021-09-13T11:53:48Z</time>
      </trkpt>
      <trkpt lat="53.585202544927597" lon="10.042154425755143">
        <ele>-0.7</ele>
        <time>2021-09-13T11:53:49Z</time>
      </trkpt>
      <trkpt lat="53.585173711180687" lon="10.042137913405895">
        <ele>-0.6</ele>
        <time>2021-09-13T11:53:50Z</time>
      </trkpt>
      <trkpt lat="53.584784958511591" lon="10.04172476939857">
        <ele>-1.1</ele>
        <time>2021-09-13T11:54:05Z</time>
      </trkpt>
      <trkpt lat="53.58483424410224" lon="10.041088331490755">
        <ele>-1.5</ele>
        <time>2021-09-13T11:54:17Z</time>
      </trkpt>
      <trkpt lat="53.584821000695229" lon="10.040531018748879">
        <ele>-1.9</ele>
        <time>2021-09-13T11:54:25Z</time>
      </trkpt>
      <trkpt lat="53.584815887734294" lon="10.040452564135194">
        <ele>-1.9</ele>
        <time>2021-09-13T11:54:26Z</time>
      </trkpt>
      <trkpt lat="53.584811110049486" lon="10.040376791730523">
        <ele>-2</ele>
        <time>2021-09-13T11:54:27Z</time>
      </trkpt>
      <trkpt lat="53.584810355678201" lon="10.040300348773599">
        <ele>-2</ele>
        <time>2021-09-13T11:54:28Z</time>
      </trkpt>
      <trkpt lat="53.584805577993393" lon="10.040221307426691">
        <ele>-2</ele>
        <time>2021-09-13T11:54:29Z</time>
      </trkpt>
      <trkpt lat="53.584805661812425" lon="10.040140589699149">
        <ele>-2</ele>
        <time>2021-09-13T11:54:30Z</time>
      </trkpt>
      <trkpt lat="53.584819743409753" lon="10.039133252575994">
        <ele>-1.5</ele>
        <time>2021-09-13T11:54:43Z</time>
      </trkpt>
      <trkpt lat="53.584785964339972" lon="10.037918714806437">
        <ele>-1.9</ele>
        <time>2021-09-13T11:55:00Z</time>
      </trkpt>
      <trkpt lat="53.584752855822444" lon="10.037490902468562">
        <ele>-2.4</ele>
        <time>2021-09-13T11:55:10Z</time>
      </trkpt>
      <trkpt lat="53.584718657657504" lon="10.036708870902658">
        <ele>-2.4</ele>
        <time>2021-09-13T11:55:22Z</time>
      </trkpt>
      <trkpt lat="53.58471505343914" lon="10.035860287025571">
        <ele>-2.4</ele>
        <time>2021-09-13T11:55:34Z</time>
      </trkpt>
      <trkpt lat="53.5846480820328" lon="10.034753289073706">
        <ele>-2.3</ele>
        <time>2021-09-13T11:55:49Z</time>
      </trkpt>
      <trkpt lat="53.584613297134638" lon="10.034035881981254">
        <ele>-1</ele>
        <time>2021-09-13T11:56:01Z</time>
      </trkpt>
      <trkpt lat="53.584634838625789" lon="10.033949380740523">
        <ele>-0.8</ele>
        <time>2021-09-13T11:56:03Z</time>
      </trkpt>
      <trkpt lat="53.584651350975037" lon="10.033929599449039">
        <ele>-0.7</ele>
        <time>2021-09-13T11:56:04Z</time>
      </trkpt>
      <trkpt lat="53.584670294076204" lon="10.033923229202628">
        <ele>-0.6</ele>
        <time>2021-09-13T11:56:05Z</time>
      </trkpt>
      <trkpt lat="53.584690410643816" lon="10.033924821764231">
        <ele>-0.5</ele>
        <time>2021-09-13T11:56:06Z</time>
      </trkpt>
      <trkpt lat="53.584707928821445" lon="10.033927839249372">
        <ele>-0.5</ele>
        <time>2021-09-13T11:56:07Z</time>
      </trkpt>
      <trkpt lat="53.584726704284549" lon="10.033927420154214">
        <ele>-0.3</ele>
        <time>2021-09-13T11:56:08Z</time>
      </trkpt>
      <trkpt lat="53.584748916327953" lon="10.033925073221326">
        <ele>-0.2</ele>
        <time>2021-09-13T11:56:09Z</time>
      </trkpt>
      <trkpt lat="53.585228193551302" lon="10.033902190625668">
        <ele>0.1</ele>
        <time>2021-09-13T11:56:24Z</time>
      </trkpt>
      <trkpt lat="53.58559213578701" lon="10.033862125128508">
        <ele>-0.2</ele>
        <time>2021-09-13T11:56:34Z</time>
      </trkpt>
      <trkpt lat="53.58616579324007" lon="10.033713597804308">
        <ele>-0.8</ele>
        <time>2021-09-13T11:56:46Z</time>
      </trkpt>
      <trkpt lat="53.586843805387616" lon="10.03351285122335">
        <ele>-1.1</ele>
        <time>2021-09-13T11:57:00Z</time>
      </trkpt>
      <trkpt lat="53.587693478912115" lon="10.033493153750896">
        <ele>-1.2</ele>
        <time>2021-09-13T11:57:18Z</time>
      </trkpt>
      <trkpt lat="53.587724575772882" lon="10.03353338688612">
        <ele>-1.2</ele>
        <time>2021-09-13T11:57:24Z</time>
      </trkpt>
      <trkpt lat="53.587831864133477" lon="10.033592479303479">
        <ele>-1.2</ele>
        <time>2021-09-13T11:58:08Z</time>
      </trkpt>
      <trkpt lat="53.587849382311106" lon="10.033591976389289">
        <ele>-1.2</ele>
        <time>2021-09-13T11:58:09Z</time>
      </trkpt>
      <trkpt lat="53.587868744507432" lon="10.033584935590625">
        <ele>-1.2</ele>
        <time>2021-09-13T11:58:10Z</time>
      </trkpt>
      <trkpt lat="53.587888861075044" lon="10.033575966954231">
        <ele>-1.2</ele>
        <time>2021-09-13T11:58:11Z</time>
      </trkpt>
      <trkpt lat="53.588029090315104" lon="10.033560963347554">
        <ele>-1.1</ele>
        <time>2021-09-13T11:58:21Z</time>
      </trkpt>
      <trkpt lat="53.588053062558174" lon="10.033555682748556">
        <ele>-1.1</ele>
        <time>2021-09-13T11:58:22Z</time>
      </trkpt>
      <trkpt lat="53.588547091931105" lon="10.03347085788846">
        <ele>-1.5</ele>
        <time>2021-09-13T11:58:37Z</time>
      </trkpt>
      <trkpt lat="53.588922768831253" lon="10.033375639468431">
        <ele>-2</ele>
        <time>2021-09-13T11:58:48Z</time>
      </trkpt>
      <trkpt lat="53.589391987770796" lon="10.033297101035714">
        <ele>-2</ele>
        <time>2021-09-13T11:58:58Z</time>
      </trkpt>
      <trkpt lat="53.590157926082611" lon="10.033205738291144">
        <ele>-1.5</ele>
        <time>2021-09-13T11:59:15Z</time>
      </trkpt>
      <trkpt lat="53.590622870251536" lon="10.033098869025707">
        <ele>-1.1</ele>
        <time>2021-09-13T11:59:30Z</time>
      </trkpt>
      <trkpt lat="53.59062840230763" lon="10.033096605911851">
        <ele>-1.1</ele>
        <time>2021-09-13T11:59:33Z</time>
      </trkpt>
      <trkpt lat="53.590678945183754" lon="10.033028880134225">
        <ele>-1.2</ele>
        <time>2021-09-13T11:59:37Z</time>
      </trkpt>
      <trkpt lat="53.590685985982418" lon="10.033001303672791">
        <ele>-1.2</ele>
        <time>2021-09-13T11:59:38Z</time>
      </trkpt>
      <trkpt lat="53.590687662363052" lon="10.032973140478134">
        <ele>-1.2</ele>
        <time>2021-09-13T11:59:39Z</time>
      </trkpt>
      <trkpt lat="53.590684980154037" lon="10.03294656984508">
        <ele>-1.1</ele>
        <time>2021-09-13T11:59:40Z</time>
      </trkpt>
      <trkpt lat="53.590681543573737" lon="10.032919747754931">
        <ele>-1.1</ele>
        <time>2021-09-13T11:59:41Z</time>
      </trkpt>
      <trkpt lat="53.590679364278913" lon="10.032890243455768">
        <ele>-1.1</ele>
        <time>2021-09-13T11:59:42Z</time>
      </trkpt>
      <trkpt lat="53.590699397027493" lon="10.032422030344605">
        <ele>-0.8</ele>
        <time>2021-09-13T11:59:54Z</time>
      </trkpt>
      <trkpt lat="53.590715741738677" lon="10.032392693683505">
        <ele>-0.8</ele>
        <time>2021-09-13T11:59:55Z</time>
      </trkpt>
      <trkpt lat="53.590736528858542" lon="10.032366374507546">
        <ele>-0.8</ele>
        <time>2021-09-13T11:59:56Z</time>
      </trkpt>
      <trkpt lat="53.590759914368391" lon="10.03234944306314">
        <ele>-0.8</ele>
        <time>2021-09-13T11:59:57Z</time>
      </trkpt>
      <trkpt lat="53.590786904096603" lon="10.032330583781004">
        <ele>-0.8</ele>
        <time>2021-09-13T11:59:58Z</time>
      </trkpt>
      <trkpt lat="53.591189654543996" lon="10.032157497480512">
        <ele>-0.3</ele>
        <time>2021-09-13T12:00:12Z</time>
      </trkpt>
      <trkpt lat="53.591393502429128" lon="10.032106284052134">
        <ele>-0.1</ele>
        <time>2021-09-13T12:00:19Z</time>
      </trkpt>
      <trkpt lat="53.591419151052833" lon="10.032069152221084">
        <ele>-0.1</ele>
        <time>2021-09-13T12:00:20Z</time>
      </trkpt>
      <trkpt lat="53.591436417773366" lon="10.032032188028097">
        <ele>-0.1</ele>
        <time>2021-09-13T12:00:21Z</time>
      </trkpt>
      <trkpt lat="53.591450247913599" lon="10.03199614584446">
        <ele>-0.1</ele>
        <time>2021-09-13T12:00:22Z</time>
      </trkpt>
      <trkpt lat="53.591463826596737" lon="10.031953565776348">
        <ele>-0.1</ele>
        <time>2021-09-13T12:00:23Z</time>
      </trkpt>
      <trkpt lat="53.591681001707911" lon="10.031231800094247">
        <ele>0.5</ele>
        <time>2021-09-13T12:00:37Z</time>
      </trkpt>
      <trkpt lat="53.591657113283873" lon="10.030823685228825">
        <ele>0.4</ele>
        <time>2021-09-13T12:00:46Z</time>
      </trkpt>
      <trkpt lat="53.59166381880641" lon="10.030775237828493">
        <ele>0.4</ele>
        <time>2021-09-13T12:00:47Z</time>
      </trkpt>
      <trkpt lat="53.591680163517594" lon="10.030226474627852">
        <ele>0.1</ele>
        <time>2021-09-13T12:01:00Z</time>
      </trkpt>
      <trkpt lat="53.591660801321268" lon="10.030199903994799">
        <ele>0.1</ele>
        <time>2021-09-13T12:01:01Z</time>
      </trkpt>
      <trkpt lat="53.59163255430758" lon="10.030177691951394">
        <ele>0.1</ele>
        <time>2021-09-13T12:01:02Z</time>
      </trkpt>
      <trkpt lat="53.591604810208082" lon="10.030157323926687">
        <ele>0.2</ele>
        <time>2021-09-13T12:01:03Z</time>
      </trkpt>
      <trkpt lat="53.591579413041472" lon="10.030125891789794">
        <ele>0.2</ele>
        <time>2021-09-13T12:01:04Z</time>
      </trkpt>
      <trkpt lat="53.591558039188385" lon="10.030091693624854">
        <ele>0.2</ele>
        <time>2021-09-13T12:01:05Z</time>
      </trkpt>
      <trkpt lat="53.591538928449154" lon="10.030055483803153">
        <ele>0.2</ele>
        <time>2021-09-13T12:01:06Z</time>
      </trkpt>
      <trkpt lat="53.591345893219113" lon="10.029461542144418">
        <ele>0.4</ele>
        <time>2021-09-13T12:01:18Z</time>
      </trkpt>
      <trkpt lat="53.591236844658852" lon="10.028825271874666">
        <ele>0.4</ele>
        <time>2021-09-13T12:01:28Z</time>
      </trkpt>
      <trkpt lat="53.591179931536317" lon="10.028149606660008">
        <ele>0.3</ele>
        <time>2021-09-13T12:01:40Z</time>
      </trkpt>
      <trkpt lat="53.591211950406432" lon="10.027334215119481">
        <ele>0.4</ele>
        <time>2021-09-13T12:01:51Z</time>
      </trkpt>
      <trkpt lat="53.591285375878215" lon="10.026632398366928">
        <ele>0.4</ele>
        <time>2021-09-13T12:02:01Z</time>
      </trkpt>
      <trkpt lat="53.591354861855507" lon="10.025766212493181">
        <ele>0.3</ele>
        <time>2021-09-13T12:02:13Z</time>
      </trkpt>
      <trkpt lat="53.591326111927629" lon="10.025203283876181">
        <ele>0.3</ele>
        <time>2021-09-13T12:02:20Z</time>
      </trkpt>
      <trkpt lat="53.591330302879214" lon="10.02511921338737">
        <ele>0.3</ele>
        <time>2021-09-13T12:02:21Z</time>
      </trkpt>
      <trkpt lat="53.5914312209934" lon="10.024424102157354">
        <ele>0.6</ele>
        <time>2021-09-13T12:02:30Z</time>
      </trkpt>
      <trkpt lat="53.591593075543642" lon="10.023612231016159">
        <ele>0.7</ele>
        <time>2021-09-13T12:02:43Z</time>
      </trkpt>
      <trkpt lat="53.591748727485538" lon="10.022929944097996">
        <ele>0.8</ele>
        <time>2021-09-13T12:02:54Z</time>
      </trkpt>
      <trkpt lat="53.5918905492872" lon="10.022324016317725">
        <ele>2.1</ele>
        <time>2021-09-13T12:03:06Z</time>
      </trkpt>
      <trkpt lat="53.592061875388026" lon="10.021701660007238">
        <ele>2.6</ele>
        <time>2021-09-13T12:03:19Z</time>
      </trkpt>
      <trkpt lat="53.59219204634428" lon="10.021085841581225">
        <ele>3.3</ele>
        <time>2021-09-13T12:03:32Z</time>
      </trkpt>
      <trkpt lat="53.592306626960635" lon="10.020596338436007">
        <ele>4.3</ele>
        <time>2021-09-13T12:03:42Z</time>
      </trkpt>
      <trkpt lat="53.592457501217723" lon="10.020031314343214">
        <ele>5.3</ele>
        <time>2021-09-13T12:03:54Z</time>
      </trkpt>
      <trkpt lat="53.592588761821389" lon="10.019557066261768">
        <ele>6.5</ele>
        <time>2021-09-13T12:04:05Z</time>
      </trkpt>
      <trkpt lat="53.592753214761615" lon="10.018830941990018">
        <ele>8</ele>
        <time>2021-09-13T12:04:20Z</time>
      </trkpt>
      <trkpt lat="53.592903837561607" lon="10.018250327557325">
        <ele>8.699999999999999</ele>
        <time>2021-09-13T12:04:32Z</time>
      </trkpt>
      <trkpt lat="53.593039959669113" lon="10.017593186348677">
        <ele>9.6</ele>
        <time>2021-09-13T12:04:46Z</time>
      </trkpt>
      <trkpt lat="53.59309553168714" lon="10.017337873578072">
        <ele>9.9</ele>
        <time>2021-09-13T12:04:52Z</time>
      </trkpt>
      <trkpt lat="53.593110116198659" lon="10.017313063144684">
        <ele>9.9</ele>
        <time>2021-09-13T12:04:53Z</time>
      </trkpt>
      <trkpt lat="53.59313408844173" lon="10.017290934920311">
        <ele>10</ele>
        <time>2021-09-13T12:04:54Z</time>
      </trkpt>
      <trkpt lat="53.593157976865768" lon="10.017275344580412">
        <ele>10</ele>
        <time>2021-09-13T12:04:55Z</time>
      </trkpt>
      <trkpt lat="53.593177255243063" lon="10.017281463369727">
        <ele>10.1</ele>
        <time>2021-09-13T12:04:56Z</time>
      </trkpt>
      <trkpt lat="53.593196952715516" lon="10.017287582159042">
        <ele>10.1</ele>
        <time>2021-09-13T12:04:57Z</time>
      </trkpt>
      <trkpt lat="53.593214973807335" lon="10.017295125871897">
        <ele>10.1</ele>
        <time>2021-09-13T12:04:58Z</time>
      </trkpt>
      <trkpt lat="53.593234168365598" lon="10.017303926870227">
        <ele>10.1</ele>
        <time>2021-09-13T12:04:59Z</time>
      </trkpt>
      <trkpt lat="53.593542957678437" lon="10.017502494156361">
        <ele>10.800000000000001</ele>
        <time>2021-09-13T12:05:10Z</time>
      </trkpt>
      <trkpt lat="53.593866918236017" lon="10.017707850784063">
        <ele>11</ele>
        <time>2021-09-13T12:05:21Z</time>
      </trkpt>
      <trkpt lat="53.594187442213297" lon="10.0177853833884">
        <ele>11</ele>
        <time>2021-09-13T12:05:31Z</time>
      </trkpt>
      <trkpt lat="53.59441383741796" lon="10.017267381772399">
        <ele>11.199999999999999</ele>
        <time>2021-09-13T12:05:43Z</time>
      </trkpt>
      <trkpt lat="53.594622714444995" lon="10.016674781218171">
        <ele>12</ele>
        <time>2021-09-13T12:05:56Z</time>
      </trkpt>
      <trkpt lat="53.595012053847313" lon="10.016066506505013">
        <ele>13</ele>
        <time>2021-09-13T12:06:11Z</time>
      </trkpt>
      <trkpt lat="53.595463167876005" lon="10.015479354187846">
        <ele>13</ele>
        <time>2021-09-13T12:06:25Z</time>
      </trkpt>
      <trkpt lat="53.59581277705729" lon="10.014713080599904">
        <ele>13.300000000000001</ele>
        <time>2021-09-13T12:06:42Z</time>
      </trkpt>
      <trkpt lat="53.595981588587165" lon="10.014016879722476">
        <ele>13.4</ele>
        <time>2021-09-13T12:06:56Z</time>
      </trkpt>
      <trkpt lat="53.596114357933402" lon="10.013503069058061">
        <ele>13.1</ele>
        <time>2021-09-13T12:07:09Z</time>
      </trkpt>
      <trkpt lat="53.59630873426795" lon="10.012788930907845">
        <ele>13.300000000000001</ele>
        <time>2021-09-13T12:07:23Z</time>
      </trkpt>
      <trkpt lat="53.596528256312013" lon="10.011978317052126">
        <ele>13.699999999999999</ele>
        <time>2021-09-13T12:07:37Z</time>
      </trkpt>
      <trkpt lat="53.596722967922688" lon="10.01119963824749">
        <ele>14.1</ele>
        <time>2021-09-13T12:07:51Z</time>
      </trkpt>
      <trkpt lat="53.59691902063787" lon="10.010401932522655">
        <ele>14.4</ele>
        <time>2021-09-13T12:08:05Z</time>
      </trkpt>
      <trkpt lat="53.597009461373091" lon="10.009697014465928">
        <ele>14.9</ele>
        <time>2021-09-13T12:08:18Z</time>
      </trkpt>
      <trkpt lat="53.597004683688283" lon="10.009566927328706">
        <ele>14.9</ele>
        <time>2021-09-13T12:08:21Z</time>
      </trkpt>
      <trkpt lat="53.596968054771423" lon="10.009481934830546">
        <ele>14.9</ele>
        <time>2021-09-13T12:08:27Z</time>
      </trkpt>
      <trkpt lat="53.596971742808819" lon="10.009463578462601">
        <ele>14.9</ele>
        <time>2021-09-13T12:08:28Z</time>
      </trkpt>
      <trkpt lat="53.597004851326346" lon="10.009021935984492">
        <ele>15.5</ele>
        <time>2021-09-13T12:08:42Z</time>
      </trkpt>
      <trkpt lat="53.597013903781772" lon="10.008809203281999">
        <ele>15.4</ele>
        <time>2021-09-13T12:08:48Z</time>
      </trkpt>
      <trkpt lat="53.597001582384109" lon="10.008789673447609">
        <ele>15.4</ele>
        <time>2021-09-13T12:08:49Z</time>
      </trkpt>
      <trkpt lat="53.596766218543053" lon="10.00852731987834">
        <ele>14.9</ele>
        <time>2021-09-13T12:08:59Z</time>
      </trkpt>
      <trkpt lat="53.596587432548404" lon="10.008324813097715">
        <ele>14.6</ele>
        <time>2021-09-13T12:09:05Z</time>
      </trkpt>
      <trkpt lat="53.596579972654581" lon="10.008286759257317">
        <ele>14.6</ele>
        <time>2021-09-13T12:09:06Z</time>
      </trkpt>
      <trkpt lat="53.596578883007169" lon="10.008248202502728">
        <ele>14.6</ele>
        <time>2021-09-13T12:09:07Z</time>
      </trkpt>
      <trkpt lat="53.596582571044564" lon="10.008202269673347">
        <ele>14.6</ele>
        <time>2021-09-13T12:09:08Z</time>
      </trkpt>
      <trkpt lat="53.596591204404831" lon="10.008156839758158">
        <ele>14.6</ele>
        <time>2021-09-13T12:09:09Z</time>
      </trkpt>
      <trkpt lat="53.596595814451575" lon="10.008109901100397">
        <ele>14.6</ele>
        <time>2021-09-13T12:09:10Z</time>
      </trkpt>
      <trkpt lat="53.596600005403161" lon="10.008063549175858">
        <ele>14.6</ele>
        <time>2021-09-13T12:09:11Z</time>
      </trkpt>
      <trkpt lat="53.596641244366765" lon="10.007492573931813">
        <ele>15.6</ele>
        <time>2021-09-13T12:09:23Z</time>
      </trkpt>
      <trkpt lat="53.596721794456244" lon="10.006908942013979">
        <ele>15.699999999999999</ele>
        <time>2021-09-13T12:09:34Z</time>
      </trkpt>
      <trkpt lat="53.596902843564749" lon="10.006194803863764">
        <ele>15.699999999999999</ele>
        <time>2021-09-13T12:09:46Z</time>
      </trkpt>
      <trkpt lat="53.59701918438077" lon="10.005652913823724">
        <ele>15.199999999999999</ele>
        <time>2021-09-13T12:09:55Z</time>
      </trkpt>
      <trkpt lat="53.597088335081935" lon="10.004947744309902">
        <ele>14.199999999999999</ele>
        <time>2021-09-13T12:10:06Z</time>
      </trkpt>
      <trkpt lat="53.597134351730347" lon="10.004337960854173">
        <ele>13.699999999999999</ele>
        <time>2021-09-13T12:10:17Z</time>
      </trkpt>
      <trkpt lat="53.597169555723667" lon="10.003704121336341">
        <ele>12.5</ele>
        <time>2021-09-13T12:10:27Z</time>
      </trkpt>
      <trkpt lat="53.597037876024842" lon="10.003222580999136">
        <ele>12.199999999999999</ele>
        <time>2021-09-13T12:10:36Z</time>
      </trkpt>
      <trkpt lat="53.596965624019504" lon="10.003021918237209">
        <ele>12.199999999999999</ele>
        <time>2021-09-13T12:10:44Z</time>
      </trkpt>
      <trkpt lat="53.59693662263453" lon="10.002793846651912">
        <ele>12.199999999999999</ele>
        <time>2021-09-13T12:11:08Z</time>
      </trkpt>
      <trkpt lat="53.596925977617502" lon="10.002115163952112">
        <ele>11.199999999999999</ele>
        <time>2021-09-13T12:11:19Z</time>
      </trkpt>
      <trkpt lat="53.596889935433865" lon="10.001427177339792">
        <ele>9.6</ele>
        <time>2021-09-13T12:11:29Z</time>
      </trkpt>
      <trkpt lat="53.596873339265585" lon="10.001213606446981">
        <ele>9.199999999999999</ele>
        <time>2021-09-13T12:11:32Z</time>
      </trkpt>
      <trkpt lat="53.59683595597744" lon="10.000765426084399">
        <ele>8.199999999999999</ele>
        <time>2021-09-13T12:11:38Z</time>
      </trkpt>
      <trkpt lat="53.59683595597744" lon="10.000687809661031">
        <ele>8</ele>
        <time>2021-09-13T12:11:39Z</time>
      </trkpt>
      <trkpt lat="53.596753980964422" lon="9.999454999342561">
        <ele>5.3</ele>
        <time>2021-09-13T12:11:54Z</time>
      </trkpt>
      <trkpt lat="53.596744425594807" lon="9.999373024329543">
        <ele>5.1</ele>
        <time>2021-09-13T12:11:55Z</time>
      </trkpt>
      <trkpt lat="53.596733948215842" lon="9.999290546402335">
        <ele>4.8</ele>
        <time>2021-09-13T12:11:56Z</time>
      </trkpt>
      <trkpt lat="53.596731182187796" lon="9.999212007969618">
        <ele>4.5</ele>
        <time>2021-09-13T12:11:57Z</time>
      </trkpt>
      <trkpt lat="53.596727913245559" lon="9.999132798984647">
        <ele>4.3</ele>
        <time>2021-09-13T12:11:58Z</time>
      </trkpt>
      <trkpt lat="53.596721962094307" lon="9.999053087085486">
        <ele>4.1</ele>
        <time>2021-09-13T12:11:59Z</time>
      </trkpt>
      <trkpt lat="53.596708215773106" lon="9.998756619170308">
        <ele>3.4</ele>
        <time>2021-09-13T12:12:03Z</time>
      </trkpt>
      <trkpt lat="53.596656583249569" lon="9.998029824346304">
        <ele>1.8</ele>
        <time>2021-09-13T12:12:14Z</time>
      </trkpt>
      <trkpt lat="53.596628252416849" lon="9.997597318142653">
        <ele>0.4</ele>
        <time>2021-09-13T12:12:24Z</time>
      </trkpt>
      <trkpt lat="53.596619786694646" lon="9.997582901269198">
        <ele>0.2</ele>
        <time>2021-09-13T12:12:27Z</time>
      </trkpt>
      <trkpt lat="53.596581062301993" lon="9.997422052547336">
        <ele>6.6</ele>
        <time>2021-09-13T12:12:46Z</time>
      </trkpt>
      <trkpt lat="53.596581481397152" lon="9.997391207143664">
        <ele>6.6</ele>
        <time>2021-09-13T12:12:47Z</time>
      </trkpt>
      <trkpt lat="53.596597239375114" lon="9.997254330664873">
        <ele>6.5</ele>
        <time>2021-09-13T12:12:56Z</time>
      </trkpt>
      <trkpt lat="53.596985405310988" lon="9.997036904096603">
        <ele>7.1</ele>
      </trkpt>
      <trkpt lat="53.596918182447553" lon="9.996476490050554">
        <ele>6.9</ele>
      </trkpt>
      <trkpt lat="53.596803266555071" lon="9.995174780488014">
        <ele>5.7</ele>
      </trkpt>
      <trkpt lat="53.596762027591467" lon="9.994735736399889">
        <ele>5.6</ele>
      </trkpt>
      <trkpt lat="53.599031260237098" lon="9.994139615446329">
        <ele>5.7</ele>
      </trkpt>
      <trkpt lat="53.599345833063126" lon="9.994131904095411">
        <ele>5.8</ele>
      </trkpt>
      <trkpt lat="53.599404506385326" lon="9.993559252470732">
        <ele>6.4</ele>
      </trkpt>
      <trkpt lat="53.599411211907864" lon="9.993487922474742">
        <ele>25.100000000000001</ele>
        <time>2013-07-29T13:02:24Z</time>
      </trkpt>
      <trkpt lat="53.599409870803356" lon="9.993454478681088">
        <ele>25.100000000000001</ele>
        <time>2013-07-29T13:02:25Z</time>
      </trkpt>
      <trkpt lat="53.599409200251102" lon="9.993416341021657">
        <ele>25.100000000000001</ele>
        <time>2013-07-29T13:02:26Z</time>
      </trkpt>
      <trkpt lat="53.599408362060785" lon="9.993371078744531">
        <ele>25.100000000000001</ele>
        <time>2013-07-29T13:02:27Z</time>
      </trkpt>
      <trkpt lat="53.599357651546597" lon="9.992845868691802">
        <ele>25.600000000000001</ele>
        <time>2013-07-29T13:02:37Z</time>
      </trkpt>
      <trkpt lat="53.599101668223739" lon="9.991975324228406">
        <ele>26.100000000000001</ele>
        <time>2013-07-29T13:02:49Z</time>
      </trkpt>
      <trkpt lat="53.598885163664818" lon="9.991484312340617">
        <ele>26.600000000000001</ele>
        <time>2013-07-29T13:03:01Z</time>
      </trkpt>
      <trkpt lat="53.598682573065162" lon="9.990813424810767">
        <ele>26.600000000000001</ele>
        <time>2013-07-29T13:03:14Z</time>
      </trkpt>
      <trkpt lat="53.598360791802406" lon="9.990024017170072">
        <ele>25.600000000000001</ele>
        <time>2013-07-29T13:03:28Z</time>
      </trkpt>
      <trkpt lat="53.598182508721948" lon="9.989594528451562">
        <ele>25.100000000000001</ele>
        <time>2013-07-29T13:03:39Z</time>
      </trkpt>
      <trkpt lat="53.598122075200081" lon="9.98950257897377">
        <ele>25.100000000000001</ele>
        <time>2013-07-29T13:03:55Z</time>
      </trkpt>
      <trkpt lat="53.598118806257844" lon="9.98945564031601">
        <ele>25.600000000000001</ele>
        <time>2013-07-29T13:04:04Z</time>
      </trkpt>
      <trkpt lat="53.598123583942652" lon="9.989428818225861">
        <ele>24.600000000000001</ele>
        <time>2013-07-29T13:04:05Z</time>
      </trkpt>
      <trkpt lat="53.598150825127959" lon="9.989262437447906">
        <ele>24.600000000000001</ele>
        <time>2013-07-29T13:04:12Z</time>
      </trkpt>
      <trkpt lat="53.598161889240146" lon="9.989225305616856">
        <ele>24.600000000000001</ele>
        <time>2013-07-29T13:04:13Z</time>
      </trkpt>
      <trkpt lat="53.598178904503584" lon="9.98919278383255">
        <ele>25.100000000000001</ele>
        <time>2013-07-29T13:04:14Z</time>
      </trkpt>
      <trkpt lat="53.598202876746655" lon="9.989164955914021">
        <ele>24.600000000000001</ele>
        <time>2013-07-29T13:04:15Z</time>
      </trkpt>
      <trkpt lat="53.598222238942981" lon="9.989147773012519">
        <ele>24.600000000000001</ele>
        <time>2013-07-29T13:04:16Z</time>
      </trkpt>
      <trkpt lat="53.598243612796068" lon="9.989139977842569">
        <ele>24.600000000000001</ele>
        <time>2013-07-29T13:04:17Z</time>
      </trkpt>
      <trkpt lat="53.598267920315266" lon="9.98913461342454">
        <ele>24.600000000000001</ele>
        <time>2013-07-29T13:04:18Z</time>
      </trkpt>
      <trkpt lat="53.598657511174679" lon="9.989130590111017">
        <ele>24.600000000000001</ele>
        <time>2013-07-29T13:04:30Z</time>
      </trkpt>
      <trkpt lat="53.598933108150959" lon="9.989125728607178">
        <ele>24.199999999999999</ele>
        <time>2013-07-29T13:04:37Z</time>
      </trkpt>
      <trkpt lat="53.598977196961641" lon="9.989128997549415">
        <ele>24.600000000000001</ele>
        <time>2013-07-29T13:04:38Z</time>
      </trkpt>
      <trkpt lat="53.599367626011372" lon="9.989080717787147">
        <ele>24.199999999999999</ele>
        <time>2013-07-29T13:04:48Z</time>
      </trkpt>
      <trkpt lat="53.599735926836729" lon="9.988882150501013">
        <ele>25.100000000000001</ele>
        <time>2013-07-29T13:04:58Z</time>
      </trkpt>
      <trkpt lat="53.600078076124191" lon="9.988462384790182">
        <ele>23.199999999999999</ele>
        <time>2013-07-29T13:05:08Z</time>
      </trkpt>
      <trkpt lat="53.600163236260414" lon="9.988406309857965">
        <ele>23.699999999999999</ele>
        <time>2013-07-29T13:05:09Z</time>
      </trkpt>
      <trkpt lat="53.600726164877415" lon="9.987958129495382">
        <ele>23.699999999999999</ele>
        <time>2013-07-29T13:05:20Z</time>
      </trkpt>
      <trkpt lat="53.601156240329146" lon="9.987675826996565">
        <ele>24.199999999999999</ele>
        <time>2013-07-29T13:05:31Z</time>
      </trkpt>
      <trkpt lat="53.601670889183879" lon="9.987453958019614">
        <ele>24.199999999999999</ele>
        <time>2013-07-29T13:05:44Z</time>
      </trkpt>
      <trkpt lat="53.60211462713778" lon="9.987054392695427">
        <ele>23.199999999999999</ele>
        <time>2013-07-29T13:05:57Z</time>
      </trkpt>
      <trkpt lat="53.602213198319077" lon="9.986788518726826">
        <ele>23.699999999999999</ele>
        <time>2013-07-29T13:06:02Z</time>
      </trkpt>
      <trkpt lat="53.602219317108393" lon="9.986737221479416">
        <ele>23.699999999999999</ele>
        <time>2013-07-29T13:06:03Z</time>
      </trkpt>
      <trkpt lat="53.602411514148116" lon="9.986154427751899">
        <ele>23.699999999999999</ele>
        <time>2013-07-29T13:06:13Z</time>
      </trkpt>
      <trkpt lat="53.602606058120728" lon="9.985588733106852">
        <ele>23.199999999999999</ele>
        <time>2013-07-29T13:06:20Z</time>
      </trkpt>
      <trkpt lat="53.602638496086001" lon="9.985499382019043">
        <ele>23.699999999999999</ele>
        <time>2013-07-29T13:06:21Z</time>
      </trkpt>
      <trkpt lat="53.602675963193178" lon="9.985446576029062">
        <ele>23.699999999999999</ele>
        <time>2013-07-29T13:06:22Z</time>
      </trkpt>
      <trkpt lat="53.602890791371465" lon="9.984861016273499">
        <ele>23.699999999999999</ele>
        <time>2013-07-29T13:06:32Z</time>
      </trkpt>
      <trkpt lat="53.602912668138742" lon="9.984790105372667">
        <ele>24.199999999999999</ele>
        <time>2013-07-29T13:06:33Z</time>
      </trkpt>
      <trkpt lat="53.602934628725052" lon="9.984717769548297">
        <ele>23.699999999999999</ele>
        <time>2013-07-29T13:06:34Z</time>
      </trkpt>
      <trkpt lat="53.602959271520376" lon="9.984642751514912">
        <ele>23.699999999999999</ele>
        <time>2013-07-29T13:06:35Z</time>
      </trkpt>
      <trkpt lat="53.602988859638572" lon="9.984567565843463">
        <ele>23.699999999999999</ele>
        <time>2013-07-29T13:06:36Z</time>
      </trkpt>
      <trkpt lat="53.603300163522363" lon="9.983828449621797">
        <ele>23.699999999999999</ele>
        <time>2013-07-29T13:06:48Z</time>
      </trkpt>
      <trkpt lat="53.603489510715008" lon="9.983251858502626">
        <ele>23.199999999999999</ele>
        <time>2013-07-29T13:06:59Z</time>
      </trkpt>
      <trkpt lat="53.603623956441879" lon="9.982776353135705">
        <ele>23.699999999999999</ele>
        <time>2013-07-29T13:07:07Z</time>
      </trkpt>
      <trkpt lat="53.603634014725685" lon="9.982699574902654">
        <ele>23.699999999999999</ele>
        <time>2013-07-29T13:07:08Z</time>
      </trkpt>
      <trkpt lat="53.603639714419842" lon="9.98262070119381">
        <ele>23.699999999999999</ele>
        <time>2013-07-29T13:07:09Z</time>
      </trkpt>
      <trkpt lat="53.603646419942379" lon="9.982544761151075">
        <ele>24.199999999999999</ele>
        <time>2013-07-29T13:07:10Z</time>
      </trkpt>
      <trkpt lat="53.603656310588121" lon="9.982471419498324">
        <ele>23.699999999999999</ele>
        <time>2013-07-29T13:07:11Z</time>
      </trkpt>
      <trkpt lat="53.603668883442879" lon="9.982401682063937">
        <ele>23.699999999999999</ele>
        <time>2013-07-29T13:07:12Z</time>
      </trkpt>
      <trkpt lat="53.603751864284277" lon="9.981718305498362">
        <ele>23.699999999999999</ele>
        <time>2013-07-29T13:07:21Z</time>
      </trkpt>
      <trkpt lat="53.603759994730353" lon="9.981639012694359">
        <ele>23.699999999999999</ele>
        <time>2013-07-29T13:07:22Z</time>
      </trkpt>
      <trkpt lat="53.603888154029846" lon="9.980921689420939">
        <ele>24.600000000000001</ele>
        <time>2013-07-29T13:07:33Z</time>
      </trkpt>
      <trkpt lat="53.603956382721663" lon="9.979760963469744">
        <ele>24.199999999999999</ele>
        <time>2013-07-29T13:07:47Z</time>
      </trkpt>
      <trkpt lat="53.604017989709973" lon="9.978943141177297">
        <ele>25.100000000000001</ele>
        <time>2013-07-29T13:07:59Z</time>
      </trkpt>
      <trkpt lat="53.604087475687265" lon="9.978047534823418">
        <ele>25.100000000000001</ele>
        <time>2013-07-29T13:08:11Z</time>
      </trkpt>
      <trkpt lat="53.604119075462222" lon="9.977801106870174">
        <ele>25.100000000000001</ele>
        <time>2013-07-29T13:08:16Z</time>
      </trkpt>
      <trkpt lat="53.604114046320319" lon="9.977747965604067">
        <ele>25.100000000000001</ele>
        <time>2013-07-29T13:08:17Z</time>
      </trkpt>
      <trkpt lat="53.604114884510636" lon="9.977696584537625">
        <ele>25.100000000000001</ele>
        <time>2013-07-29T13:08:18Z</time>
      </trkpt>
      <trkpt lat="53.604126702994108" lon="9.977651741355658">
        <ele>25.100000000000001</ele>
        <time>2013-07-29T13:08:19Z</time>
      </trkpt>
      <trkpt lat="53.604138102382421" lon="9.977606479078531">
        <ele>24.600000000000001</ele>
        <time>2013-07-29T13:08:20Z</time>
      </trkpt>
      <trkpt lat="53.604153105989099" lon="9.977553337812424">
        <ele>25.600000000000001</ele>
        <time>2013-07-29T13:08:21Z</time>
      </trkpt>
      <trkpt lat="53.604166181758046" lon="9.977499274536967">
        <ele>25.600000000000001</ele>
        <time>2013-07-29T13:08:22Z</time>
      </trkpt>
      <trkpt lat="53.60431294888258" lon="9.976745573803783">
        <ele>25.100000000000001</ele>
        <time>2013-07-29T13:08:34Z</time>
      </trkpt>
      <trkpt lat="53.604447981342673" lon="9.975882321596146">
        <ele>25.100000000000001</ele>
        <time>2013-07-29T13:08:46Z</time>
      </trkpt>
      <trkpt lat="53.604571865871549" lon="9.974938435479999">
        <ele>24.600000000000001</ele>
        <time>2013-07-29T13:08:58Z</time>
      </trkpt>
      <trkpt lat="53.604602375999093" lon="9.974642219021916">
        <ele>24.600000000000001</ele>
        <time>2013-07-29T13:09:02Z</time>
      </trkpt>
      <trkpt lat="53.604611093178391" lon="9.974282970651984">
        <ele>24.199999999999999</ele>
        <time>2013-07-29T13:09:06Z</time>
      </trkpt>
      <trkpt lat="53.60462324693799" lon="9.974114745855331">
        <ele>24.600000000000001</ele>
        <time>2013-07-29T13:09:08Z</time>
      </trkpt>
      <trkpt lat="53.604637160897255" lon="9.97404970228672">
        <ele>24.600000000000001</ele>
        <time>2013-07-29T13:09:09Z</time>
      </trkpt>
      <trkpt lat="53.604651996865869" lon="9.973985999822617">
        <ele>24.600000000000001</ele>
        <time>2013-07-29T13:09:10Z</time>
      </trkpt>
      <trkpt lat="53.604819383472204" lon="9.973191311582923">
        <ele>24.600000000000001</ele>
        <time>2013-07-29T13:09:21Z</time>
      </trkpt>
      <trkpt lat="53.604860035702586" lon="9.972712034359574">
        <ele>24.600000000000001</ele>
        <time>2013-07-29T13:09:27Z</time>
      </trkpt>
      <trkpt lat="53.604868669062853" lon="9.972643805667758">
        <ele>24.600000000000001</ele>
        <time>2013-07-29T13:09:28Z</time>
      </trkpt>
      <trkpt lat="53.604967910796404" lon="9.971901923418045">
        <ele>25.100000000000001</ele>
        <time>2013-07-29T13:09:40Z</time>
      </trkpt>
      <trkpt lat="53.604965060949326" lon="9.971803687512875">
        <ele>25.100000000000001</ele>
        <time>2013-07-29T13:09:41Z</time>
      </trkpt>
      <trkpt lat="53.604963552206755" lon="9.971721628680825">
        <ele>25.100000000000001</ele>
        <time>2013-07-29T13:09:42Z</time>
      </trkpt>
      <trkpt lat="53.604956176131964" lon="9.971631690859795">
        <ele>25.100000000000001</ele>
        <time>2013-07-29T13:09:43Z</time>
      </trkpt>
      <trkpt lat="53.604979980736971" lon="9.971021069213748">
        <ele>25.100000000000001</ele>
        <time>2013-07-29T13:09:51Z</time>
      </trkpt>
      <trkpt lat="53.604984674602747" lon="9.970937836915255">
        <ele>25.100000000000001</ele>
        <time>2013-07-29T13:09:52Z</time>
      </trkpt>
      <trkpt lat="53.60502096824348" lon="9.969949191436172">
        <ele>24.600000000000001</ele>
        <time>2013-07-29T13:10:04Z</time>
      </trkpt>
      <trkpt lat="53.605028092861176" lon="9.969862271100283">
        <ele>24.600000000000001</ele>
        <time>2013-07-29T13:10:05Z</time>
      </trkpt>
      <trkpt lat="53.605111073702574" lon="9.969046460464597">
        <ele>24.600000000000001</ele>
        <time>2013-07-29T13:10:17Z</time>
      </trkpt>
      <trkpt lat="53.605341743677855" lon="9.968335591256619">
        <ele>24.600000000000001</ele>
        <time>2013-07-29T13:10:28Z</time>
      </trkpt>
      <trkpt lat="53.605368314310908" lon="9.968273900449276">
        <ele>24.600000000000001</ele>
        <time>2013-07-29T13:10:29Z</time>
      </trkpt>
      <trkpt lat="53.605397064238787" lon="9.968218663707376">
        <ele>25.100000000000001</ele>
        <time>2013-07-29T13:10:30Z</time>
      </trkpt>
      <trkpt lat="53.605577107518911" lon="9.967623464763165">
        <ele>25.100000000000001</ele>
        <time>2013-07-29T13:10:40Z</time>
      </trkpt>
      <trkpt lat="53.605600409209728" lon="9.967565964907408">
        <ele>25.600000000000001</ele>
        <time>2013-07-29T13:10:42Z</time>
      </trkpt>
      <trkpt lat="53.605610551312566" lon="9.967549368739128">
        <ele>26.100000000000001</ele>
        <time>2013-07-29T13:10:43Z</time>
      </trkpt>
      <trkpt lat="53.605616502463818" lon="9.967523384839296">
        <ele>26.100000000000001</ele>
        <time>2013-07-29T13:10:44Z</time>
      </trkpt>
      <trkpt lat="53.605618933215737" lon="9.967495473101735">
        <ele>26.100000000000001</ele>
        <time>2013-07-29T13:10:45Z</time>
      </trkpt>
      <trkpt lat="53.605646006762981" lon="9.967382904142141">
        <ele>26.600000000000001</ele>
        <time>2013-07-29T13:10:56Z</time>
      </trkpt>
      <trkpt lat="53.605659333989024" lon="9.96737158857286">
        <ele>26.600000000000001</ele>
        <time>2013-07-29T13:10:57Z</time>
      </trkpt>
      <trkpt lat="53.605648269876838" lon="9.967295648530126">
        <ele>26.600000000000001</ele>
        <time>2013-07-29T13:10:58Z</time>
      </trkpt>
      <trkpt lat="53.605660004541278" lon="9.967258768156171">
        <ele>26.600000000000001</ele>
        <time>2013-07-29T13:11:10Z</time>
      </trkpt>
      <trkpt lat="53.605519104748964" lon="9.966896418482065">
        <ele>26.600000000000001</ele>
        <time>2013-07-29T13:11:35Z</time>
      </trkpt>
      <trkpt lat="53.605497563257813" lon="9.966834727674723">
        <ele>26.100000000000001</ele>
        <time>2013-07-29T13:12:02Z</time>
      </trkpt>
      <trkpt lat="53.605513488873839" lon="9.96684436686337">
        <ele>26.100000000000001</ele>
        <time>2013-07-29T13:12:31Z</time>
      </trkpt>
      <trkpt lat="53.605548860505223" lon="9.966785861179233">
        <ele>26.100000000000001</ele>
        <time>2013-07-29T13:12:47Z</time>
      </trkpt>
      <trkpt lat="53.605556571856141" lon="9.966765828430653">
        <ele>26.100000000000001</ele>
        <time>2013-07-29T13:12:48Z</time>
      </trkpt>
      <trkpt lat="53.605566462501884" lon="9.966740179806948">
        <ele>26.100000000000001</ele>
        <time>2013-07-29T13:12:49Z</time>
      </trkpt>
      <trkpt lat="53.605577778071165" lon="9.966707741841674">
        <ele>26.100000000000001</ele>
        <time>2013-07-29T13:12:50Z</time>
      </trkpt>
      <trkpt lat="53.605592027306557" lon="9.966672202572227">
        <ele>25.100000000000001</ele>
        <time>2013-07-29T13:12:51Z</time>
      </trkpt>
      <trkpt lat="53.605606779456139" lon="9.96662987396121">
        <ele>25.600000000000001</ele>
        <time>2013-07-29T13:12:52Z</time>
      </trkpt>
      <trkpt lat="53.605625554919243" lon="9.966583102941513">
        <ele>25.600000000000001</ele>
        <time>2013-07-29T13:12:53Z</time>
      </trkpt>
      <trkpt lat="53.605648521333933" lon="9.966537086293101">
        <ele>25.600000000000001</ele>
        <time>2013-07-29T13:12:54Z</time>
      </trkpt>
      <trkpt lat="53.605670146644115" lon="9.966495176777244">
        <ele>25.600000000000001</ele>
        <time>2013-07-29T13:12:55Z</time>
      </trkpt>
      <trkpt lat="53.605690347030759" lon="9.966453518718481">
        <ele>25.100000000000001</ele>
        <time>2013-07-29T13:12:56Z</time>
      </trkpt>
      <trkpt lat="53.605897380039096" lon="9.965998297557235">
        <ele>25.100000000000001</ele>
        <time>2013-07-29T13:13:06Z</time>
      </trkpt>
      <trkpt lat="53.606121009215713" lon="9.965683473274112">
        <ele>25.600000000000001</ele>
        <time>2013-07-29T13:13:15Z</time>
      </trkpt>
      <trkpt lat="53.606438096612692" lon="9.965490689501166">
        <ele>25.600000000000001</ele>
        <time>2013-07-29T13:13:26Z</time>
      </trkpt>
      <trkpt lat="53.606446227058768" lon="9.965452551841736">
        <ele>26.100000000000001</ele>
        <time>2013-07-29T13:13:27Z</time>
      </trkpt>
      <trkpt lat="53.606451591476798" lon="9.965416174381971">
        <ele>26.100000000000001</ele>
        <time>2013-07-29T13:13:28Z</time>
      </trkpt>
      <trkpt lat="53.606466175988317" lon="9.965342245995998">
        <ele>26.100000000000001</ele>
        <time>2013-07-29T13:13:30Z</time>
      </trkpt>
      <trkpt lat="53.60648293979466" lon="9.965311484411359">
        <ele>25.600000000000001</ele>
        <time>2013-07-29T13:13:31Z</time>
      </trkpt>
      <trkpt lat="53.606505235657096" lon="9.965295977890492">
        <ele>25.600000000000001</ele>
        <time>2013-07-29T13:13:32Z</time>
      </trkpt>
      <trkpt lat="53.606536164879799" lon="9.96528223156929">
        <ele>25.600000000000001</ele>
        <time>2013-07-29T13:13:33Z</time>
      </trkpt>
      <trkpt lat="53.6065723747015" lon="9.965265551581979">
        <ele>25.600000000000001</ele>
        <time>2013-07-29T13:13:34Z</time>
      </trkpt>
      <trkpt lat="53.606966659426689" lon="9.965119538828731">
        <ele>25.600000000000001</ele>
        <time>2013-07-29T13:13:43Z</time>
      </trkpt>
      <trkpt lat="53.607112336903811" lon="9.965059189125896">
        <ele>25.600000000000001</ele>
        <time>2013-07-29T13:13:46Z</time>
      </trkpt>
      <trkpt lat="53.607535371556878" lon="9.964901944622397">
        <ele>25.600000000000001</ele>
        <time>2013-07-29T13:13:57Z</time>
      </trkpt>
      <trkpt lat="53.607581974938512" lon="9.964886186644435">
        <ele>25.100000000000001</ele>
        <time>2013-07-29T13:13:58Z</time>
      </trkpt>
      <trkpt lat="53.607633942738175" lon="9.96486833319068">
        <ele>24.600000000000001</ele>
        <time>2013-07-29T13:13:59Z</time>
      </trkpt>
      <trkpt lat="53.607681803405285" lon="9.964857017621398">
        <ele>25.100000000000001</ele>
        <time>2013-07-29T13:14:00Z</time>
      </trkpt>
      <trkpt lat="53.607726562768221" lon="9.964841175824404">
        <ele>25.100000000000001</ele>
        <time>2013-07-29T13:14:01Z</time>
      </trkpt>
      <trkpt lat="53.607768388465047" lon="9.964823322370648">
        <ele>25.600000000000001</ele>
        <time>2013-07-29T13:14:02Z</time>
      </trkpt>
      <trkpt lat="53.607980282977223" lon="9.964727433398366">
        <ele>25.100000000000001</ele>
        <time>2013-07-29T13:14:07Z</time>
      </trkpt>
      <trkpt lat="53.608123613521457" lon="9.964696001261473">
        <ele>25.100000000000001</ele>
        <time>2013-07-29T13:14:10Z</time>
      </trkpt>
      <trkpt lat="53.608167450875044" lon="9.964692732319236">
        <ele>25.100000000000001</ele>
        <time>2013-07-29T13:14:11Z</time>
      </trkpt>
      <trkpt lat="53.608208186924458" lon="9.964690050110221">
        <ele>25.100000000000001</ele>
        <time>2013-07-29T13:14:12Z</time>
      </trkpt>
      <trkpt lat="53.608601298183203" lon="9.964637160301209">
        <ele>25.100000000000001</ele>
        <time>2013-07-29T13:14:22Z</time>
      </trkpt>
      <trkpt lat="53.608646476641297" lon="9.964651493355632">
        <ele>25.100000000000001</ele>
        <time>2013-07-29T13:14:23Z</time>
      </trkpt>
      <trkpt lat="53.608685871586204" lon="9.964671526104212">
        <ele>25.100000000000001</ele>
        <time>2013-07-29T13:14:24Z</time>
      </trkpt>
      <trkpt lat="53.608718141913414" lon="9.96469147503376">
        <ele>25.100000000000001</ele>
        <time>2013-07-29T13:14:25Z</time>
      </trkpt>
      <trkpt lat="53.608746808022261" lon="9.964707316830754">
        <ele>25.600000000000001</ele>
        <time>2013-07-29T13:14:26Z</time>
      </trkpt>
      <trkpt lat="53.608775725588202" lon="9.964718632400036">
        <ele>25.100000000000001</ele>
        <time>2013-07-29T13:14:27Z</time>
      </trkpt>
      <trkpt lat="53.608832387253642" lon="9.964741347357631">
        <ele>6</ele>
        <time>2021-09-13T13:12:37Z</time>
      </trkpt>
      <trkpt lat="53.609200268983841" lon="9.964904710650444">
        <ele>0.3</ele>
        <time>2021-09-13T13:12:48Z</time>
      </trkpt>
      <trkpt lat="53.609536718577147" lon="9.965092968195677">
        <ele>0.5</ele>
        <time>2021-09-13T13:13:00Z</time>
      </trkpt>
      <trkpt lat="53.609839472919703" lon="9.965153988450766">
        <ele>1.7</ele>
        <time>2021-09-13T13:13:12Z</time>
      </trkpt>
      <trkpt lat="53.60985204577446" lon="9.965141834691167">
        <ele>1.9</ele>
        <time>2021-09-13T13:13:13Z</time>
      </trkpt>
      <trkpt lat="53.609862606972456" lon="9.965125741437078">
        <ele>2</ele>
        <time>2021-09-13T13:13:14Z</time>
      </trkpt>
      <trkpt lat="53.609871324151754" lon="9.965103445574641">
        <ele>2.1</ele>
        <time>2021-09-13T13:13:15Z</time>
      </trkpt>
      <trkpt lat="53.609878029674292" lon="9.965082155540586">
        <ele>2.2</ele>
        <time>2021-09-13T13:13:16Z</time>
      </trkpt>
      <trkpt lat="53.609884399920702" lon="9.965058015659452">
        <ele>2.2</ele>
        <time>2021-09-13T13:13:17Z</time>
      </trkpt>
      <trkpt lat="53.609889093786478" lon="9.965030439198017">
        <ele>2.2</ele>
        <time>2021-09-13T13:13:18Z</time>
      </trkpt>
      <trkpt lat="53.609895128756762" lon="9.965000348165631">
        <ele>2.2</ele>
        <time>2021-09-13T13:13:19Z</time>
      </trkpt>
      <trkpt lat="53.609907701611519" lon="9.964971765875816">
        <ele>2.2</ele>
        <time>2021-09-13T13:13:20Z</time>
      </trkpt>
      <trkpt lat="53.609924213960767" lon="9.964949553832412">
        <ele>2.2</ele>
        <time>2021-09-13T13:13:21Z</time>
      </trkpt>
      <trkpt lat="53.60994198359549" lon="9.964934717863798">
        <ele>2.1</ele>
        <time>2021-09-13T13:13:22Z</time>
      </trkpt>
      <trkpt lat="53.609965033829212" lon="9.96491527184844">
        <ele>2.1</ele>
        <time>2021-09-13T13:13:23Z</time>
      </trkpt>
      <trkpt lat="53.609989425167441" lon="9.964893814176321">
        <ele>2</ele>
        <time>2021-09-13T13:13:24Z</time>
      </trkpt>
      <trkpt lat="53.610158991068602" lon="9.96486296877265">
        <ele>1.7</ele>
        <time>2021-09-13T13:13:31Z</time>
      </trkpt>
      <trkpt lat="53.61018237657845" lon="9.964895993471146">
        <ele>1.6</ele>
        <time>2021-09-13T13:13:32Z</time>
      </trkpt>
      <trkpt lat="53.610199308022857" lon="9.964932538568974">
        <ele>1.6</ele>
        <time>2021-09-13T13:13:33Z</time>
      </trkpt>
      <trkpt lat="53.610392343252897" lon="9.96527242474258">
        <ele>1</ele>
        <time>2021-09-13T13:13:43Z</time>
      </trkpt>
      <trkpt lat="53.610825855284929" lon="9.965720269829035">
        <ele>0.8</ele>
        <time>2021-09-13T13:13:56Z</time>
      </trkpt>
      <trkpt lat="53.611297002062201" lon="9.966085553169251">
        <ele>0.4</ele>
        <time>2021-09-13T13:14:09Z</time>
      </trkpt>
      <trkpt lat="53.611640324816108" lon="9.966370118781924">
        <ele>0.6</ele>
        <time>2021-09-13T13:14:19Z</time>
      </trkpt>
      <trkpt lat="53.612167043611407" lon="9.966848976910114">
        <ele>1.4</ele>
        <time>2021-09-13T13:14:35Z</time>
      </trkpt>
      <trkpt lat="53.612643387168646" lon="9.967130022123456">
        <ele>1.5</ele>
        <time>2021-09-13T13:14:49Z</time>
      </trkpt>
      <trkpt lat="53.612984949722886" lon="9.96725432574749">
        <ele>1.2</ele>
        <time>2021-09-13T13:15:01Z</time>
      </trkpt>
      <trkpt lat="53.613350484520197" lon="9.967209147289395">
        <ele>0.8</ele>
        <time>2021-09-13T13:15:12Z</time>
      </trkpt>
      <trkpt lat="53.613734040409327" lon="9.967201184481382">
        <ele>1</ele>
        <time>2021-09-13T13:15:24Z</time>
      </trkpt>
      <trkpt lat="53.614123463630676" lon="9.967152066528797">
        <ele>1.7</ele>
        <time>2021-09-13T13:15:36Z</time>
      </trkpt>
      <trkpt lat="53.614309122785926" lon="9.967129938304424">
        <ele>3.1</ele>
        <time>2021-09-13T13:15:45Z</time>
      </trkpt>
      <trkpt lat="53.614327143877745" lon="9.967128010466695">
        <ele>3.2</ele>
        <time>2021-09-13T13:15:46Z</time>
      </trkpt>
      <trkpt lat="53.6143449973315" lon="9.967128681018949">
        <ele>3.5</ele>
        <time>2021-09-13T13:15:47Z</time>
      </trkpt>
      <trkpt lat="53.614370310679078" lon="9.967127004638314">
        <ele>3.5</ele>
        <time>2021-09-13T13:15:48Z</time>
      </trkpt>
      <trkpt lat="53.614392187446356" lon="9.967129854485393">
        <ele>3.7</ele>
        <time>2021-09-13T13:15:49Z</time>
      </trkpt>
      <trkpt lat="53.614641800522804" lon="9.96686096303165">
        <ele>4.6</ele>
        <time>2021-09-13T13:16:01Z</time>
      </trkpt>
      <trkpt lat="53.61478865146637" lon="9.966073147952557">
        <ele>3.9</ele>
        <time>2021-09-13T13:16:13Z</time>
      </trkpt>
      <trkpt lat="53.614860232919455" lon="9.965793276205659">
        <ele>3.6</ele>
        <time>2021-09-13T13:16:17Z</time>
      </trkpt>
      <trkpt lat="53.61487565562129" lon="9.965720186010003">
        <ele>3.6</ele>
        <time>2021-09-13T13:16:18Z</time>
      </trkpt>
      <trkpt lat="53.614893928170204" lon="9.96564676053822">
        <ele>3.6</ele>
        <time>2021-09-13T13:16:19Z</time>
      </trkpt>
      <trkpt lat="53.615145469084382" lon="9.964773617684841">
        <ele>3.8</ele>
        <time>2021-09-13T13:16:33Z</time>
      </trkpt>
      <trkpt lat="53.615412684157491" lon="9.963959148153663">
        <ele>4.3</ele>
        <time>2021-09-13T13:16:47Z</time>
      </trkpt>
      <trkpt lat="53.61584703437984" lon="9.963249284774065">
        <ele>4.8</ele>
        <time>2021-09-13T13:17:04Z</time>
      </trkpt>
      <trkpt lat="53.615892799571157" lon="9.963148701936007">
        <ele>5.1</ele>
        <time>2021-09-13T13:17:08Z</time>
      </trkpt>
      <trkpt lat="53.615893134847283" lon="9.963114587590098">
        <ele>5.2</ele>
        <time>2021-09-13T13:17:09Z</time>
      </trkpt>
      <trkpt lat="53.615890201181173" lon="9.963083826005459">
        <ele>5.3</ele>
        <time>2021-09-13T13:17:10Z</time>
      </trkpt>
      <trkpt lat="53.615881148725748" lon="9.963053399696946">
        <ele>5.3</ele>
        <time>2021-09-13T13:17:11Z</time>
      </trkpt>
      <trkpt lat="53.615655591711402" lon="9.962451662868261">
        <ele>5.3</ele>
        <time>2021-09-13T13:17:25Z</time>
      </trkpt>
      <trkpt lat="53.615388879552484" lon="9.961691340431571">
        <ele>4.8</ele>
        <time>2021-09-13T13:17:38Z</time>
      </trkpt>
      <trkpt lat="53.615121496841311" lon="9.961100667715073">
        <ele>4.5</ele>
        <time>2021-09-13T13:17:49Z</time>
      </trkpt>
      <trkpt lat="53.614720003679395" lon="9.960545534268022">
        <ele>4.5</ele>
        <time>2021-09-13T13:18:03Z</time>
      </trkpt>
      <trkpt lat="53.614516742527485" lon="9.960013786330819">
        <ele>4.7</ele>
        <time>2021-09-13T13:18:14Z</time>
      </trkpt>
      <trkpt lat="53.614421272650361" lon="9.959152042865753">
        <ele>4.9</ele>
        <time>2021-09-13T13:18:27Z</time>
      </trkpt>
      <trkpt lat="53.614475168287754" lon="9.957930548116565">
        <ele>4.9</ele>
        <time>2021-09-13T13:18:47Z</time>
      </trkpt>
      <trkpt lat="53.614545073360205" lon="9.956669239327312">
        <ele>5.1</ele>
        <time>2021-09-13T13:19:06Z</time>
      </trkpt>
      <trkpt lat="53.614832740277052" lon="9.956529261544347">
        <ele>5.8</ele>
        <time>2021-09-13T13:19:16Z</time>
      </trkpt>
      <trkpt lat="53.615325093269348" lon="9.95640529319644">
        <ele>6.9</ele>
        <time>2021-09-13T13:19:33Z</time>
      </trkpt>
      <trkpt lat="53.615823481231928" lon="9.956241510808468">
        <ele>8.300000000000001</ele>
        <time>2021-09-13T13:19:53Z</time>
      </trkpt>
      <trkpt lat="53.615984162315726" lon="9.955952502787113">
        <ele>9.1</ele>
        <time>2021-09-13T13:20:05Z</time>
      </trkpt>
      <trkpt lat="53.615938983857632" lon="9.955264767631888">
        <ele>9.5</ele>
        <time>2021-09-13T13:20:20Z</time>
      </trkpt>
      <trkpt lat="53.616077955812216" lon="9.954524310305715">
        <ele>10.5</ele>
        <time>2021-09-13T13:20:38Z</time>
      </trkpt>
      <trkpt lat="53.616299908608198" lon="9.953915700316429">
        <ele>11.699999999999999</ele>
        <time>2021-09-13T13:20:56Z</time>
      </trkpt>
      <trkpt lat="53.616482969373465" lon="9.953417647629976">
        <ele>12.699999999999999</ele>
        <time>2021-09-13T13:21:11Z</time>
      </trkpt>
      <trkpt lat="53.616731241345406" lon="9.95278112590313">
        <ele>13.800000000000001</ele>
        <time>2021-09-13T13:21:31Z</time>
      </trkpt>
      <trkpt lat="53.616966772824526" lon="9.952138988301158">
        <ele>14.6</ele>
        <time>2021-09-13T13:21:49Z</time>
      </trkpt>
      <trkpt lat="53.617133991792798" lon="9.951604893431068">
        <ele>15.300000000000001</ele>
        <time>2021-09-13T13:22:04Z</time>
      </trkpt>
      <trkpt lat="53.617146061733365" lon="9.951601540669799">
        <ele>15.300000000000001</ele>
        <time>2021-09-13T13:22:05Z</time>
      </trkpt>
      <trkpt lat="53.61742434091866" lon="9.95156642049551">
        <ele>15.6</ele>
        <time>2021-09-13T13:22:18Z</time>
      </trkpt>
      <trkpt lat="53.617775542661548" lon="9.951534401625395">
        <ele>15.800000000000001</ele>
        <time>2021-09-13T13:22:32Z</time>
      </trkpt>
      <trkpt lat="53.617921303957701" lon="9.951517386361957">
        <ele>16</ele>
        <time>2021-09-13T13:22:39Z</time>
      </trkpt>
      <trkpt lat="53.618015516549349" lon="9.95148628950119">
        <ele>16.699999999999999</ele>
        <time>2021-09-13T13:22:45Z</time>
      </trkpt>
      <trkpt lat="53.618107466027141" lon="9.951463993638754">
        <ele>16.899999999999999</ele>
        <time>2021-09-13T13:22:54Z</time>
      </trkpt>
      <trkpt lat="53.618143005296588" lon="9.951394004747272">
        <ele>16.800000000000001</ele>
        <time>2021-09-13T13:23:30Z</time>
      </trkpt>
      <trkpt lat="53.618154991418123" lon="9.951368104666472">
        <ele>16.800000000000001</ele>
        <time>2021-09-13T13:23:31Z</time>
      </trkpt>
      <trkpt lat="53.618170162662864" lon="9.951343210414052">
        <ele>16.800000000000001</ele>
        <time>2021-09-13T13:23:32Z</time>
      </trkpt>
      <trkpt lat="53.618187932297587" lon="9.951315131038427">
        <ele>16.699999999999999</ele>
        <time>2021-09-13T13:23:33Z</time>
      </trkpt>
      <trkpt lat="53.6184670496732" lon="9.951021429151297">
        <ele>16.699999999999999</ele>
        <time>2021-09-13T13:23:46Z</time>
      </trkpt>
      <trkpt lat="53.618806852027774" lon="9.951100889593363">
        <ele>16.600000000000001</ele>
        <time>2021-09-13T13:23:58Z</time>
      </trkpt>
      <trkpt lat="53.619217146188021" lon="9.951236676424742">
        <ele>16.5</ele>
        <time>2021-09-13T13:24:11Z</time>
      </trkpt>
      <trkpt lat="53.619556445628405" lon="9.951335750520229">
        <ele>16.399999999999999</ele>
        <time>2021-09-13T13:24:22Z</time>
      </trkpt>
      <trkpt lat="53.619577819481492" lon="9.951321333646774">
        <ele>16.399999999999999</ele>
        <time>2021-09-13T13:24:23Z</time>
      </trkpt>
      <trkpt lat="53.619605731219053" lon="9.951311443001032">
        <ele>16.399999999999999</ele>
        <time>2021-09-13T13:24:24Z</time>
      </trkpt>
      <trkpt lat="53.619640348479152" lon="9.951312951743603">
        <ele>16.399999999999999</ele>
        <time>2021-09-13T13:24:25Z</time>
      </trkpt>
      <trkpt lat="53.619675552472472" lon="9.951324686408043">
        <ele>16.399999999999999</ele>
        <time>2021-09-13T13:24:26Z</time>
      </trkpt>
      <trkpt lat="53.619709582999349" lon="9.951345222070813">
        <ele>16.399999999999999</ele>
        <time>2021-09-13T13:24:27Z</time>
      </trkpt>
      <trkpt lat="53.61974042840302" lon="9.951368104666472">
        <ele>16.399999999999999</ele>
        <time>2021-09-13T13:24:28Z</time>
      </trkpt>
      <trkpt lat="53.620080649852753" lon="9.951594583690167">
        <ele>16.300000000000001</ele>
        <time>2021-09-13T13:24:41Z</time>
      </trkpt>
      <trkpt lat="53.620412657037377" lon="9.951739171519876">
        <ele>15.800000000000001</ele>
        <time>2021-09-13T13:24:55Z</time>
      </trkpt>
      <trkpt lat="53.620671825483441" lon="9.951823074370623">
        <ele>15.800000000000001</ele>
        <time>2021-09-13T13:25:07Z</time>
      </trkpt>
      <trkpt lat="53.620806941762567" lon="9.951969590038061">
        <ele>15.6</ele>
        <time>2021-09-13T13:25:17Z</time>
      </trkpt>
      <trkpt lat="53.621151940897107" lon="9.952136976644397">
        <ele>15.6</ele>
        <time>2021-09-13T13:25:30Z</time>
      </trkpt>
      <trkpt lat="53.621393507346511" lon="9.952236218377948">
        <ele>15.300000000000001</ele>
        <time>2021-09-13T13:25:42Z</time>
      </trkpt>
      <trkpt lat="53.621520828455687" lon="9.952259939163923">
        <ele>20</ele>
        <time>2021-09-13T14:21:28Z</time>
      </trkpt>
      <trkpt lat="53.621546728536487" lon="9.952132618054748">
        <ele>14.800000000000001</ele>
        <time>2021-09-13T14:24:00Z</time>
      </trkpt>
      <trkpt lat="53.621562067419291" lon="9.952120129019022">
        <ele>14.800000000000001</ele>
        <time>2021-09-13T14:24:01Z</time>
      </trkpt>
      <trkpt lat="53.621574807912111" lon="9.952111076563597">
        <ele>14.800000000000001</ele>
        <time>2021-09-13T14:24:02Z</time>
      </trkpt>
      <trkpt lat="53.621588721871376" lon="9.952111579477787">
        <ele>14.800000000000001</ele>
        <time>2021-09-13T14:24:03Z</time>
      </trkpt>
      <trkpt lat="53.621835485100746" lon="9.952227082103491">
        <ele>14.4</ele>
        <time>2021-09-13T14:24:16Z</time>
      </trkpt>
      <trkpt lat="53.622179729864001" lon="9.952032370492816">
        <ele>13.9</ele>
        <time>2021-09-13T14:24:29Z</time>
      </trkpt>
      <trkpt lat="53.622549036517739" lon="9.951609335839748">
        <ele>13.9</ele>
        <time>2021-09-13T14:24:46Z</time>
      </trkpt>
      <trkpt lat="53.622795380651951" lon="9.951151600107551">
        <ele>13.4</ele>
        <time>2021-09-13T14:24:57Z</time>
      </trkpt>
      <trkpt lat="53.62319553270936" lon="9.950504181906581">
        <ele>12.699999999999999</ele>
        <time>2021-09-13T14:25:12Z</time>
      </trkpt>
      <trkpt lat="53.623488647863269" lon="9.950016858056188">
        <ele>11.9</ele>
        <time>2021-09-13T14:25:28Z</time>
      </trkpt>
      <trkpt lat="53.623489821329713" lon="9.949999172240496">
        <ele>11.800000000000001</ele>
        <time>2021-09-13T14:25:33Z</time>
      </trkpt>
      <trkpt lat="53.623530808836222" lon="9.949963297694922">
        <ele>11.699999999999999</ele>
        <time>2021-09-13T14:25:50Z</time>
      </trkpt>
      <trkpt lat="53.623551093041897" lon="9.949948377907276">
        <ele>11.699999999999999</ele>
        <time>2021-09-13T14:25:51Z</time>
      </trkpt>
      <trkpt lat="53.623573137447238" lon="9.94992314837873">
        <ele>11.699999999999999</ele>
        <time>2021-09-13T14:25:52Z</time>
      </trkpt>
      <trkpt lat="53.62359425984323" lon="9.949898421764374">
        <ele>11.699999999999999</ele>
        <time>2021-09-13T14:25:53Z</time>
      </trkpt>
      <trkpt lat="53.623952670022845" lon="9.949368182569742">
        <ele>11.800000000000001</ele>
        <time>2021-09-13T14:26:07Z</time>
      </trkpt>
      <trkpt lat="53.624420631676912" lon="9.948621103540063">
        <ele>11.300000000000001</ele>
        <time>2021-09-13T14:26:22Z</time>
      </trkpt>
      <trkpt lat="53.62461400218308" lon="9.948334190994501">
        <ele>11.300000000000001</ele>
        <time>2021-09-13T14:26:28Z</time>
      </trkpt>
      <trkpt lat="53.624645853415132" lon="9.948282726109028">
        <ele>11.199999999999999</ele>
        <time>2021-09-13T14:26:29Z</time>
      </trkpt>
      <trkpt lat="53.624676950275898" lon="9.948230758309364">
        <ele>11.199999999999999</ele>
        <time>2021-09-13T14:26:30Z</time>
      </trkpt>
      <trkpt lat="53.625345909968019" lon="9.947244711220264">
        <ele>10.800000000000001</ele>
        <time>2021-09-13T14:26:51Z</time>
      </trkpt>
      <trkpt lat="53.625847063958645" lon="9.946554629132152">
        <ele>10.6</ele>
        <time>2021-09-13T14:27:07Z</time>
      </trkpt>
      <trkpt lat="53.626382919028401" lon="9.945694142952561">
        <ele>9.9</ele>
        <time>2021-09-13T14:27:24Z</time>
      </trkpt>
      <trkpt lat="53.626773683354259" lon="9.944831812754273">
        <ele>9.1</ele>
        <time>2021-09-13T14:27:38Z</time>
      </trkpt>
      <trkpt lat="53.626823471859097" lon="9.944710358977318">
        <ele>9</ele>
        <time>2021-09-13T14:27:40Z</time>
      </trkpt>
      <trkpt lat="53.626845180988312" lon="9.944650512188673">
        <ele>8.9</ele>
        <time>2021-09-13T14:27:41Z</time>
      </trkpt>
      <trkpt lat="53.626866135746241" lon="9.944596365094185">
        <ele>8.9</ele>
        <time>2021-09-13T14:27:42Z</time>
      </trkpt>
      <trkpt lat="53.626886671409011" lon="9.944540541619062">
        <ele>8.9</ele>
        <time>2021-09-13T14:27:43Z</time>
      </trkpt>
      <trkpt lat="53.626908380538225" lon="9.944490417838097">
        <ele>8.800000000000001</ele>
        <time>2021-09-13T14:27:44Z</time>
      </trkpt>
      <trkpt lat="53.626930173486471" lon="9.944448340684176">
        <ele>8.800000000000001</ele>
        <time>2021-09-13T14:27:45Z</time>
      </trkpt>
      <trkpt lat="53.626948110759258" lon="9.944408442825079">
        <ele>8.800000000000001</ele>
        <time>2021-09-13T14:27:46Z</time>
      </trkpt>
      <trkpt lat="53.626961018890142" lon="9.944368209689856">
        <ele>8.699999999999999</ele>
        <time>2021-09-13T14:27:47Z</time>
      </trkpt>
      <trkpt lat="53.626974681392312" lon="9.944325378164649">
        <ele>8.699999999999999</ele>
        <time>2021-09-13T14:27:48Z</time>
      </trkpt>
      <trkpt lat="53.627151371911168" lon="9.943825230002403">
        <ele>9.1</ele>
        <time>2021-09-13T14:28:02Z</time>
      </trkpt>
      <trkpt lat="53.627168135717511" lon="9.943810142576695">
        <ele>9.1</ele>
        <time>2021-09-13T14:28:03Z</time>
      </trkpt>
      <trkpt lat="53.627186492085457" lon="9.943802682682872">
        <ele>9.1</ele>
        <time>2021-09-13T14:28:04Z</time>
      </trkpt>
      <trkpt lat="53.627249859273434" lon="9.943760270252824">
        <ele>8.800000000000001</ele>
        <time>2021-09-13T14:28:11Z</time>
      </trkpt>
    </trkseg>
  </trk>

</gpx>
